<?xml version="1.0" encoding="UTF-8" standalone="no" ?>
<gpx xmlns="http://www.topografix.com/GPX/1/1" xmlns:xsi="http://www.w3.org/2001/XMLSchema-instance" xsi:schemaLocation="http://www.topografix.com/GPX/1/1 http://www.topografix.com/GPX/1/1/gpx.xsd" version="1.1" creator="VisuGPX - https://www.visugpx.com">
  <metadata>
    <name>Mon premier 50 km</name>
    <desc><![CDATA[Boucle dans le Vercors]]></desc>
  </metadata>
  <trk>
    <name><![CDATA[20-AOU-11 15:22:29 steph]]></name>
    <trkseg>
      <trkpt lat="45.16558" lon="5.63286">
        <ele>1225.82</ele>
        <time>2011-08-20T05:43:43Z</time>
      </trkpt>
      <trkpt lat="45.16558" lon="5.63286">
        <ele>1224.38</ele>
        <time>2011-08-20T05:43:46Z</time>
      </trkpt>
      <trkpt lat="45.16558" lon="5.63286">
        <ele>1226.78</ele>
        <time>2011-08-20T05:44:08Z</time>
      </trkpt>
      <trkpt lat="45.16564" lon="5.63275">
        <ele>1226.3</ele>
        <time>2011-08-20T05:44:16Z</time>
      </trkpt>
      <trkpt lat="45.16554" lon="5.63264">
        <ele>1228.22</ele>
        <time>2011-08-20T05:44:23Z</time>
      </trkpt>
      <trkpt lat="45.16528" lon="5.63257">
        <ele>1231.11</ele>
        <time>2011-08-20T05:44:37Z</time>
      </trkpt>
      <trkpt lat="45.16513" lon="5.63252">
        <ele>1232.55</ele>
        <time>2011-08-20T05:44:48Z</time>
      </trkpt>
      <trkpt lat="45.16499" lon="5.63249">
        <ele>1234.95</ele>
        <time>2011-08-20T05:44:58Z</time>
      </trkpt>
      <trkpt lat="45.16492" lon="5.63244">
        <ele>1236.39</ele>
        <time>2011-08-20T05:45:04Z</time>
      </trkpt>
      <trkpt lat="45.16478" lon="5.63236">
        <ele>1237.35</ele>
        <time>2011-08-20T05:45:14Z</time>
      </trkpt>
      <trkpt lat="45.16465" lon="5.63223">
        <ele>1239.28</ele>
        <time>2011-08-20T05:45:25Z</time>
      </trkpt>
      <trkpt lat="45.16457" lon="5.63215">
        <ele>1239.76</ele>
        <time>2011-08-20T05:45:32Z</time>
      </trkpt>
      <trkpt lat="45.16443" lon="5.63201">
        <ele>1242.16</ele>
        <time>2011-08-20T05:45:44Z</time>
      </trkpt>
      <trkpt lat="45.16427" lon="5.63184">
        <ele>1245.04</ele>
        <time>2011-08-20T05:45:56Z</time>
      </trkpt>
      <trkpt lat="45.16415" lon="5.63178">
        <ele>1246.01</ele>
        <time>2011-08-20T05:46:04Z</time>
      </trkpt>
      <trkpt lat="45.16402" lon="5.63174">
        <ele>1247.93</ele>
        <time>2011-08-20T05:46:14Z</time>
      </trkpt>
      <trkpt lat="45.16393" lon="5.63168">
        <ele>1249.37</ele>
        <time>2011-08-20T05:46:21Z</time>
      </trkpt>
      <trkpt lat="45.16386" lon="5.63157">
        <ele>1250.33</ele>
        <time>2011-08-20T05:46:26Z</time>
      </trkpt>
      <trkpt lat="45.16362" lon="5.63132">
        <ele>1251.29</ele>
        <time>2011-08-20T05:46:41Z</time>
      </trkpt>
      <trkpt lat="45.16353" lon="5.63124">
        <ele>1252.25</ele>
        <time>2011-08-20T05:46:47Z</time>
      </trkpt>
      <trkpt lat="45.16334" lon="5.63107">
        <ele>1255.62</ele>
        <time>2011-08-20T05:47:01Z</time>
      </trkpt>
      <trkpt lat="45.16316" lon="5.63096">
        <ele>1258.02</ele>
        <time>2011-08-20T05:47:13Z</time>
      </trkpt>
      <trkpt lat="45.16285" lon="5.6308">
        <ele>1260.43</ele>
        <time>2011-08-20T05:47:28Z</time>
      </trkpt>
      <trkpt lat="45.1626" lon="5.63072">
        <ele>1260.43</ele>
        <time>2011-08-20T05:47:37Z</time>
      </trkpt>
      <trkpt lat="45.16232" lon="5.63061">
        <ele>1259.46</ele>
        <time>2011-08-20T05:47:45Z</time>
      </trkpt>
      <trkpt lat="45.16211" lon="5.63054">
        <ele>1259.46</ele>
        <time>2011-08-20T05:47:50Z</time>
      </trkpt>
      <trkpt lat="45.16167" lon="5.63033">
        <ele>1258.02</ele>
        <time>2011-08-20T05:47:59Z</time>
      </trkpt>
      <trkpt lat="45.16162" lon="5.6303">
        <ele>1257.54</ele>
        <time>2011-08-20T05:48:00Z</time>
      </trkpt>
      <trkpt lat="45.16157" lon="5.63026">
        <ele>1257.06</ele>
        <time>2011-08-20T05:48:01Z</time>
      </trkpt>
      <trkpt lat="45.16151" lon="5.6302">
        <ele>1257.06</ele>
        <time>2011-08-20T05:48:02Z</time>
      </trkpt>
      <trkpt lat="45.16146" lon="5.63014">
        <ele>1256.58</ele>
        <time>2011-08-20T05:48:03Z</time>
      </trkpt>
      <trkpt lat="45.16116" lon="5.62976">
        <ele>1254.66</ele>
        <time>2011-08-20T05:48:09Z</time>
      </trkpt>
      <trkpt lat="45.16111" lon="5.62967">
        <ele>1254.66</ele>
        <time>2011-08-20T05:48:10Z</time>
      </trkpt>
      <trkpt lat="45.16107" lon="5.62958">
        <ele>1253.7</ele>
        <time>2011-08-20T05:48:11Z</time>
      </trkpt>
      <trkpt lat="45.16104" lon="5.62949">
        <ele>1253.22</ele>
        <time>2011-08-20T05:48:12Z</time>
      </trkpt>
      <trkpt lat="45.16102" lon="5.62939">
        <ele>1253.7</ele>
        <time>2011-08-20T05:48:13Z</time>
      </trkpt>
      <trkpt lat="45.16101" lon="5.62929">
        <ele>1253.22</ele>
        <time>2011-08-20T05:48:14Z</time>
      </trkpt>
      <trkpt lat="45.161" lon="5.6292">
        <ele>1253.7</ele>
        <time>2011-08-20T05:48:15Z</time>
      </trkpt>
      <trkpt lat="45.161" lon="5.62866">
        <ele>1256.58</ele>
        <time>2011-08-20T05:48:23Z</time>
      </trkpt>
      <trkpt lat="45.16099" lon="5.62858">
        <ele>1257.06</ele>
        <time>2011-08-20T05:48:25Z</time>
      </trkpt>
      <trkpt lat="45.16098" lon="5.62854">
        <ele>1257.54</ele>
        <time>2011-08-20T05:48:26Z</time>
      </trkpt>
      <trkpt lat="45.16097" lon="5.6285">
        <ele>1257.54</ele>
        <time>2011-08-20T05:48:27Z</time>
      </trkpt>
      <trkpt lat="45.16096" lon="5.62845">
        <ele>1258.02</ele>
        <time>2011-08-20T05:48:28Z</time>
      </trkpt>
      <trkpt lat="45.16095" lon="5.6284">
        <ele>1258.5</ele>
        <time>2011-08-20T05:48:29Z</time>
      </trkpt>
      <trkpt lat="45.16094" lon="5.62835">
        <ele>1258.98</ele>
        <time>2011-08-20T05:48:30Z</time>
      </trkpt>
      <trkpt lat="45.16093" lon="5.6283">
        <ele>1258.98</ele>
        <time>2011-08-20T05:48:31Z</time>
      </trkpt>
      <trkpt lat="45.16078" lon="5.6278">
        <ele>1259.46</ele>
        <time>2011-08-20T05:48:40Z</time>
      </trkpt>
      <trkpt lat="45.16073" lon="5.62758">
        <ele>1258.5</ele>
        <time>2011-08-20T05:48:43Z</time>
      </trkpt>
      <trkpt lat="45.16069" lon="5.62734">
        <ele>1258.02</ele>
        <time>2011-08-20T05:48:46Z</time>
      </trkpt>
      <trkpt lat="45.16068" lon="5.62726">
        <ele>1258.5</ele>
        <time>2011-08-20T05:48:47Z</time>
      </trkpt>
      <trkpt lat="45.16061" lon="5.6268">
        <ele>1258.98</ele>
        <time>2011-08-20T05:48:53Z</time>
      </trkpt>
      <trkpt lat="45.1606" lon="5.62673">
        <ele>1258.98</ele>
        <time>2011-08-20T05:48:54Z</time>
      </trkpt>
      <trkpt lat="45.16047" lon="5.62592">
        <ele>1255.62</ele>
        <time>2011-08-20T05:49:03Z</time>
      </trkpt>
      <trkpt lat="45.16045" lon="5.62582">
        <ele>1255.62</ele>
        <time>2011-08-20T05:49:04Z</time>
      </trkpt>
      <trkpt lat="45.16042" lon="5.62572">
        <ele>1254.66</ele>
        <time>2011-08-20T05:49:05Z</time>
      </trkpt>
      <trkpt lat="45.16038" lon="5.62563">
        <ele>1254.66</ele>
        <time>2011-08-20T05:49:06Z</time>
      </trkpt>
      <trkpt lat="45.16026" lon="5.62539">
        <ele>1254.18</ele>
        <time>2011-08-20T05:49:09Z</time>
      </trkpt>
      <trkpt lat="45.15987" lon="5.62476">
        <ele>1255.62</ele>
        <time>2011-08-20T05:49:19Z</time>
      </trkpt>
      <trkpt lat="45.15981" lon="5.62464">
        <ele>1256.1</ele>
        <time>2011-08-20T05:49:21Z</time>
      </trkpt>
      <trkpt lat="45.15976" lon="5.62453">
        <ele>1256.58</ele>
        <time>2011-08-20T05:49:23Z</time>
      </trkpt>
      <trkpt lat="45.15958" lon="5.62424">
        <ele>1258.02</ele>
        <time>2011-08-20T05:49:29Z</time>
      </trkpt>
      <trkpt lat="45.15955" lon="5.6242">
        <ele>1258.02</ele>
        <time>2011-08-20T05:49:30Z</time>
      </trkpt>
      <trkpt lat="45.15953" lon="5.62415">
        <ele>1258.5</ele>
        <time>2011-08-20T05:49:31Z</time>
      </trkpt>
      <trkpt lat="45.1595" lon="5.62411">
        <ele>1258.02</ele>
        <time>2011-08-20T05:49:32Z</time>
      </trkpt>
      <trkpt lat="45.15947" lon="5.62406">
        <ele>1258.5</ele>
        <time>2011-08-20T05:49:33Z</time>
      </trkpt>
      <trkpt lat="45.15933" lon="5.62382">
        <ele>1258.98</ele>
        <time>2011-08-20T05:49:38Z</time>
      </trkpt>
      <trkpt lat="45.1593" lon="5.62377">
        <ele>1258.5</ele>
        <time>2011-08-20T05:49:39Z</time>
      </trkpt>
      <trkpt lat="45.15927" lon="5.62372">
        <ele>1258.98</ele>
        <time>2011-08-20T05:49:40Z</time>
      </trkpt>
      <trkpt lat="45.15923" lon="5.62366">
        <ele>1258.98</ele>
        <time>2011-08-20T05:49:41Z</time>
      </trkpt>
      <trkpt lat="45.1592" lon="5.62361">
        <ele>1258.98</ele>
        <time>2011-08-20T05:49:42Z</time>
      </trkpt>
      <trkpt lat="45.15916" lon="5.62355">
        <ele>1258.5</ele>
        <time>2011-08-20T05:49:43Z</time>
      </trkpt>
      <trkpt lat="45.15909" lon="5.62342">
        <ele>1257.54</ele>
        <time>2011-08-20T05:49:45Z</time>
      </trkpt>
      <trkpt lat="45.159" lon="5.62327">
        <ele>1256.1</ele>
        <time>2011-08-20T05:49:47Z</time>
      </trkpt>
      <trkpt lat="45.15895" lon="5.6232">
        <ele>1256.1</ele>
        <time>2011-08-20T05:49:48Z</time>
      </trkpt>
      <trkpt lat="45.1589" lon="5.62313">
        <ele>1255.62</ele>
        <time>2011-08-20T05:49:49Z</time>
      </trkpt>
      <trkpt lat="45.15884" lon="5.62306">
        <ele>1254.66</ele>
        <time>2011-08-20T05:49:50Z</time>
      </trkpt>
      <trkpt lat="45.15877" lon="5.62302">
        <ele>1255.14</ele>
        <time>2011-08-20T05:49:51Z</time>
      </trkpt>
      <trkpt lat="45.15864" lon="5.62295">
        <ele>1255.14</ele>
        <time>2011-08-20T05:49:53Z</time>
      </trkpt>
      <trkpt lat="45.15858" lon="5.62294">
        <ele>1255.62</ele>
        <time>2011-08-20T05:49:54Z</time>
      </trkpt>
      <trkpt lat="45.15852" lon="5.62294">
        <ele>1255.62</ele>
        <time>2011-08-20T05:49:55Z</time>
      </trkpt>
      <trkpt lat="45.15846" lon="5.62295">
        <ele>1255.14</ele>
        <time>2011-08-20T05:49:56Z</time>
      </trkpt>
      <trkpt lat="45.15841" lon="5.62297">
        <ele>1255.62</ele>
        <time>2011-08-20T05:49:57Z</time>
      </trkpt>
      <trkpt lat="45.15785" lon="5.62311">
        <ele>1254.66</ele>
        <time>2011-08-20T05:50:06Z</time>
      </trkpt>
      <trkpt lat="45.15778" lon="5.62312">
        <ele>1254.66</ele>
        <time>2011-08-20T05:50:07Z</time>
      </trkpt>
      <trkpt lat="45.15772" lon="5.62312">
        <ele>1254.18</ele>
        <time>2011-08-20T05:50:08Z</time>
      </trkpt>
      <trkpt lat="45.15729" lon="5.62318">
        <ele>1252.25</ele>
        <time>2011-08-20T05:50:14Z</time>
      </trkpt>
      <trkpt lat="45.15722" lon="5.62321">
        <ele>1251.77</ele>
        <time>2011-08-20T05:50:15Z</time>
      </trkpt>
      <trkpt lat="45.15702" lon="5.62334">
        <ele>1249.85</ele>
        <time>2011-08-20T05:50:18Z</time>
      </trkpt>
      <trkpt lat="45.15682" lon="5.62354">
        <ele>1246.97</ele>
        <time>2011-08-20T05:50:21Z</time>
      </trkpt>
      <trkpt lat="45.15652" lon="5.62393">
        <ele>1247.45</ele>
        <time>2011-08-20T05:50:26Z</time>
      </trkpt>
      <trkpt lat="45.15643" lon="5.62409">
        <ele>1249.37</ele>
        <time>2011-08-20T05:50:29Z</time>
      </trkpt>
      <trkpt lat="45.15638" lon="5.62415">
        <ele>1250.33</ele>
        <time>2011-08-20T05:50:31Z</time>
      </trkpt>
      <trkpt lat="45.15635" lon="5.62417">
        <ele>1250.81</ele>
        <time>2011-08-20T05:50:32Z</time>
      </trkpt>
      <trkpt lat="45.15633" lon="5.62421">
        <ele>1250.81</ele>
        <time>2011-08-20T05:50:33Z</time>
      </trkpt>
      <trkpt lat="45.15632" lon="5.62424">
        <ele>1251.29</ele>
        <time>2011-08-20T05:50:34Z</time>
      </trkpt>
      <trkpt lat="45.1563" lon="5.62427">
        <ele>1251.77</ele>
        <time>2011-08-20T05:50:35Z</time>
      </trkpt>
      <trkpt lat="45.15628" lon="5.6243">
        <ele>1251.77</ele>
        <time>2011-08-20T05:50:36Z</time>
      </trkpt>
      <trkpt lat="45.15626" lon="5.62434">
        <ele>1252.25</ele>
        <time>2011-08-20T05:50:37Z</time>
      </trkpt>
      <trkpt lat="45.15624" lon="5.62437">
        <ele>1252.74</ele>
        <time>2011-08-20T05:50:38Z</time>
      </trkpt>
      <trkpt lat="45.15608" lon="5.62468">
        <ele>1256.1</ele>
        <time>2011-08-20T05:50:49Z</time>
      </trkpt>
      <trkpt lat="45.15603" lon="5.62471">
        <ele>1255.62</ele>
        <time>2011-08-20T05:50:51Z</time>
      </trkpt>
      <trkpt lat="45.15601" lon="5.62474">
        <ele>1256.58</ele>
        <time>2011-08-20T05:50:52Z</time>
      </trkpt>
      <trkpt lat="45.156" lon="5.62477">
        <ele>1256.58</ele>
        <time>2011-08-20T05:50:53Z</time>
      </trkpt>
      <trkpt lat="45.15599" lon="5.6248">
        <ele>1256.58</ele>
        <time>2011-08-20T05:50:54Z</time>
      </trkpt>
      <trkpt lat="45.15596" lon="5.62487">
        <ele>1257.54</ele>
        <time>2011-08-20T05:50:57Z</time>
      </trkpt>
      <trkpt lat="45.15596" lon="5.6249">
        <ele>1257.54</ele>
        <time>2011-08-20T05:50:58Z</time>
      </trkpt>
      <trkpt lat="45.15595" lon="5.62493">
        <ele>1258.02</ele>
        <time>2011-08-20T05:50:59Z</time>
      </trkpt>
      <trkpt lat="45.15593" lon="5.62495">
        <ele>1258.5</ele>
        <time>2011-08-20T05:51:00Z</time>
      </trkpt>
      <trkpt lat="45.15592" lon="5.62498">
        <ele>1258.5</ele>
        <time>2011-08-20T05:51:01Z</time>
      </trkpt>
      <trkpt lat="45.15591" lon="5.62501">
        <ele>1258.98</ele>
        <time>2011-08-20T05:51:02Z</time>
      </trkpt>
      <trkpt lat="45.1559" lon="5.62504">
        <ele>1259.46</ele>
        <time>2011-08-20T05:51:03Z</time>
      </trkpt>
      <trkpt lat="45.15582" lon="5.6252">
        <ele>1259.94</ele>
        <time>2011-08-20T05:51:09Z</time>
      </trkpt>
      <trkpt lat="45.1558" lon="5.62522">
        <ele>1260.43</ele>
        <time>2011-08-20T05:51:10Z</time>
      </trkpt>
      <trkpt lat="45.1556" lon="5.62551">
        <ele>1262.83</ele>
        <time>2011-08-20T05:51:23Z</time>
      </trkpt>
      <trkpt lat="45.1554" lon="5.62583">
        <ele>1265.71</ele>
        <time>2011-08-20T05:51:37Z</time>
      </trkpt>
      <trkpt lat="45.15528" lon="5.62605">
        <ele>1268.12</ele>
        <time>2011-08-20T05:51:47Z</time>
      </trkpt>
      <trkpt lat="45.15527" lon="5.62608">
        <ele>1268.12</ele>
        <time>2011-08-20T05:51:48Z</time>
      </trkpt>
      <trkpt lat="45.15526" lon="5.62611">
        <ele>1268.12</ele>
        <time>2011-08-20T05:51:49Z</time>
      </trkpt>
      <trkpt lat="45.15525" lon="5.62614">
        <ele>1269.08</ele>
        <time>2011-08-20T05:51:50Z</time>
      </trkpt>
      <trkpt lat="45.15524" lon="5.62616">
        <ele>1269.08</ele>
        <time>2011-08-20T05:51:51Z</time>
      </trkpt>
      <trkpt lat="45.15523" lon="5.62619">
        <ele>1269.08</ele>
        <time>2011-08-20T05:51:52Z</time>
      </trkpt>
      <trkpt lat="45.15522" lon="5.62622">
        <ele>1269.08</ele>
        <time>2011-08-20T05:51:53Z</time>
      </trkpt>
      <trkpt lat="45.15521" lon="5.62625">
        <ele>1268.6</ele>
        <time>2011-08-20T05:51:54Z</time>
      </trkpt>
      <trkpt lat="45.1552" lon="5.62627">
        <ele>1269.56</ele>
        <time>2011-08-20T05:51:55Z</time>
      </trkpt>
      <trkpt lat="45.15506" lon="5.6266">
        <ele>1272.44</ele>
        <time>2011-08-20T05:52:08Z</time>
      </trkpt>
      <trkpt lat="45.15501" lon="5.62696">
        <ele>1274.36</ele>
        <time>2011-08-20T05:52:20Z</time>
      </trkpt>
      <trkpt lat="45.15499" lon="5.62721">
        <ele>1275.81</ele>
        <time>2011-08-20T05:52:29Z</time>
      </trkpt>
      <trkpt lat="45.15498" lon="5.62723">
        <ele>1276.29</ele>
        <time>2011-08-20T05:52:30Z</time>
      </trkpt>
      <trkpt lat="45.15497" lon="5.62725">
        <ele>1276.29</ele>
        <time>2011-08-20T05:52:31Z</time>
      </trkpt>
      <trkpt lat="45.15475" lon="5.62751">
        <ele>1278.21</ele>
        <time>2011-08-20T05:52:44Z</time>
      </trkpt>
      <trkpt lat="45.15437" lon="5.6276">
        <ele>1278.69</ele>
        <time>2011-08-20T05:52:55Z</time>
      </trkpt>
      <trkpt lat="45.15395" lon="5.6276">
        <ele>1280.13</ele>
        <time>2011-08-20T05:53:06Z</time>
      </trkpt>
      <trkpt lat="45.1538" lon="5.62755">
        <ele>1279.65</ele>
        <time>2011-08-20T05:53:10Z</time>
      </trkpt>
      <trkpt lat="45.15376" lon="5.62753">
        <ele>1279.17</ele>
        <time>2011-08-20T05:53:11Z</time>
      </trkpt>
      <trkpt lat="45.15372" lon="5.62752">
        <ele>1279.65</ele>
        <time>2011-08-20T05:53:12Z</time>
      </trkpt>
      <trkpt lat="45.15365" lon="5.62745">
        <ele>1278.69</ele>
        <time>2011-08-20T05:53:14Z</time>
      </trkpt>
      <trkpt lat="45.15362" lon="5.62741">
        <ele>1278.21</ele>
        <time>2011-08-20T05:53:15Z</time>
      </trkpt>
      <trkpt lat="45.15353" lon="5.62725">
        <ele>1277.73</ele>
        <time>2011-08-20T05:53:18Z</time>
      </trkpt>
      <trkpt lat="45.15349" lon="5.6271">
        <ele>1277.25</ele>
        <time>2011-08-20T05:53:20Z</time>
      </trkpt>
      <trkpt lat="45.15345" lon="5.62703">
        <ele>1276.77</ele>
        <time>2011-08-20T05:53:21Z</time>
      </trkpt>
      <trkpt lat="45.15341" lon="5.62695">
        <ele>1277.25</ele>
        <time>2011-08-20T05:53:22Z</time>
      </trkpt>
      <trkpt lat="45.15336" lon="5.62689">
        <ele>1276.29</ele>
        <time>2011-08-20T05:53:23Z</time>
      </trkpt>
      <trkpt lat="45.15332" lon="5.62683">
        <ele>1276.29</ele>
        <time>2011-08-20T05:53:24Z</time>
      </trkpt>
      <trkpt lat="45.15328" lon="5.62678">
        <ele>1276.77</ele>
        <time>2011-08-20T05:53:25Z</time>
      </trkpt>
      <trkpt lat="45.15323" lon="5.62674">
        <ele>1276.77</ele>
        <time>2011-08-20T05:53:26Z</time>
      </trkpt>
      <trkpt lat="45.15319" lon="5.62671">
        <ele>1277.25</ele>
        <time>2011-08-20T05:53:27Z</time>
      </trkpt>
      <trkpt lat="45.15315" lon="5.62668">
        <ele>1277.25</ele>
        <time>2011-08-20T05:53:28Z</time>
      </trkpt>
      <trkpt lat="45.15287" lon="5.62642">
        <ele>1280.13</ele>
        <time>2011-08-20T05:53:38Z</time>
      </trkpt>
      <trkpt lat="45.1526" lon="5.62603">
        <ele>1281.57</ele>
        <time>2011-08-20T05:53:50Z</time>
      </trkpt>
      <trkpt lat="45.15249" lon="5.62595">
        <ele>1281.09</ele>
        <time>2011-08-20T05:53:53Z</time>
      </trkpt>
      <trkpt lat="45.15244" lon="5.62594">
        <ele>1280.61</ele>
        <time>2011-08-20T05:53:54Z</time>
      </trkpt>
      <trkpt lat="45.15224" lon="5.62589">
        <ele>1279.65</ele>
        <time>2011-08-20T05:53:58Z</time>
      </trkpt>
      <trkpt lat="45.15204" lon="5.62584">
        <ele>1278.69</ele>
        <time>2011-08-20T05:54:01Z</time>
      </trkpt>
      <trkpt lat="45.15165" lon="5.62572">
        <ele>1276.77</ele>
        <time>2011-08-20T05:54:07Z</time>
      </trkpt>
      <trkpt lat="45.15159" lon="5.62572">
        <ele>1276.77</ele>
        <time>2011-08-20T05:54:08Z</time>
      </trkpt>
      <trkpt lat="45.15152" lon="5.62574">
        <ele>1276.29</ele>
        <time>2011-08-20T05:54:09Z</time>
      </trkpt>
      <trkpt lat="45.15146" lon="5.62577">
        <ele>1275.81</ele>
        <time>2011-08-20T05:54:10Z</time>
      </trkpt>
      <trkpt lat="45.1514" lon="5.62581">
        <ele>1275.81</ele>
        <time>2011-08-20T05:54:11Z</time>
      </trkpt>
      <trkpt lat="45.15134" lon="5.62586">
        <ele>1274.85</ele>
        <time>2011-08-20T05:54:12Z</time>
      </trkpt>
      <trkpt lat="45.15128" lon="5.62592">
        <ele>1274.36</ele>
        <time>2011-08-20T05:54:13Z</time>
      </trkpt>
      <trkpt lat="45.15121" lon="5.62597">
        <ele>1273.4</ele>
        <time>2011-08-20T05:54:14Z</time>
      </trkpt>
      <trkpt lat="45.15114" lon="5.62599">
        <ele>1273.88</ele>
        <time>2011-08-20T05:54:15Z</time>
      </trkpt>
      <trkpt lat="45.15107" lon="5.626">
        <ele>1273.88</ele>
        <time>2011-08-20T05:54:16Z</time>
      </trkpt>
      <trkpt lat="45.15101" lon="5.62598">
        <ele>1273.4</ele>
        <time>2011-08-20T05:54:17Z</time>
      </trkpt>
      <trkpt lat="45.15094" lon="5.62595">
        <ele>1273.4</ele>
        <time>2011-08-20T05:54:18Z</time>
      </trkpt>
      <trkpt lat="45.15088" lon="5.62592">
        <ele>1272.92</ele>
        <time>2011-08-20T05:54:19Z</time>
      </trkpt>
      <trkpt lat="45.15076" lon="5.62585">
        <ele>1271.96</ele>
        <time>2011-08-20T05:54:21Z</time>
      </trkpt>
      <trkpt lat="45.1507" lon="5.62584">
        <ele>1271.48</ele>
        <time>2011-08-20T05:54:22Z</time>
      </trkpt>
      <trkpt lat="45.15064" lon="5.62585">
        <ele>1270.52</ele>
        <time>2011-08-20T05:54:23Z</time>
      </trkpt>
      <trkpt lat="45.15058" lon="5.62589">
        <ele>1270.04</ele>
        <time>2011-08-20T05:54:24Z</time>
      </trkpt>
      <trkpt lat="45.15053" lon="5.62595">
        <ele>1269.56</ele>
        <time>2011-08-20T05:54:25Z</time>
      </trkpt>
      <trkpt lat="45.15048" lon="5.62601">
        <ele>1268.6</ele>
        <time>2011-08-20T05:54:26Z</time>
      </trkpt>
      <trkpt lat="45.15042" lon="5.62605">
        <ele>1268.12</ele>
        <time>2011-08-20T05:54:27Z</time>
      </trkpt>
      <trkpt lat="45.15035" lon="5.62607">
        <ele>1267.64</ele>
        <time>2011-08-20T05:54:28Z</time>
      </trkpt>
      <trkpt lat="45.15027" lon="5.62607">
        <ele>1266.67</ele>
        <time>2011-08-20T05:54:29Z</time>
      </trkpt>
      <trkpt lat="45.1502" lon="5.62606">
        <ele>1266.67</ele>
        <time>2011-08-20T05:54:30Z</time>
      </trkpt>
      <trkpt lat="45.14961" lon="5.62597">
        <ele>1263.31</ele>
        <time>2011-08-20T05:54:37Z</time>
      </trkpt>
      <trkpt lat="45.14953" lon="5.62592">
        <ele>1262.83</ele>
        <time>2011-08-20T05:54:38Z</time>
      </trkpt>
      <trkpt lat="45.14945" lon="5.62585">
        <ele>1261.39</ele>
        <time>2011-08-20T05:54:39Z</time>
      </trkpt>
      <trkpt lat="45.14937" lon="5.62576">
        <ele>1260.43</ele>
        <time>2011-08-20T05:54:40Z</time>
      </trkpt>
      <trkpt lat="45.14929" lon="5.62568">
        <ele>1260.43</ele>
        <time>2011-08-20T05:54:41Z</time>
      </trkpt>
      <trkpt lat="45.14921" lon="5.62561">
        <ele>1259.94</ele>
        <time>2011-08-20T05:54:42Z</time>
      </trkpt>
      <trkpt lat="45.14912" lon="5.62555">
        <ele>1258.98</ele>
        <time>2011-08-20T05:54:43Z</time>
      </trkpt>
      <trkpt lat="45.14903" lon="5.62551">
        <ele>1257.54</ele>
        <time>2011-08-20T05:54:44Z</time>
      </trkpt>
      <trkpt lat="45.14893" lon="5.62548">
        <ele>1257.54</ele>
        <time>2011-08-20T05:54:45Z</time>
      </trkpt>
      <trkpt lat="45.14883" lon="5.62548">
        <ele>1256.58</ele>
        <time>2011-08-20T05:54:46Z</time>
      </trkpt>
      <trkpt lat="45.14874" lon="5.6255">
        <ele>1256.1</ele>
        <time>2011-08-20T05:54:47Z</time>
      </trkpt>
      <trkpt lat="45.14864" lon="5.62555">
        <ele>1254.66</ele>
        <time>2011-08-20T05:54:48Z</time>
      </trkpt>
      <trkpt lat="45.14856" lon="5.6256">
        <ele>1254.18</ele>
        <time>2011-08-20T05:54:49Z</time>
      </trkpt>
      <trkpt lat="45.14847" lon="5.62565">
        <ele>1252.74</ele>
        <time>2011-08-20T05:54:50Z</time>
      </trkpt>
      <trkpt lat="45.14837" lon="5.62569">
        <ele>1252.25</ele>
        <time>2011-08-20T05:54:51Z</time>
      </trkpt>
      <trkpt lat="45.14828" lon="5.6257">
        <ele>1251.29</ele>
        <time>2011-08-20T05:54:52Z</time>
      </trkpt>
      <trkpt lat="45.14818" lon="5.62569">
        <ele>1251.29</ele>
        <time>2011-08-20T05:54:53Z</time>
      </trkpt>
      <trkpt lat="45.14777" lon="5.62565">
        <ele>1246.97</ele>
        <time>2011-08-20T05:54:57Z</time>
      </trkpt>
      <trkpt lat="45.14766" lon="5.62564">
        <ele>1246.97</ele>
        <time>2011-08-20T05:54:58Z</time>
      </trkpt>
      <trkpt lat="45.14734" lon="5.6256">
        <ele>1244.56</ele>
        <time>2011-08-20T05:55:01Z</time>
      </trkpt>
      <trkpt lat="45.147" lon="5.62555">
        <ele>1241.2</ele>
        <time>2011-08-20T05:55:04Z</time>
      </trkpt>
      <trkpt lat="45.14679" lon="5.62552">
        <ele>1240.72</ele>
        <time>2011-08-20T05:55:06Z</time>
      </trkpt>
      <trkpt lat="45.1465" lon="5.62546">
        <ele>1240.24</ele>
        <time>2011-08-20T05:55:09Z</time>
      </trkpt>
      <trkpt lat="45.14586" lon="5.62533">
        <ele>1239.28</ele>
        <time>2011-08-20T05:55:16Z</time>
      </trkpt>
      <trkpt lat="45.14521" lon="5.62491">
        <ele>1237.35</ele>
        <time>2011-08-20T05:55:25Z</time>
      </trkpt>
      <trkpt lat="45.14513" lon="5.62488">
        <ele>1237.35</ele>
        <time>2011-08-20T05:55:26Z</time>
      </trkpt>
      <trkpt lat="45.14432" lon="5.6247">
        <ele>1235.91</ele>
        <time>2011-08-20T05:55:37Z</time>
      </trkpt>
      <trkpt lat="45.14374" lon="5.62455">
        <ele>1234.47</ele>
        <time>2011-08-20T05:55:45Z</time>
      </trkpt>
      <trkpt lat="45.14355" lon="5.62449">
        <ele>1234.47</ele>
        <time>2011-08-20T05:55:48Z</time>
      </trkpt>
      <trkpt lat="45.14348" lon="5.62447">
        <ele>1234.47</ele>
        <time>2011-08-20T05:55:49Z</time>
      </trkpt>
      <trkpt lat="45.14319" lon="5.62432">
        <ele>1235.43</ele>
        <time>2011-08-20T05:55:54Z</time>
      </trkpt>
      <trkpt lat="45.14314" lon="5.62429">
        <ele>1235.43</ele>
        <time>2011-08-20T05:55:55Z</time>
      </trkpt>
      <trkpt lat="45.14309" lon="5.62427">
        <ele>1235.91</ele>
        <time>2011-08-20T05:55:56Z</time>
      </trkpt>
      <trkpt lat="45.14304" lon="5.62424">
        <ele>1235.91</ele>
        <time>2011-08-20T05:55:57Z</time>
      </trkpt>
      <trkpt lat="45.14299" lon="5.62421">
        <ele>1236.39</ele>
        <time>2011-08-20T05:55:58Z</time>
      </trkpt>
      <trkpt lat="45.14295" lon="5.62417">
        <ele>1236.87</ele>
        <time>2011-08-20T05:55:59Z</time>
      </trkpt>
      <trkpt lat="45.14291" lon="5.62414">
        <ele>1236.87</ele>
        <time>2011-08-20T05:56:00Z</time>
      </trkpt>
      <trkpt lat="45.14286" lon="5.6241">
        <ele>1236.87</ele>
        <time>2011-08-20T05:56:01Z</time>
      </trkpt>
      <trkpt lat="45.14282" lon="5.62405">
        <ele>1236.87</ele>
        <time>2011-08-20T05:56:02Z</time>
      </trkpt>
      <trkpt lat="45.14278" lon="5.62402">
        <ele>1237.35</ele>
        <time>2011-08-20T05:56:03Z</time>
      </trkpt>
      <trkpt lat="45.14269" lon="5.62392">
        <ele>1237.35</ele>
        <time>2011-08-20T05:56:05Z</time>
      </trkpt>
      <trkpt lat="45.14265" lon="5.62387">
        <ele>1236.87</ele>
        <time>2011-08-20T05:56:06Z</time>
      </trkpt>
      <trkpt lat="45.14216" lon="5.62325">
        <ele>1237.35</ele>
        <time>2011-08-20T05:56:18Z</time>
      </trkpt>
      <trkpt lat="45.14211" lon="5.62321">
        <ele>1237.83</ele>
        <time>2011-08-20T05:56:19Z</time>
      </trkpt>
      <trkpt lat="45.14206" lon="5.62316">
        <ele>1237.83</ele>
        <time>2011-08-20T05:56:20Z</time>
      </trkpt>
      <trkpt lat="45.14182" lon="5.62293">
        <ele>1238.8</ele>
        <time>2011-08-20T05:56:26Z</time>
      </trkpt>
      <trkpt lat="45.14178" lon="5.62287">
        <ele>1238.32</ele>
        <time>2011-08-20T05:56:27Z</time>
      </trkpt>
      <trkpt lat="45.14174" lon="5.62283">
        <ele>1238.32</ele>
        <time>2011-08-20T05:56:28Z</time>
      </trkpt>
      <trkpt lat="45.14162" lon="5.62269">
        <ele>1238.8</ele>
        <time>2011-08-20T05:56:31Z</time>
      </trkpt>
      <trkpt lat="45.14159" lon="5.62264">
        <ele>1238.8</ele>
        <time>2011-08-20T05:56:32Z</time>
      </trkpt>
      <trkpt lat="45.14155" lon="5.62259">
        <ele>1238.8</ele>
        <time>2011-08-20T05:56:33Z</time>
      </trkpt>
      <trkpt lat="45.14148" lon="5.62247">
        <ele>1238.8</ele>
        <time>2011-08-20T05:56:35Z</time>
      </trkpt>
      <trkpt lat="45.14133" lon="5.62216">
        <ele>1238.32</ele>
        <time>2011-08-20T05:56:40Z</time>
      </trkpt>
      <trkpt lat="45.14129" lon="5.62201">
        <ele>1238.32</ele>
        <time>2011-08-20T05:56:42Z</time>
      </trkpt>
      <trkpt lat="45.14127" lon="5.62195">
        <ele>1238.32</ele>
        <time>2011-08-20T05:56:43Z</time>
      </trkpt>
      <trkpt lat="45.14125" lon="5.62187">
        <ele>1238.32</ele>
        <time>2011-08-20T05:56:44Z</time>
      </trkpt>
      <trkpt lat="45.14122" lon="5.6218">
        <ele>1238.32</ele>
        <time>2011-08-20T05:56:45Z</time>
      </trkpt>
      <trkpt lat="45.14119" lon="5.62172">
        <ele>1237.83</ele>
        <time>2011-08-20T05:56:46Z</time>
      </trkpt>
      <trkpt lat="45.14116" lon="5.62165">
        <ele>1238.8</ele>
        <time>2011-08-20T05:56:47Z</time>
      </trkpt>
      <trkpt lat="45.14113" lon="5.62159">
        <ele>1238.8</ele>
        <time>2011-08-20T05:56:48Z</time>
      </trkpt>
      <trkpt lat="45.1411" lon="5.62153">
        <ele>1238.8</ele>
        <time>2011-08-20T05:56:49Z</time>
      </trkpt>
      <trkpt lat="45.14106" lon="5.62147">
        <ele>1238.8</ele>
        <time>2011-08-20T05:56:50Z</time>
      </trkpt>
      <trkpt lat="45.14103" lon="5.62141">
        <ele>1238.8</ele>
        <time>2011-08-20T05:56:51Z</time>
      </trkpt>
      <trkpt lat="45.141" lon="5.62136">
        <ele>1238.8</ele>
        <time>2011-08-20T05:56:52Z</time>
      </trkpt>
      <trkpt lat="45.14096" lon="5.62131">
        <ele>1238.32</ele>
        <time>2011-08-20T05:56:53Z</time>
      </trkpt>
      <trkpt lat="45.14078" lon="5.62111">
        <ele>1238.32</ele>
        <time>2011-08-20T05:56:57Z</time>
      </trkpt>
      <trkpt lat="45.14074" lon="5.62106">
        <ele>1238.8</ele>
        <time>2011-08-20T05:56:58Z</time>
      </trkpt>
      <trkpt lat="45.1407" lon="5.62103">
        <ele>1239.28</ele>
        <time>2011-08-20T05:56:59Z</time>
      </trkpt>
      <trkpt lat="45.14066" lon="5.62099">
        <ele>1239.28</ele>
        <time>2011-08-20T05:57:00Z</time>
      </trkpt>
      <trkpt lat="45.14062" lon="5.62095">
        <ele>1239.76</ele>
        <time>2011-08-20T05:57:01Z</time>
      </trkpt>
      <trkpt lat="45.14058" lon="5.6209">
        <ele>1240.24</ele>
        <time>2011-08-20T05:57:02Z</time>
      </trkpt>
      <trkpt lat="45.14055" lon="5.62085">
        <ele>1240.24</ele>
        <time>2011-08-20T05:57:03Z</time>
      </trkpt>
      <trkpt lat="45.14032" lon="5.6204">
        <ele>1242.64</ele>
        <time>2011-08-20T05:57:13Z</time>
      </trkpt>
      <trkpt lat="45.14031" lon="5.62036">
        <ele>1242.64</ele>
        <time>2011-08-20T05:57:14Z</time>
      </trkpt>
      <trkpt lat="45.14031" lon="5.62032">
        <ele>1243.12</ele>
        <time>2011-08-20T05:57:15Z</time>
      </trkpt>
      <trkpt lat="45.1403" lon="5.62028">
        <ele>1243.6</ele>
        <time>2011-08-20T05:57:16Z</time>
      </trkpt>
      <trkpt lat="45.14017" lon="5.61992">
        <ele>1245.53</ele>
        <time>2011-08-20T05:57:26Z</time>
      </trkpt>
      <trkpt lat="45.14007" lon="5.61954">
        <ele>1246.01</ele>
        <time>2011-08-20T05:57:35Z</time>
      </trkpt>
      <trkpt lat="45.13985" lon="5.61905">
        <ele>1247.45</ele>
        <time>2011-08-20T05:57:46Z</time>
      </trkpt>
      <trkpt lat="45.13961" lon="5.61849">
        <ele>1248.89</ele>
        <time>2011-08-20T05:57:59Z</time>
      </trkpt>
      <trkpt lat="45.13944" lon="5.61792">
        <ele>1249.85</ele>
        <time>2011-08-20T05:58:10Z</time>
      </trkpt>
      <trkpt lat="45.13937" lon="5.61743">
        <ele>1249.85</ele>
        <time>2011-08-20T05:58:19Z</time>
      </trkpt>
      <trkpt lat="45.13934" lon="5.61718">
        <ele>1250.33</ele>
        <time>2011-08-20T05:58:23Z</time>
      </trkpt>
      <trkpt lat="45.13933" lon="5.61706">
        <ele>1249.85</ele>
        <time>2011-08-20T05:58:25Z</time>
      </trkpt>
      <trkpt lat="45.13932" lon="5.617">
        <ele>1249.85</ele>
        <time>2011-08-20T05:58:26Z</time>
      </trkpt>
      <trkpt lat="45.13934" lon="5.61674">
        <ele>1249.85</ele>
        <time>2011-08-20T05:58:30Z</time>
      </trkpt>
      <trkpt lat="45.13936" lon="5.61667">
        <ele>1249.37</ele>
        <time>2011-08-20T05:58:31Z</time>
      </trkpt>
      <trkpt lat="45.13938" lon="5.61661">
        <ele>1249.85</ele>
        <time>2011-08-20T05:58:32Z</time>
      </trkpt>
      <trkpt lat="45.1394" lon="5.61655">
        <ele>1249.85</ele>
        <time>2011-08-20T05:58:33Z</time>
      </trkpt>
      <trkpt lat="45.13943" lon="5.6165">
        <ele>1249.37</ele>
        <time>2011-08-20T05:58:34Z</time>
      </trkpt>
      <trkpt lat="45.13946" lon="5.61644">
        <ele>1249.85</ele>
        <time>2011-08-20T05:58:35Z</time>
      </trkpt>
      <trkpt lat="45.13948" lon="5.61638">
        <ele>1249.85</ele>
        <time>2011-08-20T05:58:36Z</time>
      </trkpt>
      <trkpt lat="45.13951" lon="5.61632">
        <ele>1249.37</ele>
        <time>2011-08-20T05:58:37Z</time>
      </trkpt>
      <trkpt lat="45.13954" lon="5.61626">
        <ele>1249.85</ele>
        <time>2011-08-20T05:58:38Z</time>
      </trkpt>
      <trkpt lat="45.13963" lon="5.61609">
        <ele>1249.85</ele>
        <time>2011-08-20T05:58:41Z</time>
      </trkpt>
      <trkpt lat="45.13967" lon="5.61603">
        <ele>1249.85</ele>
        <time>2011-08-20T05:58:42Z</time>
      </trkpt>
      <trkpt lat="45.13971" lon="5.61598">
        <ele>1249.85</ele>
        <time>2011-08-20T05:58:43Z</time>
      </trkpt>
      <trkpt lat="45.13997" lon="5.61554">
        <ele>1250.81</ele>
        <time>2011-08-20T05:58:52Z</time>
      </trkpt>
      <trkpt lat="45.13998" lon="5.61548">
        <ele>1250.81</ele>
        <time>2011-08-20T05:58:53Z</time>
      </trkpt>
      <trkpt lat="45.14002" lon="5.61524">
        <ele>1251.29</ele>
        <time>2011-08-20T05:58:57Z</time>
      </trkpt>
      <trkpt lat="45.14004" lon="5.61519">
        <ele>1251.29</ele>
        <time>2011-08-20T05:58:58Z</time>
      </trkpt>
      <trkpt lat="45.14005" lon="5.61514">
        <ele>1251.77</ele>
        <time>2011-08-20T05:58:59Z</time>
      </trkpt>
      <trkpt lat="45.14007" lon="5.61509">
        <ele>1251.77</ele>
        <time>2011-08-20T05:59:00Z</time>
      </trkpt>
      <trkpt lat="45.14009" lon="5.61504">
        <ele>1251.77</ele>
        <time>2011-08-20T05:59:01Z</time>
      </trkpt>
      <trkpt lat="45.14011" lon="5.61499">
        <ele>1251.77</ele>
        <time>2011-08-20T05:59:02Z</time>
      </trkpt>
      <trkpt lat="45.14013" lon="5.61494">
        <ele>1252.25</ele>
        <time>2011-08-20T05:59:03Z</time>
      </trkpt>
      <trkpt lat="45.14014" lon="5.61489">
        <ele>1252.25</ele>
        <time>2011-08-20T05:59:04Z</time>
      </trkpt>
      <trkpt lat="45.14016" lon="5.61485">
        <ele>1252.25</ele>
        <time>2011-08-20T05:59:05Z</time>
      </trkpt>
      <trkpt lat="45.14019" lon="5.6148">
        <ele>1252.74</ele>
        <time>2011-08-20T05:59:06Z</time>
      </trkpt>
      <trkpt lat="45.14037" lon="5.61433">
        <ele>1254.18</ele>
        <time>2011-08-20T05:59:16Z</time>
      </trkpt>
      <trkpt lat="45.14054" lon="5.61375">
        <ele>1256.1</ele>
        <time>2011-08-20T05:59:27Z</time>
      </trkpt>
      <trkpt lat="45.14063" lon="5.61319">
        <ele>1258.02</ele>
        <time>2011-08-20T05:59:38Z</time>
      </trkpt>
      <trkpt lat="45.14064" lon="5.61292">
        <ele>1258.02</ele>
        <time>2011-08-20T05:59:43Z</time>
      </trkpt>
      <trkpt lat="45.14059" lon="5.61257">
        <ele>1258.98</ele>
        <time>2011-08-20T05:59:50Z</time>
      </trkpt>
      <trkpt lat="45.14056" lon="5.61243">
        <ele>1258.98</ele>
        <time>2011-08-20T05:59:52Z</time>
      </trkpt>
      <trkpt lat="45.14055" lon="5.61236">
        <ele>1258.98</ele>
        <time>2011-08-20T05:59:53Z</time>
      </trkpt>
      <trkpt lat="45.14049" lon="5.61211">
        <ele>1258.02</ele>
        <time>2011-08-20T05:59:57Z</time>
      </trkpt>
      <trkpt lat="45.14047" lon="5.61205">
        <ele>1258.5</ele>
        <time>2011-08-20T05:59:58Z</time>
      </trkpt>
      <trkpt lat="45.14045" lon="5.61199">
        <ele>1258.5</ele>
        <time>2011-08-20T05:59:59Z</time>
      </trkpt>
      <trkpt lat="45.14044" lon="5.61192">
        <ele>1258.5</ele>
        <time>2011-08-20T06:00:00Z</time>
      </trkpt>
      <trkpt lat="45.14042" lon="5.61185">
        <ele>1258.5</ele>
        <time>2011-08-20T06:00:01Z</time>
      </trkpt>
      <trkpt lat="45.14024" lon="5.61122">
        <ele>1257.54</ele>
        <time>2011-08-20T06:00:10Z</time>
      </trkpt>
      <trkpt lat="45.14018" lon="5.61108">
        <ele>1258.02</ele>
        <time>2011-08-20T06:00:12Z</time>
      </trkpt>
      <trkpt lat="45.14014" lon="5.61101">
        <ele>1257.54</ele>
        <time>2011-08-20T06:00:13Z</time>
      </trkpt>
      <trkpt lat="45.14005" lon="5.61089">
        <ele>1257.06</ele>
        <time>2011-08-20T06:00:15Z</time>
      </trkpt>
      <trkpt lat="45.13956" lon="5.61036">
        <ele>1256.58</ele>
        <time>2011-08-20T06:00:25Z</time>
      </trkpt>
      <trkpt lat="45.13938" lon="5.61022">
        <ele>1256.58</ele>
        <time>2011-08-20T06:00:28Z</time>
      </trkpt>
      <trkpt lat="45.13932" lon="5.61017">
        <ele>1256.1</ele>
        <time>2011-08-20T06:00:29Z</time>
      </trkpt>
      <trkpt lat="45.13865" lon="5.60975">
        <ele>1253.7</ele>
        <time>2011-08-20T06:00:40Z</time>
      </trkpt>
      <trkpt lat="45.13852" lon="5.60969">
        <ele>1253.22</ele>
        <time>2011-08-20T06:00:42Z</time>
      </trkpt>
      <trkpt lat="45.138" lon="5.60955">
        <ele>1253.22</ele>
        <time>2011-08-20T06:00:50Z</time>
      </trkpt>
      <trkpt lat="45.13795" lon="5.60953">
        <ele>1252.74</ele>
        <time>2011-08-20T06:00:51Z</time>
      </trkpt>
      <trkpt lat="45.13789" lon="5.60952">
        <ele>1252.74</ele>
        <time>2011-08-20T06:00:52Z</time>
      </trkpt>
      <trkpt lat="45.13784" lon="5.60951">
        <ele>1252.74</ele>
        <time>2011-08-20T06:00:53Z</time>
      </trkpt>
      <trkpt lat="45.13778" lon="5.6095">
        <ele>1252.25</ele>
        <time>2011-08-20T06:00:54Z</time>
      </trkpt>
      <trkpt lat="45.13765" lon="5.6095">
        <ele>1251.77</ele>
        <time>2011-08-20T06:00:56Z</time>
      </trkpt>
      <trkpt lat="45.13758" lon="5.60951">
        <ele>1251.29</ele>
        <time>2011-08-20T06:00:57Z</time>
      </trkpt>
      <trkpt lat="45.13751" lon="5.60951">
        <ele>1251.29</ele>
        <time>2011-08-20T06:00:58Z</time>
      </trkpt>
      <trkpt lat="45.13745" lon="5.60952">
        <ele>1250.33</ele>
        <time>2011-08-20T06:00:59Z</time>
      </trkpt>
      <trkpt lat="45.13738" lon="5.60954">
        <ele>1249.85</ele>
        <time>2011-08-20T06:01:00Z</time>
      </trkpt>
      <trkpt lat="45.13699" lon="5.60961">
        <ele>1247.93</ele>
        <time>2011-08-20T06:01:06Z</time>
      </trkpt>
      <trkpt lat="45.1368" lon="5.60957">
        <ele>1244.56</ele>
        <time>2011-08-20T06:01:10Z</time>
      </trkpt>
      <trkpt lat="45.13674" lon="5.60956">
        <ele>1242.16</ele>
        <time>2011-08-20T06:01:11Z</time>
      </trkpt>
      <trkpt lat="45.13667" lon="5.60957">
        <ele>1241.2</ele>
        <time>2011-08-20T06:01:12Z</time>
      </trkpt>
      <trkpt lat="45.1366" lon="5.60959">
        <ele>1241.2</ele>
        <time>2011-08-20T06:01:13Z</time>
      </trkpt>
      <trkpt lat="45.13653" lon="5.60963">
        <ele>1241.2</ele>
        <time>2011-08-20T06:01:14Z</time>
      </trkpt>
      <trkpt lat="45.13646" lon="5.60968">
        <ele>1240.24</ele>
        <time>2011-08-20T06:01:15Z</time>
      </trkpt>
      <trkpt lat="45.1364" lon="5.60972">
        <ele>1240.24</ele>
        <time>2011-08-20T06:01:16Z</time>
      </trkpt>
      <trkpt lat="45.13633" lon="5.60975">
        <ele>1240.72</ele>
        <time>2011-08-20T06:01:17Z</time>
      </trkpt>
      <trkpt lat="45.13606" lon="5.60987">
        <ele>1240.24</ele>
        <time>2011-08-20T06:01:21Z</time>
      </trkpt>
      <trkpt lat="45.136" lon="5.6099">
        <ele>1241.2</ele>
        <time>2011-08-20T06:01:22Z</time>
      </trkpt>
      <trkpt lat="45.1357" lon="5.61008">
        <ele>1240.24</ele>
        <time>2011-08-20T06:01:28Z</time>
      </trkpt>
      <trkpt lat="45.13564" lon="5.61009">
        <ele>1239.76</ele>
        <time>2011-08-20T06:01:29Z</time>
      </trkpt>
      <trkpt lat="45.13556" lon="5.61011">
        <ele>1237.83</ele>
        <time>2011-08-20T06:01:30Z</time>
      </trkpt>
      <trkpt lat="45.13549" lon="5.61014">
        <ele>1236.87</ele>
        <time>2011-08-20T06:01:31Z</time>
      </trkpt>
      <trkpt lat="45.13543" lon="5.61018">
        <ele>1235.43</ele>
        <time>2011-08-20T06:01:32Z</time>
      </trkpt>
      <trkpt lat="45.1353" lon="5.61026">
        <ele>1232.07</ele>
        <time>2011-08-20T06:01:34Z</time>
      </trkpt>
      <trkpt lat="45.13509" lon="5.61033">
        <ele>1227.74</ele>
        <time>2011-08-20T06:01:38Z</time>
      </trkpt>
      <trkpt lat="45.13503" lon="5.61034">
        <ele>1225.82</ele>
        <time>2011-08-20T06:01:39Z</time>
      </trkpt>
      <trkpt lat="45.13496" lon="5.61033">
        <ele>1223.9</ele>
        <time>2011-08-20T06:01:40Z</time>
      </trkpt>
      <trkpt lat="45.1348" lon="5.61029">
        <ele>1222.45</ele>
        <time>2011-08-20T06:01:42Z</time>
      </trkpt>
      <trkpt lat="45.13466" lon="5.61023">
        <ele>1219.57</ele>
        <time>2011-08-20T06:01:44Z</time>
      </trkpt>
      <trkpt lat="45.13453" lon="5.61015">
        <ele>1215.72</ele>
        <time>2011-08-20T06:01:46Z</time>
      </trkpt>
      <trkpt lat="45.13446" lon="5.61013">
        <ele>1213.8</ele>
        <time>2011-08-20T06:01:47Z</time>
      </trkpt>
      <trkpt lat="45.1344" lon="5.61012">
        <ele>1212.84</ele>
        <time>2011-08-20T06:01:48Z</time>
      </trkpt>
      <trkpt lat="45.13434" lon="5.61012">
        <ele>1211.88</ele>
        <time>2011-08-20T06:01:49Z</time>
      </trkpt>
      <trkpt lat="45.13423" lon="5.61015">
        <ele>1208.51</ele>
        <time>2011-08-20T06:01:51Z</time>
      </trkpt>
      <trkpt lat="45.13413" lon="5.61017">
        <ele>1205.63</ele>
        <time>2011-08-20T06:01:53Z</time>
      </trkpt>
      <trkpt lat="45.13408" lon="5.61019">
        <ele>1204.19</ele>
        <time>2011-08-20T06:01:54Z</time>
      </trkpt>
      <trkpt lat="45.13403" lon="5.61019">
        <ele>1203.23</ele>
        <time>2011-08-20T06:01:55Z</time>
      </trkpt>
      <trkpt lat="45.13386" lon="5.61019">
        <ele>1199.86</ele>
        <time>2011-08-20T06:01:58Z</time>
      </trkpt>
      <trkpt lat="45.13379" lon="5.61017">
        <ele>1198.9</ele>
        <time>2011-08-20T06:01:59Z</time>
      </trkpt>
      <trkpt lat="45.13373" lon="5.61015">
        <ele>1199.38</ele>
        <time>2011-08-20T06:02:00Z</time>
      </trkpt>
      <trkpt lat="45.13367" lon="5.61013">
        <ele>1199.38</ele>
        <time>2011-08-20T06:02:01Z</time>
      </trkpt>
      <trkpt lat="45.13361" lon="5.61012">
        <ele>1198.9</ele>
        <time>2011-08-20T06:02:02Z</time>
      </trkpt>
      <trkpt lat="45.13356" lon="5.61012">
        <ele>1199.86</ele>
        <time>2011-08-20T06:02:03Z</time>
      </trkpt>
      <trkpt lat="45.13353" lon="5.61012">
        <ele>1199.86</ele>
        <time>2011-08-20T06:02:04Z</time>
      </trkpt>
      <trkpt lat="45.13349" lon="5.61011">
        <ele>1199.86</ele>
        <time>2011-08-20T06:02:05Z</time>
      </trkpt>
      <trkpt lat="45.13345" lon="5.6101">
        <ele>1200.34</ele>
        <time>2011-08-20T06:02:06Z</time>
      </trkpt>
      <trkpt lat="45.13342" lon="5.61008">
        <ele>1200.34</ele>
        <time>2011-08-20T06:02:07Z</time>
      </trkpt>
      <trkpt lat="45.13338" lon="5.61006">
        <ele>1200.82</ele>
        <time>2011-08-20T06:02:08Z</time>
      </trkpt>
      <trkpt lat="45.13308" lon="5.60991">
        <ele>1200.34</ele>
        <time>2011-08-20T06:02:14Z</time>
      </trkpt>
      <trkpt lat="45.13303" lon="5.60985">
        <ele>1200.34</ele>
        <time>2011-08-20T06:02:15Z</time>
      </trkpt>
      <trkpt lat="45.13298" lon="5.60979">
        <ele>1200.34</ele>
        <time>2011-08-20T06:02:16Z</time>
      </trkpt>
      <trkpt lat="45.13292" lon="5.60976">
        <ele>1200.34</ele>
        <time>2011-08-20T06:02:17Z</time>
      </trkpt>
      <trkpt lat="45.13287" lon="5.60973">
        <ele>1200.34</ele>
        <time>2011-08-20T06:02:18Z</time>
      </trkpt>
      <trkpt lat="45.13281" lon="5.60972">
        <ele>1200.34</ele>
        <time>2011-08-20T06:02:19Z</time>
      </trkpt>
      <trkpt lat="45.13276" lon="5.60971">
        <ele>1200.34</ele>
        <time>2011-08-20T06:02:20Z</time>
      </trkpt>
      <trkpt lat="45.1327" lon="5.60969">
        <ele>1200.34</ele>
        <time>2011-08-20T06:02:21Z</time>
      </trkpt>
      <trkpt lat="45.13234" lon="5.60952">
        <ele>1199.86</ele>
        <time>2011-08-20T06:02:28Z</time>
      </trkpt>
      <trkpt lat="45.13229" lon="5.6095">
        <ele>1199.86</ele>
        <time>2011-08-20T06:02:29Z</time>
      </trkpt>
      <trkpt lat="45.13225" lon="5.60948">
        <ele>1199.86</ele>
        <time>2011-08-20T06:02:30Z</time>
      </trkpt>
      <trkpt lat="45.1322" lon="5.60947">
        <ele>1200.34</ele>
        <time>2011-08-20T06:02:31Z</time>
      </trkpt>
      <trkpt lat="45.13216" lon="5.60946">
        <ele>1200.34</ele>
        <time>2011-08-20T06:02:32Z</time>
      </trkpt>
      <trkpt lat="45.13211" lon="5.60945">
        <ele>1200.34</ele>
        <time>2011-08-20T06:02:33Z</time>
      </trkpt>
      <trkpt lat="45.13197" lon="5.6094">
        <ele>1199.38</ele>
        <time>2011-08-20T06:02:36Z</time>
      </trkpt>
      <trkpt lat="45.13191" lon="5.60939">
        <ele>1198.9</ele>
        <time>2011-08-20T06:02:37Z</time>
      </trkpt>
      <trkpt lat="45.13186" lon="5.60936">
        <ele>1197.94</ele>
        <time>2011-08-20T06:02:38Z</time>
      </trkpt>
      <trkpt lat="45.13173" lon="5.60928">
        <ele>1194.09</ele>
        <time>2011-08-20T06:02:41Z</time>
      </trkpt>
      <trkpt lat="45.13168" lon="5.60926">
        <ele>1192.65</ele>
        <time>2011-08-20T06:02:42Z</time>
      </trkpt>
      <trkpt lat="45.13163" lon="5.60923">
        <ele>1190.73</ele>
        <time>2011-08-20T06:02:43Z</time>
      </trkpt>
      <trkpt lat="45.13158" lon="5.60921">
        <ele>1189.29</ele>
        <time>2011-08-20T06:02:44Z</time>
      </trkpt>
      <trkpt lat="45.13153" lon="5.6092">
        <ele>1187.85</ele>
        <time>2011-08-20T06:02:45Z</time>
      </trkpt>
      <trkpt lat="45.13148" lon="5.60918">
        <ele>1186.4</ele>
        <time>2011-08-20T06:02:46Z</time>
      </trkpt>
      <trkpt lat="45.13131" lon="5.60911">
        <ele>1182.56</ele>
        <time>2011-08-20T06:02:49Z</time>
      </trkpt>
      <trkpt lat="45.13126" lon="5.60906">
        <ele>1181.12</ele>
        <time>2011-08-20T06:02:50Z</time>
      </trkpt>
      <trkpt lat="45.13121" lon="5.609">
        <ele>1179.67</ele>
        <time>2011-08-20T06:02:51Z</time>
      </trkpt>
      <trkpt lat="45.13115" lon="5.60896">
        <ele>1177.75</ele>
        <time>2011-08-20T06:02:52Z</time>
      </trkpt>
      <trkpt lat="45.13109" lon="5.60891">
        <ele>1175.83</ele>
        <time>2011-08-20T06:02:53Z</time>
      </trkpt>
      <trkpt lat="45.13097" lon="5.60881">
        <ele>1171.98</ele>
        <time>2011-08-20T06:02:55Z</time>
      </trkpt>
      <trkpt lat="45.13092" lon="5.60874">
        <ele>1171.02</ele>
        <time>2011-08-20T06:02:56Z</time>
      </trkpt>
      <trkpt lat="45.13089" lon="5.60867">
        <ele>1169.1</ele>
        <time>2011-08-20T06:02:57Z</time>
      </trkpt>
      <trkpt lat="45.13082" lon="5.60852">
        <ele>1165.74</ele>
        <time>2011-08-20T06:02:59Z</time>
      </trkpt>
      <trkpt lat="45.13075" lon="5.60838">
        <ele>1161.89</ele>
        <time>2011-08-20T06:03:01Z</time>
      </trkpt>
      <trkpt lat="45.1307" lon="5.60825">
        <ele>1159.01</ele>
        <time>2011-08-20T06:03:03Z</time>
      </trkpt>
      <trkpt lat="45.1307" lon="5.60818">
        <ele>1157.56</ele>
        <time>2011-08-20T06:03:04Z</time>
      </trkpt>
      <trkpt lat="45.1307" lon="5.60812">
        <ele>1156.12</ele>
        <time>2011-08-20T06:03:05Z</time>
      </trkpt>
      <trkpt lat="45.1307" lon="5.60805">
        <ele>1154.2</ele>
        <time>2011-08-20T06:03:06Z</time>
      </trkpt>
      <trkpt lat="45.13072" lon="5.60801">
        <ele>1153.72</ele>
        <time>2011-08-20T06:03:07Z</time>
      </trkpt>
      <trkpt lat="45.13073" lon="5.60792">
        <ele>1153.24</ele>
        <time>2011-08-20T06:03:08Z</time>
      </trkpt>
      <trkpt lat="45.13075" lon="5.6079">
        <ele>1152.28</ele>
        <time>2011-08-20T06:03:09Z</time>
      </trkpt>
      <trkpt lat="45.13078" lon="5.60788">
        <ele>1151.8</ele>
        <time>2011-08-20T06:03:10Z</time>
      </trkpt>
      <trkpt lat="45.13081" lon="5.60786">
        <ele>1150.84</ele>
        <time>2011-08-20T06:03:11Z</time>
      </trkpt>
      <trkpt lat="45.13084" lon="5.60783">
        <ele>1150.84</ele>
        <time>2011-08-20T06:03:12Z</time>
      </trkpt>
      <trkpt lat="45.13087" lon="5.60781">
        <ele>1149.87</ele>
        <time>2011-08-20T06:03:13Z</time>
      </trkpt>
      <trkpt lat="45.13091" lon="5.60779">
        <ele>1149.87</ele>
        <time>2011-08-20T06:03:14Z</time>
      </trkpt>
      <trkpt lat="45.13094" lon="5.60778">
        <ele>1149.39</ele>
        <time>2011-08-20T06:03:15Z</time>
      </trkpt>
      <trkpt lat="45.13097" lon="5.60777">
        <ele>1149.87</ele>
        <time>2011-08-20T06:03:16Z</time>
      </trkpt>
      <trkpt lat="45.13099" lon="5.60774">
        <ele>1148.91</ele>
        <time>2011-08-20T06:03:17Z</time>
      </trkpt>
      <trkpt lat="45.13102" lon="5.60769">
        <ele>1147.95</ele>
        <time>2011-08-20T06:03:18Z</time>
      </trkpt>
      <trkpt lat="45.13105" lon="5.60761">
        <ele>1146.03</ele>
        <time>2011-08-20T06:03:19Z</time>
      </trkpt>
      <trkpt lat="45.13109" lon="5.60751">
        <ele>1144.59</ele>
        <time>2011-08-20T06:03:20Z</time>
      </trkpt>
      <trkpt lat="45.13113" lon="5.60741">
        <ele>1142.66</ele>
        <time>2011-08-20T06:03:21Z</time>
      </trkpt>
      <trkpt lat="45.13121" lon="5.6072">
        <ele>1139.3</ele>
        <time>2011-08-20T06:03:23Z</time>
      </trkpt>
      <trkpt lat="45.13129" lon="5.60697">
        <ele>1135.45</ele>
        <time>2011-08-20T06:03:25Z</time>
      </trkpt>
      <trkpt lat="45.13138" lon="5.60669">
        <ele>1130.17</ele>
        <time>2011-08-20T06:03:28Z</time>
      </trkpt>
      <trkpt lat="45.13141" lon="5.60659">
        <ele>1129.21</ele>
        <time>2011-08-20T06:03:29Z</time>
      </trkpt>
      <trkpt lat="45.13147" lon="5.60638">
        <ele>1125.84</ele>
        <time>2011-08-20T06:03:31Z</time>
      </trkpt>
      <trkpt lat="45.1316" lon="5.60604">
        <ele>1121.03</ele>
        <time>2011-08-20T06:03:34Z</time>
      </trkpt>
      <trkpt lat="45.13169" lon="5.60581">
        <ele>1117.19</ele>
        <time>2011-08-20T06:03:36Z</time>
      </trkpt>
      <trkpt lat="45.13172" lon="5.60571">
        <ele>1115.75</ele>
        <time>2011-08-20T06:03:37Z</time>
      </trkpt>
      <trkpt lat="45.13179" lon="5.60551">
        <ele>1112.38</ele>
        <time>2011-08-20T06:03:39Z</time>
      </trkpt>
      <trkpt lat="45.13186" lon="5.60532">
        <ele>1109.02</ele>
        <time>2011-08-20T06:03:41Z</time>
      </trkpt>
      <trkpt lat="45.13189" lon="5.60522">
        <ele>1108.06</ele>
        <time>2011-08-20T06:03:42Z</time>
      </trkpt>
      <trkpt lat="45.13195" lon="5.60501">
        <ele>1103.73</ele>
        <time>2011-08-20T06:03:44Z</time>
      </trkpt>
      <trkpt lat="45.132" lon="5.6048">
        <ele>1099.89</ele>
        <time>2011-08-20T06:03:46Z</time>
      </trkpt>
      <trkpt lat="45.13203" lon="5.60473">
        <ele>1098.44</ele>
        <time>2011-08-20T06:03:47Z</time>
      </trkpt>
      <trkpt lat="45.13208" lon="5.60466">
        <ele>1097</ele>
        <time>2011-08-20T06:03:48Z</time>
      </trkpt>
      <trkpt lat="45.13225" lon="5.60446">
        <ele>1093.16</ele>
        <time>2011-08-20T06:03:51Z</time>
      </trkpt>
      <trkpt lat="45.13232" lon="5.60441">
        <ele>1092.2</ele>
        <time>2011-08-20T06:03:52Z</time>
      </trkpt>
      <trkpt lat="45.13237" lon="5.60438">
        <ele>1090.75</ele>
        <time>2011-08-20T06:03:53Z</time>
      </trkpt>
      <trkpt lat="45.13239" lon="5.60436">
        <ele>1089.79</ele>
        <time>2011-08-20T06:03:54Z</time>
      </trkpt>
      <trkpt lat="45.1324" lon="5.60435">
        <ele>1089.31</ele>
        <time>2011-08-20T06:03:55Z</time>
      </trkpt>
      <trkpt lat="45.13239" lon="5.60433">
        <ele>1089.31</ele>
        <time>2011-08-20T06:03:56Z</time>
      </trkpt>
      <trkpt lat="45.13239" lon="5.60432">
        <ele>1089.31</ele>
        <time>2011-08-20T06:03:57Z</time>
      </trkpt>
      <trkpt lat="45.13238" lon="5.6043">
        <ele>1088.83</ele>
        <time>2011-08-20T06:03:58Z</time>
      </trkpt>
      <trkpt lat="45.13237" lon="5.60428">
        <ele>1088.83</ele>
        <time>2011-08-20T06:03:59Z</time>
      </trkpt>
      <trkpt lat="45.13236" lon="5.60425">
        <ele>1089.31</ele>
        <time>2011-08-20T06:04:00Z</time>
      </trkpt>
      <trkpt lat="45.13235" lon="5.60422">
        <ele>1089.31</ele>
        <time>2011-08-20T06:04:01Z</time>
      </trkpt>
      <trkpt lat="45.13234" lon="5.60418">
        <ele>1088.83</ele>
        <time>2011-08-20T06:04:02Z</time>
      </trkpt>
      <trkpt lat="45.13233" lon="5.60415">
        <ele>1088.83</ele>
        <time>2011-08-20T06:04:03Z</time>
      </trkpt>
      <trkpt lat="45.13231" lon="5.60412">
        <ele>1088.83</ele>
        <time>2011-08-20T06:04:04Z</time>
      </trkpt>
      <trkpt lat="45.1323" lon="5.6041">
        <ele>1088.83</ele>
        <time>2011-08-20T06:04:05Z</time>
      </trkpt>
      <trkpt lat="45.13228" lon="5.60408">
        <ele>1088.83</ele>
        <time>2011-08-20T06:04:06Z</time>
      </trkpt>
      <trkpt lat="45.13228" lon="5.60407">
        <ele>1088.83</ele>
        <time>2011-08-20T06:04:16Z</time>
      </trkpt>
      <trkpt lat="45.13228" lon="5.60407">
        <ele>1084.99</ele>
        <time>2011-08-20T06:04:21Z</time>
      </trkpt>
      <trkpt lat="45.13228" lon="5.60407">
        <ele>1089.79</ele>
        <time>2011-08-20T06:04:22Z</time>
      </trkpt>
      <trkpt lat="45.13228" lon="5.60406">
        <ele>1087.87</ele>
        <time>2011-08-20T06:04:26Z</time>
      </trkpt>
      <trkpt lat="45.13226" lon="5.60405">
        <ele>1087.87</ele>
        <time>2011-08-20T06:04:27Z</time>
      </trkpt>
      <trkpt lat="45.13222" lon="5.60402">
        <ele>1087.87</ele>
        <time>2011-08-20T06:04:29Z</time>
      </trkpt>
      <trkpt lat="45.13221" lon="5.60398">
        <ele>1087.39</ele>
        <time>2011-08-20T06:04:30Z</time>
      </trkpt>
      <trkpt lat="45.13222" lon="5.60395">
        <ele>1087.87</ele>
        <time>2011-08-20T06:04:31Z</time>
      </trkpt>
      <trkpt lat="45.13225" lon="5.60394">
        <ele>1086.91</ele>
        <time>2011-08-20T06:04:32Z</time>
      </trkpt>
      <trkpt lat="45.13228" lon="5.60396">
        <ele>1086.91</ele>
        <time>2011-08-20T06:04:33Z</time>
      </trkpt>
      <trkpt lat="45.13231" lon="5.60399">
        <ele>1086.91</ele>
        <time>2011-08-20T06:04:34Z</time>
      </trkpt>
      <trkpt lat="45.13234" lon="5.60403">
        <ele>1085.95</ele>
        <time>2011-08-20T06:04:35Z</time>
      </trkpt>
      <trkpt lat="45.13239" lon="5.60406">
        <ele>1086.43</ele>
        <time>2011-08-20T06:04:36Z</time>
      </trkpt>
      <trkpt lat="45.13243" lon="5.6041">
        <ele>1085.47</ele>
        <time>2011-08-20T06:04:37Z</time>
      </trkpt>
      <trkpt lat="45.13248" lon="5.60415">
        <ele>1085.47</ele>
        <time>2011-08-20T06:04:38Z</time>
      </trkpt>
      <trkpt lat="45.13253" lon="5.60421">
        <ele>1085.47</ele>
        <time>2011-08-20T06:04:39Z</time>
      </trkpt>
      <trkpt lat="45.1326" lon="5.60426">
        <ele>1084.5</ele>
        <time>2011-08-20T06:04:40Z</time>
      </trkpt>
      <trkpt lat="45.13268" lon="5.60429">
        <ele>1083.54</ele>
        <time>2011-08-20T06:04:41Z</time>
      </trkpt>
      <trkpt lat="45.13276" lon="5.60431">
        <ele>1082.58</ele>
        <time>2011-08-20T06:04:42Z</time>
      </trkpt>
      <trkpt lat="45.13286" lon="5.6043">
        <ele>1080.18</ele>
        <time>2011-08-20T06:04:43Z</time>
      </trkpt>
      <trkpt lat="45.13295" lon="5.60426">
        <ele>1078.74</ele>
        <time>2011-08-20T06:04:44Z</time>
      </trkpt>
      <trkpt lat="45.13304" lon="5.60421">
        <ele>1076.81</ele>
        <time>2011-08-20T06:04:45Z</time>
      </trkpt>
      <trkpt lat="45.13312" lon="5.60416">
        <ele>1075.37</ele>
        <time>2011-08-20T06:04:46Z</time>
      </trkpt>
      <trkpt lat="45.13328" lon="5.60406">
        <ele>1071.53</ele>
        <time>2011-08-20T06:04:49Z</time>
      </trkpt>
      <trkpt lat="45.13335" lon="5.60405">
        <ele>1069.6</ele>
        <time>2011-08-20T06:04:52Z</time>
      </trkpt>
      <trkpt lat="45.13339" lon="5.60404">
        <ele>1068.16</ele>
        <time>2011-08-20T06:04:54Z</time>
      </trkpt>
      <trkpt lat="45.1334" lon="5.60402">
        <ele>1068.16</ele>
        <time>2011-08-20T06:04:55Z</time>
      </trkpt>
      <trkpt lat="45.13341" lon="5.604">
        <ele>1068.64</ele>
        <time>2011-08-20T06:04:56Z</time>
      </trkpt>
      <trkpt lat="45.13342" lon="5.60399">
        <ele>1067.68</ele>
        <time>2011-08-20T06:04:57Z</time>
      </trkpt>
      <trkpt lat="45.13344" lon="5.60397">
        <ele>1068.16</ele>
        <time>2011-08-20T06:04:58Z</time>
      </trkpt>
      <trkpt lat="45.13346" lon="5.60396">
        <ele>1068.16</ele>
        <time>2011-08-20T06:04:59Z</time>
      </trkpt>
      <trkpt lat="45.13348" lon="5.60395">
        <ele>1067.2</ele>
        <time>2011-08-20T06:05:00Z</time>
      </trkpt>
      <trkpt lat="45.13349" lon="5.60392">
        <ele>1068.16</ele>
        <time>2011-08-20T06:05:07Z</time>
      </trkpt>
      <trkpt lat="45.13348" lon="5.6039">
        <ele>1068.16</ele>
        <time>2011-08-20T06:05:08Z</time>
      </trkpt>
      <trkpt lat="45.13347" lon="5.60388">
        <ele>1062.39</ele>
        <time>2011-08-20T06:05:16Z</time>
      </trkpt>
      <trkpt lat="45.13347" lon="5.60388">
        <ele>1072.49</ele>
        <time>2011-08-20T06:05:17Z</time>
      </trkpt>
      <trkpt lat="45.13347" lon="5.60388">
        <ele>1068.16</ele>
        <time>2011-08-20T06:05:18Z</time>
      </trkpt>
      <trkpt lat="45.13347" lon="5.60388">
        <ele>1063.84</ele>
        <time>2011-08-20T06:05:22Z</time>
      </trkpt>
      <trkpt lat="45.13347" lon="5.60388">
        <ele>1069.12</ele>
        <time>2011-08-20T06:05:23Z</time>
      </trkpt>
      <trkpt lat="45.13347" lon="5.60389">
        <ele>1067.68</ele>
        <time>2011-08-20T06:05:24Z</time>
      </trkpt>
      <trkpt lat="45.13346" lon="5.60391">
        <ele>1066.72</ele>
        <time>2011-08-20T06:05:25Z</time>
      </trkpt>
      <trkpt lat="45.13349" lon="5.60393">
        <ele>1067.68</ele>
        <time>2011-08-20T06:05:27Z</time>
      </trkpt>
      <trkpt lat="45.13387" lon="5.6043">
        <ele>1065.28</ele>
        <time>2011-08-20T06:05:41Z</time>
      </trkpt>
      <trkpt lat="45.13396" lon="5.60434">
        <ele>1064.8</ele>
        <time>2011-08-20T06:05:43Z</time>
      </trkpt>
      <trkpt lat="45.134" lon="5.60432">
        <ele>1064.32</ele>
        <time>2011-08-20T06:05:44Z</time>
      </trkpt>
      <trkpt lat="45.13402" lon="5.60426">
        <ele>1063.36</ele>
        <time>2011-08-20T06:05:45Z</time>
      </trkpt>
      <trkpt lat="45.13402" lon="5.60418">
        <ele>1062.87</ele>
        <time>2011-08-20T06:05:46Z</time>
      </trkpt>
      <trkpt lat="45.134" lon="5.60412">
        <ele>1061.43</ele>
        <time>2011-08-20T06:05:47Z</time>
      </trkpt>
      <trkpt lat="45.13396" lon="5.60407">
        <ele>1061.43</ele>
        <time>2011-08-20T06:05:48Z</time>
      </trkpt>
      <trkpt lat="45.13393" lon="5.60403">
        <ele>1060.47</ele>
        <time>2011-08-20T06:05:49Z</time>
      </trkpt>
      <trkpt lat="45.1339" lon="5.60399">
        <ele>1059.99</ele>
        <time>2011-08-20T06:05:51Z</time>
      </trkpt>
      <trkpt lat="45.13388" lon="5.604">
        <ele>1060.47</ele>
        <time>2011-08-20T06:06:02Z</time>
      </trkpt>
      <trkpt lat="45.13387" lon="5.60399">
        <ele>1060.47</ele>
        <time>2011-08-20T06:06:03Z</time>
      </trkpt>
      <trkpt lat="45.13385" lon="5.60396">
        <ele>1059.51</ele>
        <time>2011-08-20T06:06:04Z</time>
      </trkpt>
      <trkpt lat="45.13384" lon="5.60393">
        <ele>1059.03</ele>
        <time>2011-08-20T06:06:05Z</time>
      </trkpt>
      <trkpt lat="45.13382" lon="5.60388">
        <ele>1059.03</ele>
        <time>2011-08-20T06:06:06Z</time>
      </trkpt>
      <trkpt lat="45.1338" lon="5.60383">
        <ele>1059.03</ele>
        <time>2011-08-20T06:06:07Z</time>
      </trkpt>
      <trkpt lat="45.13379" lon="5.60376">
        <ele>1058.55</ele>
        <time>2011-08-20T06:06:08Z</time>
      </trkpt>
      <trkpt lat="45.13379" lon="5.60369">
        <ele>1058.07</ele>
        <time>2011-08-20T06:06:09Z</time>
      </trkpt>
      <trkpt lat="45.13379" lon="5.60359">
        <ele>1057.59</ele>
        <time>2011-08-20T06:06:10Z</time>
      </trkpt>
      <trkpt lat="45.13381" lon="5.60349">
        <ele>1057.59</ele>
        <time>2011-08-20T06:06:11Z</time>
      </trkpt>
      <trkpt lat="45.13384" lon="5.60339">
        <ele>1056.63</ele>
        <time>2011-08-20T06:06:12Z</time>
      </trkpt>
      <trkpt lat="45.13394" lon="5.60305">
        <ele>1053.74</ele>
        <time>2011-08-20T06:06:15Z</time>
      </trkpt>
      <trkpt lat="45.13398" lon="5.60279">
        <ele>1051.34</ele>
        <time>2011-08-20T06:06:17Z</time>
      </trkpt>
      <trkpt lat="45.13397" lon="5.60264">
        <ele>1050.38</ele>
        <time>2011-08-20T06:06:18Z</time>
      </trkpt>
      <trkpt lat="45.13391" lon="5.60238">
        <ele>1047.97</ele>
        <time>2011-08-20T06:06:20Z</time>
      </trkpt>
      <trkpt lat="45.13391" lon="5.60226">
        <ele>1046.53</ele>
        <time>2011-08-20T06:06:21Z</time>
      </trkpt>
      <trkpt lat="45.13393" lon="5.60214">
        <ele>1045.57</ele>
        <time>2011-08-20T06:06:22Z</time>
      </trkpt>
      <trkpt lat="45.13401" lon="5.60191">
        <ele>1044.13</ele>
        <time>2011-08-20T06:06:24Z</time>
      </trkpt>
      <trkpt lat="45.13406" lon="5.6018">
        <ele>1043.17</ele>
        <time>2011-08-20T06:06:25Z</time>
      </trkpt>
      <trkpt lat="45.13412" lon="5.60171">
        <ele>1042.69</ele>
        <time>2011-08-20T06:06:26Z</time>
      </trkpt>
      <trkpt lat="45.13418" lon="5.60162">
        <ele>1042.21</ele>
        <time>2011-08-20T06:06:27Z</time>
      </trkpt>
      <trkpt lat="45.13426" lon="5.60156">
        <ele>1041.25</ele>
        <time>2011-08-20T06:06:28Z</time>
      </trkpt>
      <trkpt lat="45.13435" lon="5.60153">
        <ele>1040.28</ele>
        <time>2011-08-20T06:06:29Z</time>
      </trkpt>
      <trkpt lat="45.13444" lon="5.60151">
        <ele>1039.8</ele>
        <time>2011-08-20T06:06:30Z</time>
      </trkpt>
      <trkpt lat="45.13456" lon="5.60149">
        <ele>1038.84</ele>
        <time>2011-08-20T06:06:31Z</time>
      </trkpt>
      <trkpt lat="45.13465" lon="5.60148">
        <ele>1037.88</ele>
        <time>2011-08-20T06:06:32Z</time>
      </trkpt>
      <trkpt lat="45.13472" lon="5.60148">
        <ele>1037.4</ele>
        <time>2011-08-20T06:06:33Z</time>
      </trkpt>
      <trkpt lat="45.13478" lon="5.60147">
        <ele>1036.44</ele>
        <time>2011-08-20T06:06:34Z</time>
      </trkpt>
      <trkpt lat="45.13483" lon="5.60145">
        <ele>1036.44</ele>
        <time>2011-08-20T06:06:35Z</time>
      </trkpt>
      <trkpt lat="45.13487" lon="5.60141">
        <ele>1036.44</ele>
        <time>2011-08-20T06:06:36Z</time>
      </trkpt>
      <trkpt lat="45.13504" lon="5.601">
        <ele>1034.52</ele>
        <time>2011-08-20T06:06:42Z</time>
      </trkpt>
      <trkpt lat="45.1353" lon="5.6004">
        <ele>1031.63</ele>
        <time>2011-08-20T06:06:49Z</time>
      </trkpt>
      <trkpt lat="45.13554" lon="5.59979">
        <ele>1028.27</ele>
        <time>2011-08-20T06:06:55Z</time>
      </trkpt>
      <trkpt lat="45.13586" lon="5.59897">
        <ele>1022.02</ele>
        <time>2011-08-20T06:07:03Z</time>
      </trkpt>
      <trkpt lat="45.1359" lon="5.59889">
        <ele>1026.83</ele>
        <time>2011-08-20T06:07:04Z</time>
      </trkpt>
      <trkpt lat="45.13593" lon="5.5988">
        <ele>1025.86</ele>
        <time>2011-08-20T06:07:05Z</time>
      </trkpt>
      <trkpt lat="45.13608" lon="5.5984">
        <ele>1025.38</ele>
        <time>2011-08-20T06:07:13Z</time>
      </trkpt>
      <trkpt lat="45.13619" lon="5.59822">
        <ele>1024.9</ele>
        <time>2011-08-20T06:07:17Z</time>
      </trkpt>
      <trkpt lat="45.13623" lon="5.59817">
        <ele>1025.38</ele>
        <time>2011-08-20T06:07:18Z</time>
      </trkpt>
      <trkpt lat="45.13629" lon="5.59806">
        <ele>1024.42</ele>
        <time>2011-08-20T06:07:20Z</time>
      </trkpt>
      <trkpt lat="45.13632" lon="5.598">
        <ele>1024.42</ele>
        <time>2011-08-20T06:07:21Z</time>
      </trkpt>
      <trkpt lat="45.13655" lon="5.59762">
        <ele>1023.46</ele>
        <time>2011-08-20T06:07:27Z</time>
      </trkpt>
      <trkpt lat="45.13691" lon="5.59722">
        <ele>1022.02</ele>
        <time>2011-08-20T06:07:34Z</time>
      </trkpt>
      <trkpt lat="45.13714" lon="5.59689">
        <ele>1020.58</ele>
        <time>2011-08-20T06:07:39Z</time>
      </trkpt>
      <trkpt lat="45.13726" lon="5.59665">
        <ele>1020.58</ele>
        <time>2011-08-20T06:07:42Z</time>
      </trkpt>
      <trkpt lat="45.13768" lon="5.59591">
        <ele>1018.17</ele>
        <time>2011-08-20T06:07:51Z</time>
      </trkpt>
      <trkpt lat="45.1377" lon="5.59582">
        <ele>1018.17</ele>
        <time>2011-08-20T06:07:52Z</time>
      </trkpt>
      <trkpt lat="45.13771" lon="5.59573">
        <ele>1018.65</ele>
        <time>2011-08-20T06:07:53Z</time>
      </trkpt>
      <trkpt lat="45.13773" lon="5.59563">
        <ele>1018.65</ele>
        <time>2011-08-20T06:07:54Z</time>
      </trkpt>
      <trkpt lat="45.13773" lon="5.59553">
        <ele>1018.17</ele>
        <time>2011-08-20T06:07:55Z</time>
      </trkpt>
      <trkpt lat="45.13774" lon="5.59543">
        <ele>1018.17</ele>
        <time>2011-08-20T06:07:56Z</time>
      </trkpt>
      <trkpt lat="45.13777" lon="5.59459">
        <ele>1016.73</ele>
        <time>2011-08-20T06:08:04Z</time>
      </trkpt>
      <trkpt lat="45.13776" lon="5.59449">
        <ele>1015.77</ele>
        <time>2011-08-20T06:08:05Z</time>
      </trkpt>
      <trkpt lat="45.13775" lon="5.59442">
        <ele>1009.52</ele>
        <time>2011-08-20T06:08:06Z</time>
      </trkpt>
      <trkpt lat="45.13775" lon="5.59437">
        <ele>1013.85</ele>
        <time>2011-08-20T06:08:07Z</time>
      </trkpt>
      <trkpt lat="45.13777" lon="5.59433">
        <ele>1013.85</ele>
        <time>2011-08-20T06:08:08Z</time>
      </trkpt>
      <trkpt lat="45.1378" lon="5.59432">
        <ele>1013.37</ele>
        <time>2011-08-20T06:08:09Z</time>
      </trkpt>
      <trkpt lat="45.13784" lon="5.59433">
        <ele>1012.41</ele>
        <time>2011-08-20T06:08:10Z</time>
      </trkpt>
      <trkpt lat="45.1379" lon="5.59437">
        <ele>1011.93</ele>
        <time>2011-08-20T06:08:11Z</time>
      </trkpt>
      <trkpt lat="45.13796" lon="5.59443">
        <ele>1010.48</ele>
        <time>2011-08-20T06:08:12Z</time>
      </trkpt>
      <trkpt lat="45.1382" lon="5.59459">
        <ele>1006.64</ele>
        <time>2011-08-20T06:08:15Z</time>
      </trkpt>
      <trkpt lat="45.1383" lon="5.59463">
        <ele>1005.2</ele>
        <time>2011-08-20T06:08:16Z</time>
      </trkpt>
      <trkpt lat="45.1385" lon="5.5947">
        <ele>1002.31</ele>
        <time>2011-08-20T06:08:18Z</time>
      </trkpt>
      <trkpt lat="45.13893" lon="5.5948">
        <ele>997.99</ele>
        <time>2011-08-20T06:08:22Z</time>
      </trkpt>
      <trkpt lat="45.13902" lon="5.59484">
        <ele>996.54</ele>
        <time>2011-08-20T06:08:23Z</time>
      </trkpt>
      <trkpt lat="45.13924" lon="5.59492">
        <ele>993.18</ele>
        <time>2011-08-20T06:08:25Z</time>
      </trkpt>
      <trkpt lat="45.13948" lon="5.595">
        <ele>991.74</ele>
        <time>2011-08-20T06:08:27Z</time>
      </trkpt>
      <trkpt lat="45.13989" lon="5.59511">
        <ele>989.33</ele>
        <time>2011-08-20T06:08:31Z</time>
      </trkpt>
      <trkpt lat="45.13996" lon="5.59514">
        <ele>988.85</ele>
        <time>2011-08-20T06:08:32Z</time>
      </trkpt>
      <trkpt lat="45.14001" lon="5.59514">
        <ele>987.89</ele>
        <time>2011-08-20T06:08:33Z</time>
      </trkpt>
      <trkpt lat="45.14004" lon="5.59512">
        <ele>988.37</ele>
        <time>2011-08-20T06:08:34Z</time>
      </trkpt>
      <trkpt lat="45.14006" lon="5.59507">
        <ele>988.37</ele>
        <time>2011-08-20T06:08:35Z</time>
      </trkpt>
      <trkpt lat="45.14008" lon="5.59501">
        <ele>988.37</ele>
        <time>2011-08-20T06:08:36Z</time>
      </trkpt>
      <trkpt lat="45.14009" lon="5.59495">
        <ele>987.89</ele>
        <time>2011-08-20T06:08:37Z</time>
      </trkpt>
      <trkpt lat="45.1401" lon="5.59488">
        <ele>987.89</ele>
        <time>2011-08-20T06:08:38Z</time>
      </trkpt>
      <trkpt lat="45.1401" lon="5.5948">
        <ele>987.89</ele>
        <time>2011-08-20T06:08:39Z</time>
      </trkpt>
      <trkpt lat="45.14009" lon="5.59473">
        <ele>987.89</ele>
        <time>2011-08-20T06:08:40Z</time>
      </trkpt>
      <trkpt lat="45.14008" lon="5.59465">
        <ele>986.93</ele>
        <time>2011-08-20T06:08:41Z</time>
      </trkpt>
      <trkpt lat="45.14007" lon="5.59456">
        <ele>986.93</ele>
        <time>2011-08-20T06:08:42Z</time>
      </trkpt>
      <trkpt lat="45.14005" lon="5.59414">
        <ele>983.09</ele>
        <time>2011-08-20T06:08:46Z</time>
      </trkpt>
      <trkpt lat="45.14005" lon="5.59403">
        <ele>982.12</ele>
        <time>2011-08-20T06:08:47Z</time>
      </trkpt>
      <trkpt lat="45.14003" lon="5.59392">
        <ele>981.16</ele>
        <time>2011-08-20T06:08:48Z</time>
      </trkpt>
      <trkpt lat="45.13999" lon="5.59382">
        <ele>980.2</ele>
        <time>2011-08-20T06:08:49Z</time>
      </trkpt>
      <trkpt lat="45.1399" lon="5.59362">
        <ele>977.8</ele>
        <time>2011-08-20T06:08:51Z</time>
      </trkpt>
      <trkpt lat="45.13986" lon="5.5935">
        <ele>977.32</ele>
        <time>2011-08-20T06:08:52Z</time>
      </trkpt>
      <trkpt lat="45.13985" lon="5.59338">
        <ele>975.39</ele>
        <time>2011-08-20T06:08:53Z</time>
      </trkpt>
      <trkpt lat="45.13984" lon="5.59326">
        <ele>974.43</ele>
        <time>2011-08-20T06:08:54Z</time>
      </trkpt>
      <trkpt lat="45.13985" lon="5.59313">
        <ele>972.99</ele>
        <time>2011-08-20T06:08:55Z</time>
      </trkpt>
      <trkpt lat="45.13986" lon="5.59301">
        <ele>971.55</ele>
        <time>2011-08-20T06:08:56Z</time>
      </trkpt>
      <trkpt lat="45.13989" lon="5.59289">
        <ele>969.63</ele>
        <time>2011-08-20T06:08:57Z</time>
      </trkpt>
      <trkpt lat="45.13992" lon="5.59276">
        <ele>968.18</ele>
        <time>2011-08-20T06:08:58Z</time>
      </trkpt>
      <trkpt lat="45.13999" lon="5.59251">
        <ele>965.3</ele>
        <time>2011-08-20T06:09:00Z</time>
      </trkpt>
      <trkpt lat="45.14002" lon="5.59242">
        <ele>963.38</ele>
        <time>2011-08-20T06:09:01Z</time>
      </trkpt>
      <trkpt lat="45.14008" lon="5.59228">
        <ele>960.98</ele>
        <time>2011-08-20T06:09:03Z</time>
      </trkpt>
      <trkpt lat="45.14009" lon="5.59222">
        <ele>960.01</ele>
        <time>2011-08-20T06:09:04Z</time>
      </trkpt>
      <trkpt lat="45.14008" lon="5.59216">
        <ele>959.53</ele>
        <time>2011-08-20T06:09:05Z</time>
      </trkpt>
      <trkpt lat="45.14005" lon="5.5921">
        <ele>959.05</ele>
        <time>2011-08-20T06:09:06Z</time>
      </trkpt>
      <trkpt lat="45.14002" lon="5.59205">
        <ele>958.09</ele>
        <time>2011-08-20T06:09:07Z</time>
      </trkpt>
      <trkpt lat="45.14001" lon="5.59199">
        <ele>957.13</ele>
        <time>2011-08-20T06:09:08Z</time>
      </trkpt>
      <trkpt lat="45.14001" lon="5.59192">
        <ele>956.17</ele>
        <time>2011-08-20T06:09:09Z</time>
      </trkpt>
      <trkpt lat="45.14002" lon="5.59185">
        <ele>955.69</ele>
        <time>2011-08-20T06:09:10Z</time>
      </trkpt>
      <trkpt lat="45.14005" lon="5.59178">
        <ele>955.21</ele>
        <time>2011-08-20T06:09:11Z</time>
      </trkpt>
      <trkpt lat="45.14008" lon="5.59172">
        <ele>955.21</ele>
        <time>2011-08-20T06:09:12Z</time>
      </trkpt>
      <trkpt lat="45.14012" lon="5.59166">
        <ele>954.25</ele>
        <time>2011-08-20T06:09:13Z</time>
      </trkpt>
      <trkpt lat="45.14017" lon="5.5916">
        <ele>954.25</ele>
        <time>2011-08-20T06:09:14Z</time>
      </trkpt>
      <trkpt lat="45.14022" lon="5.59155">
        <ele>953.77</ele>
        <time>2011-08-20T06:09:15Z</time>
      </trkpt>
      <trkpt lat="45.14027" lon="5.5915">
        <ele>953.28</ele>
        <time>2011-08-20T06:09:16Z</time>
      </trkpt>
      <trkpt lat="45.14045" lon="5.59135">
        <ele>952.8</ele>
        <time>2011-08-20T06:09:19Z</time>
      </trkpt>
      <trkpt lat="45.14061" lon="5.59117">
        <ele>947.04</ele>
        <time>2011-08-20T06:09:22Z</time>
      </trkpt>
      <trkpt lat="45.14066" lon="5.59111">
        <ele>950.88</ele>
        <time>2011-08-20T06:09:23Z</time>
      </trkpt>
      <trkpt lat="45.14074" lon="5.59102">
        <ele>948.96</ele>
        <time>2011-08-20T06:09:25Z</time>
      </trkpt>
      <trkpt lat="45.1408" lon="5.59094">
        <ele>948</ele>
        <time>2011-08-20T06:09:27Z</time>
      </trkpt>
      <trkpt lat="45.14086" lon="5.59082">
        <ele>947.52</ele>
        <time>2011-08-20T06:09:31Z</time>
      </trkpt>
      <trkpt lat="45.14088" lon="5.5908">
        <ele>948</ele>
        <time>2011-08-20T06:09:32Z</time>
      </trkpt>
      <trkpt lat="45.14091" lon="5.59079">
        <ele>948</ele>
        <time>2011-08-20T06:09:33Z</time>
      </trkpt>
      <trkpt lat="45.14094" lon="5.59077">
        <ele>948</ele>
        <time>2011-08-20T06:09:34Z</time>
      </trkpt>
      <trkpt lat="45.14095" lon="5.59074">
        <ele>948</ele>
        <time>2011-08-20T06:09:35Z</time>
      </trkpt>
      <trkpt lat="45.14097" lon="5.59071">
        <ele>948.48</ele>
        <time>2011-08-20T06:09:36Z</time>
      </trkpt>
      <trkpt lat="45.14097" lon="5.59068">
        <ele>948.48</ele>
        <time>2011-08-20T06:09:37Z</time>
      </trkpt>
      <trkpt lat="45.14096" lon="5.59065">
        <ele>948.48</ele>
        <time>2011-08-20T06:09:38Z</time>
      </trkpt>
      <trkpt lat="45.14096" lon="5.59062">
        <ele>948.96</ele>
        <time>2011-08-20T06:09:39Z</time>
      </trkpt>
      <trkpt lat="45.14097" lon="5.59059">
        <ele>948.96</ele>
        <time>2011-08-20T06:09:40Z</time>
      </trkpt>
      <trkpt lat="45.14097" lon="5.59056">
        <ele>948.48</ele>
        <time>2011-08-20T06:09:41Z</time>
      </trkpt>
      <trkpt lat="45.14097" lon="5.59053">
        <ele>948.96</ele>
        <time>2011-08-20T06:09:42Z</time>
      </trkpt>
      <trkpt lat="45.14097" lon="5.5905">
        <ele>948.96</ele>
        <time>2011-08-20T06:09:43Z</time>
      </trkpt>
      <trkpt lat="45.14093" lon="5.58999">
        <ele>950.88</ele>
        <time>2011-08-20T06:09:57Z</time>
      </trkpt>
      <trkpt lat="45.14074" lon="5.58954">
        <ele>951.84</ele>
        <time>2011-08-20T06:10:11Z</time>
      </trkpt>
      <trkpt lat="45.14055" lon="5.58914">
        <ele>955.21</ele>
        <time>2011-08-20T06:10:23Z</time>
      </trkpt>
      <trkpt lat="45.14022" lon="5.58859">
        <ele>957.13</ele>
        <time>2011-08-20T06:10:42Z</time>
      </trkpt>
      <trkpt lat="45.13998" lon="5.58822">
        <ele>959.05</ele>
        <time>2011-08-20T06:10:55Z</time>
      </trkpt>
      <trkpt lat="45.13972" lon="5.58786">
        <ele>960.01</ele>
        <time>2011-08-20T06:11:08Z</time>
      </trkpt>
      <trkpt lat="45.13928" lon="5.58741">
        <ele>961.94</ele>
        <time>2011-08-20T06:11:25Z</time>
      </trkpt>
      <trkpt lat="45.13874" lon="5.58704">
        <ele>964.82</ele>
        <time>2011-08-20T06:11:41Z</time>
      </trkpt>
      <trkpt lat="45.1381" lon="5.58667">
        <ele>966.74</ele>
        <time>2011-08-20T06:11:58Z</time>
      </trkpt>
      <trkpt lat="45.13798" lon="5.58661">
        <ele>967.22</ele>
        <time>2011-08-20T06:12:01Z</time>
      </trkpt>
      <trkpt lat="45.13794" lon="5.58659">
        <ele>967.7</ele>
        <time>2011-08-20T06:12:02Z</time>
      </trkpt>
      <trkpt lat="45.13749" lon="5.58631">
        <ele>971.07</ele>
        <time>2011-08-20T06:12:15Z</time>
      </trkpt>
      <trkpt lat="45.13717" lon="5.58604">
        <ele>973.47</ele>
        <time>2011-08-20T06:12:26Z</time>
      </trkpt>
      <trkpt lat="45.13717" lon="5.586">
        <ele>974.43</ele>
        <time>2011-08-20T06:12:27Z</time>
      </trkpt>
      <trkpt lat="45.13719" lon="5.58596">
        <ele>974.43</ele>
        <time>2011-08-20T06:12:28Z</time>
      </trkpt>
      <trkpt lat="45.13722" lon="5.58594">
        <ele>974.43</ele>
        <time>2011-08-20T06:12:29Z</time>
      </trkpt>
      <trkpt lat="45.13726" lon="5.58595">
        <ele>974.43</ele>
        <time>2011-08-20T06:12:30Z</time>
      </trkpt>
      <trkpt lat="45.1373" lon="5.58598">
        <ele>973.95</ele>
        <time>2011-08-20T06:12:31Z</time>
      </trkpt>
      <trkpt lat="45.13733" lon="5.58602">
        <ele>973.95</ele>
        <time>2011-08-20T06:12:32Z</time>
      </trkpt>
      <trkpt lat="45.13736" lon="5.58607">
        <ele>974.43</ele>
        <time>2011-08-20T06:12:33Z</time>
      </trkpt>
      <trkpt lat="45.13741" lon="5.58611">
        <ele>974.43</ele>
        <time>2011-08-20T06:12:34Z</time>
      </trkpt>
      <trkpt lat="45.13745" lon="5.58614">
        <ele>973.95</ele>
        <time>2011-08-20T06:12:35Z</time>
      </trkpt>
      <trkpt lat="45.13749" lon="5.58615">
        <ele>973.95</ele>
        <time>2011-08-20T06:12:36Z</time>
      </trkpt>
      <trkpt lat="45.13754" lon="5.58615">
        <ele>974.43</ele>
        <time>2011-08-20T06:12:37Z</time>
      </trkpt>
      <trkpt lat="45.13758" lon="5.58615">
        <ele>974.43</ele>
        <time>2011-08-20T06:12:38Z</time>
      </trkpt>
      <trkpt lat="45.13774" lon="5.58616">
        <ele>974.91</ele>
        <time>2011-08-20T06:12:42Z</time>
      </trkpt>
      <trkpt lat="45.13825" lon="5.58624">
        <ele>975.88</ele>
        <time>2011-08-20T06:12:54Z</time>
      </trkpt>
      <trkpt lat="45.13885" lon="5.58646">
        <ele>974.91</ele>
        <time>2011-08-20T06:13:07Z</time>
      </trkpt>
      <trkpt lat="45.1396" lon="5.58688">
        <ele>973.47</ele>
        <time>2011-08-20T06:13:22Z</time>
      </trkpt>
      <trkpt lat="45.13974" lon="5.58697">
        <ele>973.47</ele>
        <time>2011-08-20T06:13:25Z</time>
      </trkpt>
      <trkpt lat="45.13979" lon="5.587">
        <ele>973.95</ele>
        <time>2011-08-20T06:13:26Z</time>
      </trkpt>
      <trkpt lat="45.14059" lon="5.58754">
        <ele>975.88</ele>
        <time>2011-08-20T06:13:44Z</time>
      </trkpt>
      <trkpt lat="45.14102" lon="5.58792">
        <ele>978.28</ele>
        <time>2011-08-20T06:13:59Z</time>
      </trkpt>
      <trkpt lat="45.14135" lon="5.58821">
        <ele>980.2</ele>
        <time>2011-08-20T06:14:10Z</time>
      </trkpt>
      <trkpt lat="45.1414" lon="5.58826">
        <ele>980.68</ele>
        <time>2011-08-20T06:14:12Z</time>
      </trkpt>
      <trkpt lat="45.14189" lon="5.58853">
        <ele>983.57</ele>
        <time>2011-08-20T06:14:27Z</time>
      </trkpt>
      <trkpt lat="45.14228" lon="5.5888">
        <ele>985.97</ele>
        <time>2011-08-20T06:14:41Z</time>
      </trkpt>
      <trkpt lat="45.14255" lon="5.58916">
        <ele>988.85</ele>
        <time>2011-08-20T06:14:54Z</time>
      </trkpt>
      <trkpt lat="45.14278" lon="5.58942">
        <ele>991.74</ele>
        <time>2011-08-20T06:15:05Z</time>
      </trkpt>
      <trkpt lat="45.14308" lon="5.58965">
        <ele>994.62</ele>
        <time>2011-08-20T06:15:19Z</time>
      </trkpt>
      <trkpt lat="45.14309" lon="5.58966">
        <ele>995.1</ele>
        <time>2011-08-20T06:15:20Z</time>
      </trkpt>
      <trkpt lat="45.14311" lon="5.58967">
        <ele>995.1</ele>
        <time>2011-08-20T06:15:21Z</time>
      </trkpt>
      <trkpt lat="45.14312" lon="5.58969">
        <ele>995.58</ele>
        <time>2011-08-20T06:15:22Z</time>
      </trkpt>
      <trkpt lat="45.14314" lon="5.58971">
        <ele>995.58</ele>
        <time>2011-08-20T06:15:23Z</time>
      </trkpt>
      <trkpt lat="45.14315" lon="5.58972">
        <ele>996.06</ele>
        <time>2011-08-20T06:15:24Z</time>
      </trkpt>
      <trkpt lat="45.14317" lon="5.58974">
        <ele>996.06</ele>
        <time>2011-08-20T06:15:25Z</time>
      </trkpt>
      <trkpt lat="45.14319" lon="5.58975">
        <ele>996.54</ele>
        <time>2011-08-20T06:15:26Z</time>
      </trkpt>
      <trkpt lat="45.1432" lon="5.58976">
        <ele>996.06</ele>
        <time>2011-08-20T06:15:27Z</time>
      </trkpt>
      <trkpt lat="45.14322" lon="5.58977">
        <ele>997.02</ele>
        <time>2011-08-20T06:15:28Z</time>
      </trkpt>
      <trkpt lat="45.14323" lon="5.58979">
        <ele>997.02</ele>
        <time>2011-08-20T06:15:29Z</time>
      </trkpt>
      <trkpt lat="45.14325" lon="5.5898">
        <ele>997.99</ele>
        <time>2011-08-20T06:15:30Z</time>
      </trkpt>
      <trkpt lat="45.14327" lon="5.58981">
        <ele>997.51</ele>
        <time>2011-08-20T06:15:31Z</time>
      </trkpt>
      <trkpt lat="45.14351" lon="5.58993">
        <ele>1000.39</ele>
        <time>2011-08-20T06:15:43Z</time>
      </trkpt>
      <trkpt lat="45.14377" lon="5.59004">
        <ele>1002.79</ele>
        <time>2011-08-20T06:15:56Z</time>
      </trkpt>
      <trkpt lat="45.14405" lon="5.59011">
        <ele>1005.68</ele>
        <time>2011-08-20T06:16:10Z</time>
      </trkpt>
      <trkpt lat="45.1443" lon="5.59018">
        <ele>1008.08</ele>
        <time>2011-08-20T06:16:22Z</time>
      </trkpt>
      <trkpt lat="45.14456" lon="5.59028">
        <ele>1010</ele>
        <time>2011-08-20T06:16:35Z</time>
      </trkpt>
      <trkpt lat="45.14483" lon="5.5905">
        <ele>1012.41</ele>
        <time>2011-08-20T06:16:50Z</time>
      </trkpt>
      <trkpt lat="45.14508" lon="5.59076">
        <ele>1015.29</ele>
        <time>2011-08-20T06:17:05Z</time>
      </trkpt>
      <trkpt lat="45.1452" lon="5.59094">
        <ele>1017.69</ele>
        <time>2011-08-20T06:17:14Z</time>
      </trkpt>
      <trkpt lat="45.14521" lon="5.59096">
        <ele>1017.69</ele>
        <time>2011-08-20T06:17:15Z</time>
      </trkpt>
      <trkpt lat="45.14527" lon="5.59105">
        <ele>1019.13</ele>
        <time>2011-08-20T06:17:19Z</time>
      </trkpt>
      <trkpt lat="45.14535" lon="5.59114">
        <ele>1020.1</ele>
        <time>2011-08-20T06:17:24Z</time>
      </trkpt>
      <trkpt lat="45.14537" lon="5.59115">
        <ele>1020.1</ele>
        <time>2011-08-20T06:17:25Z</time>
      </trkpt>
      <trkpt lat="45.14539" lon="5.59116">
        <ele>1020.1</ele>
        <time>2011-08-20T06:17:26Z</time>
      </trkpt>
      <trkpt lat="45.14541" lon="5.59117">
        <ele>1020.58</ele>
        <time>2011-08-20T06:17:27Z</time>
      </trkpt>
      <trkpt lat="45.14544" lon="5.59118">
        <ele>1021.06</ele>
        <time>2011-08-20T06:17:28Z</time>
      </trkpt>
      <trkpt lat="45.14546" lon="5.59119">
        <ele>1021.06</ele>
        <time>2011-08-20T06:17:29Z</time>
      </trkpt>
      <trkpt lat="45.14548" lon="5.59119">
        <ele>1021.06</ele>
        <time>2011-08-20T06:17:30Z</time>
      </trkpt>
      <trkpt lat="45.1455" lon="5.5912">
        <ele>1021.54</ele>
        <time>2011-08-20T06:17:31Z</time>
      </trkpt>
      <trkpt lat="45.14553" lon="5.5912">
        <ele>1021.54</ele>
        <time>2011-08-20T06:17:32Z</time>
      </trkpt>
      <trkpt lat="45.14555" lon="5.59121">
        <ele>1021.54</ele>
        <time>2011-08-20T06:17:33Z</time>
      </trkpt>
      <trkpt lat="45.14557" lon="5.59121">
        <ele>1022.02</ele>
        <time>2011-08-20T06:17:34Z</time>
      </trkpt>
      <trkpt lat="45.14559" lon="5.59122">
        <ele>1022.02</ele>
        <time>2011-08-20T06:17:35Z</time>
      </trkpt>
      <trkpt lat="45.14562" lon="5.59122">
        <ele>1022.5</ele>
        <time>2011-08-20T06:17:36Z</time>
      </trkpt>
      <trkpt lat="45.14565" lon="5.59122">
        <ele>1022.02</ele>
        <time>2011-08-20T06:17:37Z</time>
      </trkpt>
      <trkpt lat="45.14601" lon="5.59133">
        <ele>1024.42</ele>
        <time>2011-08-20T06:17:50Z</time>
      </trkpt>
      <trkpt lat="45.14626" lon="5.5916">
        <ele>1026.34</ele>
        <time>2011-08-20T06:18:02Z</time>
      </trkpt>
      <trkpt lat="45.14659" lon="5.59186">
        <ele>1029.23</ele>
        <time>2011-08-20T06:18:16Z</time>
      </trkpt>
      <trkpt lat="45.14688" lon="5.59204">
        <ele>1031.15</ele>
        <time>2011-08-20T06:18:27Z</time>
      </trkpt>
      <trkpt lat="45.14715" lon="5.59224">
        <ele>1032.59</ele>
        <time>2011-08-20T06:18:38Z</time>
      </trkpt>
      <trkpt lat="45.14748" lon="5.59253">
        <ele>1034.52</ele>
        <time>2011-08-20T06:18:51Z</time>
      </trkpt>
      <trkpt lat="45.14781" lon="5.59284">
        <ele>1036.92</ele>
        <time>2011-08-20T06:19:04Z</time>
      </trkpt>
      <trkpt lat="45.14809" lon="5.59308">
        <ele>1038.36</ele>
        <time>2011-08-20T06:19:15Z</time>
      </trkpt>
      <trkpt lat="45.14837" lon="5.59339">
        <ele>1040.28</ele>
        <time>2011-08-20T06:19:28Z</time>
      </trkpt>
      <trkpt lat="45.14863" lon="5.59377">
        <ele>1042.69</ele>
        <time>2011-08-20T06:19:40Z</time>
      </trkpt>
      <trkpt lat="45.14896" lon="5.59423">
        <ele>1044.61</ele>
        <time>2011-08-20T06:19:54Z</time>
      </trkpt>
      <trkpt lat="45.1493" lon="5.59456">
        <ele>1045.57</ele>
        <time>2011-08-20T06:20:06Z</time>
      </trkpt>
      <trkpt lat="45.14967" lon="5.59476">
        <ele>1044.61</ele>
        <time>2011-08-20T06:20:16Z</time>
      </trkpt>
      <trkpt lat="45.14972" lon="5.59476">
        <ele>1045.57</ele>
        <time>2011-08-20T06:20:17Z</time>
      </trkpt>
      <trkpt lat="45.15018" lon="5.59465">
        <ele>1048.45</ele>
        <time>2011-08-20T06:20:31Z</time>
      </trkpt>
      <trkpt lat="45.15046" lon="5.59457">
        <ele>1051.34</ele>
        <time>2011-08-20T06:20:42Z</time>
      </trkpt>
      <trkpt lat="45.15082" lon="5.5946">
        <ele>1054.22</ele>
        <time>2011-08-20T06:20:58Z</time>
      </trkpt>
      <trkpt lat="45.15085" lon="5.59464">
        <ele>1054.7</ele>
        <time>2011-08-20T06:21:00Z</time>
      </trkpt>
      <trkpt lat="45.15087" lon="5.59466">
        <ele>1055.67</ele>
        <time>2011-08-20T06:21:01Z</time>
      </trkpt>
      <trkpt lat="45.15088" lon="5.59468">
        <ele>1055.67</ele>
        <time>2011-08-20T06:21:02Z</time>
      </trkpt>
      <trkpt lat="45.1509" lon="5.5947">
        <ele>1056.15</ele>
        <time>2011-08-20T06:21:03Z</time>
      </trkpt>
      <trkpt lat="45.15092" lon="5.59471">
        <ele>1056.15</ele>
        <time>2011-08-20T06:21:04Z</time>
      </trkpt>
      <trkpt lat="45.15094" lon="5.59474">
        <ele>1056.15</ele>
        <time>2011-08-20T06:21:05Z</time>
      </trkpt>
      <trkpt lat="45.15118" lon="5.59498">
        <ele>1059.03</ele>
        <time>2011-08-20T06:21:18Z</time>
      </trkpt>
      <trkpt lat="45.15149" lon="5.59521">
        <ele>1061.91</ele>
        <time>2011-08-20T06:21:33Z</time>
      </trkpt>
      <trkpt lat="45.15181" lon="5.59535">
        <ele>1065.28</ele>
        <time>2011-08-20T06:21:47Z</time>
      </trkpt>
      <trkpt lat="45.1521" lon="5.59545">
        <ele>1068.16</ele>
        <time>2011-08-20T06:22:01Z</time>
      </trkpt>
      <trkpt lat="45.15236" lon="5.59544">
        <ele>1071.05</ele>
        <time>2011-08-20T06:22:13Z</time>
      </trkpt>
      <trkpt lat="45.15238" lon="5.59545">
        <ele>1071.05</ele>
        <time>2011-08-20T06:22:14Z</time>
      </trkpt>
      <trkpt lat="45.15255" lon="5.59573">
        <ele>1072.97</ele>
        <time>2011-08-20T06:22:26Z</time>
      </trkpt>
      <trkpt lat="45.15274" lon="5.5961">
        <ele>1075.37</ele>
        <time>2011-08-20T06:22:40Z</time>
      </trkpt>
      <trkpt lat="45.15304" lon="5.59639">
        <ele>1078.74</ele>
        <time>2011-08-20T06:22:55Z</time>
      </trkpt>
      <trkpt lat="45.15338" lon="5.59661">
        <ele>1082.1</ele>
        <time>2011-08-20T06:23:11Z</time>
      </trkpt>
      <trkpt lat="45.15371" lon="5.59678">
        <ele>1084.5</ele>
        <time>2011-08-20T06:23:26Z</time>
      </trkpt>
      <trkpt lat="45.15399" lon="5.59693">
        <ele>1087.87</ele>
        <time>2011-08-20T06:23:39Z</time>
      </trkpt>
      <trkpt lat="45.15423" lon="5.59694">
        <ele>1091.23</ele>
        <time>2011-08-20T06:23:50Z</time>
      </trkpt>
      <trkpt lat="45.15443" lon="5.59682">
        <ele>1091.23</ele>
        <time>2011-08-20T06:23:59Z</time>
      </trkpt>
      <trkpt lat="45.15445" lon="5.59681">
        <ele>1091.23</ele>
        <time>2011-08-20T06:24:00Z</time>
      </trkpt>
      <trkpt lat="45.15463" lon="5.59676">
        <ele>1090.75</ele>
        <time>2011-08-20T06:24:05Z</time>
      </trkpt>
      <trkpt lat="45.15469" lon="5.59677">
        <ele>1089.79</ele>
        <time>2011-08-20T06:24:06Z</time>
      </trkpt>
      <trkpt lat="45.15473" lon="5.59681">
        <ele>1090.75</ele>
        <time>2011-08-20T06:24:07Z</time>
      </trkpt>
      <trkpt lat="45.15476" lon="5.59686">
        <ele>1090.27</ele>
        <time>2011-08-20T06:24:08Z</time>
      </trkpt>
      <trkpt lat="45.15477" lon="5.59691">
        <ele>1090.75</ele>
        <time>2011-08-20T06:24:09Z</time>
      </trkpt>
      <trkpt lat="45.15478" lon="5.59696">
        <ele>1091.23</ele>
        <time>2011-08-20T06:24:10Z</time>
      </trkpt>
      <trkpt lat="45.15478" lon="5.597">
        <ele>1091.23</ele>
        <time>2011-08-20T06:24:11Z</time>
      </trkpt>
      <trkpt lat="45.15478" lon="5.59703">
        <ele>1091.23</ele>
        <time>2011-08-20T06:24:12Z</time>
      </trkpt>
      <trkpt lat="45.15477" lon="5.59706">
        <ele>1092.2</ele>
        <time>2011-08-20T06:24:13Z</time>
      </trkpt>
      <trkpt lat="45.15475" lon="5.59737">
        <ele>1095.08</ele>
        <time>2011-08-20T06:24:24Z</time>
      </trkpt>
      <trkpt lat="45.15479" lon="5.5977">
        <ele>1097.48</ele>
        <time>2011-08-20T06:24:36Z</time>
      </trkpt>
      <trkpt lat="45.15487" lon="5.59787">
        <ele>1099.89</ele>
        <time>2011-08-20T06:24:47Z</time>
      </trkpt>
      <trkpt lat="45.15492" lon="5.59791">
        <ele>1099.89</ele>
        <time>2011-08-20T06:24:52Z</time>
      </trkpt>
      <trkpt lat="45.15493" lon="5.59792">
        <ele>1100.37</ele>
        <time>2011-08-20T06:24:53Z</time>
      </trkpt>
      <trkpt lat="45.15494" lon="5.59794">
        <ele>1100.85</ele>
        <time>2011-08-20T06:24:54Z</time>
      </trkpt>
      <trkpt lat="45.15495" lon="5.59796">
        <ele>1100.37</ele>
        <time>2011-08-20T06:24:55Z</time>
      </trkpt>
      <trkpt lat="45.15499" lon="5.59798">
        <ele>1100.85</ele>
        <time>2011-08-20T06:24:56Z</time>
      </trkpt>
      <trkpt lat="45.15502" lon="5.59801">
        <ele>1100.85</ele>
        <time>2011-08-20T06:24:57Z</time>
      </trkpt>
      <trkpt lat="45.15508" lon="5.59807">
        <ele>1101.81</ele>
        <time>2011-08-20T06:25:00Z</time>
      </trkpt>
      <trkpt lat="45.1551" lon="5.59809">
        <ele>1101.81</ele>
        <time>2011-08-20T06:25:01Z</time>
      </trkpt>
      <trkpt lat="45.15513" lon="5.59811">
        <ele>1101.81</ele>
        <time>2011-08-20T06:25:02Z</time>
      </trkpt>
      <trkpt lat="45.15516" lon="5.59812">
        <ele>1102.29</ele>
        <time>2011-08-20T06:25:03Z</time>
      </trkpt>
      <trkpt lat="45.15518" lon="5.59813">
        <ele>1102.29</ele>
        <time>2011-08-20T06:25:04Z</time>
      </trkpt>
      <trkpt lat="45.15521" lon="5.59814">
        <ele>1102.29</ele>
        <time>2011-08-20T06:25:05Z</time>
      </trkpt>
      <trkpt lat="45.15523" lon="5.59812">
        <ele>1102.77</ele>
        <time>2011-08-20T06:25:06Z</time>
      </trkpt>
      <trkpt lat="45.15525" lon="5.5981">
        <ele>1102.77</ele>
        <time>2011-08-20T06:25:08Z</time>
      </trkpt>
      <trkpt lat="45.15525" lon="5.59809">
        <ele>1103.25</ele>
        <time>2011-08-20T06:25:09Z</time>
      </trkpt>
      <trkpt lat="45.15526" lon="5.59808">
        <ele>1103.73</ele>
        <time>2011-08-20T06:25:10Z</time>
      </trkpt>
      <trkpt lat="45.15532" lon="5.59801">
        <ele>1104.69</ele>
        <time>2011-08-20T06:25:14Z</time>
      </trkpt>
      <trkpt lat="45.15546" lon="5.59797">
        <ele>1105.65</ele>
        <time>2011-08-20T06:25:19Z</time>
      </trkpt>
      <trkpt lat="45.15533" lon="5.59786">
        <ele>1105.65</ele>
        <time>2011-08-20T06:25:22Z</time>
      </trkpt>
      <trkpt lat="45.15524" lon="5.5975">
        <ele>1108.54</ele>
        <time>2011-08-20T06:25:33Z</time>
      </trkpt>
      <trkpt lat="45.15529" lon="5.59714">
        <ele>1110.46</ele>
        <time>2011-08-20T06:25:45Z</time>
      </trkpt>
      <trkpt lat="45.15536" lon="5.59718">
        <ele>1112.38</ele>
        <time>2011-08-20T06:25:51Z</time>
      </trkpt>
      <trkpt lat="45.15541" lon="5.5974">
        <ele>1113.34</ele>
        <time>2011-08-20T06:25:59Z</time>
      </trkpt>
      <trkpt lat="45.15563" lon="5.59762">
        <ele>1116.23</ele>
        <time>2011-08-20T06:26:12Z</time>
      </trkpt>
      <trkpt lat="45.15567" lon="5.59764">
        <ele>1117.19</ele>
        <time>2011-08-20T06:26:14Z</time>
      </trkpt>
      <trkpt lat="45.15592" lon="5.59769">
        <ele>1119.11</ele>
        <time>2011-08-20T06:26:26Z</time>
      </trkpt>
      <trkpt lat="45.15613" lon="5.59765">
        <ele>1121.03</ele>
        <time>2011-08-20T06:26:37Z</time>
      </trkpt>
      <trkpt lat="45.1563" lon="5.5975">
        <ele>1123.44</ele>
        <time>2011-08-20T06:26:49Z</time>
      </trkpt>
      <trkpt lat="45.15647" lon="5.59738">
        <ele>1126.32</ele>
        <time>2011-08-20T06:27:02Z</time>
      </trkpt>
      <trkpt lat="45.15666" lon="5.59744">
        <ele>1129.21</ele>
        <time>2011-08-20T06:27:13Z</time>
      </trkpt>
      <trkpt lat="45.15685" lon="5.59757">
        <ele>1132.57</ele>
        <time>2011-08-20T06:27:26Z</time>
      </trkpt>
      <trkpt lat="45.15693" lon="5.59769">
        <ele>1134.01</ele>
        <time>2011-08-20T06:27:33Z</time>
      </trkpt>
      <trkpt lat="45.15694" lon="5.59781">
        <ele>1135.45</ele>
        <time>2011-08-20T06:27:38Z</time>
      </trkpt>
      <trkpt lat="45.1569" lon="5.59791">
        <ele>1136.42</ele>
        <time>2011-08-20T06:27:44Z</time>
      </trkpt>
      <trkpt lat="45.15692" lon="5.59795">
        <ele>1137.38</ele>
        <time>2011-08-20T06:27:49Z</time>
      </trkpt>
      <trkpt lat="45.15685" lon="5.5982">
        <ele>1138.34</ele>
        <time>2011-08-20T06:27:59Z</time>
      </trkpt>
      <trkpt lat="45.15693" lon="5.59834">
        <ele>1137.86</ele>
        <time>2011-08-20T06:28:06Z</time>
      </trkpt>
      <trkpt lat="45.15707" lon="5.59849">
        <ele>1142.66</ele>
        <time>2011-08-20T06:28:15Z</time>
      </trkpt>
      <trkpt lat="45.15729" lon="5.59869">
        <ele>1145.55</ele>
        <time>2011-08-20T06:28:27Z</time>
      </trkpt>
      <trkpt lat="45.15754" lon="5.59892">
        <ele>1147.95</ele>
        <time>2011-08-20T06:28:42Z</time>
      </trkpt>
      <trkpt lat="45.15765" lon="5.59899">
        <ele>1150.35</ele>
        <time>2011-08-20T06:28:48Z</time>
      </trkpt>
      <trkpt lat="45.15769" lon="5.599">
        <ele>1150.84</ele>
        <time>2011-08-20T06:28:51Z</time>
      </trkpt>
      <trkpt lat="45.15776" lon="5.59905">
        <ele>1151.32</ele>
        <time>2011-08-20T06:28:56Z</time>
      </trkpt>
      <trkpt lat="45.158" lon="5.59918">
        <ele>1152.76</ele>
        <time>2011-08-20T06:29:10Z</time>
      </trkpt>
      <trkpt lat="45.1582" lon="5.5993">
        <ele>1155.64</ele>
        <time>2011-08-20T06:29:22Z</time>
      </trkpt>
      <trkpt lat="45.15839" lon="5.5994">
        <ele>1157.56</ele>
        <time>2011-08-20T06:29:33Z</time>
      </trkpt>
      <trkpt lat="45.1586" lon="5.59947">
        <ele>1159.97</ele>
        <time>2011-08-20T06:29:45Z</time>
      </trkpt>
      <trkpt lat="45.15887" lon="5.59957">
        <ele>1163.81</ele>
        <time>2011-08-20T06:29:59Z</time>
      </trkpt>
      <trkpt lat="45.1591" lon="5.59964">
        <ele>1167.18</ele>
        <time>2011-08-20T06:30:11Z</time>
      </trkpt>
      <trkpt lat="45.15932" lon="5.5997">
        <ele>1169.1</ele>
        <time>2011-08-20T06:30:23Z</time>
      </trkpt>
      <trkpt lat="45.15933" lon="5.5997">
        <ele>1169.58</ele>
        <time>2011-08-20T06:30:24Z</time>
      </trkpt>
      <trkpt lat="45.15952" lon="5.59972">
        <ele>1172.47</ele>
        <time>2011-08-20T06:30:34Z</time>
      </trkpt>
      <trkpt lat="45.15953" lon="5.59972">
        <ele>1172.47</ele>
        <time>2011-08-20T06:30:35Z</time>
      </trkpt>
      <trkpt lat="45.15963" lon="5.59973">
        <ele>1173.43</ele>
        <time>2011-08-20T06:30:40Z</time>
      </trkpt>
      <trkpt lat="45.15981" lon="5.59977">
        <ele>1175.35</ele>
        <time>2011-08-20T06:30:50Z</time>
      </trkpt>
      <trkpt lat="45.16002" lon="5.6">
        <ele>1178.23</ele>
        <time>2011-08-20T06:31:02Z</time>
      </trkpt>
      <trkpt lat="45.16032" lon="5.60018">
        <ele>1180.16</ele>
        <time>2011-08-20T06:31:16Z</time>
      </trkpt>
      <trkpt lat="45.16034" lon="5.60018">
        <ele>1180.64</ele>
        <time>2011-08-20T06:31:17Z</time>
      </trkpt>
      <trkpt lat="45.16055" lon="5.60002">
        <ele>1182.56</ele>
        <time>2011-08-20T06:31:29Z</time>
      </trkpt>
      <trkpt lat="45.16074" lon="5.59981">
        <ele>1186.4</ele>
        <time>2011-08-20T06:31:43Z</time>
      </trkpt>
      <trkpt lat="45.16081" lon="5.5997">
        <ele>1187.85</ele>
        <time>2011-08-20T06:31:50Z</time>
      </trkpt>
      <trkpt lat="45.16089" lon="5.59948">
        <ele>1191.21</ele>
        <time>2011-08-20T06:32:02Z</time>
      </trkpt>
      <trkpt lat="45.1609" lon="5.59945">
        <ele>1192.65</ele>
        <time>2011-08-20T06:32:04Z</time>
      </trkpt>
      <trkpt lat="45.16095" lon="5.59925">
        <ele>1195.06</ele>
        <time>2011-08-20T06:32:14Z</time>
      </trkpt>
      <trkpt lat="45.16099" lon="5.59917">
        <ele>1195.54</ele>
        <time>2011-08-20T06:32:18Z</time>
      </trkpt>
      <trkpt lat="45.16118" lon="5.59903">
        <ele>1198.42</ele>
        <time>2011-08-20T06:32:32Z</time>
      </trkpt>
      <trkpt lat="45.16141" lon="5.59895">
        <ele>1200.82</ele>
        <time>2011-08-20T06:32:45Z</time>
      </trkpt>
      <trkpt lat="45.16148" lon="5.59891">
        <ele>1201.79</ele>
        <time>2011-08-20T06:32:50Z</time>
      </trkpt>
      <trkpt lat="45.1617" lon="5.59874">
        <ele>1203.23</ele>
        <time>2011-08-20T06:33:04Z</time>
      </trkpt>
      <trkpt lat="45.16172" lon="5.59867">
        <ele>1203.71</ele>
        <time>2011-08-20T06:33:08Z</time>
      </trkpt>
      <trkpt lat="45.16164" lon="5.59837">
        <ele>1207.07</ele>
        <time>2011-08-20T06:33:21Z</time>
      </trkpt>
      <trkpt lat="45.16164" lon="5.59832">
        <ele>1207.55</ele>
        <time>2011-08-20T06:33:23Z</time>
      </trkpt>
      <trkpt lat="45.16167" lon="5.59799">
        <ele>1210.44</ele>
        <time>2011-08-20T06:33:38Z</time>
      </trkpt>
      <trkpt lat="45.1617" lon="5.59784">
        <ele>1212.36</ele>
        <time>2011-08-20T06:33:45Z</time>
      </trkpt>
      <trkpt lat="45.16179" lon="5.59769">
        <ele>1214.76</ele>
        <time>2011-08-20T06:33:54Z</time>
      </trkpt>
      <trkpt lat="45.16184" lon="5.59766">
        <ele>1214.76</ele>
        <time>2011-08-20T06:33:57Z</time>
      </trkpt>
      <trkpt lat="45.16195" lon="5.59763">
        <ele>1217.17</ele>
        <time>2011-08-20T06:34:04Z</time>
      </trkpt>
      <trkpt lat="45.16213" lon="5.59761">
        <ele>1219.09</ele>
        <time>2011-08-20T06:34:15Z</time>
      </trkpt>
      <trkpt lat="45.16231" lon="5.5975">
        <ele>1221.01</ele>
        <time>2011-08-20T06:34:27Z</time>
      </trkpt>
      <trkpt lat="45.16246" lon="5.5973">
        <ele>1223.42</ele>
        <time>2011-08-20T06:34:39Z</time>
      </trkpt>
      <trkpt lat="45.16253" lon="5.59722">
        <ele>1224.86</ele>
        <time>2011-08-20T06:34:44Z</time>
      </trkpt>
      <trkpt lat="45.16259" lon="5.59715">
        <ele>1225.34</ele>
        <time>2011-08-20T06:34:49Z</time>
      </trkpt>
      <trkpt lat="45.16269" lon="5.59707">
        <ele>1226.78</ele>
        <time>2011-08-20T06:34:55Z</time>
      </trkpt>
      <trkpt lat="45.16282" lon="5.59705">
        <ele>1228.22</ele>
        <time>2011-08-20T06:35:03Z</time>
      </trkpt>
      <trkpt lat="45.16303" lon="5.59725">
        <ele>1231.59</ele>
        <time>2011-08-20T06:35:17Z</time>
      </trkpt>
      <trkpt lat="45.16325" lon="5.59736">
        <ele>1234.47</ele>
        <time>2011-08-20T06:35:31Z</time>
      </trkpt>
      <trkpt lat="45.16327" lon="5.59736">
        <ele>1234.95</ele>
        <time>2011-08-20T06:35:32Z</time>
      </trkpt>
      <trkpt lat="45.16335" lon="5.59737">
        <ele>1235.91</ele>
        <time>2011-08-20T06:35:37Z</time>
      </trkpt>
      <trkpt lat="45.1635" lon="5.59738">
        <ele>1238.8</ele>
        <time>2011-08-20T06:35:47Z</time>
      </trkpt>
      <trkpt lat="45.16364" lon="5.5974">
        <ele>1240.72</ele>
        <time>2011-08-20T06:35:56Z</time>
      </trkpt>
      <trkpt lat="45.16382" lon="5.59736">
        <ele>1243.12</ele>
        <time>2011-08-20T06:36:09Z</time>
      </trkpt>
      <trkpt lat="45.16384" lon="5.59733">
        <ele>1243.6</ele>
        <time>2011-08-20T06:36:11Z</time>
      </trkpt>
      <trkpt lat="45.16386" lon="5.59728">
        <ele>1244.56</ele>
        <time>2011-08-20T06:36:14Z</time>
      </trkpt>
      <trkpt lat="45.16386" lon="5.59722">
        <ele>1244.56</ele>
        <time>2011-08-20T06:36:17Z</time>
      </trkpt>
      <trkpt lat="45.16378" lon="5.59712">
        <ele>1246.01</ele>
        <time>2011-08-20T06:36:24Z</time>
      </trkpt>
      <trkpt lat="45.16364" lon="5.59686">
        <ele>1248.89</ele>
        <time>2011-08-20T06:36:40Z</time>
      </trkpt>
      <trkpt lat="45.16361" lon="5.5968">
        <ele>1249.37</ele>
        <time>2011-08-20T06:36:44Z</time>
      </trkpt>
      <trkpt lat="45.1635" lon="5.59659">
        <ele>1251.77</ele>
        <time>2011-08-20T06:36:56Z</time>
      </trkpt>
      <trkpt lat="45.16343" lon="5.59647">
        <ele>1253.22</ele>
        <time>2011-08-20T06:37:04Z</time>
      </trkpt>
      <trkpt lat="45.16334" lon="5.59629">
        <ele>1255.14</ele>
        <time>2011-08-20T06:37:15Z</time>
      </trkpt>
      <trkpt lat="45.1632" lon="5.59611">
        <ele>1257.54</ele>
        <time>2011-08-20T06:37:27Z</time>
      </trkpt>
      <trkpt lat="45.16303" lon="5.59589">
        <ele>1259.94</ele>
        <time>2011-08-20T06:37:42Z</time>
      </trkpt>
      <trkpt lat="45.16298" lon="5.59582">
        <ele>1260.91</ele>
        <time>2011-08-20T06:37:46Z</time>
      </trkpt>
      <trkpt lat="45.1628" lon="5.59562">
        <ele>1264.27</ele>
        <time>2011-08-20T06:38:01Z</time>
      </trkpt>
      <trkpt lat="45.16262" lon="5.5955">
        <ele>1266.67</ele>
        <time>2011-08-20T06:38:14Z</time>
      </trkpt>
      <trkpt lat="45.16239" lon="5.59532">
        <ele>1269.56</ele>
        <time>2011-08-20T06:38:31Z</time>
      </trkpt>
      <trkpt lat="45.1622" lon="5.59511">
        <ele>1272.44</ele>
        <time>2011-08-20T06:38:46Z</time>
      </trkpt>
      <trkpt lat="45.16209" lon="5.59497">
        <ele>1273.88</ele>
        <time>2011-08-20T06:38:55Z</time>
      </trkpt>
      <trkpt lat="45.162" lon="5.59475">
        <ele>1275.81</ele>
        <time>2011-08-20T06:39:07Z</time>
      </trkpt>
      <trkpt lat="45.16195" lon="5.59466">
        <ele>1276.77</ele>
        <time>2011-08-20T06:39:12Z</time>
      </trkpt>
      <trkpt lat="45.16186" lon="5.59447">
        <ele>1278.69</ele>
        <time>2011-08-20T06:39:22Z</time>
      </trkpt>
      <trkpt lat="45.16181" lon="5.59435">
        <ele>1280.13</ele>
        <time>2011-08-20T06:39:28Z</time>
      </trkpt>
      <trkpt lat="45.16181" lon="5.59431">
        <ele>1281.09</ele>
        <time>2011-08-20T06:39:30Z</time>
      </trkpt>
      <trkpt lat="45.16175" lon="5.59417">
        <ele>1282.54</ele>
        <time>2011-08-20T06:39:37Z</time>
      </trkpt>
      <trkpt lat="45.1617" lon="5.5941">
        <ele>1283.5</ele>
        <time>2011-08-20T06:39:42Z</time>
      </trkpt>
      <trkpt lat="45.16165" lon="5.59403">
        <ele>1283.98</ele>
        <time>2011-08-20T06:39:47Z</time>
      </trkpt>
      <trkpt lat="45.16162" lon="5.59397">
        <ele>1284.46</ele>
        <time>2011-08-20T06:39:50Z</time>
      </trkpt>
      <trkpt lat="45.16147" lon="5.59369">
        <ele>1287.34</ele>
        <time>2011-08-20T06:40:03Z</time>
      </trkpt>
      <trkpt lat="45.16146" lon="5.59364">
        <ele>1288.3</ele>
        <time>2011-08-20T06:40:05Z</time>
      </trkpt>
      <trkpt lat="45.16144" lon="5.59354">
        <ele>1288.78</ele>
        <time>2011-08-20T06:40:09Z</time>
      </trkpt>
      <trkpt lat="45.16143" lon="5.5935">
        <ele>1289.27</ele>
        <time>2011-08-20T06:40:11Z</time>
      </trkpt>
      <trkpt lat="45.16138" lon="5.59337">
        <ele>1290.71</ele>
        <time>2011-08-20T06:40:19Z</time>
      </trkpt>
      <trkpt lat="45.16134" lon="5.59333">
        <ele>1291.67</ele>
        <time>2011-08-20T06:40:22Z</time>
      </trkpt>
      <trkpt lat="45.16121" lon="5.59315">
        <ele>1293.59</ele>
        <time>2011-08-20T06:40:33Z</time>
      </trkpt>
      <trkpt lat="45.16114" lon="5.59311">
        <ele>1294.07</ele>
        <time>2011-08-20T06:40:35Z</time>
      </trkpt>
      <trkpt lat="45.1611" lon="5.59311">
        <ele>1294.55</ele>
        <time>2011-08-20T06:40:38Z</time>
      </trkpt>
      <trkpt lat="45.16101" lon="5.59306">
        <ele>1295.51</ele>
        <time>2011-08-20T06:40:43Z</time>
      </trkpt>
      <trkpt lat="45.16084" lon="5.59296">
        <ele>1298.4</ele>
        <time>2011-08-20T06:40:54Z</time>
      </trkpt>
      <trkpt lat="45.16078" lon="5.59287">
        <ele>1298.88</ele>
        <time>2011-08-20T06:40:59Z</time>
      </trkpt>
      <trkpt lat="45.16073" lon="5.59282">
        <ele>1299.84</ele>
        <time>2011-08-20T06:41:03Z</time>
      </trkpt>
      <trkpt lat="45.16052" lon="5.59271">
        <ele>1302.72</ele>
        <time>2011-08-20T06:41:16Z</time>
      </trkpt>
      <trkpt lat="45.16047" lon="5.59265">
        <ele>1303.69</ele>
        <time>2011-08-20T06:41:20Z</time>
      </trkpt>
      <trkpt lat="45.16029" lon="5.59247">
        <ele>1306.57</ele>
        <time>2011-08-20T06:41:33Z</time>
      </trkpt>
      <trkpt lat="45.16024" lon="5.59242">
        <ele>1308.01</ele>
        <time>2011-08-20T06:41:37Z</time>
      </trkpt>
      <trkpt lat="45.16014" lon="5.59231">
        <ele>1308.97</ele>
        <time>2011-08-20T06:41:45Z</time>
      </trkpt>
      <trkpt lat="45.16019" lon="5.59209">
        <ele>1311.38</ele>
        <time>2011-08-20T06:41:58Z</time>
      </trkpt>
      <trkpt lat="45.16021" lon="5.59211">
        <ele>1311.86</ele>
        <time>2011-08-20T06:42:00Z</time>
      </trkpt>
      <trkpt lat="45.16027" lon="5.5922">
        <ele>1313.3</ele>
        <time>2011-08-20T06:42:05Z</time>
      </trkpt>
      <trkpt lat="45.16037" lon="5.59227">
        <ele>1313.78</ele>
        <time>2011-08-20T06:42:12Z</time>
      </trkpt>
      <trkpt lat="45.16059" lon="5.59234">
        <ele>1316.66</ele>
        <time>2011-08-20T06:42:26Z</time>
      </trkpt>
      <trkpt lat="45.1608" lon="5.59232">
        <ele>1320.03</ele>
        <time>2011-08-20T06:42:40Z</time>
      </trkpt>
      <trkpt lat="45.16086" lon="5.59231">
        <ele>1322.91</ele>
        <time>2011-08-20T06:42:52Z</time>
      </trkpt>
      <trkpt lat="45.16087" lon="5.59231">
        <ele>1322.91</ele>
        <time>2011-08-20T06:42:53Z</time>
      </trkpt>
      <trkpt lat="45.16089" lon="5.59233">
        <ele>1323.87</ele>
        <time>2011-08-20T06:42:56Z</time>
      </trkpt>
      <trkpt lat="45.16098" lon="5.59232">
        <ele>1325.31</ele>
        <time>2011-08-20T06:43:02Z</time>
      </trkpt>
      <trkpt lat="45.161" lon="5.59232">
        <ele>1325.31</ele>
        <time>2011-08-20T06:43:03Z</time>
      </trkpt>
      <trkpt lat="45.16107" lon="5.59229">
        <ele>1327.72</ele>
        <time>2011-08-20T06:43:13Z</time>
      </trkpt>
      <trkpt lat="45.1611" lon="5.59228">
        <ele>1328.68</ele>
        <time>2011-08-20T06:43:17Z</time>
      </trkpt>
      <trkpt lat="45.16114" lon="5.59225">
        <ele>1329.64</ele>
        <time>2011-08-20T06:43:24Z</time>
      </trkpt>
      <trkpt lat="45.16116" lon="5.59225">
        <ele>1330.12</ele>
        <time>2011-08-20T06:43:25Z</time>
      </trkpt>
      <trkpt lat="45.16119" lon="5.59226">
        <ele>1330.6</ele>
        <time>2011-08-20T06:43:29Z</time>
      </trkpt>
      <trkpt lat="45.16124" lon="5.59226">
        <ele>1331.08</ele>
        <time>2011-08-20T06:43:31Z</time>
      </trkpt>
      <trkpt lat="45.16135" lon="5.59235">
        <ele>1333.49</ele>
        <time>2011-08-20T06:43:42Z</time>
      </trkpt>
      <trkpt lat="45.16134" lon="5.59246">
        <ele>1335.41</ele>
        <time>2011-08-20T06:43:51Z</time>
      </trkpt>
      <trkpt lat="45.16145" lon="5.59257">
        <ele>1338.29</ele>
        <time>2011-08-20T06:44:02Z</time>
      </trkpt>
      <trkpt lat="45.16148" lon="5.5926">
        <ele>1338.77</ele>
        <time>2011-08-20T06:44:05Z</time>
      </trkpt>
      <trkpt lat="45.1615" lon="5.59262">
        <ele>1339.25</ele>
        <time>2011-08-20T06:44:07Z</time>
      </trkpt>
      <trkpt lat="45.16152" lon="5.59263">
        <ele>1339.25</ele>
        <time>2011-08-20T06:44:08Z</time>
      </trkpt>
      <trkpt lat="45.16156" lon="5.59264">
        <ele>1339.73</ele>
        <time>2011-08-20T06:44:10Z</time>
      </trkpt>
      <trkpt lat="45.16168" lon="5.59265">
        <ele>1341.66</ele>
        <time>2011-08-20T06:44:19Z</time>
      </trkpt>
      <trkpt lat="45.1617" lon="5.59266">
        <ele>1342.14</ele>
        <time>2011-08-20T06:44:22Z</time>
      </trkpt>
      <trkpt lat="45.16173" lon="5.59267">
        <ele>1343.58</ele>
        <time>2011-08-20T06:44:26Z</time>
      </trkpt>
      <trkpt lat="45.16182" lon="5.59271">
        <ele>1345.02</ele>
        <time>2011-08-20T06:44:35Z</time>
      </trkpt>
      <trkpt lat="45.16188" lon="5.59279">
        <ele>1347.43</ele>
        <time>2011-08-20T06:44:46Z</time>
      </trkpt>
      <trkpt lat="45.162" lon="5.59282">
        <ele>1349.83</ele>
        <time>2011-08-20T06:44:58Z</time>
      </trkpt>
      <trkpt lat="45.16209" lon="5.59284">
        <ele>1351.27</ele>
        <time>2011-08-20T06:45:05Z</time>
      </trkpt>
      <trkpt lat="45.16221" lon="5.59286">
        <ele>1352.71</ele>
        <time>2011-08-20T06:45:16Z</time>
      </trkpt>
      <trkpt lat="45.16229" lon="5.59287">
        <ele>1354.63</ele>
        <time>2011-08-20T06:45:23Z</time>
      </trkpt>
      <trkpt lat="45.16232" lon="5.5929">
        <ele>1356.56</ele>
        <time>2011-08-20T06:45:29Z</time>
      </trkpt>
      <trkpt lat="45.16233" lon="5.5929">
        <ele>1356.56</ele>
        <time>2011-08-20T06:45:30Z</time>
      </trkpt>
      <trkpt lat="45.16235" lon="5.59291">
        <ele>1357.04</ele>
        <time>2011-08-20T06:45:32Z</time>
      </trkpt>
      <trkpt lat="45.16242" lon="5.59292">
        <ele>1358</ele>
        <time>2011-08-20T06:45:37Z</time>
      </trkpt>
      <trkpt lat="45.16248" lon="5.59295">
        <ele>1358.96</ele>
        <time>2011-08-20T06:45:42Z</time>
      </trkpt>
      <trkpt lat="45.1625" lon="5.59296">
        <ele>1358.48</ele>
        <time>2011-08-20T06:45:43Z</time>
      </trkpt>
      <trkpt lat="45.16257" lon="5.59298">
        <ele>1359.44</ele>
        <time>2011-08-20T06:45:48Z</time>
      </trkpt>
      <trkpt lat="45.16259" lon="5.59299">
        <ele>1360.4</ele>
        <time>2011-08-20T06:45:50Z</time>
      </trkpt>
      <trkpt lat="45.16262" lon="5.59304">
        <ele>1361.36</ele>
        <time>2011-08-20T06:45:55Z</time>
      </trkpt>
      <trkpt lat="45.16267" lon="5.59304">
        <ele>1361.84</ele>
        <time>2011-08-20T06:45:57Z</time>
      </trkpt>
      <trkpt lat="45.1635" lon="5.59318">
        <ele>1364.25</ele>
        <time>2011-08-20T06:46:09Z</time>
      </trkpt>
      <trkpt lat="45.16354" lon="5.59318">
        <ele>1364.73</ele>
        <time>2011-08-20T06:46:11Z</time>
      </trkpt>
      <trkpt lat="45.16362" lon="5.59319">
        <ele>1366.17</ele>
        <time>2011-08-20T06:46:18Z</time>
      </trkpt>
      <trkpt lat="45.16366" lon="5.5932">
        <ele>1366.65</ele>
        <time>2011-08-20T06:46:21Z</time>
      </trkpt>
      <trkpt lat="45.16373" lon="5.5932">
        <ele>1368.57</ele>
        <time>2011-08-20T06:46:27Z</time>
      </trkpt>
      <trkpt lat="45.16381" lon="5.59318">
        <ele>1369.54</ele>
        <time>2011-08-20T06:46:33Z</time>
      </trkpt>
      <trkpt lat="45.16391" lon="5.5932">
        <ele>1371.46</ele>
        <time>2011-08-20T06:46:40Z</time>
      </trkpt>
      <trkpt lat="45.16401" lon="5.5931">
        <ele>1372.42</ele>
        <time>2011-08-20T06:46:48Z</time>
      </trkpt>
      <trkpt lat="45.16405" lon="5.59303">
        <ele>1372.42</ele>
        <time>2011-08-20T06:46:52Z</time>
      </trkpt>
      <trkpt lat="45.1641" lon="5.59294">
        <ele>1372.9</ele>
        <time>2011-08-20T06:46:57Z</time>
      </trkpt>
      <trkpt lat="45.16424" lon="5.59277">
        <ele>1375.78</ele>
        <time>2011-08-20T06:47:09Z</time>
      </trkpt>
      <trkpt lat="45.16427" lon="5.59271">
        <ele>1375.78</ele>
        <time>2011-08-20T06:47:14Z</time>
      </trkpt>
      <trkpt lat="45.16428" lon="5.59271">
        <ele>1376.26</ele>
        <time>2011-08-20T06:47:15Z</time>
      </trkpt>
      <trkpt lat="45.16429" lon="5.59269">
        <ele>1375.78</ele>
        <time>2011-08-20T06:47:16Z</time>
      </trkpt>
      <trkpt lat="45.1643" lon="5.59268">
        <ele>1377.23</ele>
        <time>2011-08-20T06:47:17Z</time>
      </trkpt>
      <trkpt lat="45.1643" lon="5.59265">
        <ele>1376.75</ele>
        <time>2011-08-20T06:47:18Z</time>
      </trkpt>
      <trkpt lat="45.16433" lon="5.59262">
        <ele>1376.75</ele>
        <time>2011-08-20T06:47:20Z</time>
      </trkpt>
      <trkpt lat="45.16438" lon="5.59254">
        <ele>1377.71</ele>
        <time>2011-08-20T06:47:26Z</time>
      </trkpt>
      <trkpt lat="45.16449" lon="5.59245">
        <ele>1379.63</ele>
        <time>2011-08-20T06:47:35Z</time>
      </trkpt>
      <trkpt lat="45.16458" lon="5.59223">
        <ele>1380.59</ele>
        <time>2011-08-20T06:47:45Z</time>
      </trkpt>
      <trkpt lat="45.16459" lon="5.59222">
        <ele>1381.07</ele>
        <time>2011-08-20T06:47:46Z</time>
      </trkpt>
      <trkpt lat="45.16459" lon="5.59209">
        <ele>1381.55</ele>
        <time>2011-08-20T06:47:51Z</time>
      </trkpt>
      <trkpt lat="45.16459" lon="5.59207">
        <ele>1381.55</ele>
        <time>2011-08-20T06:47:52Z</time>
      </trkpt>
      <trkpt lat="45.16459" lon="5.59205">
        <ele>1382.03</ele>
        <time>2011-08-20T06:47:53Z</time>
      </trkpt>
      <trkpt lat="45.16462" lon="5.592">
        <ele>1382.03</ele>
        <time>2011-08-20T06:47:55Z</time>
      </trkpt>
      <trkpt lat="45.16462" lon="5.59191">
        <ele>1382.03</ele>
        <time>2011-08-20T06:47:58Z</time>
      </trkpt>
      <trkpt lat="45.16462" lon="5.59186">
        <ele>1382.51</ele>
        <time>2011-08-20T06:48:00Z</time>
      </trkpt>
      <trkpt lat="45.16469" lon="5.59166">
        <ele>1383.47</ele>
        <time>2011-08-20T06:48:07Z</time>
      </trkpt>
      <trkpt lat="45.16475" lon="5.5916">
        <ele>1383.96</ele>
        <time>2011-08-20T06:48:11Z</time>
      </trkpt>
      <trkpt lat="45.16479" lon="5.59153">
        <ele>1384.92</ele>
        <time>2011-08-20T06:48:14Z</time>
      </trkpt>
      <trkpt lat="45.16484" lon="5.59145">
        <ele>1385.4</ele>
        <time>2011-08-20T06:48:18Z</time>
      </trkpt>
      <trkpt lat="45.16493" lon="5.59136">
        <ele>1386.84</ele>
        <time>2011-08-20T06:48:24Z</time>
      </trkpt>
      <trkpt lat="45.16503" lon="5.59121">
        <ele>1388.28</ele>
        <time>2011-08-20T06:48:32Z</time>
      </trkpt>
      <trkpt lat="45.16501" lon="5.59115">
        <ele>1388.76</ele>
        <time>2011-08-20T06:48:34Z</time>
      </trkpt>
      <trkpt lat="45.16502" lon="5.59102">
        <ele>1389.72</ele>
        <time>2011-08-20T06:48:40Z</time>
      </trkpt>
      <trkpt lat="45.16499" lon="5.59087">
        <ele>1390.68</ele>
        <time>2011-08-20T06:48:48Z</time>
      </trkpt>
      <trkpt lat="45.16497" lon="5.59079">
        <ele>1391.17</ele>
        <time>2011-08-20T06:48:53Z</time>
      </trkpt>
      <trkpt lat="45.16494" lon="5.59071">
        <ele>1392.61</ele>
        <time>2011-08-20T06:48:58Z</time>
      </trkpt>
      <trkpt lat="45.16478" lon="5.59046">
        <ele>1395.01</ele>
        <time>2011-08-20T06:49:11Z</time>
      </trkpt>
      <trkpt lat="45.16465" lon="5.59026">
        <ele>1397.41</ele>
        <time>2011-08-20T06:49:22Z</time>
      </trkpt>
      <trkpt lat="45.16458" lon="5.59016">
        <ele>1398.86</ele>
        <time>2011-08-20T06:49:30Z</time>
      </trkpt>
      <trkpt lat="45.16451" lon="5.59006">
        <ele>1399.34</ele>
        <time>2011-08-20T06:49:35Z</time>
      </trkpt>
      <trkpt lat="45.16447" lon="5.58999">
        <ele>1400.3</ele>
        <time>2011-08-20T06:49:41Z</time>
      </trkpt>
      <trkpt lat="45.16444" lon="5.5899">
        <ele>1401.74</ele>
        <time>2011-08-20T06:49:47Z</time>
      </trkpt>
      <trkpt lat="45.16432" lon="5.58973">
        <ele>1403.18</ele>
        <time>2011-08-20T06:50:00Z</time>
      </trkpt>
      <trkpt lat="45.16432" lon="5.58973">
        <ele>1403.66</ele>
        <time>2011-08-20T06:50:15Z</time>
      </trkpt>
      <trkpt lat="45.16431" lon="5.58967">
        <ele>1404.62</ele>
        <time>2011-08-20T06:50:20Z</time>
      </trkpt>
      <trkpt lat="45.16419" lon="5.58946">
        <ele>1407.51</ele>
        <time>2011-08-20T06:50:29Z</time>
      </trkpt>
      <trkpt lat="45.16407" lon="5.5893">
        <ele>1407.51</ele>
        <time>2011-08-20T06:50:31Z</time>
      </trkpt>
      <trkpt lat="45.16388" lon="5.589">
        <ele>1409.91</ele>
        <time>2011-08-20T06:50:41Z</time>
      </trkpt>
      <trkpt lat="45.16387" lon="5.58898">
        <ele>1409.91</ele>
        <time>2011-08-20T06:50:42Z</time>
      </trkpt>
      <trkpt lat="45.16387" lon="5.58892">
        <ele>1410.39</ele>
        <time>2011-08-20T06:50:46Z</time>
      </trkpt>
      <trkpt lat="45.16383" lon="5.58886">
        <ele>1411.35</ele>
        <time>2011-08-20T06:50:48Z</time>
      </trkpt>
      <trkpt lat="45.16378" lon="5.58879">
        <ele>1411.35</ele>
        <time>2011-08-20T06:50:51Z</time>
      </trkpt>
      <trkpt lat="45.16375" lon="5.58874">
        <ele>1412.31</ele>
        <time>2011-08-20T06:50:53Z</time>
      </trkpt>
      <trkpt lat="45.16364" lon="5.58856">
        <ele>1413.76</ele>
        <time>2011-08-20T06:51:01Z</time>
      </trkpt>
      <trkpt lat="45.16364" lon="5.58853">
        <ele>1415.68</ele>
        <time>2011-08-20T06:51:03Z</time>
      </trkpt>
      <trkpt lat="45.16353" lon="5.58834">
        <ele>1417.12</ele>
        <time>2011-08-20T06:51:11Z</time>
      </trkpt>
      <trkpt lat="45.16345" lon="5.58815">
        <ele>1419.04</ele>
        <time>2011-08-20T06:51:19Z</time>
      </trkpt>
      <trkpt lat="45.16338" lon="5.58808">
        <ele>1419.52</ele>
        <time>2011-08-20T06:51:23Z</time>
      </trkpt>
      <trkpt lat="45.16335" lon="5.58803">
        <ele>1415.68</ele>
        <time>2011-08-20T06:51:26Z</time>
      </trkpt>
      <trkpt lat="45.16335" lon="5.58802">
        <ele>1417.6</ele>
        <time>2011-08-20T06:51:27Z</time>
      </trkpt>
      <trkpt lat="45.16335" lon="5.58799">
        <ele>1421.93</ele>
        <time>2011-08-20T06:51:28Z</time>
      </trkpt>
      <trkpt lat="45.16335" lon="5.58797">
        <ele>1420.97</ele>
        <time>2011-08-20T06:51:29Z</time>
      </trkpt>
      <trkpt lat="45.16334" lon="5.58795">
        <ele>1420.97</ele>
        <time>2011-08-20T06:51:30Z</time>
      </trkpt>
      <trkpt lat="45.16311" lon="5.58769">
        <ele>1422.89</ele>
        <time>2011-08-20T06:51:46Z</time>
      </trkpt>
      <trkpt lat="45.163" lon="5.58759">
        <ele>1423.85</ele>
        <time>2011-08-20T06:51:53Z</time>
      </trkpt>
      <trkpt lat="45.16298" lon="5.58747">
        <ele>1425.29</ele>
        <time>2011-08-20T06:51:58Z</time>
      </trkpt>
      <trkpt lat="45.16299" lon="5.58737">
        <ele>1426.73</ele>
        <time>2011-08-20T06:52:05Z</time>
      </trkpt>
      <trkpt lat="45.16304" lon="5.58727">
        <ele>1428.18</ele>
        <time>2011-08-20T06:52:12Z</time>
      </trkpt>
      <trkpt lat="45.16307" lon="5.58727">
        <ele>1429.14</ele>
        <time>2011-08-20T06:52:15Z</time>
      </trkpt>
      <trkpt lat="45.16313" lon="5.58722">
        <ele>1430.1</ele>
        <time>2011-08-20T06:52:21Z</time>
      </trkpt>
      <trkpt lat="45.16316" lon="5.5872">
        <ele>1431.54</ele>
        <time>2011-08-20T06:52:24Z</time>
      </trkpt>
      <trkpt lat="45.16329" lon="5.58721">
        <ele>1432.5</ele>
        <time>2011-08-20T06:52:36Z</time>
      </trkpt>
      <trkpt lat="45.16338" lon="5.58719">
        <ele>1435.87</ele>
        <time>2011-08-20T06:52:47Z</time>
      </trkpt>
      <trkpt lat="45.16341" lon="5.5872">
        <ele>1436.83</ele>
        <time>2011-08-20T06:52:50Z</time>
      </trkpt>
      <trkpt lat="45.16349" lon="5.58714">
        <ele>1440.19</ele>
        <time>2011-08-20T06:52:59Z</time>
      </trkpt>
      <trkpt lat="45.16354" lon="5.5871">
        <ele>1443.08</ele>
        <time>2011-08-20T06:53:04Z</time>
      </trkpt>
      <trkpt lat="45.16356" lon="5.5871">
        <ele>1444.04</ele>
        <time>2011-08-20T06:53:15Z</time>
      </trkpt>
      <trkpt lat="45.16373" lon="5.58711">
        <ele>1446.44</ele>
        <time>2011-08-20T06:53:29Z</time>
      </trkpt>
      <trkpt lat="45.16384" lon="5.58702">
        <ele>1448.36</ele>
        <time>2011-08-20T06:53:41Z</time>
      </trkpt>
      <trkpt lat="45.16391" lon="5.58699">
        <ele>1450.29</ele>
        <time>2011-08-20T06:53:54Z</time>
      </trkpt>
      <trkpt lat="45.16395" lon="5.58697">
        <ele>1452.21</ele>
        <time>2011-08-20T06:54:08Z</time>
      </trkpt>
      <trkpt lat="45.16395" lon="5.58697">
        <ele>1452.21</ele>
        <time>2011-08-20T06:54:09Z</time>
      </trkpt>
      <trkpt lat="45.16396" lon="5.58697">
        <ele>1453.17</ele>
        <time>2011-08-20T06:54:12Z</time>
      </trkpt>
      <trkpt lat="45.16398" lon="5.58695">
        <ele>1455.57</ele>
        <time>2011-08-20T06:54:22Z</time>
      </trkpt>
      <trkpt lat="45.16398" lon="5.58694">
        <ele>1457.02</ele>
        <time>2011-08-20T06:54:33Z</time>
      </trkpt>
      <trkpt lat="45.16401" lon="5.58693">
        <ele>1457.98</ele>
        <time>2011-08-20T06:54:40Z</time>
      </trkpt>
      <trkpt lat="45.16402" lon="5.58693">
        <ele>1458.94</ele>
        <time>2011-08-20T06:54:42Z</time>
      </trkpt>
      <trkpt lat="45.16407" lon="5.58687">
        <ele>1460.38</ele>
        <time>2011-08-20T06:54:53Z</time>
      </trkpt>
      <trkpt lat="45.16408" lon="5.58687">
        <ele>1460.38</ele>
        <time>2011-08-20T06:54:57Z</time>
      </trkpt>
      <trkpt lat="45.1641" lon="5.58688">
        <ele>1460.86</ele>
        <time>2011-08-20T06:55:13Z</time>
      </trkpt>
      <trkpt lat="45.16412" lon="5.58687">
        <ele>1460.86</ele>
        <time>2011-08-20T06:55:29Z</time>
      </trkpt>
      <trkpt lat="45.16412" lon="5.58687">
        <ele>1460.86</ele>
        <time>2011-08-20T06:55:49Z</time>
      </trkpt>
      <trkpt lat="45.16412" lon="5.58687">
        <ele>1461.34</ele>
        <time>2011-08-20T06:56:12Z</time>
      </trkpt>
      <trkpt lat="45.16412" lon="5.58687">
        <ele>1461.34</ele>
        <time>2011-08-20T06:56:37Z</time>
      </trkpt>
      <trkpt lat="45.16412" lon="5.58688">
        <ele>1462.3</ele>
        <time>2011-08-20T06:56:51Z</time>
      </trkpt>
      <trkpt lat="45.16423" lon="5.58689">
        <ele>1462.78</ele>
        <time>2011-08-20T06:57:01Z</time>
      </trkpt>
      <trkpt lat="45.16427" lon="5.58691">
        <ele>1464.23</ele>
        <time>2011-08-20T06:57:04Z</time>
      </trkpt>
      <trkpt lat="45.16436" lon="5.58691">
        <ele>1465.19</ele>
        <time>2011-08-20T06:57:09Z</time>
      </trkpt>
      <trkpt lat="45.16453" lon="5.5869">
        <ele>1467.11</ele>
        <time>2011-08-20T06:57:15Z</time>
      </trkpt>
      <trkpt lat="45.16456" lon="5.58688">
        <ele>1468.07</ele>
        <time>2011-08-20T06:57:18Z</time>
      </trkpt>
      <trkpt lat="45.16463" lon="5.58682">
        <ele>1469.99</ele>
        <time>2011-08-20T06:57:25Z</time>
      </trkpt>
      <trkpt lat="45.16473" lon="5.58673">
        <ele>1473.36</ele>
        <time>2011-08-20T06:57:36Z</time>
      </trkpt>
      <trkpt lat="45.16484" lon="5.5867">
        <ele>1475.76</ele>
        <time>2011-08-20T06:57:46Z</time>
      </trkpt>
      <trkpt lat="45.16491" lon="5.58666">
        <ele>1477.2</ele>
        <time>2011-08-20T06:57:53Z</time>
      </trkpt>
      <trkpt lat="45.16504" lon="5.58667">
        <ele>1480.57</ele>
        <time>2011-08-20T06:58:05Z</time>
      </trkpt>
      <trkpt lat="45.16505" lon="5.58667">
        <ele>1481.05</ele>
        <time>2011-08-20T06:58:07Z</time>
      </trkpt>
      <trkpt lat="45.16508" lon="5.58669">
        <ele>1481.05</ele>
        <time>2011-08-20T06:58:10Z</time>
      </trkpt>
      <trkpt lat="45.16513" lon="5.58671">
        <ele>1482.01</ele>
        <time>2011-08-20T06:58:14Z</time>
      </trkpt>
      <trkpt lat="45.1652" lon="5.58669">
        <ele>1483.93</ele>
        <time>2011-08-20T06:58:21Z</time>
      </trkpt>
      <trkpt lat="45.16531" lon="5.58669">
        <ele>1484.89</ele>
        <time>2011-08-20T06:58:29Z</time>
      </trkpt>
      <trkpt lat="45.16534" lon="5.58669">
        <ele>1485.37</ele>
        <time>2011-08-20T06:58:32Z</time>
      </trkpt>
      <trkpt lat="45.16537" lon="5.5867">
        <ele>1485.85</ele>
        <time>2011-08-20T06:58:36Z</time>
      </trkpt>
      <trkpt lat="45.16559" lon="5.58656">
        <ele>1489.22</ele>
        <time>2011-08-20T06:58:50Z</time>
      </trkpt>
      <trkpt lat="45.16567" lon="5.58653">
        <ele>1490.18</ele>
        <time>2011-08-20T06:58:56Z</time>
      </trkpt>
      <trkpt lat="45.16592" lon="5.58652">
        <ele>1493.55</ele>
        <time>2011-08-20T06:59:11Z</time>
      </trkpt>
      <trkpt lat="45.16595" lon="5.58652">
        <ele>1494.03</ele>
        <time>2011-08-20T06:59:13Z</time>
      </trkpt>
      <trkpt lat="45.16616" lon="5.58648">
        <ele>1496.43</ele>
        <time>2011-08-20T06:59:30Z</time>
      </trkpt>
      <trkpt lat="45.16635" lon="5.5865">
        <ele>1498.35</ele>
        <time>2011-08-20T06:59:42Z</time>
      </trkpt>
      <trkpt lat="45.16637" lon="5.58649">
        <ele>1497.87</ele>
        <time>2011-08-20T06:59:43Z</time>
      </trkpt>
      <trkpt lat="45.16654" lon="5.58644">
        <ele>1501.24</ele>
        <time>2011-08-20T06:59:56Z</time>
      </trkpt>
      <trkpt lat="45.16661" lon="5.58642">
        <ele>1502.68</ele>
        <time>2011-08-20T07:00:03Z</time>
      </trkpt>
      <trkpt lat="45.16671" lon="5.58643">
        <ele>1504.12</ele>
        <time>2011-08-20T07:00:13Z</time>
      </trkpt>
      <trkpt lat="45.16682" lon="5.58644">
        <ele>1506.04</ele>
        <time>2011-08-20T07:00:25Z</time>
      </trkpt>
      <trkpt lat="45.16694" lon="5.58642">
        <ele>1507.97</ele>
        <time>2011-08-20T07:00:36Z</time>
      </trkpt>
      <trkpt lat="45.16694" lon="5.58642">
        <ele>1507.97</ele>
        <time>2011-08-20T07:00:37Z</time>
      </trkpt>
      <trkpt lat="45.16713" lon="5.58645">
        <ele>1510.85</ele>
        <time>2011-08-20T07:00:47Z</time>
      </trkpt>
      <trkpt lat="45.16716" lon="5.58644">
        <ele>1511.33</ele>
        <time>2011-08-20T07:00:51Z</time>
      </trkpt>
      <trkpt lat="45.16723" lon="5.58645">
        <ele>1513.73</ele>
        <time>2011-08-20T07:01:03Z</time>
      </trkpt>
      <trkpt lat="45.16755" lon="5.58653">
        <ele>1515.18</ele>
        <time>2011-08-20T07:01:15Z</time>
      </trkpt>
      <trkpt lat="45.1676" lon="5.58653">
        <ele>1515.66</ele>
        <time>2011-08-20T07:01:18Z</time>
      </trkpt>
      <trkpt lat="45.16773" lon="5.58648">
        <ele>1517.58</ele>
        <time>2011-08-20T07:01:27Z</time>
      </trkpt>
      <trkpt lat="45.16776" lon="5.58648">
        <ele>1518.06</ele>
        <time>2011-08-20T07:01:29Z</time>
      </trkpt>
      <trkpt lat="45.16782" lon="5.58641">
        <ele>1519.02</ele>
        <time>2011-08-20T07:01:35Z</time>
      </trkpt>
      <trkpt lat="45.16787" lon="5.58638">
        <ele>1520.94</ele>
        <time>2011-08-20T07:01:41Z</time>
      </trkpt>
      <trkpt lat="45.16794" lon="5.58641">
        <ele>1521.42</ele>
        <time>2011-08-20T07:01:47Z</time>
      </trkpt>
      <trkpt lat="45.168" lon="5.58644">
        <ele>1521.9</ele>
        <time>2011-08-20T07:01:51Z</time>
      </trkpt>
      <trkpt lat="45.16814" lon="5.58651">
        <ele>1523.83</ele>
        <time>2011-08-20T07:02:04Z</time>
      </trkpt>
      <trkpt lat="45.16827" lon="5.58651">
        <ele>1525.27</ele>
        <time>2011-08-20T07:02:15Z</time>
      </trkpt>
      <trkpt lat="45.1683" lon="5.58651">
        <ele>1525.75</ele>
        <time>2011-08-20T07:02:17Z</time>
      </trkpt>
      <trkpt lat="45.16838" lon="5.58655">
        <ele>1526.71</ele>
        <time>2011-08-20T07:02:23Z</time>
      </trkpt>
      <trkpt lat="45.16852" lon="5.58662">
        <ele>1529.11</ele>
        <time>2011-08-20T07:02:35Z</time>
      </trkpt>
      <trkpt lat="45.16861" lon="5.58664">
        <ele>1530.56</ele>
        <time>2011-08-20T07:02:42Z</time>
      </trkpt>
      <trkpt lat="45.16876" lon="5.5867">
        <ele>1532.48</ele>
        <time>2011-08-20T07:02:55Z</time>
      </trkpt>
      <trkpt lat="45.16876" lon="5.5867">
        <ele>1532</ele>
        <time>2011-08-20T07:02:56Z</time>
      </trkpt>
      <trkpt lat="45.16883" lon="5.58674">
        <ele>1534.4</ele>
        <time>2011-08-20T07:03:03Z</time>
      </trkpt>
      <trkpt lat="45.16885" lon="5.58675">
        <ele>1534.88</ele>
        <time>2011-08-20T07:03:05Z</time>
      </trkpt>
      <trkpt lat="45.16895" lon="5.58675">
        <ele>1535.84</ele>
        <time>2011-08-20T07:03:11Z</time>
      </trkpt>
      <trkpt lat="45.16898" lon="5.58676">
        <ele>1536.8</ele>
        <time>2011-08-20T07:03:14Z</time>
      </trkpt>
      <trkpt lat="45.16916" lon="5.58676">
        <ele>1538.25</ele>
        <time>2011-08-20T07:03:27Z</time>
      </trkpt>
      <trkpt lat="45.16924" lon="5.58673">
        <ele>1539.21</ele>
        <time>2011-08-20T07:03:33Z</time>
      </trkpt>
      <trkpt lat="45.16938" lon="5.58671">
        <ele>1540.17</ele>
        <time>2011-08-20T07:03:42Z</time>
      </trkpt>
      <trkpt lat="45.16947" lon="5.58669">
        <ele>1540.65</ele>
        <time>2011-08-20T07:03:48Z</time>
      </trkpt>
      <trkpt lat="45.16966" lon="5.58668">
        <ele>1542.09</ele>
        <time>2011-08-20T07:04:01Z</time>
      </trkpt>
      <trkpt lat="45.16968" lon="5.58668">
        <ele>1542.57</ele>
        <time>2011-08-20T07:04:03Z</time>
      </trkpt>
      <trkpt lat="45.16984" lon="5.58675">
        <ele>1544.5</ele>
        <time>2011-08-20T07:04:16Z</time>
      </trkpt>
      <trkpt lat="45.16992" lon="5.58681">
        <ele>1545.46</ele>
        <time>2011-08-20T07:04:22Z</time>
      </trkpt>
      <trkpt lat="45.17008" lon="5.5869">
        <ele>1547.86</ele>
        <time>2011-08-20T07:04:35Z</time>
      </trkpt>
      <trkpt lat="45.17018" lon="5.58696">
        <ele>1548.34</ele>
        <time>2011-08-20T07:04:41Z</time>
      </trkpt>
      <trkpt lat="45.17033" lon="5.58691">
        <ele>1549.3</ele>
        <time>2011-08-20T07:04:50Z</time>
      </trkpt>
      <trkpt lat="45.17043" lon="5.58687">
        <ele>1550.26</ele>
        <time>2011-08-20T07:04:56Z</time>
      </trkpt>
      <trkpt lat="45.17058" lon="5.5868">
        <ele>1553.15</ele>
        <time>2011-08-20T07:05:07Z</time>
      </trkpt>
      <trkpt lat="45.17063" lon="5.58678">
        <ele>1553.63</ele>
        <time>2011-08-20T07:05:10Z</time>
      </trkpt>
      <trkpt lat="45.17074" lon="5.58673">
        <ele>1554.59</ele>
        <time>2011-08-20T07:05:17Z</time>
      </trkpt>
      <trkpt lat="45.17097" lon="5.58664">
        <ele>1554.59</ele>
        <time>2011-08-20T07:05:28Z</time>
      </trkpt>
      <trkpt lat="45.17108" lon="5.58663">
        <ele>1555.55</ele>
        <time>2011-08-20T07:05:33Z</time>
      </trkpt>
      <trkpt lat="45.17128" lon="5.58668">
        <ele>1557.47</ele>
        <time>2011-08-20T07:05:45Z</time>
      </trkpt>
      <trkpt lat="45.17149" lon="5.58666">
        <ele>1559.88</ele>
        <time>2011-08-20T07:05:57Z</time>
      </trkpt>
      <trkpt lat="45.17155" lon="5.58664">
        <ele>1560.36</ele>
        <time>2011-08-20T07:06:01Z</time>
      </trkpt>
      <trkpt lat="45.17164" lon="5.58665">
        <ele>1561.8</ele>
        <time>2011-08-20T07:06:08Z</time>
      </trkpt>
      <trkpt lat="45.17167" lon="5.58663">
        <ele>1562.28</ele>
        <time>2011-08-20T07:06:22Z</time>
      </trkpt>
      <trkpt lat="45.1717" lon="5.5866">
        <ele>1562.76</ele>
        <time>2011-08-20T07:06:25Z</time>
      </trkpt>
      <trkpt lat="45.17181" lon="5.58662">
        <ele>1563.24</ele>
        <time>2011-08-20T07:06:35Z</time>
      </trkpt>
      <trkpt lat="45.17185" lon="5.58666">
        <ele>1563.72</ele>
        <time>2011-08-20T07:06:39Z</time>
      </trkpt>
      <trkpt lat="45.17191" lon="5.58672">
        <ele>1564.68</ele>
        <time>2011-08-20T07:06:45Z</time>
      </trkpt>
      <trkpt lat="45.17196" lon="5.58674">
        <ele>1565.64</ele>
        <time>2011-08-20T07:06:49Z</time>
      </trkpt>
      <trkpt lat="45.17206" lon="5.58682">
        <ele>1567.09</ele>
        <time>2011-08-20T07:06:58Z</time>
      </trkpt>
      <trkpt lat="45.17213" lon="5.58693">
        <ele>1568.53</ele>
        <time>2011-08-20T07:07:08Z</time>
      </trkpt>
      <trkpt lat="45.17226" lon="5.58711">
        <ele>1569.97</ele>
        <time>2011-08-20T07:07:19Z</time>
      </trkpt>
      <trkpt lat="45.17229" lon="5.58713">
        <ele>1570.45</ele>
        <time>2011-08-20T07:07:21Z</time>
      </trkpt>
      <trkpt lat="45.17235" lon="5.58717">
        <ele>1570.45</ele>
        <time>2011-08-20T07:07:25Z</time>
      </trkpt>
      <trkpt lat="45.17265" lon="5.58736">
        <ele>1569.97</ele>
        <time>2011-08-20T07:07:35Z</time>
      </trkpt>
      <trkpt lat="45.17292" lon="5.58751">
        <ele>1570.45</ele>
        <time>2011-08-20T07:07:45Z</time>
      </trkpt>
      <trkpt lat="45.17318" lon="5.58757">
        <ele>1570.93</ele>
        <time>2011-08-20T07:07:58Z</time>
      </trkpt>
      <trkpt lat="45.17342" lon="5.5877">
        <ele>1571.41</ele>
        <time>2011-08-20T07:08:09Z</time>
      </trkpt>
      <trkpt lat="45.17373" lon="5.58792">
        <ele>1570.45</ele>
        <time>2011-08-20T07:08:21Z</time>
      </trkpt>
      <trkpt lat="45.17402" lon="5.58806">
        <ele>1571.89</ele>
        <time>2011-08-20T07:08:33Z</time>
      </trkpt>
      <trkpt lat="45.17431" lon="5.58816">
        <ele>1572.37</ele>
        <time>2011-08-20T07:08:43Z</time>
      </trkpt>
      <trkpt lat="45.17466" lon="5.58841">
        <ele>1573.82</ele>
        <time>2011-08-20T07:08:56Z</time>
      </trkpt>
      <trkpt lat="45.17496" lon="5.58856">
        <ele>1573.82</ele>
        <time>2011-08-20T07:09:07Z</time>
      </trkpt>
      <trkpt lat="45.17537" lon="5.58876">
        <ele>1573.33</ele>
        <time>2011-08-20T07:09:17Z</time>
      </trkpt>
      <trkpt lat="45.17542" lon="5.58878">
        <ele>1573.33</ele>
        <time>2011-08-20T07:09:18Z</time>
      </trkpt>
      <trkpt lat="45.17547" lon="5.5888">
        <ele>1573.33</ele>
        <time>2011-08-20T07:09:19Z</time>
      </trkpt>
      <trkpt lat="45.17556" lon="5.58886">
        <ele>1573.33</ele>
        <time>2011-08-20T07:09:21Z</time>
      </trkpt>
      <trkpt lat="45.1756" lon="5.58889">
        <ele>1573.33</ele>
        <time>2011-08-20T07:09:22Z</time>
      </trkpt>
      <trkpt lat="45.17564" lon="5.58893">
        <ele>1572.85</ele>
        <time>2011-08-20T07:09:23Z</time>
      </trkpt>
      <trkpt lat="45.17598" lon="5.58923">
        <ele>1574.78</ele>
        <time>2011-08-20T07:09:35Z</time>
      </trkpt>
      <trkpt lat="45.1764" lon="5.58936">
        <ele>1572.85</ele>
        <time>2011-08-20T07:09:46Z</time>
      </trkpt>
      <trkpt lat="45.17649" lon="5.5894">
        <ele>1571.41</ele>
        <time>2011-08-20T07:09:48Z</time>
      </trkpt>
      <trkpt lat="45.17659" lon="5.58944">
        <ele>1570.45</ele>
        <time>2011-08-20T07:09:50Z</time>
      </trkpt>
      <trkpt lat="45.17664" lon="5.58946">
        <ele>1569.49</ele>
        <time>2011-08-20T07:09:51Z</time>
      </trkpt>
      <trkpt lat="45.17701" lon="5.58971">
        <ele>1566.61</ele>
        <time>2011-08-20T07:09:58Z</time>
      </trkpt>
      <trkpt lat="45.17714" lon="5.5898">
        <ele>1565.64</ele>
        <time>2011-08-20T07:10:00Z</time>
      </trkpt>
      <trkpt lat="45.17722" lon="5.58983">
        <ele>1565.64</ele>
        <time>2011-08-20T07:10:01Z</time>
      </trkpt>
      <trkpt lat="45.17758" lon="5.58994">
        <ele>1565.64</ele>
        <time>2011-08-20T07:10:06Z</time>
      </trkpt>
      <trkpt lat="45.17767" lon="5.58994">
        <ele>1565.16</ele>
        <time>2011-08-20T07:10:08Z</time>
      </trkpt>
      <trkpt lat="45.17808" lon="5.58991">
        <ele>1562.28</ele>
        <time>2011-08-20T07:10:15Z</time>
      </trkpt>
      <trkpt lat="45.17872" lon="5.58983">
        <ele>1558.43</ele>
        <time>2011-08-20T07:10:24Z</time>
      </trkpt>
      <trkpt lat="45.17888" lon="5.58985">
        <ele>1556.99</ele>
        <time>2011-08-20T07:10:26Z</time>
      </trkpt>
      <trkpt lat="45.17896" lon="5.58989">
        <ele>1555.55</ele>
        <time>2011-08-20T07:10:27Z</time>
      </trkpt>
      <trkpt lat="45.17904" lon="5.58995">
        <ele>1555.07</ele>
        <time>2011-08-20T07:10:28Z</time>
      </trkpt>
      <trkpt lat="45.17913" lon="5.59002">
        <ele>1553.15</ele>
        <time>2011-08-20T07:10:29Z</time>
      </trkpt>
      <trkpt lat="45.17921" lon="5.59007">
        <ele>1552.19</ele>
        <time>2011-08-20T07:10:30Z</time>
      </trkpt>
      <trkpt lat="45.1793" lon="5.59009">
        <ele>1551.22</ele>
        <time>2011-08-20T07:10:31Z</time>
      </trkpt>
      <trkpt lat="45.17938" lon="5.59011">
        <ele>1550.26</ele>
        <time>2011-08-20T07:10:32Z</time>
      </trkpt>
      <trkpt lat="45.17946" lon="5.59012">
        <ele>1548.34</ele>
        <time>2011-08-20T07:10:33Z</time>
      </trkpt>
      <trkpt lat="45.17966" lon="5.59016">
        <ele>1544.98</ele>
        <time>2011-08-20T07:10:39Z</time>
      </trkpt>
      <trkpt lat="45.17969" lon="5.59018">
        <ele>1545.46</ele>
        <time>2011-08-20T07:10:50Z</time>
      </trkpt>
      <trkpt lat="45.1797" lon="5.59018">
        <ele>1544.5</ele>
        <time>2011-08-20T07:10:52Z</time>
      </trkpt>
      <trkpt lat="45.17971" lon="5.59019">
        <ele>1544.5</ele>
        <time>2011-08-20T07:10:53Z</time>
      </trkpt>
      <trkpt lat="45.17974" lon="5.5902">
        <ele>1544.5</ele>
        <time>2011-08-20T07:10:54Z</time>
      </trkpt>
      <trkpt lat="45.17977" lon="5.59022">
        <ele>1544.5</ele>
        <time>2011-08-20T07:10:55Z</time>
      </trkpt>
      <trkpt lat="45.17979" lon="5.59023">
        <ele>1544.5</ele>
        <time>2011-08-20T07:10:56Z</time>
      </trkpt>
      <trkpt lat="45.17982" lon="5.59024">
        <ele>1544.5</ele>
        <time>2011-08-20T07:10:57Z</time>
      </trkpt>
      <trkpt lat="45.17984" lon="5.59025">
        <ele>1544.01</ele>
        <time>2011-08-20T07:10:58Z</time>
      </trkpt>
      <trkpt lat="45.18006" lon="5.59042">
        <ele>1544.98</ele>
        <time>2011-08-20T07:11:08Z</time>
      </trkpt>
      <trkpt lat="45.18016" lon="5.59054">
        <ele>1545.46</ele>
        <time>2011-08-20T07:11:15Z</time>
      </trkpt>
      <trkpt lat="45.18018" lon="5.59054">
        <ele>1545.46</ele>
        <time>2011-08-20T07:11:16Z</time>
      </trkpt>
      <trkpt lat="45.18035" lon="5.59064">
        <ele>1547.38</ele>
        <time>2011-08-20T07:11:27Z</time>
      </trkpt>
      <trkpt lat="45.18063" lon="5.59085">
        <ele>1549.78</ele>
        <time>2011-08-20T07:11:39Z</time>
      </trkpt>
      <trkpt lat="45.18092" lon="5.59111">
        <ele>1549.78</ele>
        <time>2011-08-20T07:11:51Z</time>
      </trkpt>
      <trkpt lat="45.1812" lon="5.59135">
        <ele>1551.71</ele>
        <time>2011-08-20T07:12:02Z</time>
      </trkpt>
      <trkpt lat="45.18122" lon="5.59136">
        <ele>1552.19</ele>
        <time>2011-08-20T07:12:03Z</time>
      </trkpt>
      <trkpt lat="45.18124" lon="5.59135">
        <ele>1552.19</ele>
        <time>2011-08-20T07:12:04Z</time>
      </trkpt>
      <trkpt lat="45.18133" lon="5.59135">
        <ele>1552.67</ele>
        <time>2011-08-20T07:12:07Z</time>
      </trkpt>
      <trkpt lat="45.18141" lon="5.59139">
        <ele>1551.71</ele>
        <time>2011-08-20T07:12:09Z</time>
      </trkpt>
      <trkpt lat="45.18172" lon="5.59159">
        <ele>1550.26</ele>
        <time>2011-08-20T07:12:16Z</time>
      </trkpt>
      <trkpt lat="45.18189" lon="5.59168">
        <ele>1550.74</ele>
        <time>2011-08-20T07:12:20Z</time>
      </trkpt>
      <trkpt lat="45.18193" lon="5.59169">
        <ele>1551.22</ele>
        <time>2011-08-20T07:12:21Z</time>
      </trkpt>
      <trkpt lat="45.1821" lon="5.59175">
        <ele>1551.22</ele>
        <time>2011-08-20T07:12:25Z</time>
      </trkpt>
      <trkpt lat="45.18249" lon="5.59205">
        <ele>1552.67</ele>
        <time>2011-08-20T07:12:35Z</time>
      </trkpt>
      <trkpt lat="45.18265" lon="5.59223">
        <ele>1552.19</ele>
        <time>2011-08-20T07:12:39Z</time>
      </trkpt>
      <trkpt lat="45.18269" lon="5.59228">
        <ele>1552.67</ele>
        <time>2011-08-20T07:12:40Z</time>
      </trkpt>
      <trkpt lat="45.18272" lon="5.59232">
        <ele>1553.15</ele>
        <time>2011-08-20T07:12:41Z</time>
      </trkpt>
      <trkpt lat="45.18277" lon="5.59235">
        <ele>1553.15</ele>
        <time>2011-08-20T07:12:42Z</time>
      </trkpt>
      <trkpt lat="45.18281" lon="5.59239">
        <ele>1552.67</ele>
        <time>2011-08-20T07:12:43Z</time>
      </trkpt>
      <trkpt lat="45.18285" lon="5.59244">
        <ele>1552.19</ele>
        <time>2011-08-20T07:12:44Z</time>
      </trkpt>
      <trkpt lat="45.1829" lon="5.5925">
        <ele>1552.19</ele>
        <time>2011-08-20T07:12:45Z</time>
      </trkpt>
      <trkpt lat="45.18293" lon="5.59257">
        <ele>1551.71</ele>
        <time>2011-08-20T07:12:46Z</time>
      </trkpt>
      <trkpt lat="45.18296" lon="5.59263">
        <ele>1552.67</ele>
        <time>2011-08-20T07:12:47Z</time>
      </trkpt>
      <trkpt lat="45.18298" lon="5.59269">
        <ele>1553.15</ele>
        <time>2011-08-20T07:12:48Z</time>
      </trkpt>
      <trkpt lat="45.18301" lon="5.59273">
        <ele>1553.63</ele>
        <time>2011-08-20T07:12:49Z</time>
      </trkpt>
      <trkpt lat="45.18304" lon="5.59276">
        <ele>1553.63</ele>
        <time>2011-08-20T07:12:50Z</time>
      </trkpt>
      <trkpt lat="45.18307" lon="5.59279">
        <ele>1553.63</ele>
        <time>2011-08-20T07:12:51Z</time>
      </trkpt>
      <trkpt lat="45.18311" lon="5.59281">
        <ele>1553.15</ele>
        <time>2011-08-20T07:12:52Z</time>
      </trkpt>
      <trkpt lat="45.18316" lon="5.59282">
        <ele>1553.63</ele>
        <time>2011-08-20T07:12:53Z</time>
      </trkpt>
      <trkpt lat="45.18321" lon="5.59283">
        <ele>1552.67</ele>
        <time>2011-08-20T07:12:54Z</time>
      </trkpt>
      <trkpt lat="45.18326" lon="5.59283">
        <ele>1552.67</ele>
        <time>2011-08-20T07:12:55Z</time>
      </trkpt>
      <trkpt lat="45.18342" lon="5.59283">
        <ele>1552.67</ele>
        <time>2011-08-20T07:12:58Z</time>
      </trkpt>
      <trkpt lat="45.18346" lon="5.59283">
        <ele>1553.15</ele>
        <time>2011-08-20T07:12:59Z</time>
      </trkpt>
      <trkpt lat="45.18376" lon="5.59306">
        <ele>1555.07</ele>
        <time>2011-08-20T07:13:09Z</time>
      </trkpt>
      <trkpt lat="45.18389" lon="5.59326">
        <ele>1554.59</ele>
        <time>2011-08-20T07:13:13Z</time>
      </trkpt>
      <trkpt lat="45.18421" lon="5.59373">
        <ele>1554.59</ele>
        <time>2011-08-20T07:13:25Z</time>
      </trkpt>
      <trkpt lat="45.18446" lon="5.59406">
        <ele>1553.15</ele>
        <time>2011-08-20T07:13:32Z</time>
      </trkpt>
      <trkpt lat="45.18449" lon="5.59412">
        <ele>1553.15</ele>
        <time>2011-08-20T07:13:33Z</time>
      </trkpt>
      <trkpt lat="45.18452" lon="5.59418">
        <ele>1553.15</ele>
        <time>2011-08-20T07:13:34Z</time>
      </trkpt>
      <trkpt lat="45.18466" lon="5.5944">
        <ele>1552.67</ele>
        <time>2011-08-20T07:13:39Z</time>
      </trkpt>
      <trkpt lat="45.1847" lon="5.59445">
        <ele>1552.67</ele>
        <time>2011-08-20T07:13:40Z</time>
      </trkpt>
      <trkpt lat="45.18504" lon="5.59479">
        <ele>1553.63</ele>
        <time>2011-08-20T07:13:52Z</time>
      </trkpt>
      <trkpt lat="45.18539" lon="5.59506">
        <ele>1556.03</ele>
        <time>2011-08-20T07:14:05Z</time>
      </trkpt>
      <trkpt lat="45.18576" lon="5.59516">
        <ele>1557.47</ele>
        <time>2011-08-20T07:14:17Z</time>
      </trkpt>
      <trkpt lat="45.1858" lon="5.59516">
        <ele>1557.47</ele>
        <time>2011-08-20T07:14:18Z</time>
      </trkpt>
      <trkpt lat="45.18584" lon="5.59517">
        <ele>1556.99</ele>
        <time>2011-08-20T07:14:19Z</time>
      </trkpt>
      <trkpt lat="45.18588" lon="5.59517">
        <ele>1557.47</ele>
        <time>2011-08-20T07:14:20Z</time>
      </trkpt>
      <trkpt lat="45.18592" lon="5.59518">
        <ele>1557.47</ele>
        <time>2011-08-20T07:14:21Z</time>
      </trkpt>
      <trkpt lat="45.18596" lon="5.59518">
        <ele>1556.99</ele>
        <time>2011-08-20T07:14:22Z</time>
      </trkpt>
      <trkpt lat="45.18634" lon="5.59526">
        <ele>1559.88</ele>
        <time>2011-08-20T07:14:34Z</time>
      </trkpt>
      <trkpt lat="45.18676" lon="5.59532">
        <ele>1561.8</ele>
        <time>2011-08-20T07:14:48Z</time>
      </trkpt>
      <trkpt lat="45.18717" lon="5.59538">
        <ele>1563.72</ele>
        <time>2011-08-20T07:15:01Z</time>
      </trkpt>
      <trkpt lat="45.18762" lon="5.5954">
        <ele>1565.64</ele>
        <time>2011-08-20T07:15:16Z</time>
      </trkpt>
      <trkpt lat="45.18787" lon="5.59535">
        <ele>1569.01</ele>
        <time>2011-08-20T07:15:26Z</time>
      </trkpt>
      <trkpt lat="45.18807" lon="5.59535">
        <ele>1571.41</ele>
        <time>2011-08-20T07:15:34Z</time>
      </trkpt>
      <trkpt lat="45.18835" lon="5.5954">
        <ele>1570.45</ele>
        <time>2011-08-20T07:15:43Z</time>
      </trkpt>
      <trkpt lat="45.1884" lon="5.59536">
        <ele>1570.45</ele>
        <time>2011-08-20T07:15:44Z</time>
      </trkpt>
      <trkpt lat="45.18843" lon="5.59531">
        <ele>1569.97</ele>
        <time>2011-08-20T07:15:45Z</time>
      </trkpt>
      <trkpt lat="45.18844" lon="5.59524">
        <ele>1569.97</ele>
        <time>2011-08-20T07:15:46Z</time>
      </trkpt>
      <trkpt lat="45.18844" lon="5.59518">
        <ele>1569.97</ele>
        <time>2011-08-20T07:15:47Z</time>
      </trkpt>
      <trkpt lat="45.18843" lon="5.59512">
        <ele>1569.97</ele>
        <time>2011-08-20T07:15:48Z</time>
      </trkpt>
      <trkpt lat="45.18842" lon="5.59477">
        <ele>1570.45</ele>
        <time>2011-08-20T07:15:54Z</time>
      </trkpt>
      <trkpt lat="45.18845" lon="5.59472">
        <ele>1570.45</ele>
        <time>2011-08-20T07:15:55Z</time>
      </trkpt>
      <trkpt lat="45.18848" lon="5.59467">
        <ele>1569.97</ele>
        <time>2011-08-20T07:15:56Z</time>
      </trkpt>
      <trkpt lat="45.18852" lon="5.59464">
        <ele>1570.45</ele>
        <time>2011-08-20T07:15:57Z</time>
      </trkpt>
      <trkpt lat="45.18857" lon="5.59462">
        <ele>1570.45</ele>
        <time>2011-08-20T07:15:58Z</time>
      </trkpt>
      <trkpt lat="45.18872" lon="5.59457">
        <ele>1570.93</ele>
        <time>2011-08-20T07:16:01Z</time>
      </trkpt>
      <trkpt lat="45.18877" lon="5.59455">
        <ele>1570.45</ele>
        <time>2011-08-20T07:16:02Z</time>
      </trkpt>
      <trkpt lat="45.18882" lon="5.59453">
        <ele>1569.97</ele>
        <time>2011-08-20T07:16:03Z</time>
      </trkpt>
      <trkpt lat="45.18892" lon="5.59451">
        <ele>1570.93</ele>
        <time>2011-08-20T07:16:05Z</time>
      </trkpt>
      <trkpt lat="45.18898" lon="5.5945">
        <ele>1570.93</ele>
        <time>2011-08-20T07:16:06Z</time>
      </trkpt>
      <trkpt lat="45.18908" lon="5.5945">
        <ele>1571.41</ele>
        <time>2011-08-20T07:16:08Z</time>
      </trkpt>
      <trkpt lat="45.18912" lon="5.5945">
        <ele>1571.41</ele>
        <time>2011-08-20T07:16:09Z</time>
      </trkpt>
      <trkpt lat="45.18915" lon="5.59448">
        <ele>1571.41</ele>
        <time>2011-08-20T07:16:10Z</time>
      </trkpt>
      <trkpt lat="45.18918" lon="5.59447">
        <ele>1571.89</ele>
        <time>2011-08-20T07:16:11Z</time>
      </trkpt>
      <trkpt lat="45.18921" lon="5.59445">
        <ele>1571.89</ele>
        <time>2011-08-20T07:16:12Z</time>
      </trkpt>
      <trkpt lat="45.18946" lon="5.59433">
        <ele>1574.3</ele>
        <time>2011-08-20T07:16:24Z</time>
      </trkpt>
      <trkpt lat="45.1896" lon="5.59419">
        <ele>1576.7</ele>
        <time>2011-08-20T07:16:33Z</time>
      </trkpt>
      <trkpt lat="45.18962" lon="5.59418">
        <ele>1576.7</ele>
        <time>2011-08-20T07:16:34Z</time>
      </trkpt>
      <trkpt lat="45.18983" lon="5.59398">
        <ele>1580.06</ele>
        <time>2011-08-20T07:16:47Z</time>
      </trkpt>
      <trkpt lat="45.19009" lon="5.59389">
        <ele>1583.43</ele>
        <time>2011-08-20T07:17:01Z</time>
      </trkpt>
      <trkpt lat="45.19039" lon="5.59383">
        <ele>1586.31</ele>
        <time>2011-08-20T07:17:16Z</time>
      </trkpt>
      <trkpt lat="45.19072" lon="5.59387">
        <ele>1586.31</ele>
        <time>2011-08-20T07:17:29Z</time>
      </trkpt>
      <trkpt lat="45.19085" lon="5.59387">
        <ele>1586.79</ele>
        <time>2011-08-20T07:17:34Z</time>
      </trkpt>
      <trkpt lat="45.19087" lon="5.59387">
        <ele>1587.27</ele>
        <time>2011-08-20T07:17:35Z</time>
      </trkpt>
      <trkpt lat="45.19121" lon="5.59383">
        <ele>1586.79</ele>
        <time>2011-08-20T07:17:46Z</time>
      </trkpt>
      <trkpt lat="45.19151" lon="5.59377">
        <ele>1588.72</ele>
        <time>2011-08-20T07:17:55Z</time>
      </trkpt>
      <trkpt lat="45.19163" lon="5.59378">
        <ele>1589.68</ele>
        <time>2011-08-20T07:18:00Z</time>
      </trkpt>
      <trkpt lat="45.19194" lon="5.59379">
        <ele>1591.6</ele>
        <time>2011-08-20T07:18:13Z</time>
      </trkpt>
      <trkpt lat="45.19226" lon="5.59368">
        <ele>1594</ele>
        <time>2011-08-20T07:18:27Z</time>
      </trkpt>
      <trkpt lat="45.19257" lon="5.59369">
        <ele>1596.89</ele>
        <time>2011-08-20T07:18:41Z</time>
      </trkpt>
      <trkpt lat="45.19292" lon="5.59372">
        <ele>1598.81</ele>
        <time>2011-08-20T07:18:56Z</time>
      </trkpt>
      <trkpt lat="45.19315" lon="5.59373">
        <ele>1599.77</ele>
        <time>2011-08-20T07:19:05Z</time>
      </trkpt>
      <trkpt lat="45.19347" lon="5.59378">
        <ele>1600.73</ele>
        <time>2011-08-20T07:19:17Z</time>
      </trkpt>
      <trkpt lat="45.19384" lon="5.59381">
        <ele>1602.17</ele>
        <time>2011-08-20T07:19:32Z</time>
      </trkpt>
      <trkpt lat="45.19423" lon="5.59378">
        <ele>1604.58</ele>
        <time>2011-08-20T07:19:48Z</time>
      </trkpt>
      <trkpt lat="45.19465" lon="5.5938">
        <ele>1605.06</ele>
        <time>2011-08-20T07:20:03Z</time>
      </trkpt>
      <trkpt lat="45.19484" lon="5.59379">
        <ele>1604.58</ele>
        <time>2011-08-20T07:20:08Z</time>
      </trkpt>
      <trkpt lat="45.19509" lon="5.59371">
        <ele>1604.58</ele>
        <time>2011-08-20T07:20:14Z</time>
      </trkpt>
      <trkpt lat="45.19513" lon="5.59369">
        <ele>1604.58</ele>
        <time>2011-08-20T07:20:15Z</time>
      </trkpt>
      <trkpt lat="45.19538" lon="5.59356">
        <ele>1604.1</ele>
        <time>2011-08-20T07:20:21Z</time>
      </trkpt>
      <trkpt lat="45.19541" lon="5.59353">
        <ele>1604.58</ele>
        <time>2011-08-20T07:20:22Z</time>
      </trkpt>
      <trkpt lat="45.19579" lon="5.59326">
        <ele>1605.54</ele>
        <time>2011-08-20T07:20:34Z</time>
      </trkpt>
      <trkpt lat="45.19614" lon="5.5932">
        <ele>1607.46</ele>
        <time>2011-08-20T07:20:46Z</time>
      </trkpt>
      <trkpt lat="45.19655" lon="5.59308">
        <ele>1609.38</ele>
        <time>2011-08-20T07:20:59Z</time>
      </trkpt>
      <trkpt lat="45.19688" lon="5.59321">
        <ele>1611.31</ele>
        <time>2011-08-20T07:21:10Z</time>
      </trkpt>
      <trkpt lat="45.19732" lon="5.59313">
        <ele>1613.71</ele>
        <time>2011-08-20T07:21:24Z</time>
      </trkpt>
      <trkpt lat="45.19754" lon="5.59298">
        <ele>1616.11</ele>
        <time>2011-08-20T07:21:33Z</time>
      </trkpt>
      <trkpt lat="45.19778" lon="5.59255">
        <ele>1618.52</ele>
        <time>2011-08-20T07:21:47Z</time>
      </trkpt>
      <trkpt lat="45.19788" lon="5.59219">
        <ele>1621.4</ele>
        <time>2011-08-20T07:21:59Z</time>
      </trkpt>
      <trkpt lat="45.19787" lon="5.59216">
        <ele>1621.4</ele>
        <time>2011-08-20T07:22:00Z</time>
      </trkpt>
      <trkpt lat="45.19787" lon="5.59213">
        <ele>1622.36</ele>
        <time>2011-08-20T07:22:01Z</time>
      </trkpt>
      <trkpt lat="45.19788" lon="5.5921">
        <ele>1621.88</ele>
        <time>2011-08-20T07:22:02Z</time>
      </trkpt>
      <trkpt lat="45.19789" lon="5.59207">
        <ele>1621.88</ele>
        <time>2011-08-20T07:22:03Z</time>
      </trkpt>
      <trkpt lat="45.1979" lon="5.59205">
        <ele>1621.88</ele>
        <time>2011-08-20T07:22:04Z</time>
      </trkpt>
      <trkpt lat="45.1979" lon="5.59203">
        <ele>1621.88</ele>
        <time>2011-08-20T07:22:05Z</time>
      </trkpt>
      <trkpt lat="45.19792" lon="5.59202">
        <ele>1621.88</ele>
        <time>2011-08-20T07:22:06Z</time>
      </trkpt>
      <trkpt lat="45.19793" lon="5.59201">
        <ele>1621.88</ele>
        <time>2011-08-20T07:22:07Z</time>
      </trkpt>
      <trkpt lat="45.19794" lon="5.59202">
        <ele>1621.88</ele>
        <time>2011-08-20T07:22:15Z</time>
      </trkpt>
      <trkpt lat="45.19794" lon="5.59202">
        <ele>1622.36</ele>
        <time>2011-08-20T07:22:49Z</time>
      </trkpt>
      <trkpt lat="45.19794" lon="5.59202">
        <ele>1622.36</ele>
        <time>2011-08-20T07:23:27Z</time>
      </trkpt>
      <trkpt lat="45.19794" lon="5.59202">
        <ele>1623.32</ele>
        <time>2011-08-20T07:24:05Z</time>
      </trkpt>
      <trkpt lat="45.19794" lon="5.59202">
        <ele>1623.8</ele>
        <time>2011-08-20T07:24:47Z</time>
      </trkpt>
      <trkpt lat="45.19794" lon="5.59202">
        <ele>1623.8</ele>
        <time>2011-08-20T07:25:26Z</time>
      </trkpt>
      <trkpt lat="45.19795" lon="5.59202">
        <ele>1624.28</ele>
        <time>2011-08-20T07:26:04Z</time>
      </trkpt>
      <trkpt lat="45.19794" lon="5.59202">
        <ele>1623.8</ele>
        <time>2011-08-20T07:26:47Z</time>
      </trkpt>
      <trkpt lat="45.19794" lon="5.59202">
        <ele>1623.8</ele>
        <time>2011-08-20T07:27:27Z</time>
      </trkpt>
      <trkpt lat="45.19794" lon="5.59202">
        <ele>1624.77</ele>
        <time>2011-08-20T07:28:04Z</time>
      </trkpt>
      <trkpt lat="45.19793" lon="5.59202">
        <ele>1624.77</ele>
        <time>2011-08-20T07:28:39Z</time>
      </trkpt>
      <trkpt lat="45.19793" lon="5.59202">
        <ele>1625.25</ele>
        <time>2011-08-20T07:29:19Z</time>
      </trkpt>
      <trkpt lat="45.19793" lon="5.59202">
        <ele>1625.25</ele>
        <time>2011-08-20T07:29:51Z</time>
      </trkpt>
      <trkpt lat="45.19793" lon="5.59202">
        <ele>1625.25</ele>
        <time>2011-08-20T07:30:15Z</time>
      </trkpt>
      <trkpt lat="45.19793" lon="5.59202">
        <ele>1630.53</ele>
        <time>2011-08-20T07:30:17Z</time>
      </trkpt>
      <trkpt lat="45.19793" lon="5.59202">
        <ele>1626.69</ele>
        <time>2011-08-20T07:30:18Z</time>
      </trkpt>
      <trkpt lat="45.19793" lon="5.59202">
        <ele>1626.21</ele>
        <time>2011-08-20T07:30:41Z</time>
      </trkpt>
      <trkpt lat="45.19794" lon="5.59201">
        <ele>1626.69</ele>
        <time>2011-08-20T07:30:53Z</time>
      </trkpt>
      <trkpt lat="45.19795" lon="5.592">
        <ele>1626.21</ele>
        <time>2011-08-20T07:30:54Z</time>
      </trkpt>
      <trkpt lat="45.19796" lon="5.59198">
        <ele>1626.69</ele>
        <time>2011-08-20T07:30:55Z</time>
      </trkpt>
      <trkpt lat="45.19796" lon="5.59195">
        <ele>1626.21</ele>
        <time>2011-08-20T07:30:56Z</time>
      </trkpt>
      <trkpt lat="45.19795" lon="5.59193">
        <ele>1626.21</ele>
        <time>2011-08-20T07:30:57Z</time>
      </trkpt>
      <trkpt lat="45.19794" lon="5.59191">
        <ele>1626.21</ele>
        <time>2011-08-20T07:30:58Z</time>
      </trkpt>
      <trkpt lat="45.19793" lon="5.59189">
        <ele>1627.17</ele>
        <time>2011-08-20T07:30:59Z</time>
      </trkpt>
      <trkpt lat="45.19792" lon="5.59187">
        <ele>1626.21</ele>
        <time>2011-08-20T07:31:00Z</time>
      </trkpt>
      <trkpt lat="45.19791" lon="5.59185">
        <ele>1626.69</ele>
        <time>2011-08-20T07:31:01Z</time>
      </trkpt>
      <trkpt lat="45.19791" lon="5.59182">
        <ele>1626.21</ele>
        <time>2011-08-20T07:31:02Z</time>
      </trkpt>
      <trkpt lat="45.19789" lon="5.59181">
        <ele>1626.21</ele>
        <time>2011-08-20T07:31:03Z</time>
      </trkpt>
      <trkpt lat="45.19787" lon="5.59181">
        <ele>1626.69</ele>
        <time>2011-08-20T07:31:04Z</time>
      </trkpt>
      <trkpt lat="45.19785" lon="5.59182">
        <ele>1626.69</ele>
        <time>2011-08-20T07:31:05Z</time>
      </trkpt>
      <trkpt lat="45.19784" lon="5.59184">
        <ele>1625.73</ele>
        <time>2011-08-20T07:31:06Z</time>
      </trkpt>
      <trkpt lat="45.19782" lon="5.59186">
        <ele>1627.17</ele>
        <time>2011-08-20T07:31:07Z</time>
      </trkpt>
      <trkpt lat="45.1978" lon="5.59188">
        <ele>1626.21</ele>
        <time>2011-08-20T07:31:08Z</time>
      </trkpt>
      <trkpt lat="45.19778" lon="5.5919">
        <ele>1627.17</ele>
        <time>2011-08-20T07:31:09Z</time>
      </trkpt>
      <trkpt lat="45.19776" lon="5.59191">
        <ele>1627.17</ele>
        <time>2011-08-20T07:31:10Z</time>
      </trkpt>
      <trkpt lat="45.19775" lon="5.59192">
        <ele>1626.69</ele>
        <time>2011-08-20T07:31:11Z</time>
      </trkpt>
      <trkpt lat="45.19773" lon="5.59194">
        <ele>1627.65</ele>
        <time>2011-08-20T07:31:12Z</time>
      </trkpt>
      <trkpt lat="45.19771" lon="5.59195">
        <ele>1627.65</ele>
        <time>2011-08-20T07:31:13Z</time>
      </trkpt>
      <trkpt lat="45.19769" lon="5.59195">
        <ele>1627.65</ele>
        <time>2011-08-20T07:31:14Z</time>
      </trkpt>
      <trkpt lat="45.19767" lon="5.59195">
        <ele>1627.17</ele>
        <time>2011-08-20T07:31:15Z</time>
      </trkpt>
      <trkpt lat="45.19766" lon="5.59195">
        <ele>1627.65</ele>
        <time>2011-08-20T07:31:16Z</time>
      </trkpt>
      <trkpt lat="45.19764" lon="5.59194">
        <ele>1627.65</ele>
        <time>2011-08-20T07:31:17Z</time>
      </trkpt>
      <trkpt lat="45.19763" lon="5.59193">
        <ele>1627.17</ele>
        <time>2011-08-20T07:31:18Z</time>
      </trkpt>
      <trkpt lat="45.19762" lon="5.59193">
        <ele>1627.65</ele>
        <time>2011-08-20T07:31:19Z</time>
      </trkpt>
      <trkpt lat="45.19761" lon="5.59193">
        <ele>1627.65</ele>
        <time>2011-08-20T07:31:20Z</time>
      </trkpt>
      <trkpt lat="45.19759" lon="5.59194">
        <ele>1627.65</ele>
        <time>2011-08-20T07:31:21Z</time>
      </trkpt>
      <trkpt lat="45.19757" lon="5.59193">
        <ele>1627.65</ele>
        <time>2011-08-20T07:31:22Z</time>
      </trkpt>
      <trkpt lat="45.19755" lon="5.59193">
        <ele>1627.65</ele>
        <time>2011-08-20T07:31:23Z</time>
      </trkpt>
      <trkpt lat="45.19754" lon="5.59192">
        <ele>1628.13</ele>
        <time>2011-08-20T07:31:24Z</time>
      </trkpt>
      <trkpt lat="45.19733" lon="5.59187">
        <ele>1630.53</ele>
        <time>2011-08-20T07:31:38Z</time>
      </trkpt>
      <trkpt lat="45.19728" lon="5.59186">
        <ele>1630.53</ele>
        <time>2011-08-20T07:31:42Z</time>
      </trkpt>
      <trkpt lat="45.19727" lon="5.59185">
        <ele>1631.01</ele>
        <time>2011-08-20T07:31:43Z</time>
      </trkpt>
      <trkpt lat="45.19725" lon="5.59184">
        <ele>1631.49</ele>
        <time>2011-08-20T07:31:44Z</time>
      </trkpt>
      <trkpt lat="45.19724" lon="5.59183">
        <ele>1631.01</ele>
        <time>2011-08-20T07:31:45Z</time>
      </trkpt>
      <trkpt lat="45.19723" lon="5.59182">
        <ele>1631.49</ele>
        <time>2011-08-20T07:31:46Z</time>
      </trkpt>
      <trkpt lat="45.19722" lon="5.59182">
        <ele>1631.98</ele>
        <time>2011-08-20T07:31:47Z</time>
      </trkpt>
      <trkpt lat="45.19719" lon="5.59182">
        <ele>1632.46</ele>
        <time>2011-08-20T07:31:50Z</time>
      </trkpt>
      <trkpt lat="45.19717" lon="5.59183">
        <ele>1632.94</ele>
        <time>2011-08-20T07:31:52Z</time>
      </trkpt>
      <trkpt lat="45.19715" lon="5.59182">
        <ele>1633.42</ele>
        <time>2011-08-20T07:31:54Z</time>
      </trkpt>
      <trkpt lat="45.19713" lon="5.59181">
        <ele>1633.42</ele>
        <time>2011-08-20T07:31:55Z</time>
      </trkpt>
      <trkpt lat="45.19712" lon="5.59181">
        <ele>1633.42</ele>
        <time>2011-08-20T07:31:56Z</time>
      </trkpt>
      <trkpt lat="45.19711" lon="5.5918">
        <ele>1633.9</ele>
        <time>2011-08-20T07:31:57Z</time>
      </trkpt>
      <trkpt lat="45.1971" lon="5.59179">
        <ele>1634.38</ele>
        <time>2011-08-20T07:31:58Z</time>
      </trkpt>
      <trkpt lat="45.19709" lon="5.59178">
        <ele>1634.86</ele>
        <time>2011-08-20T07:31:59Z</time>
      </trkpt>
      <trkpt lat="45.19708" lon="5.59177">
        <ele>1634.86</ele>
        <time>2011-08-20T07:32:00Z</time>
      </trkpt>
      <trkpt lat="45.19705" lon="5.59176">
        <ele>1635.34</ele>
        <time>2011-08-20T07:32:02Z</time>
      </trkpt>
      <trkpt lat="45.19704" lon="5.59175">
        <ele>1634.86</ele>
        <time>2011-08-20T07:32:03Z</time>
      </trkpt>
      <trkpt lat="45.19703" lon="5.59175">
        <ele>1635.82</ele>
        <time>2011-08-20T07:32:04Z</time>
      </trkpt>
      <trkpt lat="45.19697" lon="5.59174">
        <ele>1636.78</ele>
        <time>2011-08-20T07:32:08Z</time>
      </trkpt>
      <trkpt lat="45.19687" lon="5.59168">
        <ele>1640.15</ele>
        <time>2011-08-20T07:32:16Z</time>
      </trkpt>
      <trkpt lat="45.19676" lon="5.59162">
        <ele>1643.51</ele>
        <time>2011-08-20T07:32:24Z</time>
      </trkpt>
      <trkpt lat="45.19675" lon="5.59162">
        <ele>1643.99</ele>
        <time>2011-08-20T07:32:25Z</time>
      </trkpt>
      <trkpt lat="45.19667" lon="5.59162">
        <ele>1644.47</ele>
        <time>2011-08-20T07:32:30Z</time>
      </trkpt>
      <trkpt lat="45.19666" lon="5.59162">
        <ele>1643.99</ele>
        <time>2011-08-20T07:32:31Z</time>
      </trkpt>
      <trkpt lat="45.19653" lon="5.59159">
        <ele>1644.95</ele>
        <time>2011-08-20T07:32:37Z</time>
      </trkpt>
      <trkpt lat="45.19649" lon="5.59159">
        <ele>1644.47</ele>
        <time>2011-08-20T07:32:38Z</time>
      </trkpt>
      <trkpt lat="45.19646" lon="5.5916">
        <ele>1644.47</ele>
        <time>2011-08-20T07:32:39Z</time>
      </trkpt>
      <trkpt lat="45.19643" lon="5.59161">
        <ele>1644.47</ele>
        <time>2011-08-20T07:32:40Z</time>
      </trkpt>
      <trkpt lat="45.19641" lon="5.59161">
        <ele>1644.47</ele>
        <time>2011-08-20T07:32:41Z</time>
      </trkpt>
      <trkpt lat="45.19638" lon="5.59162">
        <ele>1644.95</ele>
        <time>2011-08-20T07:32:42Z</time>
      </trkpt>
      <trkpt lat="45.19613" lon="5.59167">
        <ele>1644.95</ele>
        <time>2011-08-20T07:32:52Z</time>
      </trkpt>
      <trkpt lat="45.19592" lon="5.59172">
        <ele>1645.91</ele>
        <time>2011-08-20T07:33:01Z</time>
      </trkpt>
      <trkpt lat="45.19583" lon="5.59177">
        <ele>1645.91</ele>
        <time>2011-08-20T07:33:05Z</time>
      </trkpt>
      <trkpt lat="45.19581" lon="5.59177">
        <ele>1645.91</ele>
        <time>2011-08-20T07:33:06Z</time>
      </trkpt>
      <trkpt lat="45.19579" lon="5.59178">
        <ele>1646.4</ele>
        <time>2011-08-20T07:33:07Z</time>
      </trkpt>
      <trkpt lat="45.19547" lon="5.59183">
        <ele>1646.88</ele>
        <time>2011-08-20T07:33:18Z</time>
      </trkpt>
      <trkpt lat="45.19507" lon="5.59202">
        <ele>1646.88</ele>
        <time>2011-08-20T07:33:30Z</time>
      </trkpt>
      <trkpt lat="45.19473" lon="5.59209">
        <ele>1646.88</ele>
        <time>2011-08-20T07:33:39Z</time>
      </trkpt>
      <trkpt lat="45.19431" lon="5.59238">
        <ele>1647.36</ele>
        <time>2011-08-20T07:33:52Z</time>
      </trkpt>
      <trkpt lat="45.19399" lon="5.59245">
        <ele>1647.84</ele>
        <time>2011-08-20T07:34:01Z</time>
      </trkpt>
      <trkpt lat="45.19384" lon="5.59248">
        <ele>1647.84</ele>
        <time>2011-08-20T07:34:04Z</time>
      </trkpt>
      <trkpt lat="45.19379" lon="5.59247">
        <ele>1647.84</ele>
        <time>2011-08-20T07:34:05Z</time>
      </trkpt>
      <trkpt lat="45.19323" lon="5.59234">
        <ele>1645.43</ele>
        <time>2011-08-20T07:34:15Z</time>
      </trkpt>
      <trkpt lat="45.19318" lon="5.59233">
        <ele>1644.95</ele>
        <time>2011-08-20T07:34:16Z</time>
      </trkpt>
      <trkpt lat="45.19312" lon="5.59231">
        <ele>1644.95</ele>
        <time>2011-08-20T07:34:17Z</time>
      </trkpt>
      <trkpt lat="45.19307" lon="5.5923">
        <ele>1644.95</ele>
        <time>2011-08-20T07:34:18Z</time>
      </trkpt>
      <trkpt lat="45.19302" lon="5.59228">
        <ele>1644.95</ele>
        <time>2011-08-20T07:34:19Z</time>
      </trkpt>
      <trkpt lat="45.19296" lon="5.59226">
        <ele>1644.47</ele>
        <time>2011-08-20T07:34:20Z</time>
      </trkpt>
      <trkpt lat="45.1929" lon="5.59224">
        <ele>1643.51</ele>
        <time>2011-08-20T07:34:21Z</time>
      </trkpt>
      <trkpt lat="45.19264" lon="5.59219">
        <ele>1643.03</ele>
        <time>2011-08-20T07:34:25Z</time>
      </trkpt>
      <trkpt lat="45.19209" lon="5.59202">
        <ele>1643.51</ele>
        <time>2011-08-20T07:34:32Z</time>
      </trkpt>
      <trkpt lat="45.19194" lon="5.592">
        <ele>1646.4</ele>
        <time>2011-08-20T07:34:36Z</time>
      </trkpt>
      <trkpt lat="45.19185" lon="5.59198">
        <ele>1648.8</ele>
        <time>2011-08-20T07:34:41Z</time>
      </trkpt>
      <trkpt lat="45.19182" lon="5.59197">
        <ele>1650.24</ele>
        <time>2011-08-20T07:34:43Z</time>
      </trkpt>
      <trkpt lat="45.1918" lon="5.59197">
        <ele>1650.24</ele>
        <time>2011-08-20T07:34:44Z</time>
      </trkpt>
      <trkpt lat="45.19179" lon="5.59197">
        <ele>1650.24</ele>
        <time>2011-08-20T07:34:45Z</time>
      </trkpt>
      <trkpt lat="45.19177" lon="5.59197">
        <ele>1650.24</ele>
        <time>2011-08-20T07:34:46Z</time>
      </trkpt>
      <trkpt lat="45.19176" lon="5.59196">
        <ele>1650.24</ele>
        <time>2011-08-20T07:34:47Z</time>
      </trkpt>
      <trkpt lat="45.19174" lon="5.59195">
        <ele>1651.2</ele>
        <time>2011-08-20T07:34:48Z</time>
      </trkpt>
      <trkpt lat="45.19173" lon="5.59195">
        <ele>1650.72</ele>
        <time>2011-08-20T07:34:49Z</time>
      </trkpt>
      <trkpt lat="45.1916" lon="5.5919">
        <ele>1653.6</ele>
        <time>2011-08-20T07:34:58Z</time>
      </trkpt>
      <trkpt lat="45.19159" lon="5.59191">
        <ele>1653.12</ele>
        <time>2011-08-20T07:34:59Z</time>
      </trkpt>
      <trkpt lat="45.19158" lon="5.59191">
        <ele>1653.6</ele>
        <time>2011-08-20T07:35:00Z</time>
      </trkpt>
      <trkpt lat="45.19157" lon="5.59191">
        <ele>1653.6</ele>
        <time>2011-08-20T07:35:01Z</time>
      </trkpt>
      <trkpt lat="45.19155" lon="5.59191">
        <ele>1654.09</ele>
        <time>2011-08-20T07:35:02Z</time>
      </trkpt>
      <trkpt lat="45.19154" lon="5.59191">
        <ele>1654.57</ele>
        <time>2011-08-20T07:35:03Z</time>
      </trkpt>
      <trkpt lat="45.19153" lon="5.5919">
        <ele>1654.57</ele>
        <time>2011-08-20T07:35:04Z</time>
      </trkpt>
      <trkpt lat="45.19141" lon="5.59187">
        <ele>1656.01</ele>
        <time>2011-08-20T07:35:13Z</time>
      </trkpt>
      <trkpt lat="45.19124" lon="5.59178">
        <ele>1658.41</ele>
        <time>2011-08-20T07:35:26Z</time>
      </trkpt>
      <trkpt lat="45.19123" lon="5.59177">
        <ele>1658.89</ele>
        <time>2011-08-20T07:35:27Z</time>
      </trkpt>
      <trkpt lat="45.19121" lon="5.59176">
        <ele>1658.89</ele>
        <time>2011-08-20T07:35:28Z</time>
      </trkpt>
      <trkpt lat="45.1912" lon="5.59175">
        <ele>1659.85</ele>
        <time>2011-08-20T07:35:29Z</time>
      </trkpt>
      <trkpt lat="45.19119" lon="5.59175">
        <ele>1659.85</ele>
        <time>2011-08-20T07:35:30Z</time>
      </trkpt>
      <trkpt lat="45.19117" lon="5.59174">
        <ele>1659.37</ele>
        <time>2011-08-20T07:35:31Z</time>
      </trkpt>
      <trkpt lat="45.19115" lon="5.59173">
        <ele>1659.85</ele>
        <time>2011-08-20T07:35:32Z</time>
      </trkpt>
      <trkpt lat="45.19114" lon="5.59172">
        <ele>1659.85</ele>
        <time>2011-08-20T07:35:33Z</time>
      </trkpt>
      <trkpt lat="45.19112" lon="5.59172">
        <ele>1660.33</ele>
        <time>2011-08-20T07:35:34Z</time>
      </trkpt>
      <trkpt lat="45.19111" lon="5.59171">
        <ele>1660.33</ele>
        <time>2011-08-20T07:35:35Z</time>
      </trkpt>
      <trkpt lat="45.1911" lon="5.5917">
        <ele>1660.33</ele>
        <time>2011-08-20T07:35:36Z</time>
      </trkpt>
      <trkpt lat="45.19109" lon="5.59167">
        <ele>1660.81</ele>
        <time>2011-08-20T07:35:38Z</time>
      </trkpt>
      <trkpt lat="45.19107" lon="5.59167">
        <ele>1661.3</ele>
        <time>2011-08-20T07:35:41Z</time>
      </trkpt>
      <trkpt lat="45.19091" lon="5.59165">
        <ele>1664.18</ele>
        <time>2011-08-20T07:35:54Z</time>
      </trkpt>
      <trkpt lat="45.19081" lon="5.59162">
        <ele>1665.62</ele>
        <time>2011-08-20T07:36:00Z</time>
      </trkpt>
      <trkpt lat="45.1908" lon="5.59161">
        <ele>1665.62</ele>
        <time>2011-08-20T07:36:01Z</time>
      </trkpt>
      <trkpt lat="45.19077" lon="5.5916">
        <ele>1665.62</ele>
        <time>2011-08-20T07:36:03Z</time>
      </trkpt>
      <trkpt lat="45.19076" lon="5.5916">
        <ele>1666.1</ele>
        <time>2011-08-20T07:36:04Z</time>
      </trkpt>
      <trkpt lat="45.19075" lon="5.5916">
        <ele>1666.1</ele>
        <time>2011-08-20T07:36:05Z</time>
      </trkpt>
      <trkpt lat="45.19074" lon="5.59159">
        <ele>1666.1</ele>
        <time>2011-08-20T07:36:06Z</time>
      </trkpt>
      <trkpt lat="45.19072" lon="5.59158">
        <ele>1665.62</ele>
        <time>2011-08-20T07:36:07Z</time>
      </trkpt>
      <trkpt lat="45.19071" lon="5.59156">
        <ele>1666.58</ele>
        <time>2011-08-20T07:36:08Z</time>
      </trkpt>
      <trkpt lat="45.1907" lon="5.59154">
        <ele>1666.1</ele>
        <time>2011-08-20T07:36:09Z</time>
      </trkpt>
      <trkpt lat="45.19069" lon="5.59154">
        <ele>1666.1</ele>
        <time>2011-08-20T07:36:10Z</time>
      </trkpt>
      <trkpt lat="45.19064" lon="5.59151">
        <ele>1667.06</ele>
        <time>2011-08-20T07:36:14Z</time>
      </trkpt>
      <trkpt lat="45.19055" lon="5.59149">
        <ele>1668.51</ele>
        <time>2011-08-20T07:36:21Z</time>
      </trkpt>
      <trkpt lat="45.19054" lon="5.59148">
        <ele>1668.51</ele>
        <time>2011-08-20T07:36:22Z</time>
      </trkpt>
      <trkpt lat="45.19053" lon="5.59147">
        <ele>1668.99</ele>
        <time>2011-08-20T07:36:23Z</time>
      </trkpt>
      <trkpt lat="45.19041" lon="5.59143">
        <ele>1669.95</ele>
        <time>2011-08-20T07:36:31Z</time>
      </trkpt>
      <trkpt lat="45.1904" lon="5.59143">
        <ele>1670.43</ele>
        <time>2011-08-20T07:36:32Z</time>
      </trkpt>
      <trkpt lat="45.19036" lon="5.59143">
        <ele>1671.39</ele>
        <time>2011-08-20T07:36:37Z</time>
      </trkpt>
      <trkpt lat="45.19034" lon="5.59143">
        <ele>1671.39</ele>
        <time>2011-08-20T07:36:38Z</time>
      </trkpt>
      <trkpt lat="45.19027" lon="5.59139">
        <ele>1672.35</ele>
        <time>2011-08-20T07:36:43Z</time>
      </trkpt>
      <trkpt lat="45.19026" lon="5.59139">
        <ele>1672.83</ele>
        <time>2011-08-20T07:36:44Z</time>
      </trkpt>
      <trkpt lat="45.19024" lon="5.59138">
        <ele>1672.83</ele>
        <time>2011-08-20T07:36:45Z</time>
      </trkpt>
      <trkpt lat="45.19023" lon="5.59138">
        <ele>1672.83</ele>
        <time>2011-08-20T07:36:46Z</time>
      </trkpt>
      <trkpt lat="45.19021" lon="5.59138">
        <ele>1672.83</ele>
        <time>2011-08-20T07:36:47Z</time>
      </trkpt>
      <trkpt lat="45.19018" lon="5.59139">
        <ele>1673.31</ele>
        <time>2011-08-20T07:36:51Z</time>
      </trkpt>
      <trkpt lat="45.19017" lon="5.59138">
        <ele>1673.79</ele>
        <time>2011-08-20T07:36:52Z</time>
      </trkpt>
      <trkpt lat="45.19014" lon="5.59139">
        <ele>1674.27</ele>
        <time>2011-08-20T07:36:55Z</time>
      </trkpt>
      <trkpt lat="45.19014" lon="5.5914">
        <ele>1674.27</ele>
        <time>2011-08-20T07:36:56Z</time>
      </trkpt>
      <trkpt lat="45.19013" lon="5.59141">
        <ele>1674.75</ele>
        <time>2011-08-20T07:36:57Z</time>
      </trkpt>
      <trkpt lat="45.19011" lon="5.59141">
        <ele>1675.23</ele>
        <time>2011-08-20T07:36:59Z</time>
      </trkpt>
      <trkpt lat="45.18993" lon="5.5914">
        <ele>1677.64</ele>
        <time>2011-08-20T07:37:10Z</time>
      </trkpt>
      <trkpt lat="45.18969" lon="5.59134">
        <ele>1678.6</ele>
        <time>2011-08-20T07:37:21Z</time>
      </trkpt>
      <trkpt lat="45.18947" lon="5.59135">
        <ele>1680.04</ele>
        <time>2011-08-20T07:37:33Z</time>
      </trkpt>
      <trkpt lat="45.18945" lon="5.59136">
        <ele>1680.52</ele>
        <time>2011-08-20T07:37:34Z</time>
      </trkpt>
      <trkpt lat="45.18943" lon="5.59136">
        <ele>1681</ele>
        <time>2011-08-20T07:37:35Z</time>
      </trkpt>
      <trkpt lat="45.1893" lon="5.59134">
        <ele>1681.96</ele>
        <time>2011-08-20T07:37:43Z</time>
      </trkpt>
      <trkpt lat="45.18929" lon="5.59134">
        <ele>1682.44</ele>
        <time>2011-08-20T07:37:44Z</time>
      </trkpt>
      <trkpt lat="45.18927" lon="5.59135">
        <ele>1682.44</ele>
        <time>2011-08-20T07:37:45Z</time>
      </trkpt>
      <trkpt lat="45.18925" lon="5.59135">
        <ele>1682.93</ele>
        <time>2011-08-20T07:37:46Z</time>
      </trkpt>
      <trkpt lat="45.18923" lon="5.59135">
        <ele>1686.29</ele>
        <time>2011-08-20T07:37:47Z</time>
      </trkpt>
      <trkpt lat="45.18921" lon="5.59136">
        <ele>1683.89</ele>
        <time>2011-08-20T07:37:48Z</time>
      </trkpt>
      <trkpt lat="45.18905" lon="5.59141">
        <ele>1684.37</ele>
        <time>2011-08-20T07:37:58Z</time>
      </trkpt>
      <trkpt lat="45.18888" lon="5.59139">
        <ele>1686.77</ele>
        <time>2011-08-20T07:38:05Z</time>
      </trkpt>
      <trkpt lat="45.18874" lon="5.5914">
        <ele>1687.73</ele>
        <time>2011-08-20T07:38:14Z</time>
      </trkpt>
      <trkpt lat="45.18873" lon="5.59139">
        <ele>1688.21</ele>
        <time>2011-08-20T07:38:15Z</time>
      </trkpt>
      <trkpt lat="45.18856" lon="5.59133">
        <ele>1689.65</ele>
        <time>2011-08-20T07:38:25Z</time>
      </trkpt>
      <trkpt lat="45.18855" lon="5.59134">
        <ele>1689.65</ele>
        <time>2011-08-20T07:38:26Z</time>
      </trkpt>
      <trkpt lat="45.18853" lon="5.59135">
        <ele>1689.65</ele>
        <time>2011-08-20T07:38:27Z</time>
      </trkpt>
      <trkpt lat="45.18852" lon="5.59135">
        <ele>1690.14</ele>
        <time>2011-08-20T07:38:28Z</time>
      </trkpt>
      <trkpt lat="45.1885" lon="5.59136">
        <ele>1690.62</ele>
        <time>2011-08-20T07:38:29Z</time>
      </trkpt>
      <trkpt lat="45.18821" lon="5.59147">
        <ele>1692.54</ele>
        <time>2011-08-20T07:38:43Z</time>
      </trkpt>
      <trkpt lat="45.18804" lon="5.59162">
        <ele>1691.58</ele>
        <time>2011-08-20T07:38:53Z</time>
      </trkpt>
      <trkpt lat="45.18784" lon="5.5918">
        <ele>1692.54</ele>
        <time>2011-08-20T07:39:03Z</time>
      </trkpt>
      <trkpt lat="45.18757" lon="5.59191">
        <ele>1693.02</ele>
        <time>2011-08-20T07:39:16Z</time>
      </trkpt>
      <trkpt lat="45.18734" lon="5.59212">
        <ele>1693.5</ele>
        <time>2011-08-20T07:39:27Z</time>
      </trkpt>
      <trkpt lat="45.18732" lon="5.59215">
        <ele>1693.5</ele>
        <time>2011-08-20T07:39:29Z</time>
      </trkpt>
      <trkpt lat="45.18729" lon="5.59217">
        <ele>1693.98</ele>
        <time>2011-08-20T07:39:30Z</time>
      </trkpt>
      <trkpt lat="45.18728" lon="5.59218">
        <ele>1694.46</ele>
        <time>2011-08-20T07:39:31Z</time>
      </trkpt>
      <trkpt lat="45.18725" lon="5.59218">
        <ele>1694.46</ele>
        <time>2011-08-20T07:39:32Z</time>
      </trkpt>
      <trkpt lat="45.18723" lon="5.59219">
        <ele>1694.46</ele>
        <time>2011-08-20T07:39:33Z</time>
      </trkpt>
      <trkpt lat="45.18721" lon="5.59221">
        <ele>1693.98</ele>
        <time>2011-08-20T07:39:34Z</time>
      </trkpt>
      <trkpt lat="45.18718" lon="5.59223">
        <ele>1693.98</ele>
        <time>2011-08-20T07:39:35Z</time>
      </trkpt>
      <trkpt lat="45.18716" lon="5.59224">
        <ele>1694.94</ele>
        <time>2011-08-20T07:39:36Z</time>
      </trkpt>
      <trkpt lat="45.18699" lon="5.59239">
        <ele>1695.42</ele>
        <time>2011-08-20T07:39:44Z</time>
      </trkpt>
      <trkpt lat="45.18681" lon="5.59258">
        <ele>1694.94</ele>
        <time>2011-08-20T07:39:51Z</time>
      </trkpt>
      <trkpt lat="45.18676" lon="5.59257">
        <ele>1695.9</ele>
        <time>2011-08-20T07:39:53Z</time>
      </trkpt>
      <trkpt lat="45.18674" lon="5.59256">
        <ele>1695.9</ele>
        <time>2011-08-20T07:39:54Z</time>
      </trkpt>
      <trkpt lat="45.18672" lon="5.59255">
        <ele>1696.38</ele>
        <time>2011-08-20T07:39:55Z</time>
      </trkpt>
      <trkpt lat="45.1867" lon="5.59255">
        <ele>1696.38</ele>
        <time>2011-08-20T07:39:56Z</time>
      </trkpt>
      <trkpt lat="45.18667" lon="5.59255">
        <ele>1696.86</ele>
        <time>2011-08-20T07:39:57Z</time>
      </trkpt>
      <trkpt lat="45.18665" lon="5.59255">
        <ele>1696.86</ele>
        <time>2011-08-20T07:39:58Z</time>
      </trkpt>
      <trkpt lat="45.18663" lon="5.59255">
        <ele>1696.86</ele>
        <time>2011-08-20T07:39:59Z</time>
      </trkpt>
      <trkpt lat="45.18662" lon="5.59254">
        <ele>1697.83</ele>
        <time>2011-08-20T07:40:00Z</time>
      </trkpt>
      <trkpt lat="45.18639" lon="5.59237">
        <ele>1698.79</ele>
        <time>2011-08-20T07:40:12Z</time>
      </trkpt>
      <trkpt lat="45.18638" lon="5.59236">
        <ele>1698.31</ele>
        <time>2011-08-20T07:40:22Z</time>
      </trkpt>
      <trkpt lat="45.18638" lon="5.59236">
        <ele>1699.27</ele>
        <time>2011-08-20T07:40:50Z</time>
      </trkpt>
      <trkpt lat="45.18638" lon="5.59235">
        <ele>1698.79</ele>
        <time>2011-08-20T07:41:15Z</time>
      </trkpt>
      <trkpt lat="45.18638" lon="5.59235">
        <ele>1699.27</ele>
        <time>2011-08-20T07:41:45Z</time>
      </trkpt>
      <trkpt lat="45.18637" lon="5.59234">
        <ele>1699.27</ele>
        <time>2011-08-20T07:42:10Z</time>
      </trkpt>
      <trkpt lat="45.18618" lon="5.59204">
        <ele>1698.31</ele>
        <time>2011-08-20T07:42:22Z</time>
      </trkpt>
      <trkpt lat="45.18599" lon="5.59176">
        <ele>1697.83</ele>
        <time>2011-08-20T07:42:30Z</time>
      </trkpt>
      <trkpt lat="45.18583" lon="5.59163">
        <ele>1697.34</ele>
        <time>2011-08-20T07:42:35Z</time>
      </trkpt>
      <trkpt lat="45.18578" lon="5.5916">
        <ele>1697.83</ele>
        <time>2011-08-20T07:42:36Z</time>
      </trkpt>
      <trkpt lat="45.18575" lon="5.59156">
        <ele>1697.83</ele>
        <time>2011-08-20T07:42:37Z</time>
      </trkpt>
      <trkpt lat="45.18572" lon="5.59152">
        <ele>1697.83</ele>
        <time>2011-08-20T07:42:38Z</time>
      </trkpt>
      <trkpt lat="45.18569" lon="5.59148">
        <ele>1698.31</ele>
        <time>2011-08-20T07:42:39Z</time>
      </trkpt>
      <trkpt lat="45.18566" lon="5.59143">
        <ele>1698.31</ele>
        <time>2011-08-20T07:42:40Z</time>
      </trkpt>
      <trkpt lat="45.18565" lon="5.59137">
        <ele>1698.79</ele>
        <time>2011-08-20T07:42:41Z</time>
      </trkpt>
      <trkpt lat="45.18565" lon="5.59132">
        <ele>1699.27</ele>
        <time>2011-08-20T07:42:42Z</time>
      </trkpt>
      <trkpt lat="45.18565" lon="5.59127">
        <ele>1698.79</ele>
        <time>2011-08-20T07:42:43Z</time>
      </trkpt>
      <trkpt lat="45.18564" lon="5.59122">
        <ele>1699.27</ele>
        <time>2011-08-20T07:42:44Z</time>
      </trkpt>
      <trkpt lat="45.18562" lon="5.59118">
        <ele>1699.27</ele>
        <time>2011-08-20T07:42:45Z</time>
      </trkpt>
      <trkpt lat="45.1856" lon="5.59115">
        <ele>1699.75</ele>
        <time>2011-08-20T07:42:46Z</time>
      </trkpt>
      <trkpt lat="45.18558" lon="5.59112">
        <ele>1699.27</ele>
        <time>2011-08-20T07:42:47Z</time>
      </trkpt>
      <trkpt lat="45.18558" lon="5.59111">
        <ele>1699.75</ele>
        <time>2011-08-20T07:42:48Z</time>
      </trkpt>
      <trkpt lat="45.18559" lon="5.59113">
        <ele>1699.27</ele>
        <time>2011-08-20T07:42:56Z</time>
      </trkpt>
      <trkpt lat="45.1856" lon="5.59114">
        <ele>1699.75</ele>
        <time>2011-08-20T07:42:57Z</time>
      </trkpt>
      <trkpt lat="45.18562" lon="5.59115">
        <ele>1698.79</ele>
        <time>2011-08-20T07:42:58Z</time>
      </trkpt>
      <trkpt lat="45.18562" lon="5.59115">
        <ele>1699.75</ele>
        <time>2011-08-20T07:43:09Z</time>
      </trkpt>
      <trkpt lat="45.18561" lon="5.59113">
        <ele>1699.75</ele>
        <time>2011-08-20T07:43:22Z</time>
      </trkpt>
      <trkpt lat="45.18545" lon="5.59105">
        <ele>1699.27</ele>
        <time>2011-08-20T07:43:32Z</time>
      </trkpt>
      <trkpt lat="45.18541" lon="5.59099">
        <ele>1699.75</ele>
        <time>2011-08-20T07:43:35Z</time>
      </trkpt>
      <trkpt lat="45.18541" lon="5.59097">
        <ele>1699.75</ele>
        <time>2011-08-20T07:43:36Z</time>
      </trkpt>
      <trkpt lat="45.18539" lon="5.59095">
        <ele>1698.79</ele>
        <time>2011-08-20T07:43:38Z</time>
      </trkpt>
      <trkpt lat="45.18538" lon="5.59094">
        <ele>1699.27</ele>
        <time>2011-08-20T07:43:39Z</time>
      </trkpt>
      <trkpt lat="45.18537" lon="5.59092">
        <ele>1699.27</ele>
        <time>2011-08-20T07:43:40Z</time>
      </trkpt>
      <trkpt lat="45.18527" lon="5.5908">
        <ele>1698.79</ele>
        <time>2011-08-20T07:43:44Z</time>
      </trkpt>
      <trkpt lat="45.18525" lon="5.59079">
        <ele>1699.27</ele>
        <time>2011-08-20T07:43:45Z</time>
      </trkpt>
      <trkpt lat="45.18522" lon="5.5908">
        <ele>1698.31</ele>
        <time>2011-08-20T07:43:56Z</time>
      </trkpt>
      <trkpt lat="45.18522" lon="5.5908">
        <ele>1698.31</ele>
        <time>2011-08-20T07:44:25Z</time>
      </trkpt>
      <trkpt lat="45.18522" lon="5.5908">
        <ele>1698.79</ele>
        <time>2011-08-20T07:45:00Z</time>
      </trkpt>
      <trkpt lat="45.18522" lon="5.5908">
        <ele>1699.27</ele>
        <time>2011-08-20T07:45:40Z</time>
      </trkpt>
      <trkpt lat="45.18521" lon="5.5908">
        <ele>1698.79</ele>
        <time>2011-08-20T07:46:21Z</time>
      </trkpt>
      <trkpt lat="45.18521" lon="5.5908">
        <ele>1698.79</ele>
        <time>2011-08-20T07:47:00Z</time>
      </trkpt>
      <trkpt lat="45.18522" lon="5.59074">
        <ele>1699.27</ele>
        <time>2011-08-20T07:47:18Z</time>
      </trkpt>
      <trkpt lat="45.18502" lon="5.59049">
        <ele>1697.83</ele>
        <time>2011-08-20T07:47:26Z</time>
      </trkpt>
      <trkpt lat="45.18498" lon="5.59044">
        <ele>1698.31</ele>
        <time>2011-08-20T07:47:27Z</time>
      </trkpt>
      <trkpt lat="45.18493" lon="5.5904">
        <ele>1697.34</ele>
        <time>2011-08-20T07:47:28Z</time>
      </trkpt>
      <trkpt lat="45.18487" lon="5.59035">
        <ele>1696.38</ele>
        <time>2011-08-20T07:47:29Z</time>
      </trkpt>
      <trkpt lat="45.18482" lon="5.5903">
        <ele>1696.38</ele>
        <time>2011-08-20T07:47:30Z</time>
      </trkpt>
      <trkpt lat="45.18479" lon="5.59024">
        <ele>1694.94</ele>
        <time>2011-08-20T07:47:31Z</time>
      </trkpt>
      <trkpt lat="45.18477" lon="5.59017">
        <ele>1693.98</ele>
        <time>2011-08-20T07:47:32Z</time>
      </trkpt>
      <trkpt lat="45.18476" lon="5.5901">
        <ele>1693.98</ele>
        <time>2011-08-20T07:47:33Z</time>
      </trkpt>
      <trkpt lat="45.18475" lon="5.59002">
        <ele>1693.98</ele>
        <time>2011-08-20T07:47:34Z</time>
      </trkpt>
      <trkpt lat="45.18472" lon="5.58994">
        <ele>1692.54</ele>
        <time>2011-08-20T07:47:35Z</time>
      </trkpt>
      <trkpt lat="45.18468" lon="5.58987">
        <ele>1692.54</ele>
        <time>2011-08-20T07:47:36Z</time>
      </trkpt>
      <trkpt lat="45.18464" lon="5.58979">
        <ele>1692.54</ele>
        <time>2011-08-20T07:47:37Z</time>
      </trkpt>
      <trkpt lat="45.18459" lon="5.58973">
        <ele>1691.1</ele>
        <time>2011-08-20T07:47:38Z</time>
      </trkpt>
      <trkpt lat="45.18453" lon="5.58966">
        <ele>1690.14</ele>
        <time>2011-08-20T07:47:39Z</time>
      </trkpt>
      <trkpt lat="45.18428" lon="5.58942">
        <ele>1687.25</ele>
        <time>2011-08-20T07:47:43Z</time>
      </trkpt>
      <trkpt lat="45.18414" lon="5.58926">
        <ele>1684.85</ele>
        <time>2011-08-20T07:47:46Z</time>
      </trkpt>
      <trkpt lat="45.18407" lon="5.58921">
        <ele>1683.41</ele>
        <time>2011-08-20T07:47:47Z</time>
      </trkpt>
      <trkpt lat="45.18401" lon="5.58915">
        <ele>1682.44</ele>
        <time>2011-08-20T07:47:48Z</time>
      </trkpt>
      <trkpt lat="45.18396" lon="5.58909">
        <ele>1681.96</ele>
        <time>2011-08-20T07:47:49Z</time>
      </trkpt>
      <trkpt lat="45.1839" lon="5.58905">
        <ele>1681.48</ele>
        <time>2011-08-20T07:47:50Z</time>
      </trkpt>
      <trkpt lat="45.18385" lon="5.58901">
        <ele>1681.48</ele>
        <time>2011-08-20T07:47:51Z</time>
      </trkpt>
      <trkpt lat="45.18382" lon="5.58896">
        <ele>1680.52</ele>
        <time>2011-08-20T07:47:52Z</time>
      </trkpt>
      <trkpt lat="45.18381" lon="5.58892">
        <ele>1680.04</ele>
        <time>2011-08-20T07:47:53Z</time>
      </trkpt>
      <trkpt lat="45.1838" lon="5.58889">
        <ele>1679.08</ele>
        <time>2011-08-20T07:47:54Z</time>
      </trkpt>
      <trkpt lat="45.1838" lon="5.58886">
        <ele>1678.6</ele>
        <time>2011-08-20T07:47:55Z</time>
      </trkpt>
      <trkpt lat="45.18379" lon="5.58883">
        <ele>1678.12</ele>
        <time>2011-08-20T07:47:56Z</time>
      </trkpt>
      <trkpt lat="45.18377" lon="5.58879">
        <ele>1677.64</ele>
        <time>2011-08-20T07:47:57Z</time>
      </trkpt>
      <trkpt lat="45.18374" lon="5.58874">
        <ele>1677.16</ele>
        <time>2011-08-20T07:47:58Z</time>
      </trkpt>
      <trkpt lat="45.18371" lon="5.58868">
        <ele>1676.68</ele>
        <time>2011-08-20T07:47:59Z</time>
      </trkpt>
      <trkpt lat="45.18367" lon="5.58862">
        <ele>1676.2</ele>
        <time>2011-08-20T07:48:00Z</time>
      </trkpt>
      <trkpt lat="45.18358" lon="5.5885">
        <ele>1675.23</ele>
        <time>2011-08-20T07:48:02Z</time>
      </trkpt>
      <trkpt lat="45.18353" lon="5.58844">
        <ele>1674.75</ele>
        <time>2011-08-20T07:48:03Z</time>
      </trkpt>
      <trkpt lat="45.18341" lon="5.5883">
        <ele>1673.79</ele>
        <time>2011-08-20T07:48:05Z</time>
      </trkpt>
      <trkpt lat="45.1833" lon="5.58817">
        <ele>1672.35</ele>
        <time>2011-08-20T07:48:07Z</time>
      </trkpt>
      <trkpt lat="45.18322" lon="5.58813">
        <ele>1671.39</ele>
        <time>2011-08-20T07:48:08Z</time>
      </trkpt>
      <trkpt lat="45.18314" lon="5.58811">
        <ele>1670.43</ele>
        <time>2011-08-20T07:48:09Z</time>
      </trkpt>
      <trkpt lat="45.18301" lon="5.58807">
        <ele>1669.95</ele>
        <time>2011-08-20T07:48:11Z</time>
      </trkpt>
      <trkpt lat="45.18297" lon="5.58805">
        <ele>1669.95</ele>
        <time>2011-08-20T07:48:12Z</time>
      </trkpt>
      <trkpt lat="45.18284" lon="5.58798">
        <ele>1668.99</ele>
        <time>2011-08-20T07:48:20Z</time>
      </trkpt>
      <trkpt lat="45.18261" lon="5.58788">
        <ele>1668.02</ele>
        <time>2011-08-20T07:48:28Z</time>
      </trkpt>
      <trkpt lat="45.18254" lon="5.58778">
        <ele>1666.1</ele>
        <time>2011-08-20T07:48:31Z</time>
      </trkpt>
      <trkpt lat="45.18253" lon="5.58773">
        <ele>1664.18</ele>
        <time>2011-08-20T07:48:32Z</time>
      </trkpt>
      <trkpt lat="45.18251" lon="5.58768">
        <ele>1664.66</ele>
        <time>2011-08-20T07:48:33Z</time>
      </trkpt>
      <trkpt lat="45.18248" lon="5.58762">
        <ele>1663.22</ele>
        <time>2011-08-20T07:48:34Z</time>
      </trkpt>
      <trkpt lat="45.18243" lon="5.58757">
        <ele>1662.26</ele>
        <time>2011-08-20T07:48:35Z</time>
      </trkpt>
      <trkpt lat="45.18237" lon="5.58753">
        <ele>1660.81</ele>
        <time>2011-08-20T07:48:36Z</time>
      </trkpt>
      <trkpt lat="45.1823" lon="5.5875">
        <ele>1660.81</ele>
        <time>2011-08-20T07:48:37Z</time>
      </trkpt>
      <trkpt lat="45.18222" lon="5.58748">
        <ele>1660.81</ele>
        <time>2011-08-20T07:48:38Z</time>
      </trkpt>
      <trkpt lat="45.18215" lon="5.58746">
        <ele>1660.33</ele>
        <time>2011-08-20T07:48:39Z</time>
      </trkpt>
      <trkpt lat="45.18208" lon="5.58743">
        <ele>1659.85</ele>
        <time>2011-08-20T07:48:40Z</time>
      </trkpt>
      <trkpt lat="45.182" lon="5.58739">
        <ele>1659.37</ele>
        <time>2011-08-20T07:48:41Z</time>
      </trkpt>
      <trkpt lat="45.18193" lon="5.58734">
        <ele>1658.89</ele>
        <time>2011-08-20T07:48:42Z</time>
      </trkpt>
      <trkpt lat="45.18187" lon="5.58728">
        <ele>1657.93</ele>
        <time>2011-08-20T07:48:43Z</time>
      </trkpt>
      <trkpt lat="45.1818" lon="5.58723">
        <ele>1657.93</ele>
        <time>2011-08-20T07:48:44Z</time>
      </trkpt>
      <trkpt lat="45.18158" lon="5.58709">
        <ele>1658.41</ele>
        <time>2011-08-20T07:48:47Z</time>
      </trkpt>
      <trkpt lat="45.18143" lon="5.58696">
        <ele>1657.93</ele>
        <time>2011-08-20T07:48:50Z</time>
      </trkpt>
      <trkpt lat="45.18125" lon="5.58686">
        <ele>1657.45</ele>
        <time>2011-08-20T07:48:53Z</time>
      </trkpt>
      <trkpt lat="45.18119" lon="5.58682">
        <ele>1657.93</ele>
        <time>2011-08-20T07:48:54Z</time>
      </trkpt>
      <trkpt lat="45.18103" lon="5.58671">
        <ele>1657.45</ele>
        <time>2011-08-20T07:48:57Z</time>
      </trkpt>
      <trkpt lat="45.18092" lon="5.58663">
        <ele>1657.93</ele>
        <time>2011-08-20T07:48:59Z</time>
      </trkpt>
      <trkpt lat="45.18086" lon="5.58658">
        <ele>1656.49</ele>
        <time>2011-08-20T07:49:00Z</time>
      </trkpt>
      <trkpt lat="45.18081" lon="5.58653">
        <ele>1656.49</ele>
        <time>2011-08-20T07:49:01Z</time>
      </trkpt>
      <trkpt lat="45.18076" lon="5.5865">
        <ele>1656.01</ele>
        <time>2011-08-20T07:49:02Z</time>
      </trkpt>
      <trkpt lat="45.18071" lon="5.58648">
        <ele>1656.01</ele>
        <time>2011-08-20T07:49:03Z</time>
      </trkpt>
      <trkpt lat="45.18066" lon="5.58645">
        <ele>1655.53</ele>
        <time>2011-08-20T07:49:04Z</time>
      </trkpt>
      <trkpt lat="45.1806" lon="5.58642">
        <ele>1655.05</ele>
        <time>2011-08-20T07:49:05Z</time>
      </trkpt>
      <trkpt lat="45.18055" lon="5.58638">
        <ele>1653.6</ele>
        <time>2011-08-20T07:49:06Z</time>
      </trkpt>
      <trkpt lat="45.18049" lon="5.58634">
        <ele>1653.6</ele>
        <time>2011-08-20T07:49:07Z</time>
      </trkpt>
      <trkpt lat="45.18042" lon="5.5863">
        <ele>1653.12</ele>
        <time>2011-08-20T07:49:08Z</time>
      </trkpt>
      <trkpt lat="45.18035" lon="5.58626">
        <ele>1652.64</ele>
        <time>2011-08-20T07:49:09Z</time>
      </trkpt>
      <trkpt lat="45.18027" lon="5.58621">
        <ele>1652.16</ele>
        <time>2011-08-20T07:49:10Z</time>
      </trkpt>
      <trkpt lat="45.1802" lon="5.58615">
        <ele>1651.2</ele>
        <time>2011-08-20T07:49:11Z</time>
      </trkpt>
      <trkpt lat="45.18006" lon="5.58603">
        <ele>1648.32</ele>
        <time>2011-08-20T07:49:13Z</time>
      </trkpt>
      <trkpt lat="45.17999" lon="5.58598">
        <ele>1646.88</ele>
        <time>2011-08-20T07:49:14Z</time>
      </trkpt>
      <trkpt lat="45.17987" lon="5.58589">
        <ele>1645.43</ele>
        <time>2011-08-20T07:49:16Z</time>
      </trkpt>
      <trkpt lat="45.17983" lon="5.58587">
        <ele>1639.19</ele>
        <time>2011-08-20T07:49:18Z</time>
      </trkpt>
      <trkpt lat="45.17982" lon="5.58587">
        <ele>1645.91</ele>
        <time>2011-08-20T07:49:19Z</time>
      </trkpt>
      <trkpt lat="45.17975" lon="5.58585">
        <ele>1644.95</ele>
        <time>2011-08-20T07:49:30Z</time>
      </trkpt>
      <trkpt lat="45.17973" lon="5.58586">
        <ele>1644.95</ele>
        <time>2011-08-20T07:49:32Z</time>
      </trkpt>
      <trkpt lat="45.17972" lon="5.58586">
        <ele>1644.95</ele>
        <time>2011-08-20T07:49:42Z</time>
      </trkpt>
      <trkpt lat="45.17972" lon="5.58587">
        <ele>1645.43</ele>
        <time>2011-08-20T07:50:00Z</time>
      </trkpt>
      <trkpt lat="45.17972" lon="5.58586">
        <ele>1645.43</ele>
        <time>2011-08-20T07:50:25Z</time>
      </trkpt>
      <trkpt lat="45.17972" lon="5.58586">
        <ele>1645.43</ele>
        <time>2011-08-20T07:50:59Z</time>
      </trkpt>
      <trkpt lat="45.17971" lon="5.58586">
        <ele>1645.43</ele>
        <time>2011-08-20T07:51:33Z</time>
      </trkpt>
      <trkpt lat="45.17972" lon="5.58587">
        <ele>1644.95</ele>
        <time>2011-08-20T07:52:05Z</time>
      </trkpt>
      <trkpt lat="45.17972" lon="5.58586">
        <ele>1645.43</ele>
        <time>2011-08-20T07:52:35Z</time>
      </trkpt>
      <trkpt lat="45.17973" lon="5.58586">
        <ele>1644.47</ele>
        <time>2011-08-20T07:53:04Z</time>
      </trkpt>
      <trkpt lat="45.17973" lon="5.58586">
        <ele>1644.47</ele>
        <time>2011-08-20T07:53:39Z</time>
      </trkpt>
      <trkpt lat="45.17973" lon="5.58587">
        <ele>1644.47</ele>
        <time>2011-08-20T07:54:15Z</time>
      </trkpt>
      <trkpt lat="45.17974" lon="5.58587">
        <ele>1645.43</ele>
        <time>2011-08-20T07:54:51Z</time>
      </trkpt>
      <trkpt lat="45.17974" lon="5.58587">
        <ele>1644.47</ele>
        <time>2011-08-20T07:55:26Z</time>
      </trkpt>
      <trkpt lat="45.17973" lon="5.58587">
        <ele>1645.43</ele>
        <time>2011-08-20T07:56:01Z</time>
      </trkpt>
      <trkpt lat="45.17974" lon="5.58587">
        <ele>1644.95</ele>
        <time>2011-08-20T07:56:35Z</time>
      </trkpt>
      <trkpt lat="45.17973" lon="5.58586">
        <ele>1645.43</ele>
        <time>2011-08-20T07:57:06Z</time>
      </trkpt>
      <trkpt lat="45.17973" lon="5.58586">
        <ele>1645.43</ele>
        <time>2011-08-20T07:57:45Z</time>
      </trkpt>
      <trkpt lat="45.17973" lon="5.58586">
        <ele>1645.43</ele>
        <time>2011-08-20T07:58:19Z</time>
      </trkpt>
      <trkpt lat="45.17973" lon="5.58586">
        <ele>1645.43</ele>
        <time>2011-08-20T07:58:51Z</time>
      </trkpt>
      <trkpt lat="45.17973" lon="5.58586">
        <ele>1645.43</ele>
        <time>2011-08-20T07:59:27Z</time>
      </trkpt>
      <trkpt lat="45.17973" lon="5.58586">
        <ele>1645.43</ele>
        <time>2011-08-20T08:00:02Z</time>
      </trkpt>
      <trkpt lat="45.17973" lon="5.58586">
        <ele>1645.43</ele>
        <time>2011-08-20T08:00:36Z</time>
      </trkpt>
      <trkpt lat="45.17973" lon="5.58586">
        <ele>1644.95</ele>
        <time>2011-08-20T08:01:12Z</time>
      </trkpt>
      <trkpt lat="45.17973" lon="5.58585">
        <ele>1645.43</ele>
        <time>2011-08-20T08:01:47Z</time>
      </trkpt>
      <trkpt lat="45.17973" lon="5.58585">
        <ele>1645.91</ele>
        <time>2011-08-20T08:02:18Z</time>
      </trkpt>
      <trkpt lat="45.17973" lon="5.58584">
        <ele>1645.43</ele>
        <time>2011-08-20T08:02:58Z</time>
      </trkpt>
      <trkpt lat="45.17973" lon="5.58583">
        <ele>1645.43</ele>
        <time>2011-08-20T08:03:35Z</time>
      </trkpt>
      <trkpt lat="45.17973" lon="5.58584">
        <ele>1646.4</ele>
        <time>2011-08-20T08:04:07Z</time>
      </trkpt>
      <trkpt lat="45.17973" lon="5.58584">
        <ele>1645.91</ele>
        <time>2011-08-20T08:04:42Z</time>
      </trkpt>
      <trkpt lat="45.17974" lon="5.58584">
        <ele>1645.91</ele>
        <time>2011-08-20T08:05:06Z</time>
      </trkpt>
      <trkpt lat="45.17963" lon="5.58584">
        <ele>1647.36</ele>
        <time>2011-08-20T08:05:16Z</time>
      </trkpt>
      <trkpt lat="45.17962" lon="5.58583">
        <ele>1647.36</ele>
        <time>2011-08-20T08:05:17Z</time>
      </trkpt>
      <trkpt lat="45.17958" lon="5.58582">
        <ele>1648.32</ele>
        <time>2011-08-20T08:05:21Z</time>
      </trkpt>
      <trkpt lat="45.17956" lon="5.58583">
        <ele>1648.8</ele>
        <time>2011-08-20T08:05:22Z</time>
      </trkpt>
      <trkpt lat="45.17954" lon="5.58581">
        <ele>1649.28</ele>
        <time>2011-08-20T08:05:24Z</time>
      </trkpt>
      <trkpt lat="45.17952" lon="5.58581">
        <ele>1649.28</ele>
        <time>2011-08-20T08:05:25Z</time>
      </trkpt>
      <trkpt lat="45.17938" lon="5.58579">
        <ele>1651.68</ele>
        <time>2011-08-20T08:05:32Z</time>
      </trkpt>
      <trkpt lat="45.17931" lon="5.58577">
        <ele>1652.16</ele>
        <time>2011-08-20T08:05:36Z</time>
      </trkpt>
      <trkpt lat="45.17929" lon="5.58577">
        <ele>1652.16</ele>
        <time>2011-08-20T08:05:37Z</time>
      </trkpt>
      <trkpt lat="45.17927" lon="5.58578">
        <ele>1652.64</ele>
        <time>2011-08-20T08:05:38Z</time>
      </trkpt>
      <trkpt lat="45.17925" lon="5.58578">
        <ele>1652.64</ele>
        <time>2011-08-20T08:05:39Z</time>
      </trkpt>
      <trkpt lat="45.17923" lon="5.58578">
        <ele>1653.12</ele>
        <time>2011-08-20T08:05:40Z</time>
      </trkpt>
      <trkpt lat="45.17918" lon="5.58578">
        <ele>1653.6</ele>
        <time>2011-08-20T08:05:46Z</time>
      </trkpt>
      <trkpt lat="45.17914" lon="5.58576">
        <ele>1654.09</ele>
        <time>2011-08-20T08:05:47Z</time>
      </trkpt>
      <trkpt lat="45.17911" lon="5.58575">
        <ele>1653.6</ele>
        <time>2011-08-20T08:05:48Z</time>
      </trkpt>
      <trkpt lat="45.17908" lon="5.58575">
        <ele>1654.09</ele>
        <time>2011-08-20T08:05:49Z</time>
      </trkpt>
      <trkpt lat="45.17905" lon="5.58575">
        <ele>1654.09</ele>
        <time>2011-08-20T08:05:50Z</time>
      </trkpt>
      <trkpt lat="45.17903" lon="5.58575">
        <ele>1654.57</ele>
        <time>2011-08-20T08:05:51Z</time>
      </trkpt>
      <trkpt lat="45.17887" lon="5.58573">
        <ele>1655.53</ele>
        <time>2011-08-20T08:05:59Z</time>
      </trkpt>
      <trkpt lat="45.17885" lon="5.58571">
        <ele>1656.01</ele>
        <time>2011-08-20T08:06:00Z</time>
      </trkpt>
      <trkpt lat="45.17883" lon="5.58571">
        <ele>1656.01</ele>
        <time>2011-08-20T08:06:01Z</time>
      </trkpt>
      <trkpt lat="45.17881" lon="5.5857">
        <ele>1656.97</ele>
        <time>2011-08-20T08:06:02Z</time>
      </trkpt>
      <trkpt lat="45.17878" lon="5.5857">
        <ele>1656.01</ele>
        <time>2011-08-20T08:06:03Z</time>
      </trkpt>
      <trkpt lat="45.17876" lon="5.5857">
        <ele>1656.49</ele>
        <time>2011-08-20T08:06:04Z</time>
      </trkpt>
      <trkpt lat="45.17874" lon="5.58571">
        <ele>1656.49</ele>
        <time>2011-08-20T08:06:05Z</time>
      </trkpt>
      <trkpt lat="45.17872" lon="5.58571">
        <ele>1656.97</ele>
        <time>2011-08-20T08:06:06Z</time>
      </trkpt>
      <trkpt lat="45.1787" lon="5.58572">
        <ele>1657.45</ele>
        <time>2011-08-20T08:06:07Z</time>
      </trkpt>
      <trkpt lat="45.17868" lon="5.58574">
        <ele>1657.93</ele>
        <time>2011-08-20T08:06:08Z</time>
      </trkpt>
      <trkpt lat="45.17866" lon="5.58576">
        <ele>1657.93</ele>
        <time>2011-08-20T08:06:09Z</time>
      </trkpt>
      <trkpt lat="45.17864" lon="5.58578">
        <ele>1657.93</ele>
        <time>2011-08-20T08:06:10Z</time>
      </trkpt>
      <trkpt lat="45.17863" lon="5.58579">
        <ele>1658.41</ele>
        <time>2011-08-20T08:06:11Z</time>
      </trkpt>
      <trkpt lat="45.17861" lon="5.5858">
        <ele>1658.41</ele>
        <time>2011-08-20T08:06:12Z</time>
      </trkpt>
      <trkpt lat="45.1786" lon="5.58581">
        <ele>1658.41</ele>
        <time>2011-08-20T08:06:13Z</time>
      </trkpt>
      <trkpt lat="45.17859" lon="5.58583">
        <ele>1658.89</ele>
        <time>2011-08-20T08:06:14Z</time>
      </trkpt>
      <trkpt lat="45.17857" lon="5.58584">
        <ele>1658.89</ele>
        <time>2011-08-20T08:06:15Z</time>
      </trkpt>
      <trkpt lat="45.17856" lon="5.58586">
        <ele>1659.85</ele>
        <time>2011-08-20T08:06:16Z</time>
      </trkpt>
      <trkpt lat="45.17855" lon="5.58587">
        <ele>1659.37</ele>
        <time>2011-08-20T08:06:17Z</time>
      </trkpt>
      <trkpt lat="45.17854" lon="5.58589">
        <ele>1659.85</ele>
        <time>2011-08-20T08:06:18Z</time>
      </trkpt>
      <trkpt lat="45.17854" lon="5.58591">
        <ele>1659.85</ele>
        <time>2011-08-20T08:06:19Z</time>
      </trkpt>
      <trkpt lat="45.17853" lon="5.58593">
        <ele>1660.33</ele>
        <time>2011-08-20T08:06:20Z</time>
      </trkpt>
      <trkpt lat="45.17852" lon="5.58595">
        <ele>1660.33</ele>
        <time>2011-08-20T08:06:21Z</time>
      </trkpt>
      <trkpt lat="45.17851" lon="5.58597">
        <ele>1660.81</ele>
        <time>2011-08-20T08:06:22Z</time>
      </trkpt>
      <trkpt lat="45.1785" lon="5.58599">
        <ele>1660.81</ele>
        <time>2011-08-20T08:06:23Z</time>
      </trkpt>
      <trkpt lat="45.17849" lon="5.58599">
        <ele>1660.81</ele>
        <time>2011-08-20T08:06:24Z</time>
      </trkpt>
      <trkpt lat="45.17846" lon="5.58601">
        <ele>1660.81</ele>
        <time>2011-08-20T08:06:26Z</time>
      </trkpt>
      <trkpt lat="45.17845" lon="5.58602">
        <ele>1661.3</ele>
        <time>2011-08-20T08:06:27Z</time>
      </trkpt>
      <trkpt lat="45.17844" lon="5.58603">
        <ele>1661.78</ele>
        <time>2011-08-20T08:06:28Z</time>
      </trkpt>
      <trkpt lat="45.17832" lon="5.58608">
        <ele>1663.7</ele>
        <time>2011-08-20T08:06:35Z</time>
      </trkpt>
      <trkpt lat="45.17831" lon="5.58609">
        <ele>1663.7</ele>
        <time>2011-08-20T08:06:36Z</time>
      </trkpt>
      <trkpt lat="45.1783" lon="5.5861">
        <ele>1663.7</ele>
        <time>2011-08-20T08:06:37Z</time>
      </trkpt>
      <trkpt lat="45.17827" lon="5.58611">
        <ele>1664.18</ele>
        <time>2011-08-20T08:06:40Z</time>
      </trkpt>
      <trkpt lat="45.17825" lon="5.58612">
        <ele>1663.7</ele>
        <time>2011-08-20T08:06:41Z</time>
      </trkpt>
      <trkpt lat="45.17823" lon="5.58612">
        <ele>1664.66</ele>
        <time>2011-08-20T08:06:42Z</time>
      </trkpt>
      <trkpt lat="45.17822" lon="5.58613">
        <ele>1664.18</ele>
        <time>2011-08-20T08:06:43Z</time>
      </trkpt>
      <trkpt lat="45.1782" lon="5.58614">
        <ele>1664.66</ele>
        <time>2011-08-20T08:06:44Z</time>
      </trkpt>
      <trkpt lat="45.17818" lon="5.58615">
        <ele>1664.66</ele>
        <time>2011-08-20T08:06:45Z</time>
      </trkpt>
      <trkpt lat="45.17817" lon="5.58616">
        <ele>1665.14</ele>
        <time>2011-08-20T08:06:46Z</time>
      </trkpt>
      <trkpt lat="45.17815" lon="5.58617">
        <ele>1665.14</ele>
        <time>2011-08-20T08:06:48Z</time>
      </trkpt>
      <trkpt lat="45.17814" lon="5.58617">
        <ele>1665.62</ele>
        <time>2011-08-20T08:06:49Z</time>
      </trkpt>
      <trkpt lat="45.17801" lon="5.58621">
        <ele>1667.06</ele>
        <time>2011-08-20T08:06:59Z</time>
      </trkpt>
      <trkpt lat="45.17799" lon="5.58622">
        <ele>1666.58</ele>
        <time>2011-08-20T08:07:00Z</time>
      </trkpt>
      <trkpt lat="45.17783" lon="5.58632">
        <ele>1668.02</ele>
        <time>2011-08-20T08:07:09Z</time>
      </trkpt>
      <trkpt lat="45.17782" lon="5.58634">
        <ele>1668.02</ele>
        <time>2011-08-20T08:07:10Z</time>
      </trkpt>
      <trkpt lat="45.17781" lon="5.58635">
        <ele>1668.51</ele>
        <time>2011-08-20T08:07:11Z</time>
      </trkpt>
      <trkpt lat="45.17777" lon="5.58639">
        <ele>1668.99</ele>
        <time>2011-08-20T08:07:14Z</time>
      </trkpt>
      <trkpt lat="45.17775" lon="5.5864">
        <ele>1668.99</ele>
        <time>2011-08-20T08:07:15Z</time>
      </trkpt>
      <trkpt lat="45.17773" lon="5.58639">
        <ele>1668.99</ele>
        <time>2011-08-20T08:07:16Z</time>
      </trkpt>
      <trkpt lat="45.1777" lon="5.58638">
        <ele>1669.47</ele>
        <time>2011-08-20T08:07:17Z</time>
      </trkpt>
      <trkpt lat="45.17768" lon="5.58637">
        <ele>1669.47</ele>
        <time>2011-08-20T08:07:18Z</time>
      </trkpt>
      <trkpt lat="45.17765" lon="5.58636">
        <ele>1668.51</ele>
        <time>2011-08-20T08:07:19Z</time>
      </trkpt>
      <trkpt lat="45.17762" lon="5.58636">
        <ele>1668.99</ele>
        <time>2011-08-20T08:07:20Z</time>
      </trkpt>
      <trkpt lat="45.17741" lon="5.58639">
        <ele>1669.95</ele>
        <time>2011-08-20T08:07:30Z</time>
      </trkpt>
      <trkpt lat="45.17727" lon="5.58643">
        <ele>1669.95</ele>
        <time>2011-08-20T08:07:37Z</time>
      </trkpt>
      <trkpt lat="45.17725" lon="5.58642">
        <ele>1670.43</ele>
        <time>2011-08-20T08:07:38Z</time>
      </trkpt>
      <trkpt lat="45.17705" lon="5.58649">
        <ele>1671.39</ele>
        <time>2011-08-20T08:07:49Z</time>
      </trkpt>
      <trkpt lat="45.17703" lon="5.58649">
        <ele>1671.39</ele>
        <time>2011-08-20T08:07:50Z</time>
      </trkpt>
      <trkpt lat="45.17702" lon="5.58648">
        <ele>1671.39</ele>
        <time>2011-08-20T08:07:51Z</time>
      </trkpt>
      <trkpt lat="45.17698" lon="5.58648">
        <ele>1671.87</ele>
        <time>2011-08-20T08:07:54Z</time>
      </trkpt>
      <trkpt lat="45.17696" lon="5.58649">
        <ele>1671.87</ele>
        <time>2011-08-20T08:07:55Z</time>
      </trkpt>
      <trkpt lat="45.17695" lon="5.58649">
        <ele>1672.35</ele>
        <time>2011-08-20T08:07:56Z</time>
      </trkpt>
      <trkpt lat="45.17684" lon="5.58645">
        <ele>1673.79</ele>
        <time>2011-08-20T08:08:03Z</time>
      </trkpt>
      <trkpt lat="45.17682" lon="5.58644">
        <ele>1673.79</ele>
        <time>2011-08-20T08:08:04Z</time>
      </trkpt>
      <trkpt lat="45.17679" lon="5.58644">
        <ele>1674.27</ele>
        <time>2011-08-20T08:08:06Z</time>
      </trkpt>
      <trkpt lat="45.17677" lon="5.58644">
        <ele>1674.75</ele>
        <time>2011-08-20T08:08:07Z</time>
      </trkpt>
      <trkpt lat="45.17674" lon="5.58644">
        <ele>1675.23</ele>
        <time>2011-08-20T08:08:10Z</time>
      </trkpt>
      <trkpt lat="45.1767" lon="5.58642">
        <ele>1675.23</ele>
        <time>2011-08-20T08:08:12Z</time>
      </trkpt>
      <trkpt lat="45.17668" lon="5.58641">
        <ele>1675.72</ele>
        <time>2011-08-20T08:08:13Z</time>
      </trkpt>
      <trkpt lat="45.17667" lon="5.5864">
        <ele>1675.72</ele>
        <time>2011-08-20T08:08:14Z</time>
      </trkpt>
      <trkpt lat="45.17651" lon="5.58636">
        <ele>1678.12</ele>
        <time>2011-08-20T08:08:24Z</time>
      </trkpt>
      <trkpt lat="45.1764" lon="5.58631">
        <ele>1679.08</ele>
        <time>2011-08-20T08:08:29Z</time>
      </trkpt>
      <trkpt lat="45.17632" lon="5.58628">
        <ele>1680.52</ele>
        <time>2011-08-20T08:08:34Z</time>
      </trkpt>
      <trkpt lat="45.1763" lon="5.58627">
        <ele>1680.52</ele>
        <time>2011-08-20T08:08:35Z</time>
      </trkpt>
      <trkpt lat="45.17628" lon="5.58627">
        <ele>1680.52</ele>
        <time>2011-08-20T08:08:36Z</time>
      </trkpt>
      <trkpt lat="45.17606" lon="5.58607">
        <ele>1682.44</ele>
        <time>2011-08-20T08:08:48Z</time>
      </trkpt>
      <trkpt lat="45.17596" lon="5.586">
        <ele>1682.44</ele>
        <time>2011-08-20T08:08:55Z</time>
      </trkpt>
      <trkpt lat="45.17594" lon="5.58597">
        <ele>1682.44</ele>
        <time>2011-08-20T08:08:56Z</time>
      </trkpt>
      <trkpt lat="45.17592" lon="5.58595">
        <ele>1682.44</ele>
        <time>2011-08-20T08:08:57Z</time>
      </trkpt>
      <trkpt lat="45.17589" lon="5.58594">
        <ele>1682.44</ele>
        <time>2011-08-20T08:08:58Z</time>
      </trkpt>
      <trkpt lat="45.17586" lon="5.58593">
        <ele>1681.96</ele>
        <time>2011-08-20T08:08:59Z</time>
      </trkpt>
      <trkpt lat="45.17565" lon="5.58584">
        <ele>1681.96</ele>
        <time>2011-08-20T08:09:08Z</time>
      </trkpt>
      <trkpt lat="45.17552" lon="5.58579">
        <ele>1681.96</ele>
        <time>2011-08-20T08:09:13Z</time>
      </trkpt>
      <trkpt lat="45.17536" lon="5.58575">
        <ele>1681.48</ele>
        <time>2011-08-20T08:09:19Z</time>
      </trkpt>
      <trkpt lat="45.17534" lon="5.58573">
        <ele>1681</ele>
        <time>2011-08-20T08:09:20Z</time>
      </trkpt>
      <trkpt lat="45.17532" lon="5.58571">
        <ele>1681.48</ele>
        <time>2011-08-20T08:09:21Z</time>
      </trkpt>
      <trkpt lat="45.17506" lon="5.58552">
        <ele>1678.12</ele>
        <time>2011-08-20T08:09:29Z</time>
      </trkpt>
      <trkpt lat="45.17466" lon="5.58547">
        <ele>1678.12</ele>
        <time>2011-08-20T08:09:38Z</time>
      </trkpt>
      <trkpt lat="45.17452" lon="5.5854">
        <ele>1677.64</ele>
        <time>2011-08-20T08:09:41Z</time>
      </trkpt>
      <trkpt lat="45.17448" lon="5.58537">
        <ele>1677.16</ele>
        <time>2011-08-20T08:09:42Z</time>
      </trkpt>
      <trkpt lat="45.17444" lon="5.58535">
        <ele>1676.2</ele>
        <time>2011-08-20T08:09:43Z</time>
      </trkpt>
      <trkpt lat="45.17439" lon="5.58534">
        <ele>1676.68</ele>
        <time>2011-08-20T08:09:44Z</time>
      </trkpt>
      <trkpt lat="45.17435" lon="5.58531">
        <ele>1676.2</ele>
        <time>2011-08-20T08:09:45Z</time>
      </trkpt>
      <trkpt lat="45.17431" lon="5.58527">
        <ele>1675.23</ele>
        <time>2011-08-20T08:09:46Z</time>
      </trkpt>
      <trkpt lat="45.17427" lon="5.58522">
        <ele>1675.23</ele>
        <time>2011-08-20T08:09:47Z</time>
      </trkpt>
      <trkpt lat="45.17423" lon="5.58516">
        <ele>1674.75</ele>
        <time>2011-08-20T08:09:48Z</time>
      </trkpt>
      <trkpt lat="45.17417" lon="5.5851">
        <ele>1674.27</ele>
        <time>2011-08-20T08:09:49Z</time>
      </trkpt>
      <trkpt lat="45.1741" lon="5.58507">
        <ele>1673.31</ele>
        <time>2011-08-20T08:09:50Z</time>
      </trkpt>
      <trkpt lat="45.17401" lon="5.58502">
        <ele>1673.31</ele>
        <time>2011-08-20T08:09:51Z</time>
      </trkpt>
      <trkpt lat="45.17392" lon="5.58495">
        <ele>1672.83</ele>
        <time>2011-08-20T08:09:52Z</time>
      </trkpt>
      <trkpt lat="45.17367" lon="5.58471">
        <ele>1668.99</ele>
        <time>2011-08-20T08:09:56Z</time>
      </trkpt>
      <trkpt lat="45.17363" lon="5.58468">
        <ele>1667.06</ele>
        <time>2011-08-20T08:09:57Z</time>
      </trkpt>
      <trkpt lat="45.17358" lon="5.58467">
        <ele>1666.1</ele>
        <time>2011-08-20T08:09:58Z</time>
      </trkpt>
      <trkpt lat="45.17353" lon="5.58467">
        <ele>1665.62</ele>
        <time>2011-08-20T08:09:59Z</time>
      </trkpt>
      <trkpt lat="45.17348" lon="5.58465">
        <ele>1663.22</ele>
        <time>2011-08-20T08:10:00Z</time>
      </trkpt>
      <trkpt lat="45.17342" lon="5.58462">
        <ele>1662.26</ele>
        <time>2011-08-20T08:10:01Z</time>
      </trkpt>
      <trkpt lat="45.17336" lon="5.58459">
        <ele>1660.81</ele>
        <time>2011-08-20T08:10:02Z</time>
      </trkpt>
      <trkpt lat="45.17331" lon="5.58455">
        <ele>1659.85</ele>
        <time>2011-08-20T08:10:03Z</time>
      </trkpt>
      <trkpt lat="45.17328" lon="5.58453">
        <ele>1658.89</ele>
        <time>2011-08-20T08:10:04Z</time>
      </trkpt>
      <trkpt lat="45.17324" lon="5.58449">
        <ele>1657.45</ele>
        <time>2011-08-20T08:10:05Z</time>
      </trkpt>
      <trkpt lat="45.17321" lon="5.58445">
        <ele>1656.49</ele>
        <time>2011-08-20T08:10:06Z</time>
      </trkpt>
      <trkpt lat="45.17318" lon="5.58441">
        <ele>1655.53</ele>
        <time>2011-08-20T08:10:07Z</time>
      </trkpt>
      <trkpt lat="45.17315" lon="5.58435">
        <ele>1654.09</ele>
        <time>2011-08-20T08:10:08Z</time>
      </trkpt>
      <trkpt lat="45.17313" lon="5.58429">
        <ele>1652.64</ele>
        <time>2011-08-20T08:10:09Z</time>
      </trkpt>
      <trkpt lat="45.1731" lon="5.58422">
        <ele>1652.16</ele>
        <time>2011-08-20T08:10:10Z</time>
      </trkpt>
      <trkpt lat="45.17306" lon="5.58417">
        <ele>1650.72</ele>
        <time>2011-08-20T08:10:11Z</time>
      </trkpt>
      <trkpt lat="45.173" lon="5.58413">
        <ele>1650.24</ele>
        <time>2011-08-20T08:10:12Z</time>
      </trkpt>
      <trkpt lat="45.17294" lon="5.58409">
        <ele>1649.76</ele>
        <time>2011-08-20T08:10:13Z</time>
      </trkpt>
      <trkpt lat="45.17287" lon="5.58407">
        <ele>1648.32</ele>
        <time>2011-08-20T08:10:14Z</time>
      </trkpt>
      <trkpt lat="45.17279" lon="5.58405">
        <ele>1647.84</ele>
        <time>2011-08-20T08:10:15Z</time>
      </trkpt>
      <trkpt lat="45.17272" lon="5.58404">
        <ele>1646.88</ele>
        <time>2011-08-20T08:10:16Z</time>
      </trkpt>
      <trkpt lat="45.17266" lon="5.58403">
        <ele>1652.64</ele>
        <time>2011-08-20T08:10:17Z</time>
      </trkpt>
      <trkpt lat="45.17261" lon="5.58399">
        <ele>1646.88</ele>
        <time>2011-08-20T08:10:18Z</time>
      </trkpt>
      <trkpt lat="45.17258" lon="5.58396">
        <ele>1645.91</ele>
        <time>2011-08-20T08:10:19Z</time>
      </trkpt>
      <trkpt lat="45.17257" lon="5.58395">
        <ele>1645.91</ele>
        <time>2011-08-20T08:10:20Z</time>
      </trkpt>
      <trkpt lat="45.17255" lon="5.58393">
        <ele>1646.4</ele>
        <time>2011-08-20T08:10:27Z</time>
      </trkpt>
      <trkpt lat="45.17256" lon="5.58393">
        <ele>1645.91</ele>
        <time>2011-08-20T08:10:32Z</time>
      </trkpt>
      <trkpt lat="45.17257" lon="5.58394">
        <ele>1646.4</ele>
        <time>2011-08-20T08:10:33Z</time>
      </trkpt>
      <trkpt lat="45.17262" lon="5.58395">
        <ele>1646.4</ele>
        <time>2011-08-20T08:10:39Z</time>
      </trkpt>
      <trkpt lat="45.17268" lon="5.58392">
        <ele>1646.4</ele>
        <time>2011-08-20T08:10:44Z</time>
      </trkpt>
      <trkpt lat="45.17278" lon="5.58391">
        <ele>1647.84</ele>
        <time>2011-08-20T08:10:49Z</time>
      </trkpt>
      <trkpt lat="45.17282" lon="5.58391">
        <ele>1647.84</ele>
        <time>2011-08-20T08:10:58Z</time>
      </trkpt>
      <trkpt lat="45.17287" lon="5.5839">
        <ele>1648.32</ele>
        <time>2011-08-20T08:11:01Z</time>
      </trkpt>
      <trkpt lat="45.17299" lon="5.58381">
        <ele>1648.32</ele>
        <time>2011-08-20T08:11:05Z</time>
      </trkpt>
      <trkpt lat="45.17326" lon="5.58361">
        <ele>1648.8</ele>
        <time>2011-08-20T08:11:13Z</time>
      </trkpt>
      <trkpt lat="45.1733" lon="5.58358">
        <ele>1648.8</ele>
        <time>2011-08-20T08:11:14Z</time>
      </trkpt>
      <trkpt lat="45.17334" lon="5.58355">
        <ele>1648.8</ele>
        <time>2011-08-20T08:11:15Z</time>
      </trkpt>
      <trkpt lat="45.17339" lon="5.5835">
        <ele>1648.8</ele>
        <time>2011-08-20T08:11:16Z</time>
      </trkpt>
      <trkpt lat="45.17343" lon="5.58346">
        <ele>1648.8</ele>
        <time>2011-08-20T08:11:17Z</time>
      </trkpt>
      <trkpt lat="45.17348" lon="5.58343">
        <ele>1649.28</ele>
        <time>2011-08-20T08:11:18Z</time>
      </trkpt>
      <trkpt lat="45.17352" lon="5.5834">
        <ele>1650.24</ele>
        <time>2011-08-20T08:11:19Z</time>
      </trkpt>
      <trkpt lat="45.17356" lon="5.58336">
        <ele>1650.72</ele>
        <time>2011-08-20T08:11:20Z</time>
      </trkpt>
      <trkpt lat="45.17361" lon="5.58332">
        <ele>1649.76</ele>
        <time>2011-08-20T08:11:21Z</time>
      </trkpt>
      <trkpt lat="45.17365" lon="5.58327">
        <ele>1648.8</ele>
        <time>2011-08-20T08:11:22Z</time>
      </trkpt>
      <trkpt lat="45.17369" lon="5.58322">
        <ele>1648.32</ele>
        <time>2011-08-20T08:11:23Z</time>
      </trkpt>
      <trkpt lat="45.17373" lon="5.58316">
        <ele>1648.32</ele>
        <time>2011-08-20T08:11:24Z</time>
      </trkpt>
      <trkpt lat="45.17382" lon="5.58303">
        <ele>1647.36</ele>
        <time>2011-08-20T08:11:26Z</time>
      </trkpt>
      <trkpt lat="45.17395" lon="5.5828">
        <ele>1645.91</ele>
        <time>2011-08-20T08:11:29Z</time>
      </trkpt>
      <trkpt lat="45.17412" lon="5.58248">
        <ele>1643.99</ele>
        <time>2011-08-20T08:11:33Z</time>
      </trkpt>
      <trkpt lat="45.17421" lon="5.5823">
        <ele>1640.63</ele>
        <time>2011-08-20T08:11:35Z</time>
      </trkpt>
      <trkpt lat="45.17426" lon="5.58222">
        <ele>1640.15</ele>
        <time>2011-08-20T08:11:36Z</time>
      </trkpt>
      <trkpt lat="45.17438" lon="5.582">
        <ele>1635.34</ele>
        <time>2011-08-20T08:11:39Z</time>
      </trkpt>
      <trkpt lat="45.17452" lon="5.58173">
        <ele>1631.98</ele>
        <time>2011-08-20T08:11:42Z</time>
      </trkpt>
      <trkpt lat="45.17468" lon="5.58143">
        <ele>1628.13</ele>
        <time>2011-08-20T08:11:45Z</time>
      </trkpt>
      <trkpt lat="45.1748" lon="5.5812">
        <ele>1625.25</ele>
        <time>2011-08-20T08:11:48Z</time>
      </trkpt>
      <trkpt lat="45.17484" lon="5.58114">
        <ele>1623.8</ele>
        <time>2011-08-20T08:11:49Z</time>
      </trkpt>
      <trkpt lat="45.17489" lon="5.58109">
        <ele>1622.84</ele>
        <time>2011-08-20T08:11:50Z</time>
      </trkpt>
      <trkpt lat="45.17495" lon="5.58104">
        <ele>1622.36</ele>
        <time>2011-08-20T08:11:51Z</time>
      </trkpt>
      <trkpt lat="45.175" lon="5.581">
        <ele>1621.4</ele>
        <time>2011-08-20T08:11:52Z</time>
      </trkpt>
      <trkpt lat="45.17505" lon="5.58098">
        <ele>1620.92</ele>
        <time>2011-08-20T08:11:53Z</time>
      </trkpt>
      <trkpt lat="45.17508" lon="5.58096">
        <ele>1619.96</ele>
        <time>2011-08-20T08:11:54Z</time>
      </trkpt>
      <trkpt lat="45.17512" lon="5.58091">
        <ele>1619.48</ele>
        <time>2011-08-20T08:11:55Z</time>
      </trkpt>
      <trkpt lat="45.17517" lon="5.58086">
        <ele>1618.52</ele>
        <time>2011-08-20T08:11:56Z</time>
      </trkpt>
      <trkpt lat="45.17532" lon="5.58075">
        <ele>1615.63</ele>
        <time>2011-08-20T08:11:59Z</time>
      </trkpt>
      <trkpt lat="45.17536" lon="5.58073">
        <ele>1614.19</ele>
        <time>2011-08-20T08:12:00Z</time>
      </trkpt>
      <trkpt lat="45.17542" lon="5.58065">
        <ele>1612.75</ele>
        <time>2011-08-20T08:12:04Z</time>
      </trkpt>
      <trkpt lat="45.17542" lon="5.58062">
        <ele>1612.75</ele>
        <time>2011-08-20T08:12:05Z</time>
      </trkpt>
      <trkpt lat="45.17542" lon="5.58059">
        <ele>1611.79</ele>
        <time>2011-08-20T08:12:06Z</time>
      </trkpt>
      <trkpt lat="45.17541" lon="5.58056">
        <ele>1610.35</ele>
        <time>2011-08-20T08:12:07Z</time>
      </trkpt>
      <trkpt lat="45.17522" lon="5.58039">
        <ele>1607.94</ele>
        <time>2011-08-20T08:12:10Z</time>
      </trkpt>
      <trkpt lat="45.17519" lon="5.58036">
        <ele>1607.46</ele>
        <time>2011-08-20T08:12:11Z</time>
      </trkpt>
      <trkpt lat="45.17511" lon="5.58023">
        <ele>1606.02</ele>
        <time>2011-08-20T08:12:12Z</time>
      </trkpt>
      <trkpt lat="45.17512" lon="5.58018">
        <ele>1605.54</ele>
        <time>2011-08-20T08:12:13Z</time>
      </trkpt>
      <trkpt lat="45.17512" lon="5.58014">
        <ele>1605.54</ele>
        <time>2011-08-20T08:12:14Z</time>
      </trkpt>
      <trkpt lat="45.17512" lon="5.58013">
        <ele>1605.54</ele>
        <time>2011-08-20T08:12:15Z</time>
      </trkpt>
      <trkpt lat="45.17513" lon="5.58009">
        <ele>1604.58</ele>
        <time>2011-08-20T08:12:27Z</time>
      </trkpt>
      <trkpt lat="45.17513" lon="5.58009">
        <ele>1604.58</ele>
        <time>2011-08-20T08:12:39Z</time>
      </trkpt>
      <trkpt lat="45.17519" lon="5.58002">
        <ele>1603.62</ele>
        <time>2011-08-20T08:12:42Z</time>
      </trkpt>
      <trkpt lat="45.17532" lon="5.57988">
        <ele>1600.25</ele>
        <time>2011-08-20T08:12:46Z</time>
      </trkpt>
      <trkpt lat="45.17533" lon="5.57985">
        <ele>1599.77</ele>
        <time>2011-08-20T08:12:47Z</time>
      </trkpt>
      <trkpt lat="45.17532" lon="5.57983">
        <ele>1599.77</ele>
        <time>2011-08-20T08:12:48Z</time>
      </trkpt>
      <trkpt lat="45.1751" lon="5.57967">
        <ele>1596.89</ele>
        <time>2011-08-20T08:12:53Z</time>
      </trkpt>
      <trkpt lat="45.17513" lon="5.57938">
        <ele>1593.04</ele>
        <time>2011-08-20T08:12:59Z</time>
      </trkpt>
      <trkpt lat="45.17517" lon="5.57932">
        <ele>1592.08</ele>
        <time>2011-08-20T08:13:00Z</time>
      </trkpt>
      <trkpt lat="45.17531" lon="5.57911">
        <ele>1588.24</ele>
        <time>2011-08-20T08:13:04Z</time>
      </trkpt>
      <trkpt lat="45.17532" lon="5.57906">
        <ele>1588.24</ele>
        <time>2011-08-20T08:13:05Z</time>
      </trkpt>
      <trkpt lat="45.17531" lon="5.57904">
        <ele>1587.27</ele>
        <time>2011-08-20T08:13:06Z</time>
      </trkpt>
      <trkpt lat="45.17528" lon="5.57902">
        <ele>1586.79</ele>
        <time>2011-08-20T08:13:07Z</time>
      </trkpt>
      <trkpt lat="45.17526" lon="5.57898">
        <ele>1585.83</ele>
        <time>2011-08-20T08:13:08Z</time>
      </trkpt>
      <trkpt lat="45.17523" lon="5.57895">
        <ele>1585.83</ele>
        <time>2011-08-20T08:13:09Z</time>
      </trkpt>
      <trkpt lat="45.17509" lon="5.57885">
        <ele>1582.95</ele>
        <time>2011-08-20T08:13:12Z</time>
      </trkpt>
      <trkpt lat="45.17504" lon="5.57879">
        <ele>1581.51</ele>
        <time>2011-08-20T08:13:13Z</time>
      </trkpt>
      <trkpt lat="45.17505" lon="5.57871">
        <ele>1581.03</ele>
        <time>2011-08-20T08:13:15Z</time>
      </trkpt>
      <trkpt lat="45.17506" lon="5.57868">
        <ele>1580.54</ele>
        <time>2011-08-20T08:13:16Z</time>
      </trkpt>
      <trkpt lat="45.17509" lon="5.57863">
        <ele>1580.06</ele>
        <time>2011-08-20T08:13:17Z</time>
      </trkpt>
      <trkpt lat="45.17513" lon="5.57857">
        <ele>1579.58</ele>
        <time>2011-08-20T08:13:18Z</time>
      </trkpt>
      <trkpt lat="45.17518" lon="5.57851">
        <ele>1579.1</ele>
        <time>2011-08-20T08:13:19Z</time>
      </trkpt>
      <trkpt lat="45.17526" lon="5.57836">
        <ele>1576.22</ele>
        <time>2011-08-20T08:13:21Z</time>
      </trkpt>
      <trkpt lat="45.17532" lon="5.5783">
        <ele>1574.78</ele>
        <time>2011-08-20T08:13:22Z</time>
      </trkpt>
      <trkpt lat="45.17547" lon="5.57814">
        <ele>1571.41</ele>
        <time>2011-08-20T08:13:25Z</time>
      </trkpt>
      <trkpt lat="45.17549" lon="5.57809">
        <ele>1569.97</ele>
        <time>2011-08-20T08:13:27Z</time>
      </trkpt>
      <trkpt lat="45.17543" lon="5.57805">
        <ele>1569.01</ele>
        <time>2011-08-20T08:13:29Z</time>
      </trkpt>
      <trkpt lat="45.17539" lon="5.57801">
        <ele>1568.53</ele>
        <time>2011-08-20T08:13:30Z</time>
      </trkpt>
      <trkpt lat="45.17534" lon="5.57798">
        <ele>1567.57</ele>
        <time>2011-08-20T08:13:31Z</time>
      </trkpt>
      <trkpt lat="45.1753" lon="5.57796">
        <ele>1565.64</ele>
        <time>2011-08-20T08:13:32Z</time>
      </trkpt>
      <trkpt lat="45.17527" lon="5.57794">
        <ele>1564.68</ele>
        <time>2011-08-20T08:13:33Z</time>
      </trkpt>
      <trkpt lat="45.1751" lon="5.57782">
        <ele>1562.28</ele>
        <time>2011-08-20T08:13:36Z</time>
      </trkpt>
      <trkpt lat="45.17504" lon="5.57775">
        <ele>1561.32</ele>
        <time>2011-08-20T08:13:37Z</time>
      </trkpt>
      <trkpt lat="45.17498" lon="5.57767">
        <ele>1560.36</ele>
        <time>2011-08-20T08:13:38Z</time>
      </trkpt>
      <trkpt lat="45.17497" lon="5.57763">
        <ele>1559.88</ele>
        <time>2011-08-20T08:13:39Z</time>
      </trkpt>
      <trkpt lat="45.17497" lon="5.57758">
        <ele>1559.4</ele>
        <time>2011-08-20T08:13:40Z</time>
      </trkpt>
      <trkpt lat="45.17499" lon="5.57755">
        <ele>1558.92</ele>
        <time>2011-08-20T08:13:41Z</time>
      </trkpt>
      <trkpt lat="45.17502" lon="5.57751">
        <ele>1557.95</ele>
        <time>2011-08-20T08:13:42Z</time>
      </trkpt>
      <trkpt lat="45.17506" lon="5.57747">
        <ele>1557.47</ele>
        <time>2011-08-20T08:13:43Z</time>
      </trkpt>
      <trkpt lat="45.17516" lon="5.57738">
        <ele>1555.07</ele>
        <time>2011-08-20T08:13:45Z</time>
      </trkpt>
      <trkpt lat="45.17522" lon="5.57735">
        <ele>1554.11</ele>
        <time>2011-08-20T08:13:46Z</time>
      </trkpt>
      <trkpt lat="45.17526" lon="5.57733">
        <ele>1552.67</ele>
        <time>2011-08-20T08:13:47Z</time>
      </trkpt>
      <trkpt lat="45.17531" lon="5.57731">
        <ele>1552.19</ele>
        <time>2011-08-20T08:13:48Z</time>
      </trkpt>
      <trkpt lat="45.17535" lon="5.57729">
        <ele>1552.19</ele>
        <time>2011-08-20T08:13:49Z</time>
      </trkpt>
      <trkpt lat="45.17537" lon="5.57728">
        <ele>1551.71</ele>
        <time>2011-08-20T08:13:50Z</time>
      </trkpt>
      <trkpt lat="45.17538" lon="5.57726">
        <ele>1550.74</ele>
        <time>2011-08-20T08:13:51Z</time>
      </trkpt>
      <trkpt lat="45.17538" lon="5.57724">
        <ele>1549.78</ele>
        <time>2011-08-20T08:13:52Z</time>
      </trkpt>
      <trkpt lat="45.17536" lon="5.57723">
        <ele>1549.3</ele>
        <time>2011-08-20T08:13:53Z</time>
      </trkpt>
      <trkpt lat="45.17535" lon="5.57721">
        <ele>1548.34</ele>
        <time>2011-08-20T08:13:54Z</time>
      </trkpt>
      <trkpt lat="45.17533" lon="5.57719">
        <ele>1547.38</ele>
        <time>2011-08-20T08:13:55Z</time>
      </trkpt>
      <trkpt lat="45.1753" lon="5.57716">
        <ele>1546.42</ele>
        <time>2011-08-20T08:13:56Z</time>
      </trkpt>
      <trkpt lat="45.17528" lon="5.57712">
        <ele>1545.46</ele>
        <time>2011-08-20T08:13:57Z</time>
      </trkpt>
      <trkpt lat="45.17525" lon="5.57705">
        <ele>1543.53</ele>
        <time>2011-08-20T08:13:58Z</time>
      </trkpt>
      <trkpt lat="45.17522" lon="5.57698">
        <ele>1542.09</ele>
        <time>2011-08-20T08:13:59Z</time>
      </trkpt>
      <trkpt lat="45.17519" lon="5.57691">
        <ele>1541.13</ele>
        <time>2011-08-20T08:14:00Z</time>
      </trkpt>
      <trkpt lat="45.17506" lon="5.57677">
        <ele>1539.69</ele>
        <time>2011-08-20T08:14:01Z</time>
      </trkpt>
      <trkpt lat="45.17475" lon="5.57637">
        <ele>1535.84</ele>
        <time>2011-08-20T08:14:05Z</time>
      </trkpt>
      <trkpt lat="45.17456" lon="5.57616">
        <ele>1532</ele>
        <time>2011-08-20T08:14:09Z</time>
      </trkpt>
      <trkpt lat="45.1745" lon="5.57611">
        <ele>1531.04</ele>
        <time>2011-08-20T08:14:15Z</time>
      </trkpt>
      <trkpt lat="45.17448" lon="5.57612">
        <ele>1530.08</ele>
        <time>2011-08-20T08:14:16Z</time>
      </trkpt>
      <trkpt lat="45.17446" lon="5.57614">
        <ele>1529.59</ele>
        <time>2011-08-20T08:14:17Z</time>
      </trkpt>
      <trkpt lat="45.17443" lon="5.57618">
        <ele>1529.11</ele>
        <time>2011-08-20T08:14:18Z</time>
      </trkpt>
      <trkpt lat="45.17441" lon="5.57621">
        <ele>1528.15</ele>
        <time>2011-08-20T08:14:19Z</time>
      </trkpt>
      <trkpt lat="45.17437" lon="5.57624">
        <ele>1528.15</ele>
        <time>2011-08-20T08:14:24Z</time>
      </trkpt>
      <trkpt lat="45.17437" lon="5.57661">
        <ele>1525.75</ele>
        <time>2011-08-20T08:14:32Z</time>
      </trkpt>
      <trkpt lat="45.17438" lon="5.57686">
        <ele>1525.27</ele>
        <time>2011-08-20T08:14:35Z</time>
      </trkpt>
      <trkpt lat="45.17437" lon="5.57714">
        <ele>1524.31</ele>
        <time>2011-08-20T08:14:38Z</time>
      </trkpt>
      <trkpt lat="45.17432" lon="5.57746">
        <ele>1522.39</ele>
        <time>2011-08-20T08:14:41Z</time>
      </trkpt>
      <trkpt lat="45.1743" lon="5.57758">
        <ele>1521.9</ele>
        <time>2011-08-20T08:14:42Z</time>
      </trkpt>
      <trkpt lat="45.17424" lon="5.57781">
        <ele>1520.94</ele>
        <time>2011-08-20T08:14:44Z</time>
      </trkpt>
      <trkpt lat="45.17399" lon="5.57873">
        <ele>1518.06</ele>
        <time>2011-08-20T08:14:52Z</time>
      </trkpt>
      <trkpt lat="45.17357" lon="5.57962">
        <ele>1516.14</ele>
        <time>2011-08-20T08:15:00Z</time>
      </trkpt>
      <trkpt lat="45.17337" lon="5.57985">
        <ele>1514.21</ele>
        <time>2011-08-20T08:15:03Z</time>
      </trkpt>
      <trkpt lat="45.1731" lon="5.58002">
        <ele>1513.73</ele>
        <time>2011-08-20T08:15:07Z</time>
      </trkpt>
      <trkpt lat="45.17304" lon="5.58009">
        <ele>1513.73</ele>
        <time>2011-08-20T08:15:14Z</time>
      </trkpt>
      <trkpt lat="45.17304" lon="5.58009">
        <ele>1513.73</ele>
        <time>2011-08-20T08:15:39Z</time>
      </trkpt>
      <trkpt lat="45.17305" lon="5.58009">
        <ele>1512.77</ele>
        <time>2011-08-20T08:16:05Z</time>
      </trkpt>
      <trkpt lat="45.17305" lon="5.58008">
        <ele>1512.77</ele>
        <time>2011-08-20T08:16:38Z</time>
      </trkpt>
      <trkpt lat="45.17305" lon="5.58008">
        <ele>1512.77</ele>
        <time>2011-08-20T08:17:05Z</time>
      </trkpt>
      <trkpt lat="45.17305" lon="5.58009">
        <ele>1513.73</ele>
        <time>2011-08-20T08:17:24Z</time>
      </trkpt>
      <trkpt lat="45.17306" lon="5.5801">
        <ele>1512.29</ele>
        <time>2011-08-20T08:17:36Z</time>
      </trkpt>
      <trkpt lat="45.17306" lon="5.5801">
        <ele>1511.81</ele>
        <time>2011-08-20T08:18:04Z</time>
      </trkpt>
      <trkpt lat="45.17306" lon="5.5801">
        <ele>1512.29</ele>
        <time>2011-08-20T08:18:29Z</time>
      </trkpt>
      <trkpt lat="45.17307" lon="5.5801">
        <ele>1512.29</ele>
        <time>2011-08-20T08:18:58Z</time>
      </trkpt>
      <trkpt lat="45.17307" lon="5.58011">
        <ele>1512.29</ele>
        <time>2011-08-20T08:19:19Z</time>
      </trkpt>
      <trkpt lat="45.17307" lon="5.58011">
        <ele>1512.29</ele>
        <time>2011-08-20T08:19:35Z</time>
      </trkpt>
      <trkpt lat="45.17305" lon="5.58013">
        <ele>1512.77</ele>
        <time>2011-08-20T08:19:39Z</time>
      </trkpt>
      <trkpt lat="45.17299" lon="5.58018">
        <ele>1513.25</ele>
        <time>2011-08-20T08:19:53Z</time>
      </trkpt>
      <trkpt lat="45.17299" lon="5.58018">
        <ele>1512.77</ele>
        <time>2011-08-20T08:20:23Z</time>
      </trkpt>
      <trkpt lat="45.173" lon="5.58019">
        <ele>1512.77</ele>
        <time>2011-08-20T08:20:53Z</time>
      </trkpt>
      <trkpt lat="45.17295" lon="5.58022">
        <ele>1513.25</ele>
        <time>2011-08-20T08:21:19Z</time>
      </trkpt>
      <trkpt lat="45.17275" lon="5.58037">
        <ele>1513.25</ele>
        <time>2011-08-20T08:21:27Z</time>
      </trkpt>
      <trkpt lat="45.17274" lon="5.58036">
        <ele>1513.25</ele>
        <time>2011-08-20T08:21:28Z</time>
      </trkpt>
      <trkpt lat="45.17234" lon="5.58036">
        <ele>1512.29</ele>
        <time>2011-08-20T08:21:38Z</time>
      </trkpt>
      <trkpt lat="45.17202" lon="5.58032">
        <ele>1511.81</ele>
        <time>2011-08-20T08:21:47Z</time>
      </trkpt>
      <trkpt lat="45.17199" lon="5.58032">
        <ele>1511.81</ele>
        <time>2011-08-20T08:21:48Z</time>
      </trkpt>
      <trkpt lat="45.17184" lon="5.58024">
        <ele>1511.33</ele>
        <time>2011-08-20T08:21:52Z</time>
      </trkpt>
      <trkpt lat="45.17174" lon="5.58019">
        <ele>1511.33</ele>
        <time>2011-08-20T08:21:54Z</time>
      </trkpt>
      <trkpt lat="45.17157" lon="5.58011">
        <ele>1510.85</ele>
        <time>2011-08-20T08:21:57Z</time>
      </trkpt>
      <trkpt lat="45.17133" lon="5.57994">
        <ele>1508.93</ele>
        <time>2011-08-20T08:22:01Z</time>
      </trkpt>
      <trkpt lat="45.17103" lon="5.5798">
        <ele>1505.56</ele>
        <time>2011-08-20T08:22:06Z</time>
      </trkpt>
      <trkpt lat="45.17091" lon="5.5797">
        <ele>1504.12</ele>
        <time>2011-08-20T08:22:08Z</time>
      </trkpt>
      <trkpt lat="45.17065" lon="5.57953">
        <ele>1503.64</ele>
        <time>2011-08-20T08:22:13Z</time>
      </trkpt>
      <trkpt lat="45.17054" lon="5.57947">
        <ele>1503.16</ele>
        <time>2011-08-20T08:22:15Z</time>
      </trkpt>
      <trkpt lat="45.17016" lon="5.57938">
        <ele>1504.12</ele>
        <time>2011-08-20T08:22:23Z</time>
      </trkpt>
      <trkpt lat="45.16977" lon="5.57929">
        <ele>1502.68</ele>
        <time>2011-08-20T08:22:31Z</time>
      </trkpt>
      <trkpt lat="45.16965" lon="5.57925">
        <ele>1501.72</ele>
        <time>2011-08-20T08:22:33Z</time>
      </trkpt>
      <trkpt lat="45.16947" lon="5.57924">
        <ele>1501.72</ele>
        <time>2011-08-20T08:22:36Z</time>
      </trkpt>
      <trkpt lat="45.1689" lon="5.57921">
        <ele>1497.87</ele>
        <time>2011-08-20T08:22:43Z</time>
      </trkpt>
      <trkpt lat="45.1685" lon="5.57915">
        <ele>1494.51</ele>
        <time>2011-08-20T08:22:48Z</time>
      </trkpt>
      <trkpt lat="45.16827" lon="5.57902">
        <ele>1490.66</ele>
        <time>2011-08-20T08:22:52Z</time>
      </trkpt>
      <trkpt lat="45.16814" lon="5.57892">
        <ele>1488.74</ele>
        <time>2011-08-20T08:22:54Z</time>
      </trkpt>
      <trkpt lat="45.16808" lon="5.57889">
        <ele>1488.26</ele>
        <time>2011-08-20T08:22:55Z</time>
      </trkpt>
      <trkpt lat="45.16801" lon="5.57887">
        <ele>1486.34</ele>
        <time>2011-08-20T08:22:56Z</time>
      </trkpt>
      <trkpt lat="45.16795" lon="5.57885">
        <ele>1485.85</ele>
        <time>2011-08-20T08:22:57Z</time>
      </trkpt>
      <trkpt lat="45.1679" lon="5.57883">
        <ele>1485.37</ele>
        <time>2011-08-20T08:22:58Z</time>
      </trkpt>
      <trkpt lat="45.16788" lon="5.57881">
        <ele>1485.37</ele>
        <time>2011-08-20T08:22:59Z</time>
      </trkpt>
      <trkpt lat="45.16787" lon="5.57876">
        <ele>1484.89</ele>
        <time>2011-08-20T08:23:01Z</time>
      </trkpt>
      <trkpt lat="45.16787" lon="5.57874">
        <ele>1483.93</ele>
        <time>2011-08-20T08:23:02Z</time>
      </trkpt>
      <trkpt lat="45.168" lon="5.57867">
        <ele>1482.01</ele>
        <time>2011-08-20T08:23:06Z</time>
      </trkpt>
      <trkpt lat="45.16813" lon="5.5786">
        <ele>1479.13</ele>
        <time>2011-08-20T08:23:12Z</time>
      </trkpt>
      <trkpt lat="45.16811" lon="5.57857">
        <ele>1479.61</ele>
        <time>2011-08-20T08:23:14Z</time>
      </trkpt>
      <trkpt lat="45.16809" lon="5.57854">
        <ele>1478.65</ele>
        <time>2011-08-20T08:23:15Z</time>
      </trkpt>
      <trkpt lat="45.16805" lon="5.5785">
        <ele>1479.13</ele>
        <time>2011-08-20T08:23:16Z</time>
      </trkpt>
      <trkpt lat="45.16802" lon="5.57845">
        <ele>1478.65</ele>
        <time>2011-08-20T08:23:17Z</time>
      </trkpt>
      <trkpt lat="45.16798" lon="5.57839">
        <ele>1477.2</ele>
        <time>2011-08-20T08:23:18Z</time>
      </trkpt>
      <trkpt lat="45.16795" lon="5.57834">
        <ele>1476.72</ele>
        <time>2011-08-20T08:23:19Z</time>
      </trkpt>
      <trkpt lat="45.16791" lon="5.57831">
        <ele>1476.24</ele>
        <time>2011-08-20T08:23:20Z</time>
      </trkpt>
      <trkpt lat="45.16787" lon="5.57828">
        <ele>1475.76</ele>
        <time>2011-08-20T08:23:21Z</time>
      </trkpt>
      <trkpt lat="45.16777" lon="5.57823">
        <ele>1474.32</ele>
        <time>2011-08-20T08:23:23Z</time>
      </trkpt>
      <trkpt lat="45.16773" lon="5.57821">
        <ele>1473.84</ele>
        <time>2011-08-20T08:23:24Z</time>
      </trkpt>
      <trkpt lat="45.16763" lon="5.57819">
        <ele>1473.36</ele>
        <time>2011-08-20T08:23:26Z</time>
      </trkpt>
      <trkpt lat="45.16745" lon="5.57811">
        <ele>1470.95</ele>
        <time>2011-08-20T08:23:30Z</time>
      </trkpt>
      <trkpt lat="45.16707" lon="5.57799">
        <ele>1468.55</ele>
        <time>2011-08-20T08:23:38Z</time>
      </trkpt>
      <trkpt lat="45.16681" lon="5.57789">
        <ele>1466.15</ele>
        <time>2011-08-20T08:23:42Z</time>
      </trkpt>
      <trkpt lat="45.16653" lon="5.57781">
        <ele>1462.3</ele>
        <time>2011-08-20T08:23:46Z</time>
      </trkpt>
      <trkpt lat="45.16638" lon="5.57775">
        <ele>1460.86</ele>
        <time>2011-08-20T08:23:48Z</time>
      </trkpt>
      <trkpt lat="45.1663" lon="5.57773">
        <ele>1459.42</ele>
        <time>2011-08-20T08:23:49Z</time>
      </trkpt>
      <trkpt lat="45.16614" lon="5.5777">
        <ele>1457.98</ele>
        <time>2011-08-20T08:23:51Z</time>
      </trkpt>
      <trkpt lat="45.16607" lon="5.5777">
        <ele>1457.02</ele>
        <time>2011-08-20T08:23:52Z</time>
      </trkpt>
      <trkpt lat="45.166" lon="5.57769">
        <ele>1456.53</ele>
        <time>2011-08-20T08:23:53Z</time>
      </trkpt>
      <trkpt lat="45.16594" lon="5.57767">
        <ele>1456.05</ele>
        <time>2011-08-20T08:23:54Z</time>
      </trkpt>
      <trkpt lat="45.16588" lon="5.57763">
        <ele>1455.57</ele>
        <time>2011-08-20T08:23:55Z</time>
      </trkpt>
      <trkpt lat="45.16582" lon="5.57759">
        <ele>1454.61</ele>
        <time>2011-08-20T08:23:56Z</time>
      </trkpt>
      <trkpt lat="45.16577" lon="5.57757">
        <ele>1453.17</ele>
        <time>2011-08-20T08:23:57Z</time>
      </trkpt>
      <trkpt lat="45.16558" lon="5.57753">
        <ele>1452.21</ele>
        <time>2011-08-20T08:24:02Z</time>
      </trkpt>
      <trkpt lat="45.16557" lon="5.5775">
        <ele>1451.25</ele>
        <time>2011-08-20T08:24:03Z</time>
      </trkpt>
      <trkpt lat="45.16557" lon="5.57747">
        <ele>1451.25</ele>
        <time>2011-08-20T08:24:04Z</time>
      </trkpt>
      <trkpt lat="45.16559" lon="5.57736">
        <ele>1449.32</ele>
        <time>2011-08-20T08:24:07Z</time>
      </trkpt>
      <trkpt lat="45.16556" lon="5.57715">
        <ele>1446.44</ele>
        <time>2011-08-20T08:24:11Z</time>
      </trkpt>
      <trkpt lat="45.16555" lon="5.57712">
        <ele>1446.44</ele>
        <time>2011-08-20T08:24:12Z</time>
      </trkpt>
      <trkpt lat="45.16552" lon="5.57701">
        <ele>1445.96</ele>
        <time>2011-08-20T08:24:15Z</time>
      </trkpt>
      <trkpt lat="45.16551" lon="5.57697">
        <ele>1445.48</ele>
        <time>2011-08-20T08:24:16Z</time>
      </trkpt>
      <trkpt lat="45.1655" lon="5.57692">
        <ele>1445</ele>
        <time>2011-08-20T08:24:17Z</time>
      </trkpt>
      <trkpt lat="45.16549" lon="5.57686">
        <ele>1444.52</ele>
        <time>2011-08-20T08:24:18Z</time>
      </trkpt>
      <trkpt lat="45.16549" lon="5.57679">
        <ele>1443.56</ele>
        <time>2011-08-20T08:24:19Z</time>
      </trkpt>
      <trkpt lat="45.16548" lon="5.57673">
        <ele>1442.6</ele>
        <time>2011-08-20T08:24:20Z</time>
      </trkpt>
      <trkpt lat="45.16547" lon="5.57666">
        <ele>1441.63</ele>
        <time>2011-08-20T08:24:21Z</time>
      </trkpt>
      <trkpt lat="45.16544" lon="5.57659">
        <ele>1440.19</ele>
        <time>2011-08-20T08:24:22Z</time>
      </trkpt>
      <trkpt lat="45.16541" lon="5.57653">
        <ele>1440.19</ele>
        <time>2011-08-20T08:24:23Z</time>
      </trkpt>
      <trkpt lat="45.16539" lon="5.57647">
        <ele>1439.23</ele>
        <time>2011-08-20T08:24:24Z</time>
      </trkpt>
      <trkpt lat="45.16536" lon="5.57641">
        <ele>1438.75</ele>
        <time>2011-08-20T08:24:25Z</time>
      </trkpt>
      <trkpt lat="45.16533" lon="5.57636">
        <ele>1438.27</ele>
        <time>2011-08-20T08:24:26Z</time>
      </trkpt>
      <trkpt lat="45.16529" lon="5.57631">
        <ele>1437.79</ele>
        <time>2011-08-20T08:24:27Z</time>
      </trkpt>
      <trkpt lat="45.16526" lon="5.57627">
        <ele>1436.83</ele>
        <time>2011-08-20T08:24:28Z</time>
      </trkpt>
      <trkpt lat="45.16523" lon="5.57622">
        <ele>1435.39</ele>
        <time>2011-08-20T08:24:30Z</time>
      </trkpt>
      <trkpt lat="45.16544" lon="5.57621">
        <ele>1431.06</ele>
        <time>2011-08-20T08:24:38Z</time>
      </trkpt>
      <trkpt lat="45.16548" lon="5.57624">
        <ele>1430.58</ele>
        <time>2011-08-20T08:24:39Z</time>
      </trkpt>
      <trkpt lat="45.16553" lon="5.57625">
        <ele>1430.1</ele>
        <time>2011-08-20T08:24:40Z</time>
      </trkpt>
      <trkpt lat="45.16558" lon="5.57626">
        <ele>1429.62</ele>
        <time>2011-08-20T08:24:41Z</time>
      </trkpt>
      <trkpt lat="45.16562" lon="5.57626">
        <ele>1428.18</ele>
        <time>2011-08-20T08:24:42Z</time>
      </trkpt>
      <trkpt lat="45.16566" lon="5.57628">
        <ele>1427.7</ele>
        <time>2011-08-20T08:24:43Z</time>
      </trkpt>
      <trkpt lat="45.16573" lon="5.57632">
        <ele>1426.73</ele>
        <time>2011-08-20T08:24:45Z</time>
      </trkpt>
      <trkpt lat="45.16576" lon="5.57631">
        <ele>1424.81</ele>
        <time>2011-08-20T08:24:48Z</time>
      </trkpt>
      <trkpt lat="45.16576" lon="5.57626">
        <ele>1424.33</ele>
        <time>2011-08-20T08:24:50Z</time>
      </trkpt>
      <trkpt lat="45.16567" lon="5.57605">
        <ele>1419.52</ele>
        <time>2011-08-20T08:24:55Z</time>
      </trkpt>
      <trkpt lat="45.16564" lon="5.57602">
        <ele>1419.04</ele>
        <time>2011-08-20T08:24:56Z</time>
      </trkpt>
      <trkpt lat="45.16563" lon="5.57595">
        <ele>1415.2</ele>
        <time>2011-08-20T08:25:01Z</time>
      </trkpt>
      <trkpt lat="45.16578" lon="5.57593">
        <ele>1411.35</ele>
        <time>2011-08-20T08:25:08Z</time>
      </trkpt>
      <trkpt lat="45.16581" lon="5.57593">
        <ele>1410.87</ele>
        <time>2011-08-20T08:25:09Z</time>
      </trkpt>
      <trkpt lat="45.16584" lon="5.57593">
        <ele>1410.39</ele>
        <time>2011-08-20T08:25:10Z</time>
      </trkpt>
      <trkpt lat="45.16591" lon="5.57602">
        <ele>1407.99</ele>
        <time>2011-08-20T08:25:15Z</time>
      </trkpt>
      <trkpt lat="45.16592" lon="5.57585">
        <ele>1405.58</ele>
        <time>2011-08-20T08:25:20Z</time>
      </trkpt>
      <trkpt lat="45.16591" lon="5.5758">
        <ele>1405.1</ele>
        <time>2011-08-20T08:25:21Z</time>
      </trkpt>
      <trkpt lat="45.1659" lon="5.57576">
        <ele>1403.18</ele>
        <time>2011-08-20T08:25:22Z</time>
      </trkpt>
      <trkpt lat="45.1659" lon="5.57573">
        <ele>1402.7</ele>
        <time>2011-08-20T08:25:23Z</time>
      </trkpt>
      <trkpt lat="45.16592" lon="5.57571">
        <ele>1401.26</ele>
        <time>2011-08-20T08:25:26Z</time>
      </trkpt>
      <trkpt lat="45.16594" lon="5.57571">
        <ele>1400.3</ele>
        <time>2011-08-20T08:25:27Z</time>
      </trkpt>
      <trkpt lat="45.16596" lon="5.57572">
        <ele>1399.34</ele>
        <time>2011-08-20T08:25:28Z</time>
      </trkpt>
      <trkpt lat="45.166" lon="5.57577">
        <ele>1398.86</ele>
        <time>2011-08-20T08:25:30Z</time>
      </trkpt>
      <trkpt lat="45.16603" lon="5.57579">
        <ele>1397.89</ele>
        <time>2011-08-20T08:25:31Z</time>
      </trkpt>
      <trkpt lat="45.1661" lon="5.57558">
        <ele>1393.57</ele>
        <time>2011-08-20T08:25:37Z</time>
      </trkpt>
      <trkpt lat="45.16607" lon="5.57551">
        <ele>1393.09</ele>
        <time>2011-08-20T08:25:38Z</time>
      </trkpt>
      <trkpt lat="45.16605" lon="5.57543">
        <ele>1392.61</ele>
        <time>2011-08-20T08:25:39Z</time>
      </trkpt>
      <trkpt lat="45.16603" lon="5.57537">
        <ele>1391.17</ele>
        <time>2011-08-20T08:25:40Z</time>
      </trkpt>
      <trkpt lat="45.16599" lon="5.5753">
        <ele>1390.68</ele>
        <time>2011-08-20T08:25:42Z</time>
      </trkpt>
      <trkpt lat="45.166" lon="5.57526">
        <ele>1389.72</ele>
        <time>2011-08-20T08:25:45Z</time>
      </trkpt>
      <trkpt lat="45.16609" lon="5.57527">
        <ele>1387.8</ele>
        <time>2011-08-20T08:25:50Z</time>
      </trkpt>
      <trkpt lat="45.16613" lon="5.57527">
        <ele>1386.36</ele>
        <time>2011-08-20T08:25:52Z</time>
      </trkpt>
      <trkpt lat="45.16616" lon="5.57517">
        <ele>1383.96</ele>
        <time>2011-08-20T08:25:55Z</time>
      </trkpt>
      <trkpt lat="45.16614" lon="5.5751">
        <ele>1382.99</ele>
        <time>2011-08-20T08:25:56Z</time>
      </trkpt>
      <trkpt lat="45.16613" lon="5.57503">
        <ele>1382.51</ele>
        <time>2011-08-20T08:25:57Z</time>
      </trkpt>
      <trkpt lat="45.16612" lon="5.57496">
        <ele>1382.03</ele>
        <time>2011-08-20T08:25:58Z</time>
      </trkpt>
      <trkpt lat="45.16611" lon="5.57488">
        <ele>1381.07</ele>
        <time>2011-08-20T08:25:59Z</time>
      </trkpt>
      <trkpt lat="45.1661" lon="5.5748">
        <ele>1380.59</ele>
        <time>2011-08-20T08:26:00Z</time>
      </trkpt>
      <trkpt lat="45.16608" lon="5.57471">
        <ele>1379.63</ele>
        <time>2011-08-20T08:26:01Z</time>
      </trkpt>
      <trkpt lat="45.16605" lon="5.57452">
        <ele>1378.67</ele>
        <time>2011-08-20T08:26:03Z</time>
      </trkpt>
      <trkpt lat="45.16604" lon="5.57444">
        <ele>1377.23</ele>
        <time>2011-08-20T08:26:04Z</time>
      </trkpt>
      <trkpt lat="45.16604" lon="5.57438">
        <ele>1376.26</ele>
        <time>2011-08-20T08:26:05Z</time>
      </trkpt>
      <trkpt lat="45.16604" lon="5.57431">
        <ele>1375.3</ele>
        <time>2011-08-20T08:26:06Z</time>
      </trkpt>
      <trkpt lat="45.16604" lon="5.57425">
        <ele>1374.82</ele>
        <time>2011-08-20T08:26:07Z</time>
      </trkpt>
      <trkpt lat="45.16604" lon="5.57419">
        <ele>1373.86</ele>
        <time>2011-08-20T08:26:08Z</time>
      </trkpt>
      <trkpt lat="45.16604" lon="5.57412">
        <ele>1373.38</ele>
        <time>2011-08-20T08:26:09Z</time>
      </trkpt>
      <trkpt lat="45.16603" lon="5.57406">
        <ele>1373.38</ele>
        <time>2011-08-20T08:26:10Z</time>
      </trkpt>
      <trkpt lat="45.16602" lon="5.57387">
        <ele>1371.46</ele>
        <time>2011-08-20T08:26:13Z</time>
      </trkpt>
      <trkpt lat="45.16598" lon="5.57363">
        <ele>1368.09</ele>
        <time>2011-08-20T08:26:16Z</time>
      </trkpt>
      <trkpt lat="45.16598" lon="5.57361">
        <ele>1368.57</ele>
        <time>2011-08-20T08:26:17Z</time>
      </trkpt>
      <trkpt lat="45.16599" lon="5.57351">
        <ele>1367.61</ele>
        <time>2011-08-20T08:26:18Z</time>
      </trkpt>
      <trkpt lat="45.166" lon="5.57343">
        <ele>1367.13</ele>
        <time>2011-08-20T08:26:19Z</time>
      </trkpt>
      <trkpt lat="45.166" lon="5.57336">
        <ele>1365.69</ele>
        <time>2011-08-20T08:26:20Z</time>
      </trkpt>
      <trkpt lat="45.166" lon="5.57328">
        <ele>1365.69</ele>
        <time>2011-08-20T08:26:21Z</time>
      </trkpt>
      <trkpt lat="45.166" lon="5.57322">
        <ele>1365.21</ele>
        <time>2011-08-20T08:26:22Z</time>
      </trkpt>
      <trkpt lat="45.16599" lon="5.57296">
        <ele>1362.81</ele>
        <time>2011-08-20T08:26:26Z</time>
      </trkpt>
      <trkpt lat="45.16606" lon="5.57271">
        <ele>1360.4</ele>
        <time>2011-08-20T08:26:30Z</time>
      </trkpt>
      <trkpt lat="45.16608" lon="5.57266">
        <ele>1359.92</ele>
        <time>2011-08-20T08:26:31Z</time>
      </trkpt>
      <trkpt lat="45.16612" lon="5.57259">
        <ele>1357.52</ele>
        <time>2011-08-20T08:26:33Z</time>
      </trkpt>
      <trkpt lat="45.16616" lon="5.57237">
        <ele>1356.08</ele>
        <time>2011-08-20T08:26:36Z</time>
      </trkpt>
      <trkpt lat="45.16618" lon="5.57224">
        <ele>1353.19</ele>
        <time>2011-08-20T08:26:38Z</time>
      </trkpt>
      <trkpt lat="45.16618" lon="5.57219">
        <ele>1352.71</ele>
        <time>2011-08-20T08:26:40Z</time>
      </trkpt>
      <trkpt lat="45.16616" lon="5.57218">
        <ele>1349.83</ele>
        <time>2011-08-20T08:26:44Z</time>
      </trkpt>
      <trkpt lat="45.16616" lon="5.57222">
        <ele>1348.87</ele>
        <time>2011-08-20T08:26:45Z</time>
      </trkpt>
      <trkpt lat="45.16618" lon="5.5723">
        <ele>1347.91</ele>
        <time>2011-08-20T08:26:47Z</time>
      </trkpt>
      <trkpt lat="45.16625" lon="5.57244">
        <ele>1345.98</ele>
        <time>2011-08-20T08:26:50Z</time>
      </trkpt>
      <trkpt lat="45.16635" lon="5.57261">
        <ele>1343.58</ele>
        <time>2011-08-20T08:26:54Z</time>
      </trkpt>
      <trkpt lat="45.16637" lon="5.57267">
        <ele>1343.1</ele>
        <time>2011-08-20T08:26:55Z</time>
      </trkpt>
      <trkpt lat="45.16648" lon="5.57289">
        <ele>1339.73</ele>
        <time>2011-08-20T08:26:59Z</time>
      </trkpt>
      <trkpt lat="45.1665" lon="5.57291">
        <ele>1339.73</ele>
        <time>2011-08-20T08:27:00Z</time>
      </trkpt>
      <trkpt lat="45.16655" lon="5.57285">
        <ele>1338.29</ele>
        <time>2011-08-20T08:27:03Z</time>
      </trkpt>
      <trkpt lat="45.16656" lon="5.57279">
        <ele>1337.81</ele>
        <time>2011-08-20T08:27:04Z</time>
      </trkpt>
      <trkpt lat="45.16657" lon="5.57272">
        <ele>1336.37</ele>
        <time>2011-08-20T08:27:05Z</time>
      </trkpt>
      <trkpt lat="45.16655" lon="5.57265">
        <ele>1335.89</ele>
        <time>2011-08-20T08:27:06Z</time>
      </trkpt>
      <trkpt lat="45.16654" lon="5.5726">
        <ele>1335.41</ele>
        <time>2011-08-20T08:27:07Z</time>
      </trkpt>
      <trkpt lat="45.16654" lon="5.57255">
        <ele>1334.93</ele>
        <time>2011-08-20T08:27:08Z</time>
      </trkpt>
      <trkpt lat="45.16654" lon="5.5725">
        <ele>1334.45</ele>
        <time>2011-08-20T08:27:09Z</time>
      </trkpt>
      <trkpt lat="45.16653" lon="5.57244">
        <ele>1333.97</ele>
        <time>2011-08-20T08:27:10Z</time>
      </trkpt>
      <trkpt lat="45.16652" lon="5.57239">
        <ele>1333.49</ele>
        <time>2011-08-20T08:27:11Z</time>
      </trkpt>
      <trkpt lat="45.16653" lon="5.57233">
        <ele>1332.04</ele>
        <time>2011-08-20T08:27:12Z</time>
      </trkpt>
      <trkpt lat="45.16655" lon="5.57226">
        <ele>1331.56</ele>
        <time>2011-08-20T08:27:13Z</time>
      </trkpt>
      <trkpt lat="45.16656" lon="5.57219">
        <ele>1331.08</ele>
        <time>2011-08-20T08:27:14Z</time>
      </trkpt>
      <trkpt lat="45.16656" lon="5.57212">
        <ele>1330.6</ele>
        <time>2011-08-20T08:27:15Z</time>
      </trkpt>
      <trkpt lat="45.16656" lon="5.57203">
        <ele>1329.16</ele>
        <time>2011-08-20T08:27:16Z</time>
      </trkpt>
      <trkpt lat="45.16657" lon="5.57195">
        <ele>1328.2</ele>
        <time>2011-08-20T08:27:17Z</time>
      </trkpt>
      <trkpt lat="45.16658" lon="5.57188">
        <ele>1327.72</ele>
        <time>2011-08-20T08:27:18Z</time>
      </trkpt>
      <trkpt lat="45.16658" lon="5.57183">
        <ele>1327.24</ele>
        <time>2011-08-20T08:27:19Z</time>
      </trkpt>
      <trkpt lat="45.16658" lon="5.57179">
        <ele>1326.76</ele>
        <time>2011-08-20T08:27:20Z</time>
      </trkpt>
      <trkpt lat="45.16657" lon="5.57176">
        <ele>1325.8</ele>
        <time>2011-08-20T08:27:21Z</time>
      </trkpt>
      <trkpt lat="45.16656" lon="5.57173">
        <ele>1325.31</ele>
        <time>2011-08-20T08:27:22Z</time>
      </trkpt>
      <trkpt lat="45.16655" lon="5.57171">
        <ele>1324.83</ele>
        <time>2011-08-20T08:27:23Z</time>
      </trkpt>
      <trkpt lat="45.16654" lon="5.57168">
        <ele>1325.31</ele>
        <time>2011-08-20T08:27:24Z</time>
      </trkpt>
      <trkpt lat="45.16653" lon="5.57165">
        <ele>1324.83</ele>
        <time>2011-08-20T08:27:25Z</time>
      </trkpt>
      <trkpt lat="45.16655" lon="5.57161">
        <ele>1323.39</ele>
        <time>2011-08-20T08:27:27Z</time>
      </trkpt>
      <trkpt lat="45.16658" lon="5.57156">
        <ele>1321.95</ele>
        <time>2011-08-20T08:27:30Z</time>
      </trkpt>
      <trkpt lat="45.16665" lon="5.57155">
        <ele>1318.1</ele>
        <time>2011-08-20T08:27:36Z</time>
      </trkpt>
      <trkpt lat="45.16671" lon="5.57166">
        <ele>1316.18</ele>
        <time>2011-08-20T08:27:40Z</time>
      </trkpt>
      <trkpt lat="45.16681" lon="5.57168">
        <ele>1313.3</ele>
        <time>2011-08-20T08:27:45Z</time>
      </trkpt>
      <trkpt lat="45.16682" lon="5.57157">
        <ele>1311.86</ele>
        <time>2011-08-20T08:27:47Z</time>
      </trkpt>
      <trkpt lat="45.16681" lon="5.5715">
        <ele>1310.9</ele>
        <time>2011-08-20T08:27:48Z</time>
      </trkpt>
      <trkpt lat="45.16681" lon="5.57143">
        <ele>1310.41</ele>
        <time>2011-08-20T08:27:49Z</time>
      </trkpt>
      <trkpt lat="45.16681" lon="5.57137">
        <ele>1308.97</ele>
        <time>2011-08-20T08:27:50Z</time>
      </trkpt>
      <trkpt lat="45.16681" lon="5.57133">
        <ele>1308.49</ele>
        <time>2011-08-20T08:27:51Z</time>
      </trkpt>
      <trkpt lat="45.16681" lon="5.5713">
        <ele>1298.88</ele>
        <time>2011-08-20T08:27:52Z</time>
      </trkpt>
      <trkpt lat="45.16681" lon="5.57127">
        <ele>1310.41</ele>
        <time>2011-08-20T08:27:53Z</time>
      </trkpt>
      <trkpt lat="45.1668" lon="5.57124">
        <ele>1308.01</ele>
        <time>2011-08-20T08:27:54Z</time>
      </trkpt>
      <trkpt lat="45.1668" lon="5.5712">
        <ele>1307.05</ele>
        <time>2011-08-20T08:27:55Z</time>
      </trkpt>
      <trkpt lat="45.16679" lon="5.57115">
        <ele>1306.57</ele>
        <time>2011-08-20T08:27:56Z</time>
      </trkpt>
      <trkpt lat="45.16677" lon="5.57099">
        <ele>1302.72</ele>
        <time>2011-08-20T08:28:00Z</time>
      </trkpt>
      <trkpt lat="45.16677" lon="5.57095">
        <ele>1302.24</ele>
        <time>2011-08-20T08:28:01Z</time>
      </trkpt>
      <trkpt lat="45.16678" lon="5.57092">
        <ele>1301.76</ele>
        <time>2011-08-20T08:28:02Z</time>
      </trkpt>
      <trkpt lat="45.16679" lon="5.5709">
        <ele>1301.28</ele>
        <time>2011-08-20T08:28:03Z</time>
      </trkpt>
      <trkpt lat="45.16679" lon="5.5708">
        <ele>1301.28</ele>
        <time>2011-08-20T08:28:06Z</time>
      </trkpt>
      <trkpt lat="45.16679" lon="5.57075">
        <ele>1301.28</ele>
        <time>2011-08-20T08:28:07Z</time>
      </trkpt>
      <trkpt lat="45.16679" lon="5.57068">
        <ele>1300.8</ele>
        <time>2011-08-20T08:28:08Z</time>
      </trkpt>
      <trkpt lat="45.16679" lon="5.57048">
        <ele>1298.88</ele>
        <time>2011-08-20T08:28:11Z</time>
      </trkpt>
      <trkpt lat="45.16682" lon="5.57031">
        <ele>1296.96</ele>
        <time>2011-08-20T08:28:13Z</time>
      </trkpt>
      <trkpt lat="45.16684" lon="5.57026">
        <ele>1296.48</ele>
        <time>2011-08-20T08:28:14Z</time>
      </trkpt>
      <trkpt lat="45.16686" lon="5.57021">
        <ele>1295.99</ele>
        <time>2011-08-20T08:28:15Z</time>
      </trkpt>
      <trkpt lat="45.16688" lon="5.57018">
        <ele>1295.51</ele>
        <time>2011-08-20T08:28:16Z</time>
      </trkpt>
      <trkpt lat="45.1669" lon="5.57013">
        <ele>1295.03</ele>
        <time>2011-08-20T08:28:17Z</time>
      </trkpt>
      <trkpt lat="45.16693" lon="5.57008">
        <ele>1294.55</ele>
        <time>2011-08-20T08:28:18Z</time>
      </trkpt>
      <trkpt lat="45.16696" lon="5.57002">
        <ele>1293.11</ele>
        <time>2011-08-20T08:28:19Z</time>
      </trkpt>
      <trkpt lat="45.16699" lon="5.56997">
        <ele>1292.63</ele>
        <time>2011-08-20T08:28:20Z</time>
      </trkpt>
      <trkpt lat="45.167" lon="5.56993">
        <ele>1291.67</ele>
        <time>2011-08-20T08:28:21Z</time>
      </trkpt>
      <trkpt lat="45.16703" lon="5.56991">
        <ele>1291.19</ele>
        <time>2011-08-20T08:28:22Z</time>
      </trkpt>
      <trkpt lat="45.16705" lon="5.56989">
        <ele>1290.71</ele>
        <time>2011-08-20T08:28:23Z</time>
      </trkpt>
      <trkpt lat="45.16718" lon="5.56976">
        <ele>1288.3</ele>
        <time>2011-08-20T08:28:26Z</time>
      </trkpt>
      <trkpt lat="45.16722" lon="5.5697">
        <ele>1287.82</ele>
        <time>2011-08-20T08:28:27Z</time>
      </trkpt>
      <trkpt lat="45.16725" lon="5.56964">
        <ele>1286.38</ele>
        <time>2011-08-20T08:28:28Z</time>
      </trkpt>
      <trkpt lat="45.16728" lon="5.56957">
        <ele>1285.9</ele>
        <time>2011-08-20T08:28:29Z</time>
      </trkpt>
      <trkpt lat="45.1673" lon="5.56952">
        <ele>1284.94</ele>
        <time>2011-08-20T08:28:30Z</time>
      </trkpt>
      <trkpt lat="45.16732" lon="5.56946">
        <ele>1283.5</ele>
        <time>2011-08-20T08:28:31Z</time>
      </trkpt>
      <trkpt lat="45.16735" lon="5.5694">
        <ele>1283.02</ele>
        <time>2011-08-20T08:28:32Z</time>
      </trkpt>
      <trkpt lat="45.16738" lon="5.56934">
        <ele>1281.09</ele>
        <time>2011-08-20T08:28:33Z</time>
      </trkpt>
      <trkpt lat="45.16746" lon="5.5692">
        <ele>1277.73</ele>
        <time>2011-08-20T08:28:36Z</time>
      </trkpt>
      <trkpt lat="45.16753" lon="5.56901">
        <ele>1275.81</ele>
        <time>2011-08-20T08:28:39Z</time>
      </trkpt>
      <trkpt lat="45.16754" lon="5.56894">
        <ele>1275.81</ele>
        <time>2011-08-20T08:28:40Z</time>
      </trkpt>
      <trkpt lat="45.16754" lon="5.56888">
        <ele>1275.33</ele>
        <time>2011-08-20T08:28:41Z</time>
      </trkpt>
      <trkpt lat="45.16754" lon="5.56879">
        <ele>1273.88</ele>
        <time>2011-08-20T08:28:43Z</time>
      </trkpt>
      <trkpt lat="45.16754" lon="5.56882">
        <ele>1273.88</ele>
        <time>2011-08-20T08:28:44Z</time>
      </trkpt>
      <trkpt lat="45.16754" lon="5.56887">
        <ele>1272.92</ele>
        <time>2011-08-20T08:28:45Z</time>
      </trkpt>
      <trkpt lat="45.16753" lon="5.56893">
        <ele>1271.96</ele>
        <time>2011-08-20T08:28:46Z</time>
      </trkpt>
      <trkpt lat="45.16753" lon="5.569">
        <ele>1271.96</ele>
        <time>2011-08-20T08:28:47Z</time>
      </trkpt>
      <trkpt lat="45.16753" lon="5.56909">
        <ele>1270.04</ele>
        <time>2011-08-20T08:28:48Z</time>
      </trkpt>
      <trkpt lat="45.16754" lon="5.56919">
        <ele>1269.56</ele>
        <time>2011-08-20T08:28:49Z</time>
      </trkpt>
      <trkpt lat="45.16755" lon="5.56929">
        <ele>1268.6</ele>
        <time>2011-08-20T08:28:50Z</time>
      </trkpt>
      <trkpt lat="45.16758" lon="5.56966">
        <ele>1264.75</ele>
        <time>2011-08-20T08:28:54Z</time>
      </trkpt>
      <trkpt lat="45.16759" lon="5.56972">
        <ele>1264.75</ele>
        <time>2011-08-20T08:28:55Z</time>
      </trkpt>
      <trkpt lat="45.1676" lon="5.56977">
        <ele>1264.27</ele>
        <time>2011-08-20T08:28:56Z</time>
      </trkpt>
      <trkpt lat="45.16761" lon="5.56982">
        <ele>1263.31</ele>
        <time>2011-08-20T08:28:57Z</time>
      </trkpt>
      <trkpt lat="45.16762" lon="5.56984">
        <ele>1262.83</ele>
        <time>2011-08-20T08:28:58Z</time>
      </trkpt>
      <trkpt lat="45.16764" lon="5.56987">
        <ele>1261.87</ele>
        <time>2011-08-20T08:28:59Z</time>
      </trkpt>
      <trkpt lat="45.16766" lon="5.56989">
        <ele>1261.39</ele>
        <time>2011-08-20T08:29:00Z</time>
      </trkpt>
      <trkpt lat="45.16769" lon="5.56991">
        <ele>1261.39</ele>
        <time>2011-08-20T08:29:01Z</time>
      </trkpt>
      <trkpt lat="45.16771" lon="5.56991">
        <ele>1260.43</ele>
        <time>2011-08-20T08:29:02Z</time>
      </trkpt>
      <trkpt lat="45.16773" lon="5.56989">
        <ele>1260.43</ele>
        <time>2011-08-20T08:29:03Z</time>
      </trkpt>
      <trkpt lat="45.16774" lon="5.56987">
        <ele>1260.43</ele>
        <time>2011-08-20T08:29:04Z</time>
      </trkpt>
      <trkpt lat="45.16776" lon="5.56982">
        <ele>1259.94</ele>
        <time>2011-08-20T08:29:05Z</time>
      </trkpt>
      <trkpt lat="45.16795" lon="5.56949">
        <ele>1256.58</ele>
        <time>2011-08-20T08:29:10Z</time>
      </trkpt>
      <trkpt lat="45.16805" lon="5.56934">
        <ele>1253.22</ele>
        <time>2011-08-20T08:29:13Z</time>
      </trkpt>
      <trkpt lat="45.16808" lon="5.56927">
        <ele>1252.74</ele>
        <time>2011-08-20T08:29:14Z</time>
      </trkpt>
      <trkpt lat="45.16812" lon="5.56919">
        <ele>1251.77</ele>
        <time>2011-08-20T08:29:15Z</time>
      </trkpt>
      <trkpt lat="45.1682" lon="5.56905">
        <ele>1249.85</ele>
        <time>2011-08-20T08:29:17Z</time>
      </trkpt>
      <trkpt lat="45.16823" lon="5.56899">
        <ele>1248.89</ele>
        <time>2011-08-20T08:29:18Z</time>
      </trkpt>
      <trkpt lat="45.16834" lon="5.56872">
        <ele>1245.53</ele>
        <time>2011-08-20T08:29:22Z</time>
      </trkpt>
      <trkpt lat="45.16837" lon="5.56866">
        <ele>1244.56</ele>
        <time>2011-08-20T08:29:23Z</time>
      </trkpt>
      <trkpt lat="45.16841" lon="5.56849">
        <ele>1243.12</ele>
        <time>2011-08-20T08:29:25Z</time>
      </trkpt>
      <trkpt lat="45.16843" lon="5.56843">
        <ele>1241.68</ele>
        <time>2011-08-20T08:29:26Z</time>
      </trkpt>
      <trkpt lat="45.16857" lon="5.56815">
        <ele>1238.32</ele>
        <time>2011-08-20T08:29:30Z</time>
      </trkpt>
      <trkpt lat="45.16866" lon="5.5679">
        <ele>1236.39</ele>
        <time>2011-08-20T08:29:34Z</time>
      </trkpt>
      <trkpt lat="45.16869" lon="5.56784">
        <ele>1235.43</ele>
        <time>2011-08-20T08:29:35Z</time>
      </trkpt>
      <trkpt lat="45.16873" lon="5.56765">
        <ele>1233.03</ele>
        <time>2011-08-20T08:29:38Z</time>
      </trkpt>
      <trkpt lat="45.16872" lon="5.56759">
        <ele>1232.55</ele>
        <time>2011-08-20T08:29:41Z</time>
      </trkpt>
      <trkpt lat="45.16872" lon="5.56754">
        <ele>1232.07</ele>
        <time>2011-08-20T08:29:42Z</time>
      </trkpt>
      <trkpt lat="45.16873" lon="5.56749">
        <ele>1231.11</ele>
        <time>2011-08-20T08:29:43Z</time>
      </trkpt>
      <trkpt lat="45.16874" lon="5.56747">
        <ele>1231.11</ele>
        <time>2011-08-20T08:29:44Z</time>
      </trkpt>
      <trkpt lat="45.16874" lon="5.56762">
        <ele>1228.7</ele>
        <time>2011-08-20T08:29:48Z</time>
      </trkpt>
      <trkpt lat="45.16874" lon="5.56785">
        <ele>1226.3</ele>
        <time>2011-08-20T08:29:51Z</time>
      </trkpt>
      <trkpt lat="45.16872" lon="5.56792">
        <ele>1225.82</ele>
        <time>2011-08-20T08:29:52Z</time>
      </trkpt>
      <trkpt lat="45.16872" lon="5.56801">
        <ele>1225.34</ele>
        <time>2011-08-20T08:29:53Z</time>
      </trkpt>
      <trkpt lat="45.16872" lon="5.56831">
        <ele>1223.42</ele>
        <time>2011-08-20T08:29:56Z</time>
      </trkpt>
      <trkpt lat="45.16874" lon="5.56862">
        <ele>1220.05</ele>
        <time>2011-08-20T08:29:59Z</time>
      </trkpt>
      <trkpt lat="45.16874" lon="5.5687">
        <ele>1220.05</ele>
        <time>2011-08-20T08:30:00Z</time>
      </trkpt>
      <trkpt lat="45.16873" lon="5.56874">
        <ele>1219.57</ele>
        <time>2011-08-20T08:30:01Z</time>
      </trkpt>
      <trkpt lat="45.16872" lon="5.56877">
        <ele>1219.09</ele>
        <time>2011-08-20T08:30:02Z</time>
      </trkpt>
      <trkpt lat="45.16871" lon="5.56881">
        <ele>1218.61</ele>
        <time>2011-08-20T08:30:03Z</time>
      </trkpt>
      <trkpt lat="45.1687" lon="5.56886">
        <ele>1217.65</ele>
        <time>2011-08-20T08:30:04Z</time>
      </trkpt>
      <trkpt lat="45.1687" lon="5.56892">
        <ele>1217.17</ele>
        <time>2011-08-20T08:30:05Z</time>
      </trkpt>
      <trkpt lat="45.1687" lon="5.56899">
        <ele>1217.17</ele>
        <time>2011-08-20T08:30:06Z</time>
      </trkpt>
      <trkpt lat="45.1687" lon="5.56907">
        <ele>1216.21</ele>
        <time>2011-08-20T08:30:07Z</time>
      </trkpt>
      <trkpt lat="45.1687" lon="5.56915">
        <ele>1215.72</ele>
        <time>2011-08-20T08:30:08Z</time>
      </trkpt>
      <trkpt lat="45.16871" lon="5.56924">
        <ele>1214.76</ele>
        <time>2011-08-20T08:30:09Z</time>
      </trkpt>
      <trkpt lat="45.16873" lon="5.56931">
        <ele>1214.28</ele>
        <time>2011-08-20T08:30:10Z</time>
      </trkpt>
      <trkpt lat="45.16876" lon="5.56939">
        <ele>1213.32</ele>
        <time>2011-08-20T08:30:11Z</time>
      </trkpt>
      <trkpt lat="45.16878" lon="5.56946">
        <ele>1212.84</ele>
        <time>2011-08-20T08:30:12Z</time>
      </trkpt>
      <trkpt lat="45.16885" lon="5.56956">
        <ele>1210.92</ele>
        <time>2011-08-20T08:30:14Z</time>
      </trkpt>
      <trkpt lat="45.1689" lon="5.56955">
        <ele>1210.92</ele>
        <time>2011-08-20T08:30:15Z</time>
      </trkpt>
      <trkpt lat="45.16889" lon="5.56952">
        <ele>1210.44</ele>
        <time>2011-08-20T08:30:16Z</time>
      </trkpt>
      <trkpt lat="45.16888" lon="5.5695">
        <ele>1209.96</ele>
        <time>2011-08-20T08:30:17Z</time>
      </trkpt>
      <trkpt lat="45.16887" lon="5.56948">
        <ele>1209.48</ele>
        <time>2011-08-20T08:30:18Z</time>
      </trkpt>
      <trkpt lat="45.16887" lon="5.56947">
        <ele>1209</ele>
        <time>2011-08-20T08:30:19Z</time>
      </trkpt>
      <trkpt lat="45.16888" lon="5.56944">
        <ele>1208.03</ele>
        <time>2011-08-20T08:30:20Z</time>
      </trkpt>
      <trkpt lat="45.16889" lon="5.5694">
        <ele>1207.55</ele>
        <time>2011-08-20T08:30:21Z</time>
      </trkpt>
      <trkpt lat="45.1689" lon="5.56937">
        <ele>1206.59</ele>
        <time>2011-08-20T08:30:22Z</time>
      </trkpt>
      <trkpt lat="45.16891" lon="5.56936">
        <ele>1206.11</ele>
        <time>2011-08-20T08:30:23Z</time>
      </trkpt>
      <trkpt lat="45.16893" lon="5.56936">
        <ele>1206.11</ele>
        <time>2011-08-20T08:30:24Z</time>
      </trkpt>
      <trkpt lat="45.16893" lon="5.56936">
        <ele>1205.63</ele>
        <time>2011-08-20T08:30:25Z</time>
      </trkpt>
      <trkpt lat="45.16894" lon="5.56937">
        <ele>1205.63</ele>
        <time>2011-08-20T08:30:26Z</time>
      </trkpt>
      <trkpt lat="45.16895" lon="5.56939">
        <ele>1204.67</ele>
        <time>2011-08-20T08:30:27Z</time>
      </trkpt>
      <trkpt lat="45.16898" lon="5.5694">
        <ele>1203.71</ele>
        <time>2011-08-20T08:30:28Z</time>
      </trkpt>
      <trkpt lat="45.16899" lon="5.56936">
        <ele>1203.23</ele>
        <time>2011-08-20T08:30:29Z</time>
      </trkpt>
      <trkpt lat="45.169" lon="5.56931">
        <ele>1202.75</ele>
        <time>2011-08-20T08:30:30Z</time>
      </trkpt>
      <trkpt lat="45.16897" lon="5.56924">
        <ele>1201.79</ele>
        <time>2011-08-20T08:30:31Z</time>
      </trkpt>
      <trkpt lat="45.16895" lon="5.56918">
        <ele>1201.79</ele>
        <time>2011-08-20T08:30:32Z</time>
      </trkpt>
      <trkpt lat="45.16895" lon="5.56915">
        <ele>1200.34</ele>
        <time>2011-08-20T08:30:39Z</time>
      </trkpt>
      <trkpt lat="45.16895" lon="5.56915">
        <ele>1201.3</ele>
        <time>2011-08-20T08:30:57Z</time>
      </trkpt>
      <trkpt lat="45.16895" lon="5.56915">
        <ele>1201.3</ele>
        <time>2011-08-20T08:31:17Z</time>
      </trkpt>
      <trkpt lat="45.16895" lon="5.56915">
        <ele>1200.82</ele>
        <time>2011-08-20T08:31:46Z</time>
      </trkpt>
      <trkpt lat="45.16895" lon="5.56915">
        <ele>1201.79</ele>
        <time>2011-08-20T08:32:13Z</time>
      </trkpt>
      <trkpt lat="45.16893" lon="5.56917">
        <ele>1201.79</ele>
        <time>2011-08-20T08:32:39Z</time>
      </trkpt>
      <trkpt lat="45.16893" lon="5.56917">
        <ele>1201.79</ele>
        <time>2011-08-20T08:33:06Z</time>
      </trkpt>
      <trkpt lat="45.16893" lon="5.56918">
        <ele>1202.27</ele>
        <time>2011-08-20T08:33:37Z</time>
      </trkpt>
      <trkpt lat="45.16895" lon="5.56918">
        <ele>1201.79</ele>
        <time>2011-08-20T08:34:04Z</time>
      </trkpt>
      <trkpt lat="45.16895" lon="5.56918">
        <ele>1201.79</ele>
        <time>2011-08-20T08:34:26Z</time>
      </trkpt>
      <trkpt lat="45.16895" lon="5.56918">
        <ele>1206.11</ele>
        <time>2011-08-20T08:34:35Z</time>
      </trkpt>
      <trkpt lat="45.16895" lon="5.56918">
        <ele>1201.79</ele>
        <time>2011-08-20T08:34:37Z</time>
      </trkpt>
      <trkpt lat="45.16895" lon="5.56918">
        <ele>1201.79</ele>
        <time>2011-08-20T08:35:05Z</time>
      </trkpt>
      <trkpt lat="45.16894" lon="5.56919">
        <ele>1196.98</ele>
        <time>2011-08-20T08:35:25Z</time>
      </trkpt>
      <trkpt lat="45.16894" lon="5.56919">
        <ele>1202.27</ele>
        <time>2011-08-20T08:35:26Z</time>
      </trkpt>
      <trkpt lat="45.16894" lon="5.56919">
        <ele>1206.11</ele>
        <time>2011-08-20T08:35:32Z</time>
      </trkpt>
      <trkpt lat="45.16894" lon="5.56919">
        <ele>1202.27</ele>
        <time>2011-08-20T08:35:33Z</time>
      </trkpt>
      <trkpt lat="45.16894" lon="5.56919">
        <ele>1197.94</ele>
        <time>2011-08-20T08:35:46Z</time>
      </trkpt>
      <trkpt lat="45.16894" lon="5.56919">
        <ele>1202.75</ele>
        <time>2011-08-20T08:35:47Z</time>
      </trkpt>
      <trkpt lat="45.16893" lon="5.56918">
        <ele>1196.98</ele>
        <time>2011-08-20T08:35:53Z</time>
      </trkpt>
      <trkpt lat="45.16893" lon="5.56918">
        <ele>1203.23</ele>
        <time>2011-08-20T08:35:54Z</time>
      </trkpt>
      <trkpt lat="45.16893" lon="5.56918">
        <ele>1199.86</ele>
        <time>2011-08-20T08:36:02Z</time>
      </trkpt>
      <trkpt lat="45.16893" lon="5.56918">
        <ele>1207.07</ele>
        <time>2011-08-20T08:36:09Z</time>
      </trkpt>
      <trkpt lat="45.16893" lon="5.56918">
        <ele>1202.75</ele>
        <time>2011-08-20T08:36:10Z</time>
      </trkpt>
      <trkpt lat="45.16893" lon="5.56918">
        <ele>1207.07</ele>
        <time>2011-08-20T08:36:13Z</time>
      </trkpt>
      <trkpt lat="45.16893" lon="5.56918">
        <ele>1201.3</ele>
        <time>2011-08-20T08:36:14Z</time>
      </trkpt>
      <trkpt lat="45.16894" lon="5.56918">
        <ele>1202.27</ele>
        <time>2011-08-20T08:36:38Z</time>
      </trkpt>
      <trkpt lat="45.16896" lon="5.56914">
        <ele>1201.79</ele>
        <time>2011-08-20T08:36:49Z</time>
      </trkpt>
      <trkpt lat="45.16899" lon="5.56912">
        <ele>1200.82</ele>
        <time>2011-08-20T08:36:50Z</time>
      </trkpt>
      <trkpt lat="45.16901" lon="5.5691">
        <ele>1200.82</ele>
        <time>2011-08-20T08:36:51Z</time>
      </trkpt>
      <trkpt lat="45.16903" lon="5.56908">
        <ele>1201.3</ele>
        <time>2011-08-20T08:36:52Z</time>
      </trkpt>
      <trkpt lat="45.16904" lon="5.56904">
        <ele>1200.34</ele>
        <time>2011-08-20T08:36:53Z</time>
      </trkpt>
      <trkpt lat="45.16905" lon="5.56899">
        <ele>1200.34</ele>
        <time>2011-08-20T08:36:54Z</time>
      </trkpt>
      <trkpt lat="45.16906" lon="5.56893">
        <ele>1199.38</ele>
        <time>2011-08-20T08:36:55Z</time>
      </trkpt>
      <trkpt lat="45.16906" lon="5.56886">
        <ele>1198.9</ele>
        <time>2011-08-20T08:36:56Z</time>
      </trkpt>
      <trkpt lat="45.16906" lon="5.56871">
        <ele>1198.42</ele>
        <time>2011-08-20T08:36:58Z</time>
      </trkpt>
      <trkpt lat="45.16906" lon="5.56863">
        <ele>1198.42</ele>
        <time>2011-08-20T08:36:59Z</time>
      </trkpt>
      <trkpt lat="45.16906" lon="5.56855">
        <ele>1197.46</ele>
        <time>2011-08-20T08:37:00Z</time>
      </trkpt>
      <trkpt lat="45.16908" lon="5.56848">
        <ele>1197.46</ele>
        <time>2011-08-20T08:37:01Z</time>
      </trkpt>
      <trkpt lat="45.1691" lon="5.56841">
        <ele>1197.46</ele>
        <time>2011-08-20T08:37:02Z</time>
      </trkpt>
      <trkpt lat="45.16912" lon="5.56833">
        <ele>1196.02</ele>
        <time>2011-08-20T08:37:03Z</time>
      </trkpt>
      <trkpt lat="45.16916" lon="5.56818">
        <ele>1194.58</ele>
        <time>2011-08-20T08:37:05Z</time>
      </trkpt>
      <trkpt lat="45.16919" lon="5.5681">
        <ele>1193.61</ele>
        <time>2011-08-20T08:37:06Z</time>
      </trkpt>
      <trkpt lat="45.16926" lon="5.56772">
        <ele>1190.73</ele>
        <time>2011-08-20T08:37:10Z</time>
      </trkpt>
      <trkpt lat="45.16925" lon="5.56762">
        <ele>1189.29</ele>
        <time>2011-08-20T08:37:11Z</time>
      </trkpt>
      <trkpt lat="45.16924" lon="5.56753">
        <ele>1188.81</ele>
        <time>2011-08-20T08:37:12Z</time>
      </trkpt>
      <trkpt lat="45.16923" lon="5.56743">
        <ele>1187.85</ele>
        <time>2011-08-20T08:37:13Z</time>
      </trkpt>
      <trkpt lat="45.16922" lon="5.56735">
        <ele>1187.37</ele>
        <time>2011-08-20T08:37:14Z</time>
      </trkpt>
      <trkpt lat="45.16923" lon="5.56727">
        <ele>1185.92</ele>
        <time>2011-08-20T08:37:15Z</time>
      </trkpt>
      <trkpt lat="45.16925" lon="5.5672">
        <ele>1185.44</ele>
        <time>2011-08-20T08:37:16Z</time>
      </trkpt>
      <trkpt lat="45.16928" lon="5.56711">
        <ele>1184.48</ele>
        <time>2011-08-20T08:37:17Z</time>
      </trkpt>
      <trkpt lat="45.16937" lon="5.56686">
        <ele>1181.6</ele>
        <time>2011-08-20T08:37:20Z</time>
      </trkpt>
      <trkpt lat="45.1695" lon="5.56659">
        <ele>1178.23</ele>
        <time>2011-08-20T08:37:24Z</time>
      </trkpt>
      <trkpt lat="45.16965" lon="5.56634">
        <ele>1174.87</ele>
        <time>2011-08-20T08:37:28Z</time>
      </trkpt>
      <trkpt lat="45.16967" lon="5.56629">
        <ele>1174.39</ele>
        <time>2011-08-20T08:37:29Z</time>
      </trkpt>
      <trkpt lat="45.1697" lon="5.56625">
        <ele>1173.91</ele>
        <time>2011-08-20T08:37:30Z</time>
      </trkpt>
      <trkpt lat="45.16973" lon="5.56621">
        <ele>1173.43</ele>
        <time>2011-08-20T08:37:31Z</time>
      </trkpt>
      <trkpt lat="45.16975" lon="5.56617">
        <ele>1173.43</ele>
        <time>2011-08-20T08:37:32Z</time>
      </trkpt>
      <trkpt lat="45.16978" lon="5.56614">
        <ele>1172.47</ele>
        <time>2011-08-20T08:37:33Z</time>
      </trkpt>
      <trkpt lat="45.1698" lon="5.56613">
        <ele>1171.98</ele>
        <time>2011-08-20T08:37:34Z</time>
      </trkpt>
      <trkpt lat="45.16982" lon="5.56614">
        <ele>1172.47</ele>
        <time>2011-08-20T08:37:44Z</time>
      </trkpt>
      <trkpt lat="45.16983" lon="5.56613">
        <ele>1171.98</ele>
        <time>2011-08-20T08:37:45Z</time>
      </trkpt>
      <trkpt lat="45.16984" lon="5.5661">
        <ele>1171.5</ele>
        <time>2011-08-20T08:37:46Z</time>
      </trkpt>
      <trkpt lat="45.16983" lon="5.56594">
        <ele>1170.06</ele>
        <time>2011-08-20T08:37:50Z</time>
      </trkpt>
      <trkpt lat="45.16982" lon="5.56578">
        <ele>1167.18</ele>
        <time>2011-08-20T08:37:56Z</time>
      </trkpt>
      <trkpt lat="45.16989" lon="5.56557">
        <ele>1165.26</ele>
        <time>2011-08-20T08:38:03Z</time>
      </trkpt>
      <trkpt lat="45.16991" lon="5.56554">
        <ele>1164.77</ele>
        <time>2011-08-20T08:38:04Z</time>
      </trkpt>
      <trkpt lat="45.16993" lon="5.56549">
        <ele>1163.81</ele>
        <time>2011-08-20T08:38:05Z</time>
      </trkpt>
      <trkpt lat="45.16996" lon="5.56544">
        <ele>1163.81</ele>
        <time>2011-08-20T08:38:06Z</time>
      </trkpt>
      <trkpt lat="45.16999" lon="5.56538">
        <ele>1163.33</ele>
        <time>2011-08-20T08:38:07Z</time>
      </trkpt>
      <trkpt lat="45.17002" lon="5.5653">
        <ele>1161.41</ele>
        <time>2011-08-20T08:38:08Z</time>
      </trkpt>
      <trkpt lat="45.17004" lon="5.56521">
        <ele>1160.45</ele>
        <time>2011-08-20T08:38:09Z</time>
      </trkpt>
      <trkpt lat="45.17006" lon="5.56511">
        <ele>1159.49</ele>
        <time>2011-08-20T08:38:10Z</time>
      </trkpt>
      <trkpt lat="45.17007" lon="5.56501">
        <ele>1158.53</ele>
        <time>2011-08-20T08:38:11Z</time>
      </trkpt>
      <trkpt lat="45.1701" lon="5.56491">
        <ele>1156.6</ele>
        <time>2011-08-20T08:38:12Z</time>
      </trkpt>
      <trkpt lat="45.17015" lon="5.56481">
        <ele>1156.6</ele>
        <time>2011-08-20T08:38:13Z</time>
      </trkpt>
      <trkpt lat="45.17019" lon="5.56473">
        <ele>1155.64</ele>
        <time>2011-08-20T08:38:14Z</time>
      </trkpt>
      <trkpt lat="45.17023" lon="5.56466">
        <ele>1154.68</ele>
        <time>2011-08-20T08:38:15Z</time>
      </trkpt>
      <trkpt lat="45.17027" lon="5.5646">
        <ele>1153.72</ele>
        <time>2011-08-20T08:38:16Z</time>
      </trkpt>
      <trkpt lat="45.17036" lon="5.56443">
        <ele>1151.8</ele>
        <time>2011-08-20T08:38:19Z</time>
      </trkpt>
      <trkpt lat="45.1704" lon="5.56436">
        <ele>1150.84</ele>
        <time>2011-08-20T08:38:20Z</time>
      </trkpt>
      <trkpt lat="45.17042" lon="5.56428">
        <ele>1150.35</ele>
        <time>2011-08-20T08:38:21Z</time>
      </trkpt>
      <trkpt lat="45.17043" lon="5.56416">
        <ele>1149.39</ele>
        <time>2011-08-20T08:38:22Z</time>
      </trkpt>
      <trkpt lat="45.17043" lon="5.56404">
        <ele>1149.39</ele>
        <time>2011-08-20T08:38:23Z</time>
      </trkpt>
      <trkpt lat="45.17044" lon="5.56393">
        <ele>1149.39</ele>
        <time>2011-08-20T08:38:24Z</time>
      </trkpt>
      <trkpt lat="45.17052" lon="5.56272">
        <ele>1146.51</ele>
        <time>2011-08-20T08:38:36Z</time>
      </trkpt>
      <trkpt lat="45.17054" lon="5.56193">
        <ele>1143.14</ele>
        <time>2011-08-20T08:38:44Z</time>
      </trkpt>
      <trkpt lat="45.17054" lon="5.56187">
        <ele>1143.14</ele>
        <time>2011-08-20T08:38:45Z</time>
      </trkpt>
      <trkpt lat="45.17054" lon="5.56184">
        <ele>1142.66</ele>
        <time>2011-08-20T08:38:49Z</time>
      </trkpt>
      <trkpt lat="45.17056" lon="5.56181">
        <ele>1142.66</ele>
        <time>2011-08-20T08:38:50Z</time>
      </trkpt>
      <trkpt lat="45.17056" lon="5.56178">
        <ele>1142.18</ele>
        <time>2011-08-20T08:38:51Z</time>
      </trkpt>
      <trkpt lat="45.17057" lon="5.56175">
        <ele>1142.18</ele>
        <time>2011-08-20T08:38:52Z</time>
      </trkpt>
      <trkpt lat="45.17057" lon="5.56171">
        <ele>1142.66</ele>
        <time>2011-08-20T08:38:53Z</time>
      </trkpt>
      <trkpt lat="45.17058" lon="5.56167">
        <ele>1141.7</ele>
        <time>2011-08-20T08:38:54Z</time>
      </trkpt>
      <trkpt lat="45.17058" lon="5.56161">
        <ele>1141.7</ele>
        <time>2011-08-20T08:38:55Z</time>
      </trkpt>
      <trkpt lat="45.17058" lon="5.56155">
        <ele>1141.7</ele>
        <time>2011-08-20T08:38:56Z</time>
      </trkpt>
      <trkpt lat="45.17058" lon="5.56145">
        <ele>1140.74</ele>
        <time>2011-08-20T08:39:03Z</time>
      </trkpt>
      <trkpt lat="45.17059" lon="5.56145">
        <ele>1137.38</ele>
        <time>2011-08-20T08:39:19Z</time>
      </trkpt>
      <trkpt lat="45.17059" lon="5.56145">
        <ele>1141.22</ele>
        <time>2011-08-20T08:39:20Z</time>
      </trkpt>
      <trkpt lat="45.17059" lon="5.56145">
        <ele>1140.26</ele>
        <time>2011-08-20T08:39:42Z</time>
      </trkpt>
      <trkpt lat="45.17056" lon="5.56135">
        <ele>1140.26</ele>
        <time>2011-08-20T08:39:46Z</time>
      </trkpt>
      <trkpt lat="45.17054" lon="5.56133">
        <ele>1140.26</ele>
        <time>2011-08-20T08:39:47Z</time>
      </trkpt>
      <trkpt lat="45.17053" lon="5.56131">
        <ele>1140.26</ele>
        <time>2011-08-20T08:39:48Z</time>
      </trkpt>
      <trkpt lat="45.17051" lon="5.56128">
        <ele>1140.26</ele>
        <time>2011-08-20T08:39:49Z</time>
      </trkpt>
      <trkpt lat="45.17048" lon="5.56126">
        <ele>1139.78</ele>
        <time>2011-08-20T08:39:50Z</time>
      </trkpt>
      <trkpt lat="45.17046" lon="5.56122">
        <ele>1140.26</ele>
        <time>2011-08-20T08:39:51Z</time>
      </trkpt>
      <trkpt lat="45.17043" lon="5.56118">
        <ele>1140.26</ele>
        <time>2011-08-20T08:39:52Z</time>
      </trkpt>
      <trkpt lat="45.1704" lon="5.56114">
        <ele>1139.78</ele>
        <time>2011-08-20T08:39:53Z</time>
      </trkpt>
      <trkpt lat="45.17016" lon="5.56085">
        <ele>1138.82</ele>
        <time>2011-08-20T08:40:00Z</time>
      </trkpt>
      <trkpt lat="45.17012" lon="5.56081">
        <ele>1139.3</ele>
        <time>2011-08-20T08:40:01Z</time>
      </trkpt>
      <trkpt lat="45.17007" lon="5.56078">
        <ele>1138.82</ele>
        <time>2011-08-20T08:40:02Z</time>
      </trkpt>
      <trkpt lat="45.16966" lon="5.56051">
        <ele>1137.38</ele>
        <time>2011-08-20T08:40:10Z</time>
      </trkpt>
      <trkpt lat="45.16961" lon="5.56046">
        <ele>1136.9</ele>
        <time>2011-08-20T08:40:11Z</time>
      </trkpt>
      <trkpt lat="45.16956" lon="5.5604">
        <ele>1136.42</ele>
        <time>2011-08-20T08:40:12Z</time>
      </trkpt>
      <trkpt lat="45.16946" lon="5.56025">
        <ele>1135.45</ele>
        <time>2011-08-20T08:40:14Z</time>
      </trkpt>
      <trkpt lat="45.16943" lon="5.56015">
        <ele>1135.45</ele>
        <time>2011-08-20T08:40:15Z</time>
      </trkpt>
      <trkpt lat="45.1693" lon="5.55961">
        <ele>1133.53</ele>
        <time>2011-08-20T08:40:20Z</time>
      </trkpt>
      <trkpt lat="45.1692" lon="5.55885">
        <ele>1131.13</ele>
        <time>2011-08-20T08:40:27Z</time>
      </trkpt>
      <trkpt lat="45.16919" lon="5.55875">
        <ele>1129.69</ele>
        <time>2011-08-20T08:40:33Z</time>
      </trkpt>
      <trkpt lat="45.16919" lon="5.55875">
        <ele>1129.69</ele>
        <time>2011-08-20T08:40:34Z</time>
      </trkpt>
      <trkpt lat="45.16918" lon="5.55876">
        <ele>1130.17</ele>
        <time>2011-08-20T08:40:35Z</time>
      </trkpt>
      <trkpt lat="45.16917" lon="5.55877">
        <ele>1129.69</ele>
        <time>2011-08-20T08:40:36Z</time>
      </trkpt>
      <trkpt lat="45.16917" lon="5.55879">
        <ele>1129.69</ele>
        <time>2011-08-20T08:40:37Z</time>
      </trkpt>
      <trkpt lat="45.16918" lon="5.55881">
        <ele>1130.17</ele>
        <time>2011-08-20T08:40:38Z</time>
      </trkpt>
      <trkpt lat="45.16919" lon="5.55882">
        <ele>1130.17</ele>
        <time>2011-08-20T08:40:39Z</time>
      </trkpt>
      <trkpt lat="45.1692" lon="5.55883">
        <ele>1130.17</ele>
        <time>2011-08-20T08:40:40Z</time>
      </trkpt>
      <trkpt lat="45.1692" lon="5.55885">
        <ele>1130.17</ele>
        <time>2011-08-20T08:40:41Z</time>
      </trkpt>
      <trkpt lat="45.16921" lon="5.55887">
        <ele>1130.17</ele>
        <time>2011-08-20T08:40:42Z</time>
      </trkpt>
      <trkpt lat="45.16923" lon="5.55921">
        <ele>1131.13</ele>
        <time>2011-08-20T08:40:48Z</time>
      </trkpt>
      <trkpt lat="45.16939" lon="5.56009">
        <ele>1134.01</ele>
        <time>2011-08-20T08:41:03Z</time>
      </trkpt>
      <trkpt lat="45.1695" lon="5.56037">
        <ele>1135.45</ele>
        <time>2011-08-20T08:41:10Z</time>
      </trkpt>
      <trkpt lat="45.1695" lon="5.56041">
        <ele>1135.45</ele>
        <time>2011-08-20T08:41:11Z</time>
      </trkpt>
      <trkpt lat="45.16949" lon="5.56044">
        <ele>1135.45</ele>
        <time>2011-08-20T08:41:12Z</time>
      </trkpt>
      <trkpt lat="45.16947" lon="5.56045">
        <ele>1135.94</ele>
        <time>2011-08-20T08:41:13Z</time>
      </trkpt>
      <trkpt lat="45.16946" lon="5.56044">
        <ele>1135.94</ele>
        <time>2011-08-20T08:41:14Z</time>
      </trkpt>
      <trkpt lat="45.16944" lon="5.56044">
        <ele>1135.45</ele>
        <time>2011-08-20T08:41:15Z</time>
      </trkpt>
      <trkpt lat="45.16943" lon="5.56045">
        <ele>1134.49</ele>
        <time>2011-08-20T08:41:29Z</time>
      </trkpt>
      <trkpt lat="45.16944" lon="5.56045">
        <ele>1134.97</ele>
        <time>2011-08-20T08:42:03Z</time>
      </trkpt>
      <trkpt lat="45.16944" lon="5.56045">
        <ele>1134.97</ele>
        <time>2011-08-20T08:42:05Z</time>
      </trkpt>
      <trkpt lat="45.16944" lon="5.56043">
        <ele>1134.97</ele>
        <time>2011-08-20T08:42:06Z</time>
      </trkpt>
      <trkpt lat="45.16943" lon="5.56041">
        <ele>1135.45</ele>
        <time>2011-08-20T08:42:07Z</time>
      </trkpt>
      <trkpt lat="45.16942" lon="5.5604">
        <ele>1135.45</ele>
        <time>2011-08-20T08:42:08Z</time>
      </trkpt>
      <trkpt lat="45.1694" lon="5.5604">
        <ele>1135.94</ele>
        <time>2011-08-20T08:42:09Z</time>
      </trkpt>
      <trkpt lat="45.16939" lon="5.5604">
        <ele>1135.45</ele>
        <time>2011-08-20T08:42:10Z</time>
      </trkpt>
      <trkpt lat="45.16937" lon="5.5604">
        <ele>1136.42</ele>
        <time>2011-08-20T08:42:11Z</time>
      </trkpt>
      <trkpt lat="45.16935" lon="5.5604">
        <ele>1135.94</ele>
        <time>2011-08-20T08:42:12Z</time>
      </trkpt>
      <trkpt lat="45.16932" lon="5.5604">
        <ele>1136.42</ele>
        <time>2011-08-20T08:42:13Z</time>
      </trkpt>
      <trkpt lat="45.1693" lon="5.5604">
        <ele>1136.9</ele>
        <time>2011-08-20T08:42:14Z</time>
      </trkpt>
      <trkpt lat="45.16881" lon="5.56035">
        <ele>1135.94</ele>
        <time>2011-08-20T08:42:25Z</time>
      </trkpt>
      <trkpt lat="45.16876" lon="5.56032">
        <ele>1135.94</ele>
        <time>2011-08-20T08:42:26Z</time>
      </trkpt>
      <trkpt lat="45.16871" lon="5.56028">
        <ele>1135.94</ele>
        <time>2011-08-20T08:42:27Z</time>
      </trkpt>
      <trkpt lat="45.16867" lon="5.56024">
        <ele>1135.45</ele>
        <time>2011-08-20T08:42:28Z</time>
      </trkpt>
      <trkpt lat="45.16863" lon="5.5602">
        <ele>1135.45</ele>
        <time>2011-08-20T08:42:29Z</time>
      </trkpt>
      <trkpt lat="45.16859" lon="5.56016">
        <ele>1134.97</ele>
        <time>2011-08-20T08:42:30Z</time>
      </trkpt>
      <trkpt lat="45.16855" lon="5.56012">
        <ele>1135.45</ele>
        <time>2011-08-20T08:42:31Z</time>
      </trkpt>
      <trkpt lat="45.16848" lon="5.56003">
        <ele>1136.9</ele>
        <time>2011-08-20T08:42:33Z</time>
      </trkpt>
      <trkpt lat="45.16831" lon="5.55983">
        <ele>1134.97</ele>
        <time>2011-08-20T08:42:38Z</time>
      </trkpt>
      <trkpt lat="45.16827" lon="5.5598">
        <ele>1134.97</ele>
        <time>2011-08-20T08:42:39Z</time>
      </trkpt>
      <trkpt lat="45.16823" lon="5.55976">
        <ele>1134.49</ele>
        <time>2011-08-20T08:42:40Z</time>
      </trkpt>
      <trkpt lat="45.1679" lon="5.55943">
        <ele>1130.65</ele>
        <time>2011-08-20T08:42:47Z</time>
      </trkpt>
      <trkpt lat="45.16777" lon="5.55932">
        <ele>1129.69</ele>
        <time>2011-08-20T08:42:49Z</time>
      </trkpt>
      <trkpt lat="45.16769" lon="5.55929">
        <ele>1128.73</ele>
        <time>2011-08-20T08:42:50Z</time>
      </trkpt>
      <trkpt lat="45.16761" lon="5.55929">
        <ele>1128.73</ele>
        <time>2011-08-20T08:42:51Z</time>
      </trkpt>
      <trkpt lat="45.16753" lon="5.55931">
        <ele>1127.76</ele>
        <time>2011-08-20T08:42:52Z</time>
      </trkpt>
      <trkpt lat="45.16745" lon="5.55934">
        <ele>1127.76</ele>
        <time>2011-08-20T08:42:53Z</time>
      </trkpt>
      <trkpt lat="45.16738" lon="5.55939">
        <ele>1126.8</ele>
        <time>2011-08-20T08:42:54Z</time>
      </trkpt>
      <trkpt lat="45.16731" lon="5.55945">
        <ele>1126.32</ele>
        <time>2011-08-20T08:42:55Z</time>
      </trkpt>
      <trkpt lat="45.16724" lon="5.5595">
        <ele>1125.36</ele>
        <time>2011-08-20T08:42:56Z</time>
      </trkpt>
      <trkpt lat="45.16716" lon="5.55951">
        <ele>1125.36</ele>
        <time>2011-08-20T08:42:57Z</time>
      </trkpt>
      <trkpt lat="45.16707" lon="5.55949">
        <ele>1124.4</ele>
        <time>2011-08-20T08:42:58Z</time>
      </trkpt>
      <trkpt lat="45.16691" lon="5.55944">
        <ele>1122.96</ele>
        <time>2011-08-20T08:43:00Z</time>
      </trkpt>
      <trkpt lat="45.16682" lon="5.55938">
        <ele>1122</ele>
        <time>2011-08-20T08:43:01Z</time>
      </trkpt>
      <trkpt lat="45.16675" lon="5.5593">
        <ele>1122</ele>
        <time>2011-08-20T08:43:02Z</time>
      </trkpt>
      <trkpt lat="45.16667" lon="5.5592">
        <ele>1120.55</ele>
        <time>2011-08-20T08:43:03Z</time>
      </trkpt>
      <trkpt lat="45.16658" lon="5.55912">
        <ele>1119.59</ele>
        <time>2011-08-20T08:43:04Z</time>
      </trkpt>
      <trkpt lat="45.16648" lon="5.55905">
        <ele>1119.59</ele>
        <time>2011-08-20T08:43:05Z</time>
      </trkpt>
      <trkpt lat="45.16638" lon="5.559">
        <ele>1118.15</ele>
        <time>2011-08-20T08:43:06Z</time>
      </trkpt>
      <trkpt lat="45.16629" lon="5.55895">
        <ele>1118.63</ele>
        <time>2011-08-20T08:43:07Z</time>
      </trkpt>
      <trkpt lat="45.16611" lon="5.55887">
        <ele>1116.71</ele>
        <time>2011-08-20T08:43:09Z</time>
      </trkpt>
      <trkpt lat="45.16586" lon="5.55877">
        <ele>1115.75</ele>
        <time>2011-08-20T08:43:12Z</time>
      </trkpt>
      <trkpt lat="45.16578" lon="5.55871">
        <ele>1115.75</ele>
        <time>2011-08-20T08:43:13Z</time>
      </trkpt>
      <trkpt lat="45.16561" lon="5.5586">
        <ele>1114.79</ele>
        <time>2011-08-20T08:43:15Z</time>
      </trkpt>
      <trkpt lat="45.16485" lon="5.55832">
        <ele>1114.79</ele>
        <time>2011-08-20T08:43:25Z</time>
      </trkpt>
      <trkpt lat="45.16479" lon="5.55829">
        <ele>1114.79</ele>
        <time>2011-08-20T08:43:26Z</time>
      </trkpt>
      <trkpt lat="45.16473" lon="5.55825">
        <ele>1114.79</ele>
        <time>2011-08-20T08:43:27Z</time>
      </trkpt>
      <trkpt lat="45.16468" lon="5.5582">
        <ele>1114.79</ele>
        <time>2011-08-20T08:43:28Z</time>
      </trkpt>
      <trkpt lat="45.16428" lon="5.55791">
        <ele>1114.79</ele>
        <time>2011-08-20T08:43:36Z</time>
      </trkpt>
      <trkpt lat="45.16422" lon="5.55789">
        <ele>1115.27</ele>
        <time>2011-08-20T08:43:37Z</time>
      </trkpt>
      <trkpt lat="45.16417" lon="5.55788">
        <ele>1114.79</ele>
        <time>2011-08-20T08:43:38Z</time>
      </trkpt>
      <trkpt lat="45.1641" lon="5.55786">
        <ele>1114.31</ele>
        <time>2011-08-20T08:43:39Z</time>
      </trkpt>
      <trkpt lat="45.16404" lon="5.55785">
        <ele>1114.31</ele>
        <time>2011-08-20T08:43:40Z</time>
      </trkpt>
      <trkpt lat="45.16398" lon="5.55785">
        <ele>1114.31</ele>
        <time>2011-08-20T08:43:41Z</time>
      </trkpt>
      <trkpt lat="45.16393" lon="5.55785">
        <ele>1114.31</ele>
        <time>2011-08-20T08:43:42Z</time>
      </trkpt>
      <trkpt lat="45.16386" lon="5.55785">
        <ele>1113.34</ele>
        <time>2011-08-20T08:43:43Z</time>
      </trkpt>
      <trkpt lat="45.16375" lon="5.55784">
        <ele>1113.82</ele>
        <time>2011-08-20T08:43:45Z</time>
      </trkpt>
      <trkpt lat="45.16363" lon="5.55781">
        <ele>1112.86</ele>
        <time>2011-08-20T08:43:47Z</time>
      </trkpt>
      <trkpt lat="45.16356" lon="5.55778">
        <ele>1112.86</ele>
        <time>2011-08-20T08:43:48Z</time>
      </trkpt>
      <trkpt lat="45.16351" lon="5.55773">
        <ele>1112.38</ele>
        <time>2011-08-20T08:43:49Z</time>
      </trkpt>
      <trkpt lat="45.16329" lon="5.5575">
        <ele>1111.9</ele>
        <time>2011-08-20T08:43:53Z</time>
      </trkpt>
      <trkpt lat="45.16299" lon="5.55702">
        <ele>1108.54</ele>
        <time>2011-08-20T08:43:59Z</time>
      </trkpt>
      <trkpt lat="45.16282" lon="5.5568">
        <ele>1107.1</ele>
        <time>2011-08-20T08:44:02Z</time>
      </trkpt>
      <trkpt lat="45.16275" lon="5.55675">
        <ele>1107.58</ele>
        <time>2011-08-20T08:44:03Z</time>
      </trkpt>
      <trkpt lat="45.16267" lon="5.55671">
        <ele>1107.1</ele>
        <time>2011-08-20T08:44:04Z</time>
      </trkpt>
      <trkpt lat="45.1626" lon="5.55666">
        <ele>1106.13</ele>
        <time>2011-08-20T08:44:05Z</time>
      </trkpt>
      <trkpt lat="45.16253" lon="5.5566">
        <ele>1105.65</ele>
        <time>2011-08-20T08:44:06Z</time>
      </trkpt>
      <trkpt lat="45.16246" lon="5.55654">
        <ele>1104.69</ele>
        <time>2011-08-20T08:44:07Z</time>
      </trkpt>
      <trkpt lat="45.16229" lon="5.55642">
        <ele>1102.77</ele>
        <time>2011-08-20T08:44:09Z</time>
      </trkpt>
      <trkpt lat="45.16219" lon="5.55638">
        <ele>1101.33</ele>
        <time>2011-08-20T08:44:10Z</time>
      </trkpt>
      <trkpt lat="45.16209" lon="5.55634">
        <ele>1099.89</ele>
        <time>2011-08-20T08:44:11Z</time>
      </trkpt>
      <trkpt lat="45.16199" lon="5.55629">
        <ele>1099.4</ele>
        <time>2011-08-20T08:44:12Z</time>
      </trkpt>
      <trkpt lat="45.1619" lon="5.55625">
        <ele>1098.92</ele>
        <time>2011-08-20T08:44:13Z</time>
      </trkpt>
      <trkpt lat="45.16171" lon="5.55617">
        <ele>1097.96</ele>
        <time>2011-08-20T08:44:15Z</time>
      </trkpt>
      <trkpt lat="45.16163" lon="5.55616">
        <ele>1097.48</ele>
        <time>2011-08-20T08:44:16Z</time>
      </trkpt>
      <trkpt lat="45.16141" lon="5.5561">
        <ele>1095.08</ele>
        <time>2011-08-20T08:44:22Z</time>
      </trkpt>
      <trkpt lat="45.16137" lon="5.55607">
        <ele>1095.08</ele>
        <time>2011-08-20T08:44:23Z</time>
      </trkpt>
      <trkpt lat="45.16098" lon="5.55582">
        <ele>1093.16</ele>
        <time>2011-08-20T08:44:30Z</time>
      </trkpt>
      <trkpt lat="45.16093" lon="5.55576">
        <ele>1092.68</ele>
        <time>2011-08-20T08:44:31Z</time>
      </trkpt>
      <trkpt lat="45.16089" lon="5.55568">
        <ele>1091.71</ele>
        <time>2011-08-20T08:44:32Z</time>
      </trkpt>
      <trkpt lat="45.16068" lon="5.55518">
        <ele>1087.87</ele>
        <time>2011-08-20T08:44:37Z</time>
      </trkpt>
      <trkpt lat="45.16051" lon="5.55481">
        <ele>1084.5</ele>
        <time>2011-08-20T08:44:40Z</time>
      </trkpt>
      <trkpt lat="45.16047" lon="5.55467">
        <ele>1083.54</ele>
        <time>2011-08-20T08:44:41Z</time>
      </trkpt>
      <trkpt lat="45.16045" lon="5.55452">
        <ele>1082.58</ele>
        <time>2011-08-20T08:44:42Z</time>
      </trkpt>
      <trkpt lat="45.16046" lon="5.55436">
        <ele>1081.62</ele>
        <time>2011-08-20T08:44:43Z</time>
      </trkpt>
      <trkpt lat="45.16048" lon="5.55421">
        <ele>1080.66</ele>
        <time>2011-08-20T08:44:44Z</time>
      </trkpt>
      <trkpt lat="45.16052" lon="5.55373">
        <ele>1077.29</ele>
        <time>2011-08-20T08:44:47Z</time>
      </trkpt>
      <trkpt lat="45.16056" lon="5.55322">
        <ele>1073.45</ele>
        <time>2011-08-20T08:44:51Z</time>
      </trkpt>
      <trkpt lat="45.16057" lon="5.55314">
        <ele>1073.45</ele>
        <time>2011-08-20T08:44:52Z</time>
      </trkpt>
      <trkpt lat="45.16057" lon="5.55307">
        <ele>1072.49</ele>
        <time>2011-08-20T08:44:53Z</time>
      </trkpt>
      <trkpt lat="45.16056" lon="5.55302">
        <ele>1072.49</ele>
        <time>2011-08-20T08:44:54Z</time>
      </trkpt>
      <trkpt lat="45.16055" lon="5.55298">
        <ele>1071.53</ele>
        <time>2011-08-20T08:44:55Z</time>
      </trkpt>
      <trkpt lat="45.16052" lon="5.55295">
        <ele>1071.53</ele>
        <time>2011-08-20T08:44:56Z</time>
      </trkpt>
      <trkpt lat="45.16048" lon="5.55293">
        <ele>1071.53</ele>
        <time>2011-08-20T08:44:57Z</time>
      </trkpt>
      <trkpt lat="45.16043" lon="5.55292">
        <ele>1072.01</ele>
        <time>2011-08-20T08:44:58Z</time>
      </trkpt>
      <trkpt lat="45.16039" lon="5.55291">
        <ele>1071.53</ele>
        <time>2011-08-20T08:44:59Z</time>
      </trkpt>
      <trkpt lat="45.16028" lon="5.55291">
        <ele>1071.53</ele>
        <time>2011-08-20T08:45:01Z</time>
      </trkpt>
      <trkpt lat="45.1594" lon="5.55294">
        <ele>1069.6</ele>
        <time>2011-08-20T08:45:15Z</time>
      </trkpt>
      <trkpt lat="45.15871" lon="5.55294">
        <ele>1069.12</ele>
        <time>2011-08-20T08:45:25Z</time>
      </trkpt>
      <trkpt lat="45.15756" lon="5.55292">
        <ele>1070.08</ele>
        <time>2011-08-20T08:45:43Z</time>
      </trkpt>
      <trkpt lat="45.1568" lon="5.55297">
        <ele>1071.05</ele>
        <time>2011-08-20T08:45:57Z</time>
      </trkpt>
      <trkpt lat="45.15599" lon="5.55302">
        <ele>1068.16</ele>
        <time>2011-08-20T08:46:10Z</time>
      </trkpt>
      <trkpt lat="45.15593" lon="5.55303">
        <ele>1067.68</ele>
        <time>2011-08-20T08:46:11Z</time>
      </trkpt>
      <trkpt lat="45.15587" lon="5.55304">
        <ele>1068.64</ele>
        <time>2011-08-20T08:46:12Z</time>
      </trkpt>
      <trkpt lat="45.15571" lon="5.55304">
        <ele>1067.68</ele>
        <time>2011-08-20T08:46:15Z</time>
      </trkpt>
      <trkpt lat="45.15566" lon="5.55303">
        <ele>1068.16</ele>
        <time>2011-08-20T08:46:16Z</time>
      </trkpt>
      <trkpt lat="45.15562" lon="5.55302">
        <ele>1068.16</ele>
        <time>2011-08-20T08:46:17Z</time>
      </trkpt>
      <trkpt lat="45.15558" lon="5.553">
        <ele>1068.16</ele>
        <time>2011-08-20T08:46:18Z</time>
      </trkpt>
      <trkpt lat="45.15553" lon="5.55298">
        <ele>1068.64</ele>
        <time>2011-08-20T08:46:19Z</time>
      </trkpt>
      <trkpt lat="45.15537" lon="5.55289">
        <ele>1068.64</ele>
        <time>2011-08-20T08:46:23Z</time>
      </trkpt>
      <trkpt lat="45.15525" lon="5.55278">
        <ele>1068.64</ele>
        <time>2011-08-20T08:46:26Z</time>
      </trkpt>
      <trkpt lat="45.15485" lon="5.55257">
        <ele>1069.12</ele>
        <time>2011-08-20T08:46:35Z</time>
      </trkpt>
      <trkpt lat="45.1548" lon="5.55254">
        <ele>1069.12</ele>
        <time>2011-08-20T08:46:36Z</time>
      </trkpt>
      <trkpt lat="45.15467" lon="5.55247">
        <ele>1068.16</ele>
        <time>2011-08-20T08:46:39Z</time>
      </trkpt>
      <trkpt lat="45.15433" lon="5.55233">
        <ele>1066.72</ele>
        <time>2011-08-20T08:46:45Z</time>
      </trkpt>
      <trkpt lat="45.15379" lon="5.55212">
        <ele>1064.8</ele>
        <time>2011-08-20T08:46:53Z</time>
      </trkpt>
      <trkpt lat="45.15303" lon="5.55188">
        <ele>1060.47</ele>
        <time>2011-08-20T08:47:03Z</time>
      </trkpt>
      <trkpt lat="45.15246" lon="5.55171">
        <ele>1059.03</ele>
        <time>2011-08-20T08:47:10Z</time>
      </trkpt>
      <trkpt lat="45.15216" lon="5.55169">
        <ele>1056.15</ele>
        <time>2011-08-20T08:47:13Z</time>
      </trkpt>
      <trkpt lat="45.15175" lon="5.55178">
        <ele>1054.22</ele>
        <time>2011-08-20T08:47:17Z</time>
      </trkpt>
      <trkpt lat="45.15135" lon="5.55195">
        <ele>1050.86</ele>
        <time>2011-08-20T08:47:21Z</time>
      </trkpt>
      <trkpt lat="45.15125" lon="5.55199">
        <ele>1050.86</ele>
        <time>2011-08-20T08:47:22Z</time>
      </trkpt>
      <trkpt lat="45.15094" lon="5.55214">
        <ele>1049.42</ele>
        <time>2011-08-20T08:47:25Z</time>
      </trkpt>
      <trkpt lat="45.15085" lon="5.55221">
        <ele>1048.94</ele>
        <time>2011-08-20T08:47:26Z</time>
      </trkpt>
      <trkpt lat="45.15077" lon="5.55231">
        <ele>1047.97</ele>
        <time>2011-08-20T08:47:27Z</time>
      </trkpt>
      <trkpt lat="45.15069" lon="5.55242">
        <ele>1047.49</ele>
        <time>2011-08-20T08:47:28Z</time>
      </trkpt>
      <trkpt lat="45.15062" lon="5.55252">
        <ele>1047.01</ele>
        <time>2011-08-20T08:47:29Z</time>
      </trkpt>
      <trkpt lat="45.15054" lon="5.55261">
        <ele>1045.57</ele>
        <time>2011-08-20T08:47:30Z</time>
      </trkpt>
      <trkpt lat="45.15044" lon="5.55268">
        <ele>1045.09</ele>
        <time>2011-08-20T08:47:31Z</time>
      </trkpt>
      <trkpt lat="45.15035" lon="5.55272">
        <ele>1044.61</ele>
        <time>2011-08-20T08:47:32Z</time>
      </trkpt>
      <trkpt lat="45.15025" lon="5.55275">
        <ele>1044.61</ele>
        <time>2011-08-20T08:47:33Z</time>
      </trkpt>
      <trkpt lat="45.15015" lon="5.55276">
        <ele>1044.61</ele>
        <time>2011-08-20T08:47:34Z</time>
      </trkpt>
      <trkpt lat="45.15006" lon="5.55275">
        <ele>1043.65</ele>
        <time>2011-08-20T08:47:35Z</time>
      </trkpt>
      <trkpt lat="45.14997" lon="5.55273">
        <ele>1043.65</ele>
        <time>2011-08-20T08:47:36Z</time>
      </trkpt>
      <trkpt lat="45.14903" lon="5.55246">
        <ele>1040.28</ele>
        <time>2011-08-20T08:47:46Z</time>
      </trkpt>
      <trkpt lat="45.14886" lon="5.55242">
        <ele>1040.76</ele>
        <time>2011-08-20T08:47:48Z</time>
      </trkpt>
      <trkpt lat="45.14845" lon="5.55223">
        <ele>1040.76</ele>
        <time>2011-08-20T08:47:53Z</time>
      </trkpt>
      <trkpt lat="45.14822" lon="5.55209">
        <ele>1039.8</ele>
        <time>2011-08-20T08:47:56Z</time>
      </trkpt>
      <trkpt lat="45.14815" lon="5.55205">
        <ele>1039.8</ele>
        <time>2011-08-20T08:47:57Z</time>
      </trkpt>
      <trkpt lat="45.14808" lon="5.552">
        <ele>1039.8</ele>
        <time>2011-08-20T08:47:58Z</time>
      </trkpt>
      <trkpt lat="45.14795" lon="5.55193">
        <ele>1040.28</ele>
        <time>2011-08-20T08:48:00Z</time>
      </trkpt>
      <trkpt lat="45.1478" lon="5.55186">
        <ele>1041.25</ele>
        <time>2011-08-20T08:48:03Z</time>
      </trkpt>
      <trkpt lat="45.14777" lon="5.55186">
        <ele>1041.25</ele>
        <time>2011-08-20T08:48:04Z</time>
      </trkpt>
      <trkpt lat="45.14774" lon="5.55187">
        <ele>1041.25</ele>
        <time>2011-08-20T08:48:05Z</time>
      </trkpt>
      <trkpt lat="45.14772" lon="5.55189">
        <ele>1041.73</ele>
        <time>2011-08-20T08:48:06Z</time>
      </trkpt>
      <trkpt lat="45.1477" lon="5.5519">
        <ele>1041.25</ele>
        <time>2011-08-20T08:48:07Z</time>
      </trkpt>
      <trkpt lat="45.14768" lon="5.55191">
        <ele>1042.21</ele>
        <time>2011-08-20T08:48:08Z</time>
      </trkpt>
      <trkpt lat="45.14766" lon="5.55192">
        <ele>1042.69</ele>
        <time>2011-08-20T08:48:09Z</time>
      </trkpt>
      <trkpt lat="45.14755" lon="5.55198">
        <ele>1043.65</ele>
        <time>2011-08-20T08:48:16Z</time>
      </trkpt>
      <trkpt lat="45.14754" lon="5.55199">
        <ele>1043.65</ele>
        <time>2011-08-20T08:48:17Z</time>
      </trkpt>
      <trkpt lat="45.14752" lon="5.552">
        <ele>1044.13</ele>
        <time>2011-08-20T08:48:18Z</time>
      </trkpt>
      <trkpt lat="45.1475" lon="5.55202">
        <ele>1044.13</ele>
        <time>2011-08-20T08:48:20Z</time>
      </trkpt>
      <trkpt lat="45.14748" lon="5.55203">
        <ele>1044.13</ele>
        <time>2011-08-20T08:48:21Z</time>
      </trkpt>
      <trkpt lat="45.14747" lon="5.55204">
        <ele>1044.61</ele>
        <time>2011-08-20T08:48:22Z</time>
      </trkpt>
      <trkpt lat="45.14747" lon="5.55205">
        <ele>1044.61</ele>
        <time>2011-08-20T08:48:23Z</time>
      </trkpt>
      <trkpt lat="45.14739" lon="5.55217">
        <ele>1046.05</ele>
        <time>2011-08-20T08:48:36Z</time>
      </trkpt>
      <trkpt lat="45.14738" lon="5.55217">
        <ele>1046.53</ele>
        <time>2011-08-20T08:48:37Z</time>
      </trkpt>
      <trkpt lat="45.14735" lon="5.5522">
        <ele>1046.53</ele>
        <time>2011-08-20T08:48:40Z</time>
      </trkpt>
      <trkpt lat="45.14728" lon="5.55227">
        <ele>1047.97</ele>
        <time>2011-08-20T08:48:47Z</time>
      </trkpt>
      <trkpt lat="45.14727" lon="5.55228">
        <ele>1047.97</ele>
        <time>2011-08-20T08:48:48Z</time>
      </trkpt>
      <trkpt lat="45.14725" lon="5.55228">
        <ele>1047.97</ele>
        <time>2011-08-20T08:48:49Z</time>
      </trkpt>
      <trkpt lat="45.14714" lon="5.55234">
        <ele>1048.94</ele>
        <time>2011-08-20T08:48:57Z</time>
      </trkpt>
      <trkpt lat="45.14713" lon="5.55234">
        <ele>1049.42</ele>
        <time>2011-08-20T08:48:58Z</time>
      </trkpt>
      <trkpt lat="45.14711" lon="5.55235">
        <ele>1049.42</ele>
        <time>2011-08-20T08:48:59Z</time>
      </trkpt>
      <trkpt lat="45.1471" lon="5.55236">
        <ele>1050.38</ele>
        <time>2011-08-20T08:49:00Z</time>
      </trkpt>
      <trkpt lat="45.14709" lon="5.55237">
        <ele>1049.9</ele>
        <time>2011-08-20T08:49:01Z</time>
      </trkpt>
      <trkpt lat="45.14708" lon="5.55238">
        <ele>1049.9</ele>
        <time>2011-08-20T08:49:02Z</time>
      </trkpt>
      <trkpt lat="45.14706" lon="5.55239">
        <ele>1050.38</ele>
        <time>2011-08-20T08:49:03Z</time>
      </trkpt>
      <trkpt lat="45.14705" lon="5.5524">
        <ele>1050.38</ele>
        <time>2011-08-20T08:49:04Z</time>
      </trkpt>
      <trkpt lat="45.14704" lon="5.55241">
        <ele>1050.38</ele>
        <time>2011-08-20T08:49:05Z</time>
      </trkpt>
      <trkpt lat="45.14703" lon="5.55242">
        <ele>1050.38</ele>
        <time>2011-08-20T08:49:06Z</time>
      </trkpt>
      <trkpt lat="45.14702" lon="5.55243">
        <ele>1050.86</ele>
        <time>2011-08-20T08:49:07Z</time>
      </trkpt>
      <trkpt lat="45.14701" lon="5.55244">
        <ele>1050.86</ele>
        <time>2011-08-20T08:49:08Z</time>
      </trkpt>
      <trkpt lat="45.147" lon="5.55245">
        <ele>1051.34</ele>
        <time>2011-08-20T08:49:09Z</time>
      </trkpt>
      <trkpt lat="45.14698" lon="5.55246">
        <ele>1051.82</ele>
        <time>2011-08-20T08:49:10Z</time>
      </trkpt>
      <trkpt lat="45.14685" lon="5.55257">
        <ele>1053.26</ele>
        <time>2011-08-20T08:49:21Z</time>
      </trkpt>
      <trkpt lat="45.1467" lon="5.55266">
        <ele>1056.15</ele>
        <time>2011-08-20T08:49:34Z</time>
      </trkpt>
      <trkpt lat="45.14661" lon="5.55279">
        <ele>1057.11</ele>
        <time>2011-08-20T08:49:43Z</time>
      </trkpt>
      <trkpt lat="45.1466" lon="5.5528">
        <ele>1057.11</ele>
        <time>2011-08-20T08:49:44Z</time>
      </trkpt>
      <trkpt lat="45.1465" lon="5.55294">
        <ele>1059.03</ele>
        <time>2011-08-20T08:49:55Z</time>
      </trkpt>
      <trkpt lat="45.1465" lon="5.55295">
        <ele>1059.51</ele>
        <time>2011-08-20T08:49:56Z</time>
      </trkpt>
      <trkpt lat="45.14649" lon="5.55296">
        <ele>1059.51</ele>
        <time>2011-08-20T08:49:57Z</time>
      </trkpt>
      <trkpt lat="45.14645" lon="5.55306">
        <ele>1060.95</ele>
        <time>2011-08-20T08:50:06Z</time>
      </trkpt>
      <trkpt lat="45.14644" lon="5.55307">
        <ele>1061.43</ele>
        <time>2011-08-20T08:50:07Z</time>
      </trkpt>
      <trkpt lat="45.14639" lon="5.55314">
        <ele>1062.87</ele>
        <time>2011-08-20T08:50:14Z</time>
      </trkpt>
      <trkpt lat="45.14623" lon="5.55325">
        <ele>1064.8</ele>
        <time>2011-08-20T08:50:27Z</time>
      </trkpt>
      <trkpt lat="45.146" lon="5.55341">
        <ele>1066.72</ele>
        <time>2011-08-20T08:50:42Z</time>
      </trkpt>
      <trkpt lat="45.14598" lon="5.55343">
        <ele>1067.2</ele>
        <time>2011-08-20T08:50:46Z</time>
      </trkpt>
      <trkpt lat="45.14577" lon="5.55364">
        <ele>1069.12</ele>
        <time>2011-08-20T08:51:01Z</time>
      </trkpt>
      <trkpt lat="45.14552" lon="5.5537">
        <ele>1072.01</ele>
        <time>2011-08-20T08:51:16Z</time>
      </trkpt>
      <trkpt lat="45.14529" lon="5.55355">
        <ele>1073.93</ele>
        <time>2011-08-20T08:51:28Z</time>
      </trkpt>
      <trkpt lat="45.14527" lon="5.55352">
        <ele>1074.89</ele>
        <time>2011-08-20T08:51:30Z</time>
      </trkpt>
      <trkpt lat="45.14505" lon="5.55354">
        <ele>1076.33</ele>
        <time>2011-08-20T08:51:42Z</time>
      </trkpt>
      <trkpt lat="45.14488" lon="5.55354">
        <ele>1077.78</ele>
        <time>2011-08-20T08:51:53Z</time>
      </trkpt>
      <trkpt lat="45.14471" lon="5.5536">
        <ele>1079.22</ele>
        <time>2011-08-20T08:52:02Z</time>
      </trkpt>
      <trkpt lat="45.14446" lon="5.55364">
        <ele>1082.1</ele>
        <time>2011-08-20T08:52:16Z</time>
      </trkpt>
      <trkpt lat="45.14422" lon="5.55376">
        <ele>1084.5</ele>
        <time>2011-08-20T08:52:30Z</time>
      </trkpt>
      <trkpt lat="45.14407" lon="5.5539">
        <ele>1085.95</ele>
        <time>2011-08-20T08:52:42Z</time>
      </trkpt>
      <trkpt lat="45.14393" lon="5.55399">
        <ele>1088.35</ele>
        <time>2011-08-20T08:52:53Z</time>
      </trkpt>
      <trkpt lat="45.14381" lon="5.55408">
        <ele>1089.31</ele>
        <time>2011-08-20T08:52:59Z</time>
      </trkpt>
      <trkpt lat="45.14356" lon="5.55422">
        <ele>1091.71</ele>
        <time>2011-08-20T08:53:12Z</time>
      </trkpt>
      <trkpt lat="45.14341" lon="5.55439">
        <ele>1093.64</ele>
        <time>2011-08-20T08:53:25Z</time>
      </trkpt>
      <trkpt lat="45.14335" lon="5.55449">
        <ele>1094.6</ele>
        <time>2011-08-20T08:53:31Z</time>
      </trkpt>
      <trkpt lat="45.14333" lon="5.55454">
        <ele>1089.31</ele>
        <time>2011-08-20T08:53:33Z</time>
      </trkpt>
      <trkpt lat="45.14333" lon="5.55458">
        <ele>1096.04</ele>
        <time>2011-08-20T08:53:34Z</time>
      </trkpt>
      <trkpt lat="45.14331" lon="5.55464">
        <ele>1095.56</ele>
        <time>2011-08-20T08:53:36Z</time>
      </trkpt>
      <trkpt lat="45.14324" lon="5.55488">
        <ele>1097.48</ele>
        <time>2011-08-20T08:53:46Z</time>
      </trkpt>
      <trkpt lat="45.14314" lon="5.55506">
        <ele>1099.89</ele>
        <time>2011-08-20T08:53:58Z</time>
      </trkpt>
      <trkpt lat="45.14307" lon="5.55514">
        <ele>1100.85</ele>
        <time>2011-08-20T08:54:05Z</time>
      </trkpt>
      <trkpt lat="45.14303" lon="5.5551">
        <ele>1101.33</ele>
        <time>2011-08-20T08:54:09Z</time>
      </trkpt>
      <trkpt lat="45.14302" lon="5.55501">
        <ele>1103.73</ele>
        <time>2011-08-20T08:54:22Z</time>
      </trkpt>
      <trkpt lat="45.14301" lon="5.55483">
        <ele>1107.58</ele>
        <time>2011-08-20T08:54:33Z</time>
      </trkpt>
      <trkpt lat="45.143" lon="5.55478">
        <ele>1109.5</ele>
        <time>2011-08-20T08:54:36Z</time>
      </trkpt>
      <trkpt lat="45.14295" lon="5.55469">
        <ele>1109.98</ele>
        <time>2011-08-20T08:54:43Z</time>
      </trkpt>
      <trkpt lat="45.14283" lon="5.55466">
        <ele>1113.82</ele>
        <time>2011-08-20T08:54:55Z</time>
      </trkpt>
      <trkpt lat="45.14278" lon="5.55461">
        <ele>1113.82</ele>
        <time>2011-08-20T08:54:59Z</time>
      </trkpt>
      <trkpt lat="45.14269" lon="5.5545">
        <ele>1115.75</ele>
        <time>2011-08-20T08:55:07Z</time>
      </trkpt>
      <trkpt lat="45.14264" lon="5.55447">
        <ele>1116.71</ele>
        <time>2011-08-20T08:55:11Z</time>
      </trkpt>
      <trkpt lat="45.14261" lon="5.55446">
        <ele>1118.15</ele>
        <time>2011-08-20T08:55:14Z</time>
      </trkpt>
      <trkpt lat="45.14256" lon="5.55445">
        <ele>1118.63</ele>
        <time>2011-08-20T08:55:18Z</time>
      </trkpt>
      <trkpt lat="45.14241" lon="5.55441">
        <ele>1119.59</ele>
        <time>2011-08-20T08:55:32Z</time>
      </trkpt>
      <trkpt lat="45.14231" lon="5.55435">
        <ele>1121.03</ele>
        <time>2011-08-20T08:55:43Z</time>
      </trkpt>
      <trkpt lat="45.14227" lon="5.55431">
        <ele>1122.48</ele>
        <time>2011-08-20T08:55:50Z</time>
      </trkpt>
      <trkpt lat="45.14225" lon="5.55429">
        <ele>1122</ele>
        <time>2011-08-20T08:55:52Z</time>
      </trkpt>
      <trkpt lat="45.14217" lon="5.55421">
        <ele>1123.92</ele>
        <time>2011-08-20T08:56:06Z</time>
      </trkpt>
      <trkpt lat="45.14212" lon="5.55416">
        <ele>1124.88</ele>
        <time>2011-08-20T08:56:20Z</time>
      </trkpt>
      <trkpt lat="45.14202" lon="5.55411">
        <ele>1126.32</ele>
        <time>2011-08-20T08:56:28Z</time>
      </trkpt>
      <trkpt lat="45.14187" lon="5.55388">
        <ele>1127.76</ele>
        <time>2011-08-20T08:56:42Z</time>
      </trkpt>
      <trkpt lat="45.14185" lon="5.55387">
        <ele>1128.73</ele>
        <time>2011-08-20T08:56:43Z</time>
      </trkpt>
      <trkpt lat="45.14174" lon="5.55381">
        <ele>1129.21</ele>
        <time>2011-08-20T08:56:51Z</time>
      </trkpt>
      <trkpt lat="45.14166" lon="5.55371">
        <ele>1129.69</ele>
        <time>2011-08-20T08:56:57Z</time>
      </trkpt>
      <trkpt lat="45.14151" lon="5.55355">
        <ele>1131.61</ele>
        <time>2011-08-20T08:57:09Z</time>
      </trkpt>
      <trkpt lat="45.14143" lon="5.55346">
        <ele>1133.05</ele>
        <time>2011-08-20T08:57:16Z</time>
      </trkpt>
      <trkpt lat="45.14138" lon="5.55338">
        <ele>1133.05</ele>
        <time>2011-08-20T08:57:22Z</time>
      </trkpt>
      <trkpt lat="45.14136" lon="5.55334">
        <ele>1129.21</ele>
        <time>2011-08-20T08:57:25Z</time>
      </trkpt>
      <trkpt lat="45.14135" lon="5.55333">
        <ele>1134.97</ele>
        <time>2011-08-20T08:57:26Z</time>
      </trkpt>
      <trkpt lat="45.14135" lon="5.55331">
        <ele>1133.53</ele>
        <time>2011-08-20T08:57:27Z</time>
      </trkpt>
      <trkpt lat="45.14133" lon="5.55328">
        <ele>1133.53</ele>
        <time>2011-08-20T08:57:29Z</time>
      </trkpt>
      <trkpt lat="45.14128" lon="5.5532">
        <ele>1134.01</ele>
        <time>2011-08-20T08:57:40Z</time>
      </trkpt>
      <trkpt lat="45.14127" lon="5.55315">
        <ele>1134.01</ele>
        <time>2011-08-20T08:57:43Z</time>
      </trkpt>
      <trkpt lat="45.14123" lon="5.55308">
        <ele>1134.97</ele>
        <time>2011-08-20T08:57:47Z</time>
      </trkpt>
      <trkpt lat="45.1412" lon="5.55304">
        <ele>1134.49</ele>
        <time>2011-08-20T08:57:50Z</time>
      </trkpt>
      <trkpt lat="45.14109" lon="5.553">
        <ele>1136.42</ele>
        <time>2011-08-20T08:58:00Z</time>
      </trkpt>
      <trkpt lat="45.14104" lon="5.55297">
        <ele>1136.42</ele>
        <time>2011-08-20T08:58:03Z</time>
      </trkpt>
      <trkpt lat="45.14098" lon="5.55289">
        <ele>1137.38</ele>
        <time>2011-08-20T08:58:07Z</time>
      </trkpt>
      <trkpt lat="45.1409" lon="5.55278">
        <ele>1137.86</ele>
        <time>2011-08-20T08:58:13Z</time>
      </trkpt>
      <trkpt lat="45.14076" lon="5.55255">
        <ele>1137.38</ele>
        <time>2011-08-20T08:58:23Z</time>
      </trkpt>
      <trkpt lat="45.14073" lon="5.55248">
        <ele>1137.86</ele>
        <time>2011-08-20T08:58:25Z</time>
      </trkpt>
      <trkpt lat="45.14064" lon="5.55239">
        <ele>1137.86</ele>
        <time>2011-08-20T08:58:30Z</time>
      </trkpt>
      <trkpt lat="45.14057" lon="5.55231">
        <ele>1137.38</ele>
        <time>2011-08-20T08:58:33Z</time>
      </trkpt>
      <trkpt lat="45.1405" lon="5.55197">
        <ele>1136.42</ele>
        <time>2011-08-20T08:58:40Z</time>
      </trkpt>
      <trkpt lat="45.1405" lon="5.5519">
        <ele>1136.42</ele>
        <time>2011-08-20T08:58:41Z</time>
      </trkpt>
      <trkpt lat="45.1405" lon="5.55179">
        <ele>1136.42</ele>
        <time>2011-08-20T08:58:43Z</time>
      </trkpt>
      <trkpt lat="45.14051" lon="5.55173">
        <ele>1135.94</ele>
        <time>2011-08-20T08:58:44Z</time>
      </trkpt>
      <trkpt lat="45.14051" lon="5.55168">
        <ele>1135.94</ele>
        <time>2011-08-20T08:58:45Z</time>
      </trkpt>
      <trkpt lat="45.14054" lon="5.55128">
        <ele>1134.49</ele>
        <time>2011-08-20T08:58:53Z</time>
      </trkpt>
      <trkpt lat="45.14056" lon="5.55124">
        <ele>1134.49</ele>
        <time>2011-08-20T08:58:54Z</time>
      </trkpt>
      <trkpt lat="45.14057" lon="5.5512">
        <ele>1134.01</ele>
        <time>2011-08-20T08:58:55Z</time>
      </trkpt>
      <trkpt lat="45.14058" lon="5.55117">
        <ele>1134.49</ele>
        <time>2011-08-20T08:58:56Z</time>
      </trkpt>
      <trkpt lat="45.14058" lon="5.55109">
        <ele>1134.49</ele>
        <time>2011-08-20T08:59:08Z</time>
      </trkpt>
      <trkpt lat="45.14059" lon="5.55103">
        <ele>1133.53</ele>
        <time>2011-08-20T08:59:10Z</time>
      </trkpt>
      <trkpt lat="45.14061" lon="5.55099">
        <ele>1133.53</ele>
        <time>2011-08-20T08:59:11Z</time>
      </trkpt>
      <trkpt lat="45.14063" lon="5.55096">
        <ele>1132.57</ele>
        <time>2011-08-20T08:59:12Z</time>
      </trkpt>
      <trkpt lat="45.14065" lon="5.55092">
        <ele>1131.61</ele>
        <time>2011-08-20T08:59:13Z</time>
      </trkpt>
      <trkpt lat="45.14066" lon="5.55088">
        <ele>1130.17</ele>
        <time>2011-08-20T08:59:14Z</time>
      </trkpt>
      <trkpt lat="45.14068" lon="5.55083">
        <ele>1129.69</ele>
        <time>2011-08-20T08:59:15Z</time>
      </trkpt>
      <trkpt lat="45.14069" lon="5.55078">
        <ele>1129.21</ele>
        <time>2011-08-20T08:59:16Z</time>
      </trkpt>
      <trkpt lat="45.1407" lon="5.55071">
        <ele>1128.24</ele>
        <time>2011-08-20T08:59:17Z</time>
      </trkpt>
      <trkpt lat="45.14071" lon="5.55065">
        <ele>1127.28</ele>
        <time>2011-08-20T08:59:18Z</time>
      </trkpt>
      <trkpt lat="45.14071" lon="5.5506">
        <ele>1126.8</ele>
        <time>2011-08-20T08:59:19Z</time>
      </trkpt>
      <trkpt lat="45.14071" lon="5.55048">
        <ele>1124.88</ele>
        <time>2011-08-20T08:59:22Z</time>
      </trkpt>
      <trkpt lat="45.1407" lon="5.55044">
        <ele>1124.4</ele>
        <time>2011-08-20T08:59:23Z</time>
      </trkpt>
      <trkpt lat="45.1406" lon="5.55027">
        <ele>1122.48</ele>
        <time>2011-08-20T08:59:27Z</time>
      </trkpt>
      <trkpt lat="45.14053" lon="5.55016">
        <ele>1120.55</ele>
        <time>2011-08-20T08:59:29Z</time>
      </trkpt>
      <trkpt lat="45.14049" lon="5.5501">
        <ele>1119.59</ele>
        <time>2011-08-20T08:59:30Z</time>
      </trkpt>
      <trkpt lat="45.14045" lon="5.55006">
        <ele>1119.11</ele>
        <time>2011-08-20T08:59:31Z</time>
      </trkpt>
      <trkpt lat="45.1404" lon="5.55001">
        <ele>1117.67</ele>
        <time>2011-08-20T08:59:32Z</time>
      </trkpt>
      <trkpt lat="45.14036" lon="5.54996">
        <ele>1116.71</ele>
        <time>2011-08-20T08:59:33Z</time>
      </trkpt>
      <trkpt lat="45.14021" lon="5.54981">
        <ele>1113.82</ele>
        <time>2011-08-20T08:59:36Z</time>
      </trkpt>
      <trkpt lat="45.14011" lon="5.54968">
        <ele>1110.46</ele>
        <time>2011-08-20T08:59:39Z</time>
      </trkpt>
      <trkpt lat="45.14005" lon="5.54958">
        <ele>1106.61</ele>
        <time>2011-08-20T08:59:42Z</time>
      </trkpt>
      <trkpt lat="45.13998" lon="5.5495">
        <ele>1103.25</ele>
        <time>2011-08-20T08:59:46Z</time>
      </trkpt>
      <trkpt lat="45.13996" lon="5.54946">
        <ele>1101.33</ele>
        <time>2011-08-20T08:59:47Z</time>
      </trkpt>
      <trkpt lat="45.13993" lon="5.54943">
        <ele>1100.37</ele>
        <time>2011-08-20T08:59:48Z</time>
      </trkpt>
      <trkpt lat="45.13989" lon="5.54939">
        <ele>1099.4</ele>
        <time>2011-08-20T08:59:49Z</time>
      </trkpt>
      <trkpt lat="45.13983" lon="5.54934">
        <ele>1098.44</ele>
        <time>2011-08-20T08:59:50Z</time>
      </trkpt>
      <trkpt lat="45.13974" lon="5.54922">
        <ele>1095.08</ele>
        <time>2011-08-20T08:59:53Z</time>
      </trkpt>
      <trkpt lat="45.13961" lon="5.54905">
        <ele>1091.71</ele>
        <time>2011-08-20T08:59:57Z</time>
      </trkpt>
      <trkpt lat="45.13957" lon="5.549">
        <ele>1090.27</ele>
        <time>2011-08-20T08:59:58Z</time>
      </trkpt>
      <trkpt lat="45.13952" lon="5.54896">
        <ele>1089.79</ele>
        <time>2011-08-20T08:59:59Z</time>
      </trkpt>
      <trkpt lat="45.13945" lon="5.54892">
        <ele>1088.35</ele>
        <time>2011-08-20T09:00:00Z</time>
      </trkpt>
      <trkpt lat="45.13939" lon="5.54889">
        <ele>1087.87</ele>
        <time>2011-08-20T09:00:01Z</time>
      </trkpt>
      <trkpt lat="45.13934" lon="5.54885">
        <ele>1087.39</ele>
        <time>2011-08-20T09:00:02Z</time>
      </trkpt>
      <trkpt lat="45.13929" lon="5.54883">
        <ele>1086.91</ele>
        <time>2011-08-20T09:00:03Z</time>
      </trkpt>
      <trkpt lat="45.13923" lon="5.54881">
        <ele>1085.47</ele>
        <time>2011-08-20T09:00:04Z</time>
      </trkpt>
      <trkpt lat="45.13908" lon="5.54872">
        <ele>1084.5</ele>
        <time>2011-08-20T09:00:06Z</time>
      </trkpt>
      <trkpt lat="45.13878" lon="5.54846">
        <ele>1080.66</ele>
        <time>2011-08-20T09:00:15Z</time>
      </trkpt>
      <trkpt lat="45.13876" lon="5.5484">
        <ele>1080.18</ele>
        <time>2011-08-20T09:00:16Z</time>
      </trkpt>
      <trkpt lat="45.13876" lon="5.54835">
        <ele>1078.74</ele>
        <time>2011-08-20T09:00:17Z</time>
      </trkpt>
      <trkpt lat="45.13876" lon="5.54831">
        <ele>1078.26</ele>
        <time>2011-08-20T09:00:18Z</time>
      </trkpt>
      <trkpt lat="45.13883" lon="5.54808">
        <ele>1074.89</ele>
        <time>2011-08-20T09:00:23Z</time>
      </trkpt>
      <trkpt lat="45.13886" lon="5.54805">
        <ele>1074.41</ele>
        <time>2011-08-20T09:00:24Z</time>
      </trkpt>
      <trkpt lat="45.13894" lon="5.54792">
        <ele>1070.08</ele>
        <time>2011-08-20T09:00:28Z</time>
      </trkpt>
      <trkpt lat="45.139" lon="5.54779">
        <ele>1066.72</ele>
        <time>2011-08-20T09:00:32Z</time>
      </trkpt>
      <trkpt lat="45.13907" lon="5.54762">
        <ele>1063.36</ele>
        <time>2011-08-20T09:00:36Z</time>
      </trkpt>
      <trkpt lat="45.13911" lon="5.54749">
        <ele>1060.47</ele>
        <time>2011-08-20T09:00:40Z</time>
      </trkpt>
      <trkpt lat="45.13911" lon="5.54742">
        <ele>1059.99</ele>
        <time>2011-08-20T09:00:43Z</time>
      </trkpt>
      <trkpt lat="45.13911" lon="5.54738">
        <ele>1059.51</ele>
        <time>2011-08-20T09:00:45Z</time>
      </trkpt>
      <trkpt lat="45.13913" lon="5.54736">
        <ele>1059.51</ele>
        <time>2011-08-20T09:00:46Z</time>
      </trkpt>
      <trkpt lat="45.13913" lon="5.54733">
        <ele>1059.03</ele>
        <time>2011-08-20T09:00:47Z</time>
      </trkpt>
      <trkpt lat="45.13912" lon="5.54731">
        <ele>1058.55</ele>
        <time>2011-08-20T09:00:48Z</time>
      </trkpt>
      <trkpt lat="45.13911" lon="5.5473">
        <ele>1058.55</ele>
        <time>2011-08-20T09:00:49Z</time>
      </trkpt>
      <trkpt lat="45.13909" lon="5.5473">
        <ele>1058.55</ele>
        <time>2011-08-20T09:00:50Z</time>
      </trkpt>
      <trkpt lat="45.13908" lon="5.54731">
        <ele>1058.55</ele>
        <time>2011-08-20T09:00:51Z</time>
      </trkpt>
      <trkpt lat="45.13907" lon="5.54733">
        <ele>1058.55</ele>
        <time>2011-08-20T09:00:52Z</time>
      </trkpt>
      <trkpt lat="45.13903" lon="5.54735">
        <ele>1059.03</ele>
        <time>2011-08-20T09:00:54Z</time>
      </trkpt>
      <trkpt lat="45.13902" lon="5.54736">
        <ele>1059.51</ele>
        <time>2011-08-20T09:00:55Z</time>
      </trkpt>
      <trkpt lat="45.13898" lon="5.54738">
        <ele>1059.51</ele>
        <time>2011-08-20T09:00:57Z</time>
      </trkpt>
      <trkpt lat="45.13895" lon="5.54738">
        <ele>1059.03</ele>
        <time>2011-08-20T09:00:58Z</time>
      </trkpt>
      <trkpt lat="45.13873" lon="5.54748">
        <ele>1061.43</ele>
        <time>2011-08-20T09:01:09Z</time>
      </trkpt>
      <trkpt lat="45.13864" lon="5.54751">
        <ele>1062.87</ele>
        <time>2011-08-20T09:01:14Z</time>
      </trkpt>
      <trkpt lat="45.13863" lon="5.54752">
        <ele>1063.36</ele>
        <time>2011-08-20T09:01:15Z</time>
      </trkpt>
      <trkpt lat="45.13862" lon="5.54751">
        <ele>1063.36</ele>
        <time>2011-08-20T09:01:25Z</time>
      </trkpt>
      <trkpt lat="45.13862" lon="5.54751">
        <ele>1061.91</ele>
        <time>2011-08-20T09:01:46Z</time>
      </trkpt>
      <trkpt lat="45.13862" lon="5.54752">
        <ele>1062.39</ele>
        <time>2011-08-20T09:02:25Z</time>
      </trkpt>
      <trkpt lat="45.13862" lon="5.54752">
        <ele>1062.39</ele>
        <time>2011-08-20T09:02:59Z</time>
      </trkpt>
      <trkpt lat="45.13861" lon="5.54752">
        <ele>1061.91</ele>
        <time>2011-08-20T09:03:36Z</time>
      </trkpt>
      <trkpt lat="45.13859" lon="5.54751">
        <ele>1062.39</ele>
        <time>2011-08-20T09:03:58Z</time>
      </trkpt>
      <trkpt lat="45.13858" lon="5.54751">
        <ele>1062.39</ele>
        <time>2011-08-20T09:03:59Z</time>
      </trkpt>
      <trkpt lat="45.13856" lon="5.54752">
        <ele>1062.87</ele>
        <time>2011-08-20T09:04:00Z</time>
      </trkpt>
      <trkpt lat="45.13854" lon="5.54753">
        <ele>1062.39</ele>
        <time>2011-08-20T09:04:01Z</time>
      </trkpt>
      <trkpt lat="45.13852" lon="5.54754">
        <ele>1062.87</ele>
        <time>2011-08-20T09:04:02Z</time>
      </trkpt>
      <trkpt lat="45.13851" lon="5.54754">
        <ele>1062.87</ele>
        <time>2011-08-20T09:04:03Z</time>
      </trkpt>
      <trkpt lat="45.13849" lon="5.54754">
        <ele>1062.87</ele>
        <time>2011-08-20T09:04:04Z</time>
      </trkpt>
      <trkpt lat="45.13847" lon="5.54754">
        <ele>1063.84</ele>
        <time>2011-08-20T09:04:05Z</time>
      </trkpt>
      <trkpt lat="45.13825" lon="5.54762">
        <ele>1066.24</ele>
        <time>2011-08-20T09:04:18Z</time>
      </trkpt>
      <trkpt lat="45.13801" lon="5.5477">
        <ele>1068.64</ele>
        <time>2011-08-20T09:04:32Z</time>
      </trkpt>
      <trkpt lat="45.13792" lon="5.54778">
        <ele>1070.08</ele>
        <time>2011-08-20T09:04:38Z</time>
      </trkpt>
      <trkpt lat="45.13791" lon="5.5478">
        <ele>1070.08</ele>
        <time>2011-08-20T09:04:39Z</time>
      </trkpt>
      <trkpt lat="45.13791" lon="5.54782">
        <ele>1070.08</ele>
        <time>2011-08-20T09:04:40Z</time>
      </trkpt>
      <trkpt lat="45.13789" lon="5.54784">
        <ele>1070.08</ele>
        <time>2011-08-20T09:04:41Z</time>
      </trkpt>
      <trkpt lat="45.13789" lon="5.54786">
        <ele>1070.08</ele>
        <time>2011-08-20T09:04:42Z</time>
      </trkpt>
      <trkpt lat="45.13788" lon="5.54789">
        <ele>1070.57</ele>
        <time>2011-08-20T09:04:43Z</time>
      </trkpt>
      <trkpt lat="45.13787" lon="5.54792">
        <ele>1070.08</ele>
        <time>2011-08-20T09:04:44Z</time>
      </trkpt>
      <trkpt lat="45.13786" lon="5.54795">
        <ele>1070.57</ele>
        <time>2011-08-20T09:04:45Z</time>
      </trkpt>
      <trkpt lat="45.13786" lon="5.54798">
        <ele>1070.57</ele>
        <time>2011-08-20T09:04:46Z</time>
      </trkpt>
      <trkpt lat="45.13785" lon="5.54802">
        <ele>1070.57</ele>
        <time>2011-08-20T09:04:47Z</time>
      </trkpt>
      <trkpt lat="45.13785" lon="5.54805">
        <ele>1070.57</ele>
        <time>2011-08-20T09:04:48Z</time>
      </trkpt>
      <trkpt lat="45.13781" lon="5.5482">
        <ele>1071.53</ele>
        <time>2011-08-20T09:04:53Z</time>
      </trkpt>
      <trkpt lat="45.13779" lon="5.54821">
        <ele>1072.01</ele>
        <time>2011-08-20T09:04:55Z</time>
      </trkpt>
      <trkpt lat="45.13774" lon="5.5483">
        <ele>1072.49</ele>
        <time>2011-08-20T09:04:59Z</time>
      </trkpt>
      <trkpt lat="45.1376" lon="5.54846">
        <ele>1074.41</ele>
        <time>2011-08-20T09:05:10Z</time>
      </trkpt>
      <trkpt lat="45.13751" lon="5.54853">
        <ele>1075.37</ele>
        <time>2011-08-20T09:05:16Z</time>
      </trkpt>
      <trkpt lat="45.13747" lon="5.54855">
        <ele>1076.81</ele>
        <time>2011-08-20T09:05:18Z</time>
      </trkpt>
      <trkpt lat="45.13739" lon="5.54864">
        <ele>1077.78</ele>
        <time>2011-08-20T09:05:23Z</time>
      </trkpt>
      <trkpt lat="45.13729" lon="5.54875">
        <ele>1079.22</ele>
        <time>2011-08-20T09:05:29Z</time>
      </trkpt>
      <trkpt lat="45.1372" lon="5.54882">
        <ele>1080.66</ele>
        <time>2011-08-20T09:05:34Z</time>
      </trkpt>
      <trkpt lat="45.13707" lon="5.54882">
        <ele>1081.62</ele>
        <time>2011-08-20T09:05:41Z</time>
      </trkpt>
      <trkpt lat="45.13694" lon="5.5488">
        <ele>1082.58</ele>
        <time>2011-08-20T09:05:47Z</time>
      </trkpt>
      <trkpt lat="45.13673" lon="5.54876">
        <ele>1085.47</ele>
        <time>2011-08-20T09:05:59Z</time>
      </trkpt>
      <trkpt lat="45.13663" lon="5.54872">
        <ele>1084.02</ele>
        <time>2011-08-20T09:06:05Z</time>
      </trkpt>
      <trkpt lat="45.1366" lon="5.54873">
        <ele>1086.43</ele>
        <time>2011-08-20T09:06:07Z</time>
      </trkpt>
      <trkpt lat="45.13646" lon="5.54873">
        <ele>1087.87</ele>
        <time>2011-08-20T09:06:14Z</time>
      </trkpt>
      <trkpt lat="45.13641" lon="5.54871">
        <ele>1088.35</ele>
        <time>2011-08-20T09:06:17Z</time>
      </trkpt>
      <trkpt lat="45.13619" lon="5.54877">
        <ele>1089.79</ele>
        <time>2011-08-20T09:06:28Z</time>
      </trkpt>
      <trkpt lat="45.13597" lon="5.54879">
        <ele>1092.2</ele>
        <time>2011-08-20T09:06:38Z</time>
      </trkpt>
      <trkpt lat="45.13593" lon="5.54881">
        <ele>1093.16</ele>
        <time>2011-08-20T09:06:40Z</time>
      </trkpt>
      <trkpt lat="45.13578" lon="5.54883">
        <ele>1094.6</ele>
        <time>2011-08-20T09:06:48Z</time>
      </trkpt>
      <trkpt lat="45.1356" lon="5.54883">
        <ele>1096.52</ele>
        <time>2011-08-20T09:06:59Z</time>
      </trkpt>
      <trkpt lat="45.13545" lon="5.54886">
        <ele>1097.96</ele>
        <time>2011-08-20T09:07:09Z</time>
      </trkpt>
      <trkpt lat="45.13532" lon="5.5489">
        <ele>1099.4</ele>
        <time>2011-08-20T09:07:16Z</time>
      </trkpt>
      <trkpt lat="45.13525" lon="5.5489">
        <ele>1099.89</ele>
        <time>2011-08-20T09:07:20Z</time>
      </trkpt>
      <trkpt lat="45.1351" lon="5.54896">
        <ele>1101.81</ele>
        <time>2011-08-20T09:07:32Z</time>
      </trkpt>
      <trkpt lat="45.13504" lon="5.54901">
        <ele>1102.77</ele>
        <time>2011-08-20T09:07:36Z</time>
      </trkpt>
      <trkpt lat="45.13489" lon="5.54912">
        <ele>1103.73</ele>
        <time>2011-08-20T09:07:45Z</time>
      </trkpt>
      <trkpt lat="45.13485" lon="5.54912">
        <ele>1104.69</ele>
        <time>2011-08-20T09:07:48Z</time>
      </trkpt>
      <trkpt lat="45.13464" lon="5.54924">
        <ele>1106.61</ele>
        <time>2011-08-20T09:07:59Z</time>
      </trkpt>
      <trkpt lat="45.13456" lon="5.54941">
        <ele>1108.06</ele>
        <time>2011-08-20T09:08:09Z</time>
      </trkpt>
      <trkpt lat="45.13453" lon="5.54944">
        <ele>1108.54</ele>
        <time>2011-08-20T09:08:11Z</time>
      </trkpt>
      <trkpt lat="45.13442" lon="5.54954">
        <ele>1109.98</ele>
        <time>2011-08-20T09:08:19Z</time>
      </trkpt>
      <trkpt lat="45.13428" lon="5.54967">
        <ele>1110.46</ele>
        <time>2011-08-20T09:08:27Z</time>
      </trkpt>
      <trkpt lat="45.13421" lon="5.54975">
        <ele>1111.9</ele>
        <time>2011-08-20T09:08:32Z</time>
      </trkpt>
      <trkpt lat="45.13414" lon="5.54979">
        <ele>1112.86</ele>
        <time>2011-08-20T09:08:36Z</time>
      </trkpt>
      <trkpt lat="45.13405" lon="5.54988">
        <ele>1113.82</ele>
        <time>2011-08-20T09:08:42Z</time>
      </trkpt>
      <trkpt lat="45.13394" lon="5.54994">
        <ele>1115.27</ele>
        <time>2011-08-20T09:08:48Z</time>
      </trkpt>
      <trkpt lat="45.13378" lon="5.55006">
        <ele>1117.19</ele>
        <time>2011-08-20T09:08:58Z</time>
      </trkpt>
      <trkpt lat="45.13375" lon="5.55007">
        <ele>1116.71</ele>
        <time>2011-08-20T09:09:00Z</time>
      </trkpt>
      <trkpt lat="45.1336" lon="5.55014">
        <ele>1118.63</ele>
        <time>2011-08-20T09:09:08Z</time>
      </trkpt>
      <trkpt lat="45.13351" lon="5.55018">
        <ele>1119.59</ele>
        <time>2011-08-20T09:09:13Z</time>
      </trkpt>
      <trkpt lat="45.13348" lon="5.55019">
        <ele>1120.07</ele>
        <time>2011-08-20T09:09:15Z</time>
      </trkpt>
      <trkpt lat="45.13322" lon="5.55028">
        <ele>1122.48</ele>
        <time>2011-08-20T09:09:29Z</time>
      </trkpt>
      <trkpt lat="45.13314" lon="5.55029">
        <ele>1122.96</ele>
        <time>2011-08-20T09:09:34Z</time>
      </trkpt>
      <trkpt lat="45.13296" lon="5.55034">
        <ele>1124.88</ele>
        <time>2011-08-20T09:09:45Z</time>
      </trkpt>
      <trkpt lat="45.13294" lon="5.55035">
        <ele>1124.88</ele>
        <time>2011-08-20T09:09:46Z</time>
      </trkpt>
      <trkpt lat="45.13282" lon="5.55037">
        <ele>1126.32</ele>
        <time>2011-08-20T09:09:52Z</time>
      </trkpt>
      <trkpt lat="45.13276" lon="5.55037">
        <ele>1126.8</ele>
        <time>2011-08-20T09:09:56Z</time>
      </trkpt>
      <trkpt lat="45.13258" lon="5.55044">
        <ele>1128.73</ele>
        <time>2011-08-20T09:10:05Z</time>
      </trkpt>
      <trkpt lat="45.13239" lon="5.55049">
        <ele>1130.65</ele>
        <time>2011-08-20T09:10:16Z</time>
      </trkpt>
      <trkpt lat="45.13229" lon="5.55046">
        <ele>1132.09</ele>
        <time>2011-08-20T09:10:22Z</time>
      </trkpt>
      <trkpt lat="45.13215" lon="5.55041">
        <ele>1134.01</ele>
        <time>2011-08-20T09:10:34Z</time>
      </trkpt>
      <trkpt lat="45.1321" lon="5.55036">
        <ele>1134.01</ele>
        <time>2011-08-20T09:10:37Z</time>
      </trkpt>
      <trkpt lat="45.13194" lon="5.55012">
        <ele>1136.42</ele>
        <time>2011-08-20T09:10:46Z</time>
      </trkpt>
      <trkpt lat="45.13192" lon="5.55009">
        <ele>1136.42</ele>
        <time>2011-08-20T09:10:47Z</time>
      </trkpt>
      <trkpt lat="45.13179" lon="5.54999">
        <ele>1137.86</ele>
        <time>2011-08-20T09:10:54Z</time>
      </trkpt>
      <trkpt lat="45.13169" lon="5.5499">
        <ele>1138.82</ele>
        <time>2011-08-20T09:10:58Z</time>
      </trkpt>
      <trkpt lat="45.13163" lon="5.54985">
        <ele>1139.3</ele>
        <time>2011-08-20T09:11:01Z</time>
      </trkpt>
      <trkpt lat="45.13145" lon="5.54975">
        <ele>1141.22</ele>
        <time>2011-08-20T09:11:11Z</time>
      </trkpt>
      <trkpt lat="45.1312" lon="5.54956">
        <ele>1144.11</ele>
        <time>2011-08-20T09:11:24Z</time>
      </trkpt>
      <trkpt lat="45.13118" lon="5.54957">
        <ele>1144.59</ele>
        <time>2011-08-20T09:11:25Z</time>
      </trkpt>
      <trkpt lat="45.131" lon="5.5496">
        <ele>1146.03</ele>
        <time>2011-08-20T09:11:34Z</time>
      </trkpt>
      <trkpt lat="45.13088" lon="5.54963">
        <ele>1147.47</ele>
        <time>2011-08-20T09:11:40Z</time>
      </trkpt>
      <trkpt lat="45.13085" lon="5.54965">
        <ele>1148.43</ele>
        <time>2011-08-20T09:11:42Z</time>
      </trkpt>
      <trkpt lat="45.1308" lon="5.54969">
        <ele>1147.95</ele>
        <time>2011-08-20T09:11:45Z</time>
      </trkpt>
      <trkpt lat="45.13077" lon="5.54976">
        <ele>1149.39</ele>
        <time>2011-08-20T09:11:49Z</time>
      </trkpt>
      <trkpt lat="45.13073" lon="5.54987">
        <ele>1149.87</ele>
        <time>2011-08-20T09:11:53Z</time>
      </trkpt>
      <trkpt lat="45.1307" lon="5.54996">
        <ele>1150.84</ele>
        <time>2011-08-20T09:11:57Z</time>
      </trkpt>
      <trkpt lat="45.1306" lon="5.55013">
        <ele>1152.76</ele>
        <time>2011-08-20T09:12:06Z</time>
      </trkpt>
      <trkpt lat="45.13043" lon="5.55019">
        <ele>1154.68</ele>
        <time>2011-08-20T09:12:16Z</time>
      </trkpt>
      <trkpt lat="45.13024" lon="5.55017">
        <ele>1157.56</ele>
        <time>2011-08-20T09:12:28Z</time>
      </trkpt>
      <trkpt lat="45.13009" lon="5.55007">
        <ele>1159.01</ele>
        <time>2011-08-20T09:12:39Z</time>
      </trkpt>
      <trkpt lat="45.13004" lon="5.55005">
        <ele>1159.97</ele>
        <time>2011-08-20T09:12:42Z</time>
      </trkpt>
      <trkpt lat="45.12985" lon="5.54991">
        <ele>1162.85</ele>
        <time>2011-08-20T09:12:56Z</time>
      </trkpt>
      <trkpt lat="45.12967" lon="5.54979">
        <ele>1165.26</ele>
        <time>2011-08-20T09:13:08Z</time>
      </trkpt>
      <trkpt lat="45.12961" lon="5.54975">
        <ele>1165.74</ele>
        <time>2011-08-20T09:13:11Z</time>
      </trkpt>
      <trkpt lat="45.12946" lon="5.54969">
        <ele>1167.66</ele>
        <time>2011-08-20T09:13:21Z</time>
      </trkpt>
      <trkpt lat="45.12931" lon="5.54962">
        <ele>1170.06</ele>
        <time>2011-08-20T09:13:31Z</time>
      </trkpt>
      <trkpt lat="45.1292" lon="5.54957">
        <ele>1171.5</ele>
        <time>2011-08-20T09:13:38Z</time>
      </trkpt>
      <trkpt lat="45.12905" lon="5.54949">
        <ele>1173.91</ele>
        <time>2011-08-20T09:13:47Z</time>
      </trkpt>
      <trkpt lat="45.12893" lon="5.54942">
        <ele>1175.35</ele>
        <time>2011-08-20T09:13:54Z</time>
      </trkpt>
      <trkpt lat="45.12875" lon="5.54939">
        <ele>1177.27</ele>
        <time>2011-08-20T09:14:05Z</time>
      </trkpt>
      <trkpt lat="45.12872" lon="5.54937">
        <ele>1177.75</ele>
        <time>2011-08-20T09:14:07Z</time>
      </trkpt>
      <trkpt lat="45.12866" lon="5.54937">
        <ele>1178.23</ele>
        <time>2011-08-20T09:14:11Z</time>
      </trkpt>
      <trkpt lat="45.12851" lon="5.54941">
        <ele>1181.12</ele>
        <time>2011-08-20T09:14:22Z</time>
      </trkpt>
      <trkpt lat="45.12846" lon="5.54943">
        <ele>1182.08</ele>
        <time>2011-08-20T09:14:26Z</time>
      </trkpt>
      <trkpt lat="45.12828" lon="5.54949">
        <ele>1184.96</ele>
        <time>2011-08-20T09:14:37Z</time>
      </trkpt>
      <trkpt lat="45.12821" lon="5.54949">
        <ele>1186.4</ele>
        <time>2011-08-20T09:14:42Z</time>
      </trkpt>
      <trkpt lat="45.12816" lon="5.54951">
        <ele>1186.88</ele>
        <time>2011-08-20T09:14:46Z</time>
      </trkpt>
      <trkpt lat="45.12809" lon="5.54953">
        <ele>1187.85</ele>
        <time>2011-08-20T09:14:51Z</time>
      </trkpt>
      <trkpt lat="45.12802" lon="5.54954">
        <ele>1188.81</ele>
        <time>2011-08-20T09:14:56Z</time>
      </trkpt>
      <trkpt lat="45.12798" lon="5.54958">
        <ele>1189.77</ele>
        <time>2011-08-20T09:15:00Z</time>
      </trkpt>
      <trkpt lat="45.12791" lon="5.54965">
        <ele>1190.73</ele>
        <time>2011-08-20T09:15:05Z</time>
      </trkpt>
      <trkpt lat="45.1278" lon="5.54975">
        <ele>1193.13</ele>
        <time>2011-08-20T09:15:14Z</time>
      </trkpt>
      <trkpt lat="45.12778" lon="5.54978">
        <ele>1194.09</ele>
        <time>2011-08-20T09:15:16Z</time>
      </trkpt>
      <trkpt lat="45.12778" lon="5.54983">
        <ele>1194.09</ele>
        <time>2011-08-20T09:15:19Z</time>
      </trkpt>
      <trkpt lat="45.12773" lon="5.54991">
        <ele>1196.02</ele>
        <time>2011-08-20T09:15:25Z</time>
      </trkpt>
      <trkpt lat="45.12761" lon="5.55005">
        <ele>1196.98</ele>
        <time>2011-08-20T09:15:34Z</time>
      </trkpt>
      <trkpt lat="45.12752" lon="5.54998">
        <ele>1197.94</ele>
        <time>2011-08-20T09:15:40Z</time>
      </trkpt>
      <trkpt lat="45.12739" lon="5.54977">
        <ele>1201.3</ele>
        <time>2011-08-20T09:15:53Z</time>
      </trkpt>
      <trkpt lat="45.12736" lon="5.54971">
        <ele>1202.27</ele>
        <time>2011-08-20T09:15:57Z</time>
      </trkpt>
      <trkpt lat="45.12735" lon="5.54967">
        <ele>1202.75</ele>
        <time>2011-08-20T09:15:59Z</time>
      </trkpt>
      <trkpt lat="45.12713" lon="5.54969">
        <ele>1204.67</ele>
        <time>2011-08-20T09:16:11Z</time>
      </trkpt>
      <trkpt lat="45.12687" lon="5.54974">
        <ele>1207.07</ele>
        <time>2011-08-20T09:16:25Z</time>
      </trkpt>
      <trkpt lat="45.12681" lon="5.54975">
        <ele>1208.03</ele>
        <time>2011-08-20T09:16:29Z</time>
      </trkpt>
      <trkpt lat="45.12652" lon="5.54983">
        <ele>1210.92</ele>
        <time>2011-08-20T09:16:44Z</time>
      </trkpt>
      <trkpt lat="45.12643" lon="5.54987">
        <ele>1211.4</ele>
        <time>2011-08-20T09:16:49Z</time>
      </trkpt>
      <trkpt lat="45.12622" lon="5.54988">
        <ele>1214.76</ele>
        <time>2011-08-20T09:17:01Z</time>
      </trkpt>
      <trkpt lat="45.12619" lon="5.54988">
        <ele>1214.76</ele>
        <time>2011-08-20T09:17:03Z</time>
      </trkpt>
      <trkpt lat="45.12602" lon="5.54989">
        <ele>1218.13</ele>
        <time>2011-08-20T09:17:15Z</time>
      </trkpt>
      <trkpt lat="45.12582" lon="5.55012">
        <ele>1220.05</ele>
        <time>2011-08-20T09:17:26Z</time>
      </trkpt>
      <trkpt lat="45.12574" lon="5.55026">
        <ele>1221.01</ele>
        <time>2011-08-20T09:17:32Z</time>
      </trkpt>
      <trkpt lat="45.12562" lon="5.5504">
        <ele>1221.97</ele>
        <time>2011-08-20T09:17:43Z</time>
      </trkpt>
      <trkpt lat="45.12557" lon="5.55046">
        <ele>1223.42</ele>
        <time>2011-08-20T09:17:48Z</time>
      </trkpt>
      <trkpt lat="45.12549" lon="5.55056">
        <ele>1224.86</ele>
        <time>2011-08-20T09:17:57Z</time>
      </trkpt>
      <trkpt lat="45.12537" lon="5.5507">
        <ele>1226.3</ele>
        <time>2011-08-20T09:18:07Z</time>
      </trkpt>
      <trkpt lat="45.12524" lon="5.55086">
        <ele>1228.22</ele>
        <time>2011-08-20T09:18:19Z</time>
      </trkpt>
      <trkpt lat="45.12519" lon="5.55095">
        <ele>1228.7</ele>
        <time>2011-08-20T09:18:26Z</time>
      </trkpt>
      <trkpt lat="45.12505" lon="5.55118">
        <ele>1230.14</ele>
        <time>2011-08-20T09:18:38Z</time>
      </trkpt>
      <trkpt lat="45.12492" lon="5.55148">
        <ele>1231.59</ele>
        <time>2011-08-20T09:18:51Z</time>
      </trkpt>
      <trkpt lat="45.12479" lon="5.55171">
        <ele>1232.55</ele>
        <time>2011-08-20T09:19:03Z</time>
      </trkpt>
      <trkpt lat="45.12478" lon="5.55173">
        <ele>1232.55</ele>
        <time>2011-08-20T09:19:11Z</time>
      </trkpt>
      <trkpt lat="45.12478" lon="5.55181">
        <ele>1232.07</ele>
        <time>2011-08-20T09:19:15Z</time>
      </trkpt>
      <trkpt lat="45.12476" lon="5.55189">
        <ele>1232.55</ele>
        <time>2011-08-20T09:19:29Z</time>
      </trkpt>
      <trkpt lat="45.12477" lon="5.55189">
        <ele>1233.51</ele>
        <time>2011-08-20T09:20:03Z</time>
      </trkpt>
      <trkpt lat="45.12477" lon="5.55189">
        <ele>1232.55</ele>
        <time>2011-08-20T09:20:33Z</time>
      </trkpt>
      <trkpt lat="45.12477" lon="5.5519">
        <ele>1233.03</ele>
        <time>2011-08-20T09:21:10Z</time>
      </trkpt>
      <trkpt lat="45.12477" lon="5.5519">
        <ele>1233.51</ele>
        <time>2011-08-20T09:21:38Z</time>
      </trkpt>
      <trkpt lat="45.12477" lon="5.5519">
        <ele>1233.51</ele>
        <time>2011-08-20T09:22:09Z</time>
      </trkpt>
      <trkpt lat="45.12477" lon="5.55191">
        <ele>1233.99</ele>
        <time>2011-08-20T09:22:41Z</time>
      </trkpt>
      <trkpt lat="45.12477" lon="5.55191">
        <ele>1233.51</ele>
        <time>2011-08-20T09:23:07Z</time>
      </trkpt>
      <trkpt lat="45.12477" lon="5.55192">
        <ele>1233.51</ele>
        <time>2011-08-20T09:23:40Z</time>
      </trkpt>
      <trkpt lat="45.12478" lon="5.55193">
        <ele>1233.99</ele>
        <time>2011-08-20T09:24:08Z</time>
      </trkpt>
      <trkpt lat="45.12478" lon="5.55192">
        <ele>1233.99</ele>
        <time>2011-08-20T09:24:40Z</time>
      </trkpt>
      <trkpt lat="45.12478" lon="5.55192">
        <ele>1233.51</ele>
        <time>2011-08-20T09:25:10Z</time>
      </trkpt>
      <trkpt lat="45.12478" lon="5.55192">
        <ele>1233.51</ele>
        <time>2011-08-20T09:25:14Z</time>
      </trkpt>
      <trkpt lat="45.1248" lon="5.55198">
        <ele>1233.51</ele>
        <time>2011-08-20T09:25:17Z</time>
      </trkpt>
      <trkpt lat="45.12476" lon="5.55218">
        <ele>1232.07</ele>
        <time>2011-08-20T09:25:25Z</time>
      </trkpt>
      <trkpt lat="45.12474" lon="5.55222">
        <ele>1232.07</ele>
        <time>2011-08-20T09:25:26Z</time>
      </trkpt>
      <trkpt lat="45.12471" lon="5.55228">
        <ele>1230.14</ele>
        <time>2011-08-20T09:25:27Z</time>
      </trkpt>
      <trkpt lat="45.12468" lon="5.55237">
        <ele>1229.66</ele>
        <time>2011-08-20T09:25:28Z</time>
      </trkpt>
      <trkpt lat="45.12464" lon="5.55246">
        <ele>1228.7</ele>
        <time>2011-08-20T09:25:29Z</time>
      </trkpt>
      <trkpt lat="45.12458" lon="5.55255">
        <ele>1227.26</ele>
        <time>2011-08-20T09:25:30Z</time>
      </trkpt>
      <trkpt lat="45.12452" lon="5.55263">
        <ele>1225.82</ele>
        <time>2011-08-20T09:25:31Z</time>
      </trkpt>
      <trkpt lat="45.12445" lon="5.55272">
        <ele>1224.86</ele>
        <time>2011-08-20T09:25:32Z</time>
      </trkpt>
      <trkpt lat="45.12438" lon="5.5528">
        <ele>1222.93</ele>
        <time>2011-08-20T09:25:33Z</time>
      </trkpt>
      <trkpt lat="45.12432" lon="5.55287">
        <ele>1222.45</ele>
        <time>2011-08-20T09:25:34Z</time>
      </trkpt>
      <trkpt lat="45.12426" lon="5.55294">
        <ele>1221.01</ele>
        <time>2011-08-20T09:25:35Z</time>
      </trkpt>
      <trkpt lat="45.1242" lon="5.553">
        <ele>1219.57</ele>
        <time>2011-08-20T09:25:36Z</time>
      </trkpt>
      <trkpt lat="45.12414" lon="5.55306">
        <ele>1219.09</ele>
        <time>2011-08-20T09:25:37Z</time>
      </trkpt>
      <trkpt lat="45.12381" lon="5.55346">
        <ele>1214.76</ele>
        <time>2011-08-20T09:25:42Z</time>
      </trkpt>
      <trkpt lat="45.12362" lon="5.55377">
        <ele>1210.92</ele>
        <time>2011-08-20T09:25:45Z</time>
      </trkpt>
      <trkpt lat="45.12347" lon="5.55407">
        <ele>1209</ele>
        <time>2011-08-20T09:25:48Z</time>
      </trkpt>
      <trkpt lat="45.12344" lon="5.55417">
        <ele>1208.03</ele>
        <time>2011-08-20T09:25:49Z</time>
      </trkpt>
      <trkpt lat="45.12335" lon="5.55448">
        <ele>1206.11</ele>
        <time>2011-08-20T09:25:52Z</time>
      </trkpt>
      <trkpt lat="45.12333" lon="5.55459">
        <ele>1205.15</ele>
        <time>2011-08-20T09:25:53Z</time>
      </trkpt>
      <trkpt lat="45.1233" lon="5.55471">
        <ele>1204.19</ele>
        <time>2011-08-20T09:25:54Z</time>
      </trkpt>
      <trkpt lat="45.12324" lon="5.55489">
        <ele>1202.75</ele>
        <time>2011-08-20T09:25:56Z</time>
      </trkpt>
      <trkpt lat="45.12306" lon="5.5553">
        <ele>1199.86</ele>
        <time>2011-08-20T09:26:01Z</time>
      </trkpt>
      <trkpt lat="45.12301" lon="5.55536">
        <ele>1199.38</ele>
        <time>2011-08-20T09:26:02Z</time>
      </trkpt>
      <trkpt lat="45.12291" lon="5.55547">
        <ele>1197.94</ele>
        <time>2011-08-20T09:26:04Z</time>
      </trkpt>
      <trkpt lat="45.12286" lon="5.55552">
        <ele>1197.94</ele>
        <time>2011-08-20T09:26:05Z</time>
      </trkpt>
      <trkpt lat="45.12277" lon="5.55563">
        <ele>1192.65</ele>
        <time>2011-08-20T09:26:07Z</time>
      </trkpt>
      <trkpt lat="45.12273" lon="5.55568">
        <ele>1196.5</ele>
        <time>2011-08-20T09:26:08Z</time>
      </trkpt>
      <trkpt lat="45.1227" lon="5.55573">
        <ele>1196.5</ele>
        <time>2011-08-20T09:26:09Z</time>
      </trkpt>
      <trkpt lat="45.12238" lon="5.55599">
        <ele>1194.09</ele>
        <time>2011-08-20T09:26:19Z</time>
      </trkpt>
      <trkpt lat="45.12203" lon="5.5562">
        <ele>1193.13</ele>
        <time>2011-08-20T09:26:29Z</time>
      </trkpt>
      <trkpt lat="45.1219" lon="5.55632">
        <ele>1193.13</ele>
        <time>2011-08-20T09:26:32Z</time>
      </trkpt>
      <trkpt lat="45.12185" lon="5.55636">
        <ele>1193.61</ele>
        <time>2011-08-20T09:26:33Z</time>
      </trkpt>
      <trkpt lat="45.12182" lon="5.55641">
        <ele>1194.09</ele>
        <time>2011-08-20T09:26:34Z</time>
      </trkpt>
      <trkpt lat="45.12158" lon="5.55673">
        <ele>1196.5</ele>
        <time>2011-08-20T09:26:42Z</time>
      </trkpt>
      <trkpt lat="45.12148" lon="5.55685">
        <ele>1196.98</ele>
        <time>2011-08-20T09:26:48Z</time>
      </trkpt>
      <trkpt lat="45.1214" lon="5.55693">
        <ele>1197.94</ele>
        <time>2011-08-20T09:26:52Z</time>
      </trkpt>
      <trkpt lat="45.12136" lon="5.55696">
        <ele>1197.46</ele>
        <time>2011-08-20T09:26:53Z</time>
      </trkpt>
      <trkpt lat="45.12132" lon="5.557">
        <ele>1196.98</ele>
        <time>2011-08-20T09:26:54Z</time>
      </trkpt>
      <trkpt lat="45.12128" lon="5.55704">
        <ele>1196.98</ele>
        <time>2011-08-20T09:26:55Z</time>
      </trkpt>
      <trkpt lat="45.12124" lon="5.55707">
        <ele>1196.98</ele>
        <time>2011-08-20T09:26:56Z</time>
      </trkpt>
      <trkpt lat="45.12121" lon="5.55709">
        <ele>1196.98</ele>
        <time>2011-08-20T09:26:57Z</time>
      </trkpt>
      <trkpt lat="45.12119" lon="5.55712">
        <ele>1196.98</ele>
        <time>2011-08-20T09:26:58Z</time>
      </trkpt>
      <trkpt lat="45.12117" lon="5.55716">
        <ele>1196.98</ele>
        <time>2011-08-20T09:26:59Z</time>
      </trkpt>
      <trkpt lat="45.12115" lon="5.55719">
        <ele>1197.46</ele>
        <time>2011-08-20T09:27:00Z</time>
      </trkpt>
      <trkpt lat="45.12114" lon="5.55721">
        <ele>1197.46</ele>
        <time>2011-08-20T09:27:01Z</time>
      </trkpt>
      <trkpt lat="45.12112" lon="5.55726">
        <ele>1197.94</ele>
        <time>2011-08-20T09:27:02Z</time>
      </trkpt>
      <trkpt lat="45.12111" lon="5.5573">
        <ele>1197.94</ele>
        <time>2011-08-20T09:27:03Z</time>
      </trkpt>
      <trkpt lat="45.12104" lon="5.55749">
        <ele>1200.34</ele>
        <time>2011-08-20T09:27:10Z</time>
      </trkpt>
      <trkpt lat="45.12101" lon="5.55753">
        <ele>1198.9</ele>
        <time>2011-08-20T09:27:11Z</time>
      </trkpt>
      <trkpt lat="45.12099" lon="5.55756">
        <ele>1198.9</ele>
        <time>2011-08-20T09:27:12Z</time>
      </trkpt>
      <trkpt lat="45.12096" lon="5.55759">
        <ele>1199.38</ele>
        <time>2011-08-20T09:27:13Z</time>
      </trkpt>
      <trkpt lat="45.12093" lon="5.55763">
        <ele>1196.5</ele>
        <time>2011-08-20T09:27:14Z</time>
      </trkpt>
      <trkpt lat="45.1209" lon="5.55767">
        <ele>1199.86</ele>
        <time>2011-08-20T09:27:15Z</time>
      </trkpt>
      <trkpt lat="45.12062" lon="5.55793">
        <ele>1198.42</ele>
        <time>2011-08-20T09:27:25Z</time>
      </trkpt>
      <trkpt lat="45.1206" lon="5.55803">
        <ele>1197.94</ele>
        <time>2011-08-20T09:27:36Z</time>
      </trkpt>
      <trkpt lat="45.12061" lon="5.55806">
        <ele>1198.42</ele>
        <time>2011-08-20T09:27:37Z</time>
      </trkpt>
      <trkpt lat="45.12061" lon="5.5581">
        <ele>1198.9</ele>
        <time>2011-08-20T09:27:38Z</time>
      </trkpt>
      <trkpt lat="45.1206" lon="5.55814">
        <ele>1197.94</ele>
        <time>2011-08-20T09:27:39Z</time>
      </trkpt>
      <trkpt lat="45.12059" lon="5.55817">
        <ele>1197.94</ele>
        <time>2011-08-20T09:27:40Z</time>
      </trkpt>
      <trkpt lat="45.12058" lon="5.55819">
        <ele>1197.94</ele>
        <time>2011-08-20T09:27:41Z</time>
      </trkpt>
      <trkpt lat="45.12053" lon="5.55838">
        <ele>1196.98</ele>
        <time>2011-08-20T09:27:49Z</time>
      </trkpt>
      <trkpt lat="45.12051" lon="5.55843">
        <ele>1196.02</ele>
        <time>2011-08-20T09:27:50Z</time>
      </trkpt>
      <trkpt lat="45.12049" lon="5.55847">
        <ele>1196.98</ele>
        <time>2011-08-20T09:27:51Z</time>
      </trkpt>
      <trkpt lat="45.12047" lon="5.55849">
        <ele>1197.46</ele>
        <time>2011-08-20T09:27:52Z</time>
      </trkpt>
      <trkpt lat="45.12045" lon="5.55852">
        <ele>1196.98</ele>
        <time>2011-08-20T09:27:53Z</time>
      </trkpt>
      <trkpt lat="45.12044" lon="5.55855">
        <ele>1196.5</ele>
        <time>2011-08-20T09:27:54Z</time>
      </trkpt>
      <trkpt lat="45.1204" lon="5.55858">
        <ele>1196.98</ele>
        <time>2011-08-20T09:27:57Z</time>
      </trkpt>
      <trkpt lat="45.12038" lon="5.5586">
        <ele>1196.5</ele>
        <time>2011-08-20T09:27:59Z</time>
      </trkpt>
      <trkpt lat="45.12036" lon="5.5586">
        <ele>1196.5</ele>
        <time>2011-08-20T09:28:00Z</time>
      </trkpt>
      <trkpt lat="45.12034" lon="5.5586">
        <ele>1196.98</ele>
        <time>2011-08-20T09:28:10Z</time>
      </trkpt>
      <trkpt lat="45.12035" lon="5.5586">
        <ele>1196.5</ele>
        <time>2011-08-20T09:28:14Z</time>
      </trkpt>
      <trkpt lat="45.12036" lon="5.5586">
        <ele>1196.5</ele>
        <time>2011-08-20T09:28:15Z</time>
      </trkpt>
      <trkpt lat="45.12042" lon="5.5586">
        <ele>1196.98</ele>
        <time>2011-08-20T09:28:21Z</time>
      </trkpt>
      <trkpt lat="45.12045" lon="5.55863">
        <ele>1196.5</ele>
        <time>2011-08-20T09:28:25Z</time>
      </trkpt>
      <trkpt lat="45.12045" lon="5.55865">
        <ele>1196.02</ele>
        <time>2011-08-20T09:28:26Z</time>
      </trkpt>
      <trkpt lat="45.12045" lon="5.55868">
        <ele>1196.5</ele>
        <time>2011-08-20T09:28:28Z</time>
      </trkpt>
      <trkpt lat="45.12032" lon="5.55899">
        <ele>1194.58</ele>
        <time>2011-08-20T09:28:36Z</time>
      </trkpt>
      <trkpt lat="45.12016" lon="5.5592">
        <ele>1193.13</ele>
        <time>2011-08-20T09:28:40Z</time>
      </trkpt>
      <trkpt lat="45.12011" lon="5.55924">
        <ele>1192.17</ele>
        <time>2011-08-20T09:28:41Z</time>
      </trkpt>
      <trkpt lat="45.12006" lon="5.55929">
        <ele>1191.69</ele>
        <time>2011-08-20T09:28:42Z</time>
      </trkpt>
      <trkpt lat="45.12001" lon="5.55934">
        <ele>1191.69</ele>
        <time>2011-08-20T09:28:43Z</time>
      </trkpt>
      <trkpt lat="45.11997" lon="5.55938">
        <ele>1191.69</ele>
        <time>2011-08-20T09:28:44Z</time>
      </trkpt>
      <trkpt lat="45.11966" lon="5.55965">
        <ele>1189.77</ele>
        <time>2011-08-20T09:28:50Z</time>
      </trkpt>
      <trkpt lat="45.1196" lon="5.55968">
        <ele>1188.81</ele>
        <time>2011-08-20T09:28:51Z</time>
      </trkpt>
      <trkpt lat="45.11947" lon="5.55975">
        <ele>1187.37</ele>
        <time>2011-08-20T09:28:53Z</time>
      </trkpt>
      <trkpt lat="45.11941" lon="5.5598">
        <ele>1187.37</ele>
        <time>2011-08-20T09:28:54Z</time>
      </trkpt>
      <trkpt lat="45.11935" lon="5.55986">
        <ele>1186.4</ele>
        <time>2011-08-20T09:28:55Z</time>
      </trkpt>
      <trkpt lat="45.11929" lon="5.55991">
        <ele>1185.92</ele>
        <time>2011-08-20T09:28:56Z</time>
      </trkpt>
      <trkpt lat="45.11922" lon="5.55995">
        <ele>1184.96</ele>
        <time>2011-08-20T09:28:57Z</time>
      </trkpt>
      <trkpt lat="45.11914" lon="5.55998">
        <ele>1184.48</ele>
        <time>2011-08-20T09:28:58Z</time>
      </trkpt>
      <trkpt lat="45.11907" lon="5.56002">
        <ele>1183.52</ele>
        <time>2011-08-20T09:28:59Z</time>
      </trkpt>
      <trkpt lat="45.11894" lon="5.5601">
        <ele>1182.08</ele>
        <time>2011-08-20T09:29:01Z</time>
      </trkpt>
      <trkpt lat="45.11887" lon="5.56012">
        <ele>1181.12</ele>
        <time>2011-08-20T09:29:02Z</time>
      </trkpt>
      <trkpt lat="45.11869" lon="5.56019">
        <ele>1179.19</ele>
        <time>2011-08-20T09:29:05Z</time>
      </trkpt>
      <trkpt lat="45.11857" lon="5.56024">
        <ele>1177.27</ele>
        <time>2011-08-20T09:29:07Z</time>
      </trkpt>
      <trkpt lat="45.11852" lon="5.56025">
        <ele>1176.79</ele>
        <time>2011-08-20T09:29:08Z</time>
      </trkpt>
      <trkpt lat="45.11845" lon="5.56026">
        <ele>1175.83</ele>
        <time>2011-08-20T09:29:10Z</time>
      </trkpt>
      <trkpt lat="45.1184" lon="5.56028">
        <ele>1174.87</ele>
        <time>2011-08-20T09:29:22Z</time>
      </trkpt>
      <trkpt lat="45.1184" lon="5.56028">
        <ele>1174.39</ele>
        <time>2011-08-20T09:29:25Z</time>
      </trkpt>
      <trkpt lat="45.1184" lon="5.56029">
        <ele>1174.87</ele>
        <time>2011-08-20T09:29:26Z</time>
      </trkpt>
      <trkpt lat="45.11841" lon="5.5603">
        <ele>1174.39</ele>
        <time>2011-08-20T09:29:28Z</time>
      </trkpt>
      <trkpt lat="45.11844" lon="5.56028">
        <ele>1174.87</ele>
        <time>2011-08-20T09:29:35Z</time>
      </trkpt>
      <trkpt lat="45.11845" lon="5.56031">
        <ele>1174.87</ele>
        <time>2011-08-20T09:29:51Z</time>
      </trkpt>
      <trkpt lat="45.11845" lon="5.56035">
        <ele>1174.87</ele>
        <time>2011-08-20T09:29:53Z</time>
      </trkpt>
      <trkpt lat="45.11852" lon="5.56047">
        <ele>1175.35</ele>
        <time>2011-08-20T09:29:59Z</time>
      </trkpt>
      <trkpt lat="45.11857" lon="5.56064">
        <ele>1174.87</ele>
        <time>2011-08-20T09:30:11Z</time>
      </trkpt>
      <trkpt lat="45.11856" lon="5.56063">
        <ele>1174.87</ele>
        <time>2011-08-20T09:30:26Z</time>
      </trkpt>
      <trkpt lat="45.11846" lon="5.56036">
        <ele>1174.39</ele>
        <time>2011-08-20T09:30:38Z</time>
      </trkpt>
      <trkpt lat="45.11852" lon="5.56026">
        <ele>1176.31</ele>
        <time>2011-08-20T09:30:47Z</time>
      </trkpt>
      <trkpt lat="45.11857" lon="5.56026">
        <ele>1176.79</ele>
        <time>2011-08-20T09:30:51Z</time>
      </trkpt>
      <trkpt lat="45.11868" lon="5.56021">
        <ele>1177.75</ele>
        <time>2011-08-20T09:31:00Z</time>
      </trkpt>
      <trkpt lat="45.1188" lon="5.56016">
        <ele>1179.67</ele>
        <time>2011-08-20T09:31:13Z</time>
      </trkpt>
      <trkpt lat="45.11879" lon="5.56017">
        <ele>1179.19</ele>
        <time>2011-08-20T09:31:23Z</time>
      </trkpt>
      <trkpt lat="45.11869" lon="5.56019">
        <ele>1177.75</ele>
        <time>2011-08-20T09:31:32Z</time>
      </trkpt>
      <trkpt lat="45.11865" lon="5.5602">
        <ele>1176.79</ele>
        <time>2011-08-20T09:31:49Z</time>
      </trkpt>
      <trkpt lat="45.11865" lon="5.5602">
        <ele>1176.79</ele>
        <time>2011-08-20T09:32:25Z</time>
      </trkpt>
      <trkpt lat="45.11865" lon="5.5602">
        <ele>1177.27</ele>
        <time>2011-08-20T09:33:03Z</time>
      </trkpt>
      <trkpt lat="45.11863" lon="5.56022">
        <ele>1177.27</ele>
        <time>2011-08-20T09:33:33Z</time>
      </trkpt>
      <trkpt lat="45.11847" lon="5.56028">
        <ele>1175.83</ele>
        <time>2011-08-20T09:33:40Z</time>
      </trkpt>
      <trkpt lat="45.11847" lon="5.56038">
        <ele>1175.35</ele>
        <time>2011-08-20T09:33:44Z</time>
      </trkpt>
      <trkpt lat="45.11859" lon="5.56074">
        <ele>1173.91</ele>
        <time>2011-08-20T09:33:57Z</time>
      </trkpt>
      <trkpt lat="45.1186" lon="5.56082">
        <ele>1173.43</ele>
        <time>2011-08-20T09:33:59Z</time>
      </trkpt>
      <trkpt lat="45.11873" lon="5.56098">
        <ele>1170.06</ele>
        <time>2011-08-20T09:34:07Z</time>
      </trkpt>
      <trkpt lat="45.11875" lon="5.56101">
        <ele>1169.1</ele>
        <time>2011-08-20T09:34:19Z</time>
      </trkpt>
      <trkpt lat="45.11875" lon="5.56101">
        <ele>1169.1</ele>
        <time>2011-08-20T09:34:21Z</time>
      </trkpt>
      <trkpt lat="45.11876" lon="5.56096">
        <ele>1170.06</ele>
        <time>2011-08-20T09:34:29Z</time>
      </trkpt>
      <trkpt lat="45.11874" lon="5.56097">
        <ele>1170.06</ele>
        <time>2011-08-20T09:34:32Z</time>
      </trkpt>
      <trkpt lat="45.11863" lon="5.56097">
        <ele>1171.5</ele>
        <time>2011-08-20T09:34:46Z</time>
      </trkpt>
      <trkpt lat="45.11861" lon="5.56091">
        <ele>1171.98</ele>
        <time>2011-08-20T09:34:57Z</time>
      </trkpt>
      <trkpt lat="45.11861" lon="5.56088">
        <ele>1172.47</ele>
        <time>2011-08-20T09:35:00Z</time>
      </trkpt>
      <trkpt lat="45.11861" lon="5.56085">
        <ele>1172.47</ele>
        <time>2011-08-20T09:35:02Z</time>
      </trkpt>
      <trkpt lat="45.1186" lon="5.56083">
        <ele>1172.47</ele>
        <time>2011-08-20T09:35:04Z</time>
      </trkpt>
      <trkpt lat="45.11858" lon="5.56071">
        <ele>1173.43</ele>
        <time>2011-08-20T09:35:14Z</time>
      </trkpt>
      <trkpt lat="45.11853" lon="5.56055">
        <ele>1174.87</ele>
        <time>2011-08-20T09:35:27Z</time>
      </trkpt>
      <trkpt lat="45.11853" lon="5.56055">
        <ele>1174.87</ele>
        <time>2011-08-20T09:35:28Z</time>
      </trkpt>
      <trkpt lat="45.11853" lon="5.56058">
        <ele>1174.87</ele>
        <time>2011-08-20T09:35:30Z</time>
      </trkpt>
      <trkpt lat="45.11853" lon="5.56061">
        <ele>1174.39</ele>
        <time>2011-08-20T09:35:39Z</time>
      </trkpt>
      <trkpt lat="45.11853" lon="5.56061">
        <ele>1173.91</ele>
        <time>2011-08-20T09:35:54Z</time>
      </trkpt>
      <trkpt lat="45.11853" lon="5.56061">
        <ele>1173.91</ele>
        <time>2011-08-20T09:36:10Z</time>
      </trkpt>
      <trkpt lat="45.11853" lon="5.5606">
        <ele>1174.87</ele>
        <time>2011-08-20T09:36:36Z</time>
      </trkpt>
      <trkpt lat="45.11852" lon="5.56058">
        <ele>1174.39</ele>
        <time>2011-08-20T09:36:47Z</time>
      </trkpt>
      <trkpt lat="45.11844" lon="5.56033">
        <ele>1174.39</ele>
        <time>2011-08-20T09:37:03Z</time>
      </trkpt>
      <trkpt lat="45.11843" lon="5.56029">
        <ele>1174.87</ele>
        <time>2011-08-20T09:37:13Z</time>
      </trkpt>
      <trkpt lat="45.11842" lon="5.56028">
        <ele>1175.35</ele>
        <time>2011-08-20T09:37:16Z</time>
      </trkpt>
      <trkpt lat="45.11842" lon="5.56028">
        <ele>1174.87</ele>
        <time>2011-08-20T09:37:26Z</time>
      </trkpt>
      <trkpt lat="45.11842" lon="5.56028">
        <ele>1170.06</ele>
        <time>2011-08-20T09:37:30Z</time>
      </trkpt>
      <trkpt lat="45.11842" lon="5.56028">
        <ele>1176.31</ele>
        <time>2011-08-20T09:37:31Z</time>
      </trkpt>
      <trkpt lat="45.11845" lon="5.56027">
        <ele>1174.39</ele>
        <time>2011-08-20T09:38:00Z</time>
      </trkpt>
      <trkpt lat="45.11852" lon="5.56026">
        <ele>1174.87</ele>
        <time>2011-08-20T09:38:05Z</time>
      </trkpt>
      <trkpt lat="45.11875" lon="5.56018">
        <ele>1177.27</ele>
        <time>2011-08-20T09:38:19Z</time>
      </trkpt>
      <trkpt lat="45.1189" lon="5.56013">
        <ele>1179.67</ele>
        <time>2011-08-20T09:38:30Z</time>
      </trkpt>
      <trkpt lat="45.11913" lon="5.56">
        <ele>1182.08</ele>
        <time>2011-08-20T09:38:44Z</time>
      </trkpt>
      <trkpt lat="45.11926" lon="5.55994">
        <ele>1184</ele>
        <time>2011-08-20T09:38:53Z</time>
      </trkpt>
      <trkpt lat="45.11937" lon="5.55984">
        <ele>1184.96</ele>
        <time>2011-08-20T09:39:01Z</time>
      </trkpt>
      <trkpt lat="45.11961" lon="5.55968">
        <ele>1187.37</ele>
        <time>2011-08-20T09:39:17Z</time>
      </trkpt>
      <trkpt lat="45.11981" lon="5.55956">
        <ele>1189.29</ele>
        <time>2011-08-20T09:39:29Z</time>
      </trkpt>
      <trkpt lat="45.12003" lon="5.55936">
        <ele>1190.25</ele>
        <time>2011-08-20T09:39:42Z</time>
      </trkpt>
      <trkpt lat="45.12022" lon="5.55921">
        <ele>1191.21</ele>
        <time>2011-08-20T09:39:53Z</time>
      </trkpt>
      <trkpt lat="45.12032" lon="5.55907">
        <ele>1192.65</ele>
        <time>2011-08-20T09:40:02Z</time>
      </trkpt>
      <trkpt lat="45.12035" lon="5.55897">
        <ele>1193.61</ele>
        <time>2011-08-20T09:40:08Z</time>
      </trkpt>
      <trkpt lat="45.12027" lon="5.55886">
        <ele>1194.58</ele>
        <time>2011-08-20T09:40:15Z</time>
      </trkpt>
      <trkpt lat="45.1203" lon="5.55862">
        <ele>1196.02</ele>
        <time>2011-08-20T09:40:26Z</time>
      </trkpt>
      <trkpt lat="45.12033" lon="5.55835">
        <ele>1197.46</ele>
        <time>2011-08-20T09:40:37Z</time>
      </trkpt>
      <trkpt lat="45.12036" lon="5.55827">
        <ele>1197.94</ele>
        <time>2011-08-20T09:40:52Z</time>
      </trkpt>
      <trkpt lat="45.12046" lon="5.55825">
        <ele>1197.46</ele>
        <time>2011-08-20T09:41:07Z</time>
      </trkpt>
      <trkpt lat="45.12051" lon="5.55824">
        <ele>1196.98</ele>
        <time>2011-08-20T09:41:10Z</time>
      </trkpt>
      <trkpt lat="45.12051" lon="5.55828">
        <ele>1196.98</ele>
        <time>2011-08-20T09:41:13Z</time>
      </trkpt>
      <trkpt lat="45.12046" lon="5.55854">
        <ele>1195.54</ele>
        <time>2011-08-20T09:41:19Z</time>
      </trkpt>
      <trkpt lat="45.12043" lon="5.55874">
        <ele>1194.58</ele>
        <time>2011-08-20T09:41:22Z</time>
      </trkpt>
      <trkpt lat="45.12041" lon="5.55882">
        <ele>1194.58</ele>
        <time>2011-08-20T09:41:23Z</time>
      </trkpt>
      <trkpt lat="45.12038" lon="5.55888">
        <ele>1194.09</ele>
        <time>2011-08-20T09:41:24Z</time>
      </trkpt>
      <trkpt lat="45.12031" lon="5.55899">
        <ele>1193.61</ele>
        <time>2011-08-20T09:41:26Z</time>
      </trkpt>
      <trkpt lat="45.12029" lon="5.55904">
        <ele>1193.13</ele>
        <time>2011-08-20T09:41:27Z</time>
      </trkpt>
      <trkpt lat="45.12026" lon="5.55908">
        <ele>1192.65</ele>
        <time>2011-08-20T09:41:28Z</time>
      </trkpt>
      <trkpt lat="45.12025" lon="5.55911">
        <ele>1192.65</ele>
        <time>2011-08-20T09:41:29Z</time>
      </trkpt>
      <trkpt lat="45.12024" lon="5.55913">
        <ele>1192.65</ele>
        <time>2011-08-20T09:41:30Z</time>
      </trkpt>
      <trkpt lat="45.12024" lon="5.55916">
        <ele>1192.17</ele>
        <time>2011-08-20T09:41:31Z</time>
      </trkpt>
      <trkpt lat="45.12024" lon="5.55921">
        <ele>1192.17</ele>
        <time>2011-08-20T09:41:33Z</time>
      </trkpt>
      <trkpt lat="45.12027" lon="5.55922">
        <ele>1191.69</ele>
        <time>2011-08-20T09:41:37Z</time>
      </trkpt>
      <trkpt lat="45.12028" lon="5.55921">
        <ele>1191.69</ele>
        <time>2011-08-20T09:41:38Z</time>
      </trkpt>
      <trkpt lat="45.12033" lon="5.55923">
        <ele>1191.21</ele>
        <time>2011-08-20T09:41:45Z</time>
      </trkpt>
      <trkpt lat="45.12054" lon="5.5594">
        <ele>1190.25</ele>
        <time>2011-08-20T09:41:55Z</time>
      </trkpt>
      <trkpt lat="45.12071" lon="5.55961">
        <ele>1187.37</ele>
        <time>2011-08-20T09:42:00Z</time>
      </trkpt>
      <trkpt lat="45.12078" lon="5.55969">
        <ele>1185.92</ele>
        <time>2011-08-20T09:42:02Z</time>
      </trkpt>
      <trkpt lat="45.12082" lon="5.55982">
        <ele>1184</ele>
        <time>2011-08-20T09:42:05Z</time>
      </trkpt>
      <trkpt lat="45.12081" lon="5.55988">
        <ele>1183.52</ele>
        <time>2011-08-20T09:42:06Z</time>
      </trkpt>
      <trkpt lat="45.12081" lon="5.55994">
        <ele>1182.56</ele>
        <time>2011-08-20T09:42:07Z</time>
      </trkpt>
      <trkpt lat="45.12078" lon="5.56011">
        <ele>1181.12</ele>
        <time>2011-08-20T09:42:10Z</time>
      </trkpt>
      <trkpt lat="45.12075" lon="5.56029">
        <ele>1179.67</ele>
        <time>2011-08-20T09:42:14Z</time>
      </trkpt>
      <trkpt lat="45.12074" lon="5.56035">
        <ele>1178.71</ele>
        <time>2011-08-20T09:42:15Z</time>
      </trkpt>
      <trkpt lat="45.12073" lon="5.56046">
        <ele>1177.75</ele>
        <time>2011-08-20T09:42:17Z</time>
      </trkpt>
      <trkpt lat="45.12074" lon="5.56051">
        <ele>1176.79</ele>
        <time>2011-08-20T09:42:18Z</time>
      </trkpt>
      <trkpt lat="45.12076" lon="5.56056">
        <ele>1176.79</ele>
        <time>2011-08-20T09:42:19Z</time>
      </trkpt>
      <trkpt lat="45.1208" lon="5.56071">
        <ele>1174.39</ele>
        <time>2011-08-20T09:42:22Z</time>
      </trkpt>
      <trkpt lat="45.12087" lon="5.56082">
        <ele>1171.02</ele>
        <time>2011-08-20T09:42:25Z</time>
      </trkpt>
      <trkpt lat="45.12089" lon="5.56086">
        <ele>1171.02</ele>
        <time>2011-08-20T09:42:26Z</time>
      </trkpt>
      <trkpt lat="45.12092" lon="5.56094">
        <ele>1170.06</ele>
        <time>2011-08-20T09:42:34Z</time>
      </trkpt>
      <trkpt lat="45.12095" lon="5.56096">
        <ele>1170.06</ele>
        <time>2011-08-20T09:42:44Z</time>
      </trkpt>
      <trkpt lat="45.12096" lon="5.56092">
        <ele>1170.06</ele>
        <time>2011-08-20T09:42:54Z</time>
      </trkpt>
      <trkpt lat="45.12096" lon="5.5609">
        <ele>1170.06</ele>
        <time>2011-08-20T09:43:04Z</time>
      </trkpt>
      <trkpt lat="45.12096" lon="5.5609">
        <ele>1169.58</ele>
        <time>2011-08-20T09:43:16Z</time>
      </trkpt>
      <trkpt lat="45.12102" lon="5.56089">
        <ele>1169.1</ele>
        <time>2011-08-20T09:43:28Z</time>
      </trkpt>
      <trkpt lat="45.12103" lon="5.56084">
        <ele>1166.7</ele>
        <time>2011-08-20T09:43:39Z</time>
      </trkpt>
      <trkpt lat="45.12104" lon="5.56083">
        <ele>1166.22</ele>
        <time>2011-08-20T09:43:41Z</time>
      </trkpt>
      <trkpt lat="45.12106" lon="5.56082">
        <ele>1165.74</ele>
        <time>2011-08-20T09:43:42Z</time>
      </trkpt>
      <trkpt lat="45.12107" lon="5.56082">
        <ele>1165.74</ele>
        <time>2011-08-20T09:43:43Z</time>
      </trkpt>
      <trkpt lat="45.12108" lon="5.56082">
        <ele>1164.77</ele>
        <time>2011-08-20T09:43:44Z</time>
      </trkpt>
      <trkpt lat="45.12109" lon="5.56082">
        <ele>1164.77</ele>
        <time>2011-08-20T09:43:45Z</time>
      </trkpt>
      <trkpt lat="45.12115" lon="5.56089">
        <ele>1162.85</ele>
        <time>2011-08-20T09:43:50Z</time>
      </trkpt>
      <trkpt lat="45.12116" lon="5.56093">
        <ele>1162.37</ele>
        <time>2011-08-20T09:43:51Z</time>
      </trkpt>
      <trkpt lat="45.12116" lon="5.56098">
        <ele>1162.37</ele>
        <time>2011-08-20T09:43:52Z</time>
      </trkpt>
      <trkpt lat="45.12116" lon="5.56102">
        <ele>1161.41</ele>
        <time>2011-08-20T09:43:53Z</time>
      </trkpt>
      <trkpt lat="45.12115" lon="5.56105">
        <ele>1160.93</ele>
        <time>2011-08-20T09:43:54Z</time>
      </trkpt>
      <trkpt lat="45.12115" lon="5.56107">
        <ele>1160.45</ele>
        <time>2011-08-20T09:43:55Z</time>
      </trkpt>
      <trkpt lat="45.12114" lon="5.56109">
        <ele>1160.93</ele>
        <time>2011-08-20T09:43:56Z</time>
      </trkpt>
      <trkpt lat="45.12114" lon="5.56111">
        <ele>1160.93</ele>
        <time>2011-08-20T09:43:57Z</time>
      </trkpt>
      <trkpt lat="45.12115" lon="5.56112">
        <ele>1160.93</ele>
        <time>2011-08-20T09:43:58Z</time>
      </trkpt>
      <trkpt lat="45.12114" lon="5.56113">
        <ele>1160.93</ele>
        <time>2011-08-20T09:43:59Z</time>
      </trkpt>
      <trkpt lat="45.12114" lon="5.56114">
        <ele>1160.93</ele>
        <time>2011-08-20T09:44:00Z</time>
      </trkpt>
      <trkpt lat="45.1211" lon="5.56122">
        <ele>1162.37</ele>
        <time>2011-08-20T09:44:06Z</time>
      </trkpt>
      <trkpt lat="45.12109" lon="5.56121">
        <ele>1161.89</ele>
        <time>2011-08-20T09:44:07Z</time>
      </trkpt>
      <trkpt lat="45.12108" lon="5.56119">
        <ele>1161.89</ele>
        <time>2011-08-20T09:44:08Z</time>
      </trkpt>
      <trkpt lat="45.12107" lon="5.56118">
        <ele>1161.89</ele>
        <time>2011-08-20T09:44:09Z</time>
      </trkpt>
      <trkpt lat="45.12106" lon="5.56119">
        <ele>1160.45</ele>
        <time>2011-08-20T09:44:23Z</time>
      </trkpt>
      <trkpt lat="45.12106" lon="5.56121">
        <ele>1161.41</ele>
        <time>2011-08-20T09:44:37Z</time>
      </trkpt>
      <trkpt lat="45.12117" lon="5.56135">
        <ele>1161.89</ele>
        <time>2011-08-20T09:44:45Z</time>
      </trkpt>
      <trkpt lat="45.12123" lon="5.56137">
        <ele>1161.89</ele>
        <time>2011-08-20T09:44:48Z</time>
      </trkpt>
      <trkpt lat="45.12145" lon="5.56129">
        <ele>1164.29</ele>
        <time>2011-08-20T09:45:01Z</time>
      </trkpt>
      <trkpt lat="45.12147" lon="5.56131">
        <ele>1163.81</ele>
        <time>2011-08-20T09:45:15Z</time>
      </trkpt>
      <trkpt lat="45.12147" lon="5.56131">
        <ele>1163.33</ele>
        <time>2011-08-20T09:45:16Z</time>
      </trkpt>
      <trkpt lat="45.12157" lon="5.56138">
        <ele>1164.29</ele>
        <time>2011-08-20T09:45:25Z</time>
      </trkpt>
      <trkpt lat="45.1216" lon="5.56139">
        <ele>1164.29</ele>
        <time>2011-08-20T09:45:41Z</time>
      </trkpt>
      <trkpt lat="45.12141" lon="5.56155">
        <ele>1165.26</ele>
        <time>2011-08-20T09:45:51Z</time>
      </trkpt>
      <trkpt lat="45.12136" lon="5.56157">
        <ele>1166.22</ele>
        <time>2011-08-20T09:45:53Z</time>
      </trkpt>
      <trkpt lat="45.12106" lon="5.56171">
        <ele>1167.66</ele>
        <time>2011-08-20T09:46:05Z</time>
      </trkpt>
      <trkpt lat="45.12091" lon="5.56193">
        <ele>1171.02</ele>
        <time>2011-08-20T09:46:16Z</time>
      </trkpt>
      <trkpt lat="45.12096" lon="5.56203">
        <ele>1171.5</ele>
        <time>2011-08-20T09:46:22Z</time>
      </trkpt>
      <trkpt lat="45.12109" lon="5.56204">
        <ele>1173.91</ele>
        <time>2011-08-20T09:46:33Z</time>
      </trkpt>
      <trkpt lat="45.12112" lon="5.56206">
        <ele>1174.87</ele>
        <time>2011-08-20T09:46:35Z</time>
      </trkpt>
      <trkpt lat="45.12121" lon="5.5622">
        <ele>1175.83</ele>
        <time>2011-08-20T09:46:45Z</time>
      </trkpt>
      <trkpt lat="45.12125" lon="5.56235">
        <ele>1176.79</ele>
        <time>2011-08-20T09:46:53Z</time>
      </trkpt>
      <trkpt lat="45.12133" lon="5.56253">
        <ele>1177.27</ele>
        <time>2011-08-20T09:47:00Z</time>
      </trkpt>
      <trkpt lat="45.12132" lon="5.56263">
        <ele>1176.79</ele>
        <time>2011-08-20T09:47:02Z</time>
      </trkpt>
      <trkpt lat="45.12142" lon="5.5627">
        <ele>1176.79</ele>
        <time>2011-08-20T09:47:05Z</time>
      </trkpt>
      <trkpt lat="45.12142" lon="5.56318">
        <ele>1176.79</ele>
        <time>2011-08-20T09:47:17Z</time>
      </trkpt>
      <trkpt lat="45.1211" lon="5.56348">
        <ele>1177.27</ele>
        <time>2011-08-20T09:47:29Z</time>
      </trkpt>
      <trkpt lat="45.12062" lon="5.56362">
        <ele>1177.27</ele>
        <time>2011-08-20T09:47:41Z</time>
      </trkpt>
      <trkpt lat="45.12021" lon="5.56378">
        <ele>1176.79</ele>
        <time>2011-08-20T09:47:52Z</time>
      </trkpt>
      <trkpt lat="45.1202" lon="5.56382">
        <ele>1176.79</ele>
        <time>2011-08-20T09:47:53Z</time>
      </trkpt>
      <trkpt lat="45.12021" lon="5.56397">
        <ele>1177.75</ele>
        <time>2011-08-20T09:47:56Z</time>
      </trkpt>
      <trkpt lat="45.12024" lon="5.564">
        <ele>1177.27</ele>
        <time>2011-08-20T09:47:58Z</time>
      </trkpt>
      <trkpt lat="45.12043" lon="5.564">
        <ele>1178.71</ele>
        <time>2011-08-20T09:48:06Z</time>
      </trkpt>
      <trkpt lat="45.12044" lon="5.56401">
        <ele>1178.23</ele>
        <time>2011-08-20T09:48:07Z</time>
      </trkpt>
      <trkpt lat="45.12046" lon="5.56402">
        <ele>1178.71</ele>
        <time>2011-08-20T09:48:08Z</time>
      </trkpt>
      <trkpt lat="45.12079" lon="5.56417">
        <ele>1180.64</ele>
        <time>2011-08-20T09:48:20Z</time>
      </trkpt>
      <trkpt lat="45.12099" lon="5.5643">
        <ele>1182.08</ele>
        <time>2011-08-20T09:48:30Z</time>
      </trkpt>
      <trkpt lat="45.12124" lon="5.56435">
        <ele>1183.52</ele>
        <time>2011-08-20T09:48:41Z</time>
      </trkpt>
      <trkpt lat="45.12151" lon="5.56439">
        <ele>1185.92</ele>
        <time>2011-08-20T09:48:53Z</time>
      </trkpt>
      <trkpt lat="45.12179" lon="5.56446">
        <ele>1188.33</ele>
        <time>2011-08-20T09:49:07Z</time>
      </trkpt>
      <trkpt lat="45.1218" lon="5.56447">
        <ele>1188.33</ele>
        <time>2011-08-20T09:49:08Z</time>
      </trkpt>
      <trkpt lat="45.12188" lon="5.56443">
        <ele>1188.81</ele>
        <time>2011-08-20T09:49:11Z</time>
      </trkpt>
      <trkpt lat="45.12192" lon="5.5644">
        <ele>1189.29</ele>
        <time>2011-08-20T09:49:12Z</time>
      </trkpt>
      <trkpt lat="45.12195" lon="5.5644">
        <ele>1189.29</ele>
        <time>2011-08-20T09:49:14Z</time>
      </trkpt>
      <trkpt lat="45.12198" lon="5.56441">
        <ele>1189.77</ele>
        <time>2011-08-20T09:49:16Z</time>
      </trkpt>
      <trkpt lat="45.12201" lon="5.5644">
        <ele>1185.92</ele>
        <time>2011-08-20T09:49:18Z</time>
      </trkpt>
      <trkpt lat="45.12201" lon="5.5644">
        <ele>1193.13</ele>
        <time>2011-08-20T09:49:19Z</time>
      </trkpt>
      <trkpt lat="45.12202" lon="5.56441">
        <ele>1190.73</ele>
        <time>2011-08-20T09:49:20Z</time>
      </trkpt>
      <trkpt lat="45.12203" lon="5.56447">
        <ele>1191.21</ele>
        <time>2011-08-20T09:49:23Z</time>
      </trkpt>
      <trkpt lat="45.12204" lon="5.56448">
        <ele>1191.21</ele>
        <time>2011-08-20T09:49:24Z</time>
      </trkpt>
      <trkpt lat="45.12204" lon="5.56452">
        <ele>1192.17</ele>
        <time>2011-08-20T09:49:29Z</time>
      </trkpt>
      <trkpt lat="45.12205" lon="5.5645">
        <ele>1192.17</ele>
        <time>2011-08-20T09:49:30Z</time>
      </trkpt>
      <trkpt lat="45.12212" lon="5.56442">
        <ele>1192.17</ele>
        <time>2011-08-20T09:49:31Z</time>
      </trkpt>
      <trkpt lat="45.12213" lon="5.56441">
        <ele>1192.17</ele>
        <time>2011-08-20T09:49:32Z</time>
      </trkpt>
      <trkpt lat="45.12214" lon="5.5644">
        <ele>1192.65</ele>
        <time>2011-08-20T09:49:33Z</time>
      </trkpt>
      <trkpt lat="45.1222" lon="5.5644">
        <ele>1193.61</ele>
        <time>2011-08-20T09:49:40Z</time>
      </trkpt>
      <trkpt lat="45.12219" lon="5.56444">
        <ele>1193.61</ele>
        <time>2011-08-20T09:49:51Z</time>
      </trkpt>
      <trkpt lat="45.12219" lon="5.56443">
        <ele>1193.61</ele>
        <time>2011-08-20T09:50:01Z</time>
      </trkpt>
      <trkpt lat="45.1222" lon="5.56442">
        <ele>1193.61</ele>
        <time>2011-08-20T09:50:02Z</time>
      </trkpt>
      <trkpt lat="45.12244" lon="5.5642">
        <ele>1193.13</ele>
        <time>2011-08-20T09:50:11Z</time>
      </trkpt>
      <trkpt lat="45.12243" lon="5.56419">
        <ele>1192.65</ele>
        <time>2011-08-20T09:50:12Z</time>
      </trkpt>
      <trkpt lat="45.12242" lon="5.56419">
        <ele>1192.65</ele>
        <time>2011-08-20T09:50:13Z</time>
      </trkpt>
      <trkpt lat="45.1224" lon="5.56419">
        <ele>1192.17</ele>
        <time>2011-08-20T09:50:19Z</time>
      </trkpt>
      <trkpt lat="45.1224" lon="5.56422">
        <ele>1192.17</ele>
        <time>2011-08-20T09:50:20Z</time>
      </trkpt>
      <trkpt lat="45.12238" lon="5.56425">
        <ele>1192.17</ele>
        <time>2011-08-20T09:50:21Z</time>
      </trkpt>
      <trkpt lat="45.12238" lon="5.5643">
        <ele>1191.69</ele>
        <time>2011-08-20T09:50:22Z</time>
      </trkpt>
      <trkpt lat="45.12237" lon="5.56434">
        <ele>1191.69</ele>
        <time>2011-08-20T09:50:23Z</time>
      </trkpt>
      <trkpt lat="45.12227" lon="5.56479">
        <ele>1188.33</ele>
        <time>2011-08-20T09:50:32Z</time>
      </trkpt>
      <trkpt lat="45.12225" lon="5.56487">
        <ele>1188.33</ele>
        <time>2011-08-20T09:50:33Z</time>
      </trkpt>
      <trkpt lat="45.12215" lon="5.56541">
        <ele>1185.92</ele>
        <time>2011-08-20T09:50:40Z</time>
      </trkpt>
      <trkpt lat="45.12213" lon="5.56547">
        <ele>1185.92</ele>
        <time>2011-08-20T09:50:41Z</time>
      </trkpt>
      <trkpt lat="45.12211" lon="5.56554">
        <ele>1185.92</ele>
        <time>2011-08-20T09:50:42Z</time>
      </trkpt>
      <trkpt lat="45.12197" lon="5.56605">
        <ele>1184</ele>
        <time>2011-08-20T09:50:49Z</time>
      </trkpt>
      <trkpt lat="45.12194" lon="5.56611">
        <ele>1184</ele>
        <time>2011-08-20T09:50:50Z</time>
      </trkpt>
      <trkpt lat="45.12191" lon="5.56614">
        <ele>1183.52</ele>
        <time>2011-08-20T09:50:51Z</time>
      </trkpt>
      <trkpt lat="45.12189" lon="5.56616">
        <ele>1183.52</ele>
        <time>2011-08-20T09:50:52Z</time>
      </trkpt>
      <trkpt lat="45.12187" lon="5.56617">
        <ele>1183.52</ele>
        <time>2011-08-20T09:50:53Z</time>
      </trkpt>
      <trkpt lat="45.12185" lon="5.56619">
        <ele>1183.04</ele>
        <time>2011-08-20T09:50:54Z</time>
      </trkpt>
      <trkpt lat="45.12183" lon="5.5662">
        <ele>1183.52</ele>
        <time>2011-08-20T09:50:55Z</time>
      </trkpt>
      <trkpt lat="45.12182" lon="5.56621">
        <ele>1183.52</ele>
        <time>2011-08-20T09:50:56Z</time>
      </trkpt>
      <trkpt lat="45.1218" lon="5.56622">
        <ele>1183.52</ele>
        <time>2011-08-20T09:50:57Z</time>
      </trkpt>
      <trkpt lat="45.12148" lon="5.56636">
        <ele>1182.56</ele>
        <time>2011-08-20T09:51:09Z</time>
      </trkpt>
      <trkpt lat="45.12143" lon="5.56638">
        <ele>1182.56</ele>
        <time>2011-08-20T09:51:10Z</time>
      </trkpt>
      <trkpt lat="45.12135" lon="5.56641">
        <ele>1181.12</ele>
        <time>2011-08-20T09:51:12Z</time>
      </trkpt>
      <trkpt lat="45.1213" lon="5.56642">
        <ele>1180.64</ele>
        <time>2011-08-20T09:51:13Z</time>
      </trkpt>
      <trkpt lat="45.12126" lon="5.56643">
        <ele>1180.64</ele>
        <time>2011-08-20T09:51:14Z</time>
      </trkpt>
      <trkpt lat="45.12122" lon="5.56644">
        <ele>1180.16</ele>
        <time>2011-08-20T09:51:15Z</time>
      </trkpt>
      <trkpt lat="45.12118" lon="5.56646">
        <ele>1179.67</ele>
        <time>2011-08-20T09:51:16Z</time>
      </trkpt>
      <trkpt lat="45.12114" lon="5.56649">
        <ele>1179.67</ele>
        <time>2011-08-20T09:51:17Z</time>
      </trkpt>
      <trkpt lat="45.12096" lon="5.56672">
        <ele>1178.71</ele>
        <time>2011-08-20T09:51:26Z</time>
      </trkpt>
      <trkpt lat="45.12078" lon="5.56707">
        <ele>1176.79</ele>
        <time>2011-08-20T09:51:36Z</time>
      </trkpt>
      <trkpt lat="45.12051" lon="5.56761">
        <ele>1175.35</ele>
        <time>2011-08-20T09:51:50Z</time>
      </trkpt>
      <trkpt lat="45.12038" lon="5.56805">
        <ele>1174.87</ele>
        <time>2011-08-20T09:52:03Z</time>
      </trkpt>
      <trkpt lat="45.12037" lon="5.56834">
        <ele>1173.91</ele>
        <time>2011-08-20T09:52:16Z</time>
      </trkpt>
      <trkpt lat="45.12037" lon="5.56834">
        <ele>1174.39</ele>
        <time>2011-08-20T09:52:25Z</time>
      </trkpt>
      <trkpt lat="45.12038" lon="5.56835">
        <ele>1174.39</ele>
        <time>2011-08-20T09:52:26Z</time>
      </trkpt>
      <trkpt lat="45.1204" lon="5.56835">
        <ele>1173.91</ele>
        <time>2011-08-20T09:52:27Z</time>
      </trkpt>
      <trkpt lat="45.12041" lon="5.56834">
        <ele>1174.39</ele>
        <time>2011-08-20T09:52:28Z</time>
      </trkpt>
      <trkpt lat="45.12043" lon="5.56834">
        <ele>1174.39</ele>
        <time>2011-08-20T09:52:29Z</time>
      </trkpt>
      <trkpt lat="45.12045" lon="5.56834">
        <ele>1175.35</ele>
        <time>2011-08-20T09:52:30Z</time>
      </trkpt>
      <trkpt lat="45.12046" lon="5.56834">
        <ele>1175.35</ele>
        <time>2011-08-20T09:52:31Z</time>
      </trkpt>
      <trkpt lat="45.12063" lon="5.5684">
        <ele>1176.31</ele>
        <time>2011-08-20T09:52:44Z</time>
      </trkpt>
      <trkpt lat="45.12063" lon="5.56839">
        <ele>1176.79</ele>
        <time>2011-08-20T09:53:06Z</time>
      </trkpt>
      <trkpt lat="45.12062" lon="5.56836">
        <ele>1176.79</ele>
        <time>2011-08-20T09:53:09Z</time>
      </trkpt>
      <trkpt lat="45.12063" lon="5.56831">
        <ele>1176.79</ele>
        <time>2011-08-20T09:53:12Z</time>
      </trkpt>
      <trkpt lat="45.12064" lon="5.56831">
        <ele>1177.27</ele>
        <time>2011-08-20T09:53:13Z</time>
      </trkpt>
      <trkpt lat="45.12065" lon="5.5683">
        <ele>1177.75</ele>
        <time>2011-08-20T09:53:14Z</time>
      </trkpt>
      <trkpt lat="45.12067" lon="5.56829">
        <ele>1177.27</ele>
        <time>2011-08-20T09:53:15Z</time>
      </trkpt>
      <trkpt lat="45.12069" lon="5.56829">
        <ele>1177.27</ele>
        <time>2011-08-20T09:53:16Z</time>
      </trkpt>
      <trkpt lat="45.1207" lon="5.56829">
        <ele>1177.75</ele>
        <time>2011-08-20T09:53:17Z</time>
      </trkpt>
      <trkpt lat="45.12072" lon="5.56828">
        <ele>1177.75</ele>
        <time>2011-08-20T09:53:18Z</time>
      </trkpt>
      <trkpt lat="45.12074" lon="5.56827">
        <ele>1178.23</ele>
        <time>2011-08-20T09:53:19Z</time>
      </trkpt>
      <trkpt lat="45.12075" lon="5.56826">
        <ele>1178.71</ele>
        <time>2011-08-20T09:53:20Z</time>
      </trkpt>
      <trkpt lat="45.12077" lon="5.56825">
        <ele>1178.23</ele>
        <time>2011-08-20T09:53:21Z</time>
      </trkpt>
      <trkpt lat="45.12079" lon="5.56825">
        <ele>1178.71</ele>
        <time>2011-08-20T09:53:22Z</time>
      </trkpt>
      <trkpt lat="45.12088" lon="5.56822">
        <ele>1180.16</ele>
        <time>2011-08-20T09:53:28Z</time>
      </trkpt>
      <trkpt lat="45.1209" lon="5.56823">
        <ele>1180.64</ele>
        <time>2011-08-20T09:53:37Z</time>
      </trkpt>
      <trkpt lat="45.12091" lon="5.56824">
        <ele>1181.12</ele>
        <time>2011-08-20T09:53:38Z</time>
      </trkpt>
      <trkpt lat="45.12094" lon="5.56825">
        <ele>1181.12</ele>
        <time>2011-08-20T09:53:50Z</time>
      </trkpt>
      <trkpt lat="45.12094" lon="5.56825">
        <ele>1181.12</ele>
        <time>2011-08-20T09:54:22Z</time>
      </trkpt>
      <trkpt lat="45.12094" lon="5.56825">
        <ele>1181.6</ele>
        <time>2011-08-20T09:54:58Z</time>
      </trkpt>
      <trkpt lat="45.12094" lon="5.56825">
        <ele>1181.6</ele>
        <time>2011-08-20T09:55:37Z</time>
      </trkpt>
      <trkpt lat="45.12094" lon="5.56825">
        <ele>1181.6</ele>
        <time>2011-08-20T09:56:16Z</time>
      </trkpt>
      <trkpt lat="45.12094" lon="5.56826">
        <ele>1181.12</ele>
        <time>2011-08-20T09:56:59Z</time>
      </trkpt>
      <trkpt lat="45.12094" lon="5.56826">
        <ele>1181.6</ele>
        <time>2011-08-20T09:57:38Z</time>
      </trkpt>
      <trkpt lat="45.12094" lon="5.56826">
        <ele>1182.08</ele>
        <time>2011-08-20T09:58:18Z</time>
      </trkpt>
      <trkpt lat="45.12094" lon="5.56827">
        <ele>1181.6</ele>
        <time>2011-08-20T09:59:00Z</time>
      </trkpt>
      <trkpt lat="45.12095" lon="5.56826">
        <ele>1181.6</ele>
        <time>2011-08-20T09:59:43Z</time>
      </trkpt>
      <trkpt lat="45.12095" lon="5.56826">
        <ele>1181.6</ele>
        <time>2011-08-20T10:00:22Z</time>
      </trkpt>
      <trkpt lat="45.12094" lon="5.56826">
        <ele>1181.6</ele>
        <time>2011-08-20T10:00:58Z</time>
      </trkpt>
      <trkpt lat="45.12094" lon="5.56826">
        <ele>1181.12</ele>
        <time>2011-08-20T10:01:38Z</time>
      </trkpt>
      <trkpt lat="45.12095" lon="5.56826">
        <ele>1181.12</ele>
        <time>2011-08-20T10:02:15Z</time>
      </trkpt>
      <trkpt lat="45.12095" lon="5.56826">
        <ele>1181.12</ele>
        <time>2011-08-20T10:02:50Z</time>
      </trkpt>
      <trkpt lat="45.12095" lon="5.56825">
        <ele>1181.12</ele>
        <time>2011-08-20T10:03:27Z</time>
      </trkpt>
      <trkpt lat="45.12094" lon="5.56825">
        <ele>1180.64</ele>
        <time>2011-08-20T10:04:02Z</time>
      </trkpt>
      <trkpt lat="45.12094" lon="5.56825">
        <ele>1180.64</ele>
        <time>2011-08-20T10:04:36Z</time>
      </trkpt>
      <trkpt lat="45.12094" lon="5.56825">
        <ele>1181.12</ele>
        <time>2011-08-20T10:05:15Z</time>
      </trkpt>
      <trkpt lat="45.12094" lon="5.56825">
        <ele>1181.12</ele>
        <time>2011-08-20T10:05:53Z</time>
      </trkpt>
      <trkpt lat="45.12093" lon="5.56825">
        <ele>1181.12</ele>
        <time>2011-08-20T10:06:39Z</time>
      </trkpt>
      <trkpt lat="45.12094" lon="5.56825">
        <ele>1181.12</ele>
        <time>2011-08-20T10:07:23Z</time>
      </trkpt>
      <trkpt lat="45.12093" lon="5.56825">
        <ele>1181.12</ele>
        <time>2011-08-20T10:08:05Z</time>
      </trkpt>
      <trkpt lat="45.12093" lon="5.56824">
        <ele>1181.12</ele>
        <time>2011-08-20T10:08:49Z</time>
      </trkpt>
      <trkpt lat="45.12093" lon="5.56824">
        <ele>1180.64</ele>
        <time>2011-08-20T10:09:24Z</time>
      </trkpt>
      <trkpt lat="45.12093" lon="5.56823">
        <ele>1180.64</ele>
        <time>2011-08-20T10:10:10Z</time>
      </trkpt>
      <trkpt lat="45.12093" lon="5.56824">
        <ele>1181.12</ele>
        <time>2011-08-20T10:10:45Z</time>
      </trkpt>
      <trkpt lat="45.12094" lon="5.56824">
        <ele>1181.12</ele>
        <time>2011-08-20T10:11:13Z</time>
      </trkpt>
      <trkpt lat="45.121" lon="5.56836">
        <ele>1182.56</ele>
        <time>2011-08-20T10:11:23Z</time>
      </trkpt>
      <trkpt lat="45.12103" lon="5.56837">
        <ele>1182.56</ele>
        <time>2011-08-20T10:11:24Z</time>
      </trkpt>
      <trkpt lat="45.12105" lon="5.56838">
        <ele>1182.56</ele>
        <time>2011-08-20T10:11:25Z</time>
      </trkpt>
      <trkpt lat="45.12106" lon="5.56838">
        <ele>1183.04</ele>
        <time>2011-08-20T10:11:26Z</time>
      </trkpt>
      <trkpt lat="45.12115" lon="5.56851">
        <ele>1184.96</ele>
        <time>2011-08-20T10:11:39Z</time>
      </trkpt>
      <trkpt lat="45.1212" lon="5.56853">
        <ele>1187.85</ele>
        <time>2011-08-20T10:11:49Z</time>
      </trkpt>
      <trkpt lat="45.12123" lon="5.56859">
        <ele>1187.85</ele>
        <time>2011-08-20T10:11:55Z</time>
      </trkpt>
      <trkpt lat="45.12122" lon="5.56861">
        <ele>1187.85</ele>
        <time>2011-08-20T10:11:56Z</time>
      </trkpt>
      <trkpt lat="45.12122" lon="5.56863">
        <ele>1187.37</ele>
        <time>2011-08-20T10:11:57Z</time>
      </trkpt>
      <trkpt lat="45.12119" lon="5.56874">
        <ele>1187.85</ele>
        <time>2011-08-20T10:12:04Z</time>
      </trkpt>
      <trkpt lat="45.12119" lon="5.56877">
        <ele>1188.33</ele>
        <time>2011-08-20T10:12:06Z</time>
      </trkpt>
      <trkpt lat="45.12123" lon="5.56888">
        <ele>1189.77</ele>
        <time>2011-08-20T10:12:18Z</time>
      </trkpt>
      <trkpt lat="45.12135" lon="5.56893">
        <ele>1191.21</ele>
        <time>2011-08-20T10:12:26Z</time>
      </trkpt>
      <trkpt lat="45.12137" lon="5.56897">
        <ele>1190.73</ele>
        <time>2011-08-20T10:12:29Z</time>
      </trkpt>
      <trkpt lat="45.12145" lon="5.56907">
        <ele>1187.37</ele>
        <time>2011-08-20T10:12:35Z</time>
      </trkpt>
      <trkpt lat="45.12146" lon="5.56908">
        <ele>1186.88</ele>
        <time>2011-08-20T10:12:36Z</time>
      </trkpt>
      <trkpt lat="45.12177" lon="5.56924">
        <ele>1183.52</ele>
        <time>2011-08-20T10:12:44Z</time>
      </trkpt>
      <trkpt lat="45.12201" lon="5.56932">
        <ele>1181.6</ele>
        <time>2011-08-20T10:12:53Z</time>
      </trkpt>
      <trkpt lat="45.12204" lon="5.56933">
        <ele>1181.6</ele>
        <time>2011-08-20T10:12:54Z</time>
      </trkpt>
      <trkpt lat="45.12213" lon="5.56939">
        <ele>1179.67</ele>
        <time>2011-08-20T10:12:59Z</time>
      </trkpt>
      <trkpt lat="45.12215" lon="5.56943">
        <ele>1177.75</ele>
        <time>2011-08-20T10:13:02Z</time>
      </trkpt>
      <trkpt lat="45.12216" lon="5.56944">
        <ele>1177.75</ele>
        <time>2011-08-20T10:13:18Z</time>
      </trkpt>
      <trkpt lat="45.12231" lon="5.56942">
        <ele>1179.19</ele>
        <time>2011-08-20T10:13:32Z</time>
      </trkpt>
      <trkpt lat="45.12235" lon="5.5694">
        <ele>1178.71</ele>
        <time>2011-08-20T10:13:42Z</time>
      </trkpt>
      <trkpt lat="45.12235" lon="5.5694">
        <ele>1178.71</ele>
        <time>2011-08-20T10:13:44Z</time>
      </trkpt>
      <trkpt lat="45.1224" lon="5.56943">
        <ele>1177.27</ele>
        <time>2011-08-20T10:13:48Z</time>
      </trkpt>
      <trkpt lat="45.12249" lon="5.56946">
        <ele>1173.91</ele>
        <time>2011-08-20T10:13:56Z</time>
      </trkpt>
      <trkpt lat="45.12254" lon="5.5695">
        <ele>1172.95</ele>
        <time>2011-08-20T10:14:09Z</time>
      </trkpt>
      <trkpt lat="45.1226" lon="5.5695">
        <ele>1171.02</ele>
        <time>2011-08-20T10:14:22Z</time>
      </trkpt>
      <trkpt lat="45.12268" lon="5.56948">
        <ele>1168.14</ele>
        <time>2011-08-20T10:14:33Z</time>
      </trkpt>
      <trkpt lat="45.12273" lon="5.56945">
        <ele>1166.7</ele>
        <time>2011-08-20T10:14:41Z</time>
      </trkpt>
      <trkpt lat="45.12283" lon="5.5695">
        <ele>1164.77</ele>
        <time>2011-08-20T10:14:50Z</time>
      </trkpt>
      <trkpt lat="45.12288" lon="5.56961">
        <ele>1163.33</ele>
        <time>2011-08-20T10:15:02Z</time>
      </trkpt>
      <trkpt lat="45.12289" lon="5.56962">
        <ele>1161.89</ele>
        <time>2011-08-20T10:15:08Z</time>
      </trkpt>
      <trkpt lat="45.12294" lon="5.56972">
        <ele>1159.49</ele>
        <time>2011-08-20T10:15:19Z</time>
      </trkpt>
      <trkpt lat="45.12299" lon="5.56977">
        <ele>1156.6</ele>
        <time>2011-08-20T10:15:29Z</time>
      </trkpt>
      <trkpt lat="45.12302" lon="5.5699">
        <ele>1155.16</ele>
        <time>2011-08-20T10:15:39Z</time>
      </trkpt>
      <trkpt lat="45.12305" lon="5.57002">
        <ele>1154.2</ele>
        <time>2011-08-20T10:15:52Z</time>
      </trkpt>
      <trkpt lat="45.12307" lon="5.57002">
        <ele>1154.68</ele>
        <time>2011-08-20T10:15:56Z</time>
      </trkpt>
      <trkpt lat="45.12314" lon="5.5701">
        <ele>1155.64</ele>
        <time>2011-08-20T10:16:06Z</time>
      </trkpt>
      <trkpt lat="45.12314" lon="5.57011">
        <ele>1155.64</ele>
        <time>2011-08-20T10:16:16Z</time>
      </trkpt>
      <trkpt lat="45.12308" lon="5.57017">
        <ele>1153.72</ele>
        <time>2011-08-20T10:16:26Z</time>
      </trkpt>
      <trkpt lat="45.12308" lon="5.57023">
        <ele>1152.76</ele>
        <time>2011-08-20T10:16:30Z</time>
      </trkpt>
      <trkpt lat="45.12304" lon="5.57027">
        <ele>1149.87</ele>
        <time>2011-08-20T10:16:41Z</time>
      </trkpt>
      <trkpt lat="45.12302" lon="5.5703">
        <ele>1146.03</ele>
        <time>2011-08-20T10:16:47Z</time>
      </trkpt>
      <trkpt lat="45.12306" lon="5.57028">
        <ele>1147.95</ele>
        <time>2011-08-20T10:16:58Z</time>
      </trkpt>
      <trkpt lat="45.1231" lon="5.57037">
        <ele>1147.47</ele>
        <time>2011-08-20T10:17:08Z</time>
      </trkpt>
      <trkpt lat="45.12313" lon="5.57037">
        <ele>1146.99</ele>
        <time>2011-08-20T10:17:12Z</time>
      </trkpt>
      <trkpt lat="45.12318" lon="5.57039">
        <ele>1145.55</ele>
        <time>2011-08-20T10:17:26Z</time>
      </trkpt>
      <trkpt lat="45.12323" lon="5.57043">
        <ele>1144.59</ele>
        <time>2011-08-20T10:17:43Z</time>
      </trkpt>
      <trkpt lat="45.1233" lon="5.57049">
        <ele>1142.66</ele>
        <time>2011-08-20T10:17:56Z</time>
      </trkpt>
      <trkpt lat="45.12334" lon="5.57053">
        <ele>1140.74</ele>
        <time>2011-08-20T10:18:07Z</time>
      </trkpt>
      <trkpt lat="45.12333" lon="5.57055">
        <ele>1138.34</ele>
        <time>2011-08-20T10:18:18Z</time>
      </trkpt>
      <trkpt lat="45.12331" lon="5.57059">
        <ele>1136.42</ele>
        <time>2011-08-20T10:18:29Z</time>
      </trkpt>
      <trkpt lat="45.12333" lon="5.57063">
        <ele>1134.97</ele>
        <time>2011-08-20T10:18:32Z</time>
      </trkpt>
      <trkpt lat="45.12331" lon="5.57068">
        <ele>1131.61</ele>
        <time>2011-08-20T10:18:42Z</time>
      </trkpt>
      <trkpt lat="45.12328" lon="5.57072">
        <ele>1128.73</ele>
        <time>2011-08-20T10:18:54Z</time>
      </trkpt>
      <trkpt lat="45.12328" lon="5.5708">
        <ele>1125.84</ele>
        <time>2011-08-20T10:19:04Z</time>
      </trkpt>
      <trkpt lat="45.12326" lon="5.57086">
        <ele>1122.96</ele>
        <time>2011-08-20T10:19:11Z</time>
      </trkpt>
      <trkpt lat="45.12329" lon="5.57096">
        <ele>1120.55</ele>
        <time>2011-08-20T10:19:23Z</time>
      </trkpt>
      <trkpt lat="45.12336" lon="5.57101">
        <ele>1118.63</ele>
        <time>2011-08-20T10:19:36Z</time>
      </trkpt>
      <trkpt lat="45.12333" lon="5.57103">
        <ele>1116.71</ele>
        <time>2011-08-20T10:19:50Z</time>
      </trkpt>
      <trkpt lat="45.12332" lon="5.57103">
        <ele>1116.23</ele>
        <time>2011-08-20T10:19:54Z</time>
      </trkpt>
      <trkpt lat="45.12324" lon="5.57109">
        <ele>1114.31</ele>
        <time>2011-08-20T10:20:05Z</time>
      </trkpt>
      <trkpt lat="45.12326" lon="5.5711">
        <ele>1113.82</ele>
        <time>2011-08-20T10:20:07Z</time>
      </trkpt>
      <trkpt lat="45.12331" lon="5.57115">
        <ele>1112.38</ele>
        <time>2011-08-20T10:20:10Z</time>
      </trkpt>
      <trkpt lat="45.12335" lon="5.57117">
        <ele>1111.42</ele>
        <time>2011-08-20T10:20:12Z</time>
      </trkpt>
      <trkpt lat="45.12344" lon="5.57122">
        <ele>1109.98</ele>
        <time>2011-08-20T10:20:23Z</time>
      </trkpt>
      <trkpt lat="45.12351" lon="5.57122">
        <ele>1109.02</ele>
        <time>2011-08-20T10:20:32Z</time>
      </trkpt>
      <trkpt lat="45.12363" lon="5.57136">
        <ele>1108.06</ele>
        <time>2011-08-20T10:20:36Z</time>
      </trkpt>
      <trkpt lat="45.12375" lon="5.57147">
        <ele>1106.61</ele>
        <time>2011-08-20T10:20:39Z</time>
      </trkpt>
      <trkpt lat="45.12407" lon="5.57171">
        <ele>1106.13</ele>
        <time>2011-08-20T10:20:46Z</time>
      </trkpt>
      <trkpt lat="45.12416" lon="5.57179">
        <ele>1105.65</ele>
        <time>2011-08-20T10:20:48Z</time>
      </trkpt>
      <trkpt lat="45.12421" lon="5.57181">
        <ele>1105.17</ele>
        <time>2011-08-20T10:20:49Z</time>
      </trkpt>
      <trkpt lat="45.12425" lon="5.57183">
        <ele>1105.65</ele>
        <time>2011-08-20T10:20:50Z</time>
      </trkpt>
      <trkpt lat="45.12433" lon="5.57187">
        <ele>1104.69</ele>
        <time>2011-08-20T10:20:52Z</time>
      </trkpt>
      <trkpt lat="45.12437" lon="5.57189">
        <ele>1104.21</ele>
        <time>2011-08-20T10:20:53Z</time>
      </trkpt>
      <trkpt lat="45.12445" lon="5.57197">
        <ele>1103.73</ele>
        <time>2011-08-20T10:20:55Z</time>
      </trkpt>
      <trkpt lat="45.12448" lon="5.572">
        <ele>1103.25</ele>
        <time>2011-08-20T10:20:56Z</time>
      </trkpt>
      <trkpt lat="45.12452" lon="5.57204">
        <ele>1102.29</ele>
        <time>2011-08-20T10:20:57Z</time>
      </trkpt>
      <trkpt lat="45.12455" lon="5.57209">
        <ele>1102.77</ele>
        <time>2011-08-20T10:20:58Z</time>
      </trkpt>
      <trkpt lat="45.12459" lon="5.57214">
        <ele>1102.29</ele>
        <time>2011-08-20T10:20:59Z</time>
      </trkpt>
      <trkpt lat="45.12465" lon="5.57219">
        <ele>1101.81</ele>
        <time>2011-08-20T10:21:00Z</time>
      </trkpt>
      <trkpt lat="45.12507" lon="5.57264">
        <ele>1098.92</ele>
        <time>2011-08-20T10:21:08Z</time>
      </trkpt>
      <trkpt lat="45.12518" lon="5.57275">
        <ele>1097.48</ele>
        <time>2011-08-20T10:21:10Z</time>
      </trkpt>
      <trkpt lat="45.12522" lon="5.57281">
        <ele>1096.52</ele>
        <time>2011-08-20T10:21:11Z</time>
      </trkpt>
      <trkpt lat="45.12534" lon="5.57303">
        <ele>1092.68</ele>
        <time>2011-08-20T10:21:15Z</time>
      </trkpt>
      <trkpt lat="45.12542" lon="5.57316">
        <ele>1089.79</ele>
        <time>2011-08-20T10:21:18Z</time>
      </trkpt>
      <trkpt lat="45.12546" lon="5.57322">
        <ele>1088.83</ele>
        <time>2011-08-20T10:21:19Z</time>
      </trkpt>
      <trkpt lat="45.12552" lon="5.57333">
        <ele>1085.47</ele>
        <time>2011-08-20T10:21:21Z</time>
      </trkpt>
      <trkpt lat="45.12557" lon="5.57343">
        <ele>1083.54</ele>
        <time>2011-08-20T10:21:24Z</time>
      </trkpt>
      <trkpt lat="45.12562" lon="5.57351">
        <ele>1083.06</ele>
        <time>2011-08-20T10:21:27Z</time>
      </trkpt>
      <trkpt lat="45.12564" lon="5.57355">
        <ele>1082.1</ele>
        <time>2011-08-20T10:21:28Z</time>
      </trkpt>
      <trkpt lat="45.12573" lon="5.57372">
        <ele>1078.74</ele>
        <time>2011-08-20T10:21:31Z</time>
      </trkpt>
      <trkpt lat="45.12575" lon="5.57379">
        <ele>1077.78</ele>
        <time>2011-08-20T10:21:32Z</time>
      </trkpt>
      <trkpt lat="45.12578" lon="5.57386">
        <ele>1076.33</ele>
        <time>2011-08-20T10:21:33Z</time>
      </trkpt>
      <trkpt lat="45.12581" lon="5.57391">
        <ele>1076.33</ele>
        <time>2011-08-20T10:21:34Z</time>
      </trkpt>
      <trkpt lat="45.12584" lon="5.57395">
        <ele>1074.89</ele>
        <time>2011-08-20T10:21:35Z</time>
      </trkpt>
      <trkpt lat="45.12587" lon="5.57399">
        <ele>1073.93</ele>
        <time>2011-08-20T10:21:36Z</time>
      </trkpt>
      <trkpt lat="45.12591" lon="5.57402">
        <ele>1073.93</ele>
        <time>2011-08-20T10:21:37Z</time>
      </trkpt>
      <trkpt lat="45.12594" lon="5.57406">
        <ele>1072.49</ele>
        <time>2011-08-20T10:21:38Z</time>
      </trkpt>
      <trkpt lat="45.12596" lon="5.57406">
        <ele>1072.01</ele>
        <time>2011-08-20T10:21:39Z</time>
      </trkpt>
      <trkpt lat="45.12598" lon="5.57406">
        <ele>1071.53</ele>
        <time>2011-08-20T10:21:40Z</time>
      </trkpt>
      <trkpt lat="45.126" lon="5.57406">
        <ele>1071.53</ele>
        <time>2011-08-20T10:21:41Z</time>
      </trkpt>
      <trkpt lat="45.12602" lon="5.57407">
        <ele>1071.53</ele>
        <time>2011-08-20T10:21:42Z</time>
      </trkpt>
      <trkpt lat="45.12604" lon="5.57409">
        <ele>1071.05</ele>
        <time>2011-08-20T10:21:43Z</time>
      </trkpt>
      <trkpt lat="45.12608" lon="5.57413">
        <ele>1070.08</ele>
        <time>2011-08-20T10:21:44Z</time>
      </trkpt>
      <trkpt lat="45.12611" lon="5.57417">
        <ele>1069.6</ele>
        <time>2011-08-20T10:21:45Z</time>
      </trkpt>
      <trkpt lat="45.12623" lon="5.57434">
        <ele>1066.24</ele>
        <time>2011-08-20T10:21:48Z</time>
      </trkpt>
      <trkpt lat="45.12644" lon="5.5746">
        <ele>1061.43</ele>
        <time>2011-08-20T10:21:52Z</time>
      </trkpt>
      <trkpt lat="45.12652" lon="5.57474">
        <ele>1058.55</ele>
        <time>2011-08-20T10:21:54Z</time>
      </trkpt>
      <trkpt lat="45.12659" lon="5.57496">
        <ele>1056.63</ele>
        <time>2011-08-20T10:21:56Z</time>
      </trkpt>
      <trkpt lat="45.12667" lon="5.57522">
        <ele>1053.26</ele>
        <time>2011-08-20T10:22:00Z</time>
      </trkpt>
      <trkpt lat="45.12674" lon="5.57536">
        <ele>1050.38</ele>
        <time>2011-08-20T10:22:03Z</time>
      </trkpt>
      <trkpt lat="45.12677" lon="5.57542">
        <ele>1050.86</ele>
        <time>2011-08-20T10:22:10Z</time>
      </trkpt>
      <trkpt lat="45.12677" lon="5.57543">
        <ele>1050.86</ele>
        <time>2011-08-20T10:22:13Z</time>
      </trkpt>
      <trkpt lat="45.12675" lon="5.57543">
        <ele>1049.9</ele>
        <time>2011-08-20T10:22:14Z</time>
      </trkpt>
      <trkpt lat="45.12672" lon="5.57541">
        <ele>1049.9</ele>
        <time>2011-08-20T10:22:15Z</time>
      </trkpt>
      <trkpt lat="45.1267" lon="5.5754">
        <ele>1049.9</ele>
        <time>2011-08-20T10:22:16Z</time>
      </trkpt>
      <trkpt lat="45.12668" lon="5.5754">
        <ele>1049.9</ele>
        <time>2011-08-20T10:22:17Z</time>
      </trkpt>
      <trkpt lat="45.12668" lon="5.57541">
        <ele>1049.42</ele>
        <time>2011-08-20T10:22:25Z</time>
      </trkpt>
      <trkpt lat="45.12667" lon="5.57541">
        <ele>1049.42</ele>
        <time>2011-08-20T10:22:35Z</time>
      </trkpt>
      <trkpt lat="45.1265" lon="5.57521">
        <ele>1050.86</ele>
        <time>2011-08-20T10:22:45Z</time>
      </trkpt>
      <trkpt lat="45.12614" lon="5.57477">
        <ele>1053.74</ele>
        <time>2011-08-20T10:22:58Z</time>
      </trkpt>
      <trkpt lat="45.12584" lon="5.57442">
        <ele>1056.15</ele>
        <time>2011-08-20T10:23:10Z</time>
      </trkpt>
      <trkpt lat="45.12578" lon="5.57436">
        <ele>1056.15</ele>
        <time>2011-08-20T10:23:14Z</time>
      </trkpt>
      <trkpt lat="45.12576" lon="5.57434">
        <ele>1056.15</ele>
        <time>2011-08-20T10:23:16Z</time>
      </trkpt>
      <trkpt lat="45.12573" lon="5.57434">
        <ele>1057.11</ele>
        <time>2011-08-20T10:23:21Z</time>
      </trkpt>
      <trkpt lat="45.12573" lon="5.57436">
        <ele>1056.63</ele>
        <time>2011-08-20T10:23:22Z</time>
      </trkpt>
      <trkpt lat="45.12573" lon="5.57439">
        <ele>1057.11</ele>
        <time>2011-08-20T10:23:23Z</time>
      </trkpt>
      <trkpt lat="45.12574" lon="5.57442">
        <ele>1057.11</ele>
        <time>2011-08-20T10:23:24Z</time>
      </trkpt>
      <trkpt lat="45.12575" lon="5.57445">
        <ele>1056.63</ele>
        <time>2011-08-20T10:23:25Z</time>
      </trkpt>
      <trkpt lat="45.12577" lon="5.5745">
        <ele>1056.63</ele>
        <time>2011-08-20T10:23:26Z</time>
      </trkpt>
      <trkpt lat="45.12581" lon="5.57455">
        <ele>1055.67</ele>
        <time>2011-08-20T10:23:27Z</time>
      </trkpt>
      <trkpt lat="45.12584" lon="5.5746">
        <ele>1055.67</ele>
        <time>2011-08-20T10:23:28Z</time>
      </trkpt>
      <trkpt lat="45.126" lon="5.57481">
        <ele>1052.3</ele>
        <time>2011-08-20T10:23:31Z</time>
      </trkpt>
      <trkpt lat="45.12605" lon="5.5749">
        <ele>1052.78</ele>
        <time>2011-08-20T10:23:32Z</time>
      </trkpt>
      <trkpt lat="45.12611" lon="5.57498">
        <ele>1052.3</ele>
        <time>2011-08-20T10:23:33Z</time>
      </trkpt>
      <trkpt lat="45.12618" lon="5.57506">
        <ele>1051.82</ele>
        <time>2011-08-20T10:23:34Z</time>
      </trkpt>
      <trkpt lat="45.12624" lon="5.57515">
        <ele>1049.9</ele>
        <time>2011-08-20T10:23:35Z</time>
      </trkpt>
      <trkpt lat="45.1265" lon="5.57559">
        <ele>1046.05</ele>
        <time>2011-08-20T10:23:39Z</time>
      </trkpt>
      <trkpt lat="45.12663" lon="5.57583">
        <ele>1043.17</ele>
        <time>2011-08-20T10:23:41Z</time>
      </trkpt>
      <trkpt lat="45.1267" lon="5.57593">
        <ele>1042.69</ele>
        <time>2011-08-20T10:23:42Z</time>
      </trkpt>
      <trkpt lat="45.12678" lon="5.576">
        <ele>1041.25</ele>
        <time>2011-08-20T10:23:43Z</time>
      </trkpt>
      <trkpt lat="45.12687" lon="5.57606">
        <ele>1040.28</ele>
        <time>2011-08-20T10:23:44Z</time>
      </trkpt>
      <trkpt lat="45.12696" lon="5.57611">
        <ele>1038.84</ele>
        <time>2011-08-20T10:23:45Z</time>
      </trkpt>
      <trkpt lat="45.12704" lon="5.57616">
        <ele>1037.88</ele>
        <time>2011-08-20T10:23:46Z</time>
      </trkpt>
      <trkpt lat="45.12711" lon="5.57624">
        <ele>1036.92</ele>
        <time>2011-08-20T10:23:47Z</time>
      </trkpt>
      <trkpt lat="45.12719" lon="5.57634">
        <ele>1035.96</ele>
        <time>2011-08-20T10:23:48Z</time>
      </trkpt>
      <trkpt lat="45.12725" lon="5.57645">
        <ele>1035.48</ele>
        <time>2011-08-20T10:23:49Z</time>
      </trkpt>
      <trkpt lat="45.12732" lon="5.57655">
        <ele>1034.52</ele>
        <time>2011-08-20T10:23:50Z</time>
      </trkpt>
      <trkpt lat="45.1274" lon="5.57667">
        <ele>1032.59</ele>
        <time>2011-08-20T10:23:51Z</time>
      </trkpt>
      <trkpt lat="45.12746" lon="5.57678">
        <ele>1031.63</ele>
        <time>2011-08-20T10:23:52Z</time>
      </trkpt>
      <trkpt lat="45.12751" lon="5.57689">
        <ele>1029.71</ele>
        <time>2011-08-20T10:23:53Z</time>
      </trkpt>
      <trkpt lat="45.12755" lon="5.577">
        <ele>1028.75</ele>
        <time>2011-08-20T10:23:54Z</time>
      </trkpt>
      <trkpt lat="45.12758" lon="5.57712">
        <ele>1027.79</ele>
        <time>2011-08-20T10:23:55Z</time>
      </trkpt>
      <trkpt lat="45.12761" lon="5.57723">
        <ele>1026.83</ele>
        <time>2011-08-20T10:23:56Z</time>
      </trkpt>
      <trkpt lat="45.12767" lon="5.57751">
        <ele>1023.46</ele>
        <time>2011-08-20T10:23:59Z</time>
      </trkpt>
      <trkpt lat="45.12769" lon="5.57794">
        <ele>1020.1</ele>
        <time>2011-08-20T10:24:04Z</time>
      </trkpt>
      <trkpt lat="45.12764" lon="5.57833">
        <ele>1016.25</ele>
        <time>2011-08-20T10:24:07Z</time>
      </trkpt>
      <trkpt lat="45.12763" lon="5.57844">
        <ele>1016.25</ele>
        <time>2011-08-20T10:24:08Z</time>
      </trkpt>
      <trkpt lat="45.12762" lon="5.57862">
        <ele>1015.29</ele>
        <time>2011-08-20T10:24:10Z</time>
      </trkpt>
      <trkpt lat="45.12763" lon="5.57867">
        <ele>1015.29</ele>
        <time>2011-08-20T10:24:11Z</time>
      </trkpt>
      <trkpt lat="45.12764" lon="5.57869">
        <ele>1015.29</ele>
        <time>2011-08-20T10:24:12Z</time>
      </trkpt>
      <trkpt lat="45.12765" lon="5.5787">
        <ele>1014.81</ele>
        <time>2011-08-20T10:24:13Z</time>
      </trkpt>
      <trkpt lat="45.12773" lon="5.57886">
        <ele>1014.81</ele>
        <time>2011-08-20T10:24:23Z</time>
      </trkpt>
      <trkpt lat="45.12787" lon="5.57898">
        <ele>1014.81</ele>
        <time>2011-08-20T10:24:27Z</time>
      </trkpt>
      <trkpt lat="45.12853" lon="5.57948">
        <ele>1015.29</ele>
        <time>2011-08-20T10:24:40Z</time>
      </trkpt>
      <trkpt lat="45.12923" lon="5.58005">
        <ele>1015.77</ele>
        <time>2011-08-20T10:24:54Z</time>
      </trkpt>
      <trkpt lat="45.12979" lon="5.5805">
        <ele>1015.77</ele>
        <time>2011-08-20T10:25:06Z</time>
      </trkpt>
      <trkpt lat="45.12984" lon="5.58053">
        <ele>1015.77</ele>
        <time>2011-08-20T10:25:07Z</time>
      </trkpt>
      <trkpt lat="45.1302" lon="5.58081">
        <ele>1015.77</ele>
        <time>2011-08-20T10:25:15Z</time>
      </trkpt>
      <trkpt lat="45.13025" lon="5.58083">
        <ele>1015.77</ele>
        <time>2011-08-20T10:25:16Z</time>
      </trkpt>
      <trkpt lat="45.13039" lon="5.5809">
        <ele>1015.77</ele>
        <time>2011-08-20T10:25:19Z</time>
      </trkpt>
      <trkpt lat="45.13044" lon="5.58094">
        <ele>1015.77</ele>
        <time>2011-08-20T10:25:20Z</time>
      </trkpt>
      <trkpt lat="45.13047" lon="5.58099">
        <ele>1015.77</ele>
        <time>2011-08-20T10:25:21Z</time>
      </trkpt>
      <trkpt lat="45.13049" lon="5.58105">
        <ele>1015.77</ele>
        <time>2011-08-20T10:25:22Z</time>
      </trkpt>
      <trkpt lat="45.1305" lon="5.58112">
        <ele>1015.77</ele>
        <time>2011-08-20T10:25:23Z</time>
      </trkpt>
      <trkpt lat="45.13049" lon="5.58119">
        <ele>1015.29</ele>
        <time>2011-08-20T10:25:24Z</time>
      </trkpt>
      <trkpt lat="45.13046" lon="5.58125">
        <ele>1015.77</ele>
        <time>2011-08-20T10:25:25Z</time>
      </trkpt>
      <trkpt lat="45.13043" lon="5.5813">
        <ele>1015.77</ele>
        <time>2011-08-20T10:25:26Z</time>
      </trkpt>
      <trkpt lat="45.13041" lon="5.58136">
        <ele>1015.29</ele>
        <time>2011-08-20T10:25:27Z</time>
      </trkpt>
      <trkpt lat="45.13039" lon="5.58142">
        <ele>1015.29</ele>
        <time>2011-08-20T10:25:28Z</time>
      </trkpt>
      <trkpt lat="45.13038" lon="5.58148">
        <ele>1015.29</ele>
        <time>2011-08-20T10:25:29Z</time>
      </trkpt>
      <trkpt lat="45.13037" lon="5.58153">
        <ele>1014.81</ele>
        <time>2011-08-20T10:25:30Z</time>
      </trkpt>
      <trkpt lat="45.13036" lon="5.58159">
        <ele>1015.77</ele>
        <time>2011-08-20T10:25:31Z</time>
      </trkpt>
      <trkpt lat="45.13034" lon="5.58164">
        <ele>1015.29</ele>
        <time>2011-08-20T10:25:32Z</time>
      </trkpt>
      <trkpt lat="45.13023" lon="5.58202">
        <ele>1015.29</ele>
        <time>2011-08-20T10:25:43Z</time>
      </trkpt>
      <trkpt lat="45.13022" lon="5.58204">
        <ele>1015.29</ele>
        <time>2011-08-20T10:25:44Z</time>
      </trkpt>
      <trkpt lat="45.1302" lon="5.58206">
        <ele>1015.29</ele>
        <time>2011-08-20T10:25:45Z</time>
      </trkpt>
      <trkpt lat="45.13019" lon="5.58208">
        <ele>1015.77</ele>
        <time>2011-08-20T10:25:46Z</time>
      </trkpt>
      <trkpt lat="45.13017" lon="5.5821">
        <ele>1015.77</ele>
        <time>2011-08-20T10:25:47Z</time>
      </trkpt>
      <trkpt lat="45.13016" lon="5.58213">
        <ele>1015.77</ele>
        <time>2011-08-20T10:25:48Z</time>
      </trkpt>
      <trkpt lat="45.13015" lon="5.58216">
        <ele>1015.77</ele>
        <time>2011-08-20T10:25:49Z</time>
      </trkpt>
      <trkpt lat="45.13014" lon="5.58219">
        <ele>1015.77</ele>
        <time>2011-08-20T10:25:50Z</time>
      </trkpt>
      <trkpt lat="45.13012" lon="5.58222">
        <ele>1015.77</ele>
        <time>2011-08-20T10:25:51Z</time>
      </trkpt>
      <trkpt lat="45.13011" lon="5.58224">
        <ele>1015.77</ele>
        <time>2011-08-20T10:25:52Z</time>
      </trkpt>
      <trkpt lat="45.1301" lon="5.58227">
        <ele>1015.77</ele>
        <time>2011-08-20T10:25:53Z</time>
      </trkpt>
      <trkpt lat="45.1301" lon="5.58229">
        <ele>1015.77</ele>
        <time>2011-08-20T10:25:54Z</time>
      </trkpt>
      <trkpt lat="45.13009" lon="5.58232">
        <ele>1012.41</ele>
        <time>2011-08-20T10:25:59Z</time>
      </trkpt>
      <trkpt lat="45.13009" lon="5.58232">
        <ele>1017.21</ele>
        <time>2011-08-20T10:26:00Z</time>
      </trkpt>
      <trkpt lat="45.13009" lon="5.58232">
        <ele>1012.89</ele>
        <time>2011-08-20T10:26:03Z</time>
      </trkpt>
      <trkpt lat="45.13009" lon="5.58232">
        <ele>1016.73</ele>
        <time>2011-08-20T10:26:04Z</time>
      </trkpt>
      <trkpt lat="45.13009" lon="5.58232">
        <ele>1012.89</ele>
        <time>2011-08-20T10:26:20Z</time>
      </trkpt>
      <trkpt lat="45.13009" lon="5.58232">
        <ele>1017.21</ele>
        <time>2011-08-20T10:26:21Z</time>
      </trkpt>
      <trkpt lat="45.13009" lon="5.58232">
        <ele>1011.44</ele>
        <time>2011-08-20T10:26:22Z</time>
      </trkpt>
      <trkpt lat="45.13009" lon="5.58232">
        <ele>1016.25</ele>
        <time>2011-08-20T10:26:23Z</time>
      </trkpt>
      <trkpt lat="45.13009" lon="5.58232">
        <ele>1015.29</ele>
        <time>2011-08-20T10:26:45Z</time>
      </trkpt>
      <trkpt lat="45.1301" lon="5.58234">
        <ele>1015.77</ele>
        <time>2011-08-20T10:26:49Z</time>
      </trkpt>
      <trkpt lat="45.1301" lon="5.58236">
        <ele>1015.77</ele>
        <time>2011-08-20T10:26:50Z</time>
      </trkpt>
      <trkpt lat="45.13009" lon="5.58239">
        <ele>1015.29</ele>
        <time>2011-08-20T10:26:51Z</time>
      </trkpt>
      <trkpt lat="45.13007" lon="5.58243">
        <ele>1015.77</ele>
        <time>2011-08-20T10:26:52Z</time>
      </trkpt>
      <trkpt lat="45.13005" lon="5.58246">
        <ele>1015.77</ele>
        <time>2011-08-20T10:26:53Z</time>
      </trkpt>
      <trkpt lat="45.13003" lon="5.58249">
        <ele>1015.77</ele>
        <time>2011-08-20T10:26:54Z</time>
      </trkpt>
      <trkpt lat="45.13001" lon="5.58253">
        <ele>1015.29</ele>
        <time>2011-08-20T10:26:55Z</time>
      </trkpt>
      <trkpt lat="45.12999" lon="5.58257">
        <ele>1015.77</ele>
        <time>2011-08-20T10:26:56Z</time>
      </trkpt>
      <trkpt lat="45.12981" lon="5.58324">
        <ele>1015.77</ele>
        <time>2011-08-20T10:27:10Z</time>
      </trkpt>
      <trkpt lat="45.12964" lon="5.58374">
        <ele>1016.25</ele>
        <time>2011-08-20T10:27:23Z</time>
      </trkpt>
      <trkpt lat="45.1295" lon="5.58418">
        <ele>1016.73</ele>
        <time>2011-08-20T10:27:33Z</time>
      </trkpt>
      <trkpt lat="45.12947" lon="5.5842">
        <ele>1016.25</ele>
        <time>2011-08-20T10:27:34Z</time>
      </trkpt>
      <trkpt lat="45.12944" lon="5.58422">
        <ele>1017.21</ele>
        <time>2011-08-20T10:27:35Z</time>
      </trkpt>
      <trkpt lat="45.12926" lon="5.58444">
        <ele>1017.21</ele>
        <time>2011-08-20T10:27:44Z</time>
      </trkpt>
      <trkpt lat="45.12922" lon="5.58462">
        <ele>1016.73</ele>
        <time>2011-08-20T10:27:51Z</time>
      </trkpt>
      <trkpt lat="45.12923" lon="5.58464">
        <ele>1016.25</ele>
        <time>2011-08-20T10:27:52Z</time>
      </trkpt>
      <trkpt lat="45.12925" lon="5.58464">
        <ele>1016.25</ele>
        <time>2011-08-20T10:27:53Z</time>
      </trkpt>
      <trkpt lat="45.12926" lon="5.58462">
        <ele>1016.73</ele>
        <time>2011-08-20T10:27:54Z</time>
      </trkpt>
      <trkpt lat="45.12927" lon="5.58454">
        <ele>1016.25</ele>
        <time>2011-08-20T10:27:56Z</time>
      </trkpt>
      <trkpt lat="45.12938" lon="5.58416">
        <ele>1016.25</ele>
        <time>2011-08-20T10:28:05Z</time>
      </trkpt>
      <trkpt lat="45.12937" lon="5.58413">
        <ele>1016.25</ele>
        <time>2011-08-20T10:28:15Z</time>
      </trkpt>
      <trkpt lat="45.12936" lon="5.58414">
        <ele>1016.25</ele>
        <time>2011-08-20T10:28:17Z</time>
      </trkpt>
      <trkpt lat="45.12934" lon="5.58415">
        <ele>1015.77</ele>
        <time>2011-08-20T10:28:31Z</time>
      </trkpt>
      <trkpt lat="45.12934" lon="5.58415">
        <ele>1015.77</ele>
        <time>2011-08-20T10:29:10Z</time>
      </trkpt>
      <trkpt lat="45.12934" lon="5.58415">
        <ele>1015.77</ele>
        <time>2011-08-20T10:29:49Z</time>
      </trkpt>
      <trkpt lat="45.12934" lon="5.58415">
        <ele>1015.77</ele>
        <time>2011-08-20T10:30:30Z</time>
      </trkpt>
      <trkpt lat="45.12933" lon="5.58415">
        <ele>1015.77</ele>
        <time>2011-08-20T10:31:13Z</time>
      </trkpt>
      <trkpt lat="45.12933" lon="5.58415">
        <ele>1015.29</ele>
        <time>2011-08-20T10:31:52Z</time>
      </trkpt>
      <trkpt lat="45.12932" lon="5.58416">
        <ele>1015.29</ele>
        <time>2011-08-20T10:32:34Z</time>
      </trkpt>
      <trkpt lat="45.12932" lon="5.58416">
        <ele>1014.81</ele>
        <time>2011-08-20T10:33:14Z</time>
      </trkpt>
      <trkpt lat="45.12931" lon="5.58415">
        <ele>1014.81</ele>
        <time>2011-08-20T10:33:56Z</time>
      </trkpt>
      <trkpt lat="45.12931" lon="5.58415">
        <ele>1014.81</ele>
        <time>2011-08-20T10:34:33Z</time>
      </trkpt>
      <trkpt lat="45.12931" lon="5.58415">
        <ele>1014.81</ele>
        <time>2011-08-20T10:34:52Z</time>
      </trkpt>
      <trkpt lat="45.12937" lon="5.58423">
        <ele>1015.77</ele>
        <time>2011-08-20T10:34:59Z</time>
      </trkpt>
      <trkpt lat="45.12951" lon="5.58431">
        <ele>1014.33</ele>
        <time>2011-08-20T10:35:11Z</time>
      </trkpt>
      <trkpt lat="45.12964" lon="5.58434">
        <ele>1014.33</ele>
        <time>2011-08-20T10:35:16Z</time>
      </trkpt>
      <trkpt lat="45.12967" lon="5.58436">
        <ele>1013.85</ele>
        <time>2011-08-20T10:35:17Z</time>
      </trkpt>
      <trkpt lat="45.1297" lon="5.58438">
        <ele>1014.33</ele>
        <time>2011-08-20T10:35:18Z</time>
      </trkpt>
      <trkpt lat="45.12974" lon="5.58439">
        <ele>1013.85</ele>
        <time>2011-08-20T10:35:19Z</time>
      </trkpt>
      <trkpt lat="45.12978" lon="5.58441">
        <ele>1014.81</ele>
        <time>2011-08-20T10:35:20Z</time>
      </trkpt>
      <trkpt lat="45.1298" lon="5.58443">
        <ele>1013.85</ele>
        <time>2011-08-20T10:35:21Z</time>
      </trkpt>
      <trkpt lat="45.12983" lon="5.58446">
        <ele>1014.33</ele>
        <time>2011-08-20T10:35:22Z</time>
      </trkpt>
      <trkpt lat="45.12986" lon="5.58448">
        <ele>1013.85</ele>
        <time>2011-08-20T10:35:23Z</time>
      </trkpt>
      <trkpt lat="45.13023" lon="5.58475">
        <ele>1013.85</ele>
        <time>2011-08-20T10:35:35Z</time>
      </trkpt>
      <trkpt lat="45.13049" lon="5.58505">
        <ele>1012.41</ele>
        <time>2011-08-20T10:35:44Z</time>
      </trkpt>
      <trkpt lat="45.13054" lon="5.58509">
        <ele>1011.93</ele>
        <time>2011-08-20T10:35:46Z</time>
      </trkpt>
      <trkpt lat="45.13057" lon="5.58509">
        <ele>1011.93</ele>
        <time>2011-08-20T10:35:47Z</time>
      </trkpt>
      <trkpt lat="45.13059" lon="5.58508">
        <ele>1011.93</ele>
        <time>2011-08-20T10:35:48Z</time>
      </trkpt>
      <trkpt lat="45.1306" lon="5.58504">
        <ele>1012.41</ele>
        <time>2011-08-20T10:35:49Z</time>
      </trkpt>
      <trkpt lat="45.13062" lon="5.58501">
        <ele>1012.41</ele>
        <time>2011-08-20T10:35:50Z</time>
      </trkpt>
      <trkpt lat="45.13064" lon="5.58497">
        <ele>1012.41</ele>
        <time>2011-08-20T10:35:51Z</time>
      </trkpt>
      <trkpt lat="45.13066" lon="5.58493">
        <ele>1012.41</ele>
        <time>2011-08-20T10:35:52Z</time>
      </trkpt>
      <trkpt lat="45.13068" lon="5.58489">
        <ele>1012.41</ele>
        <time>2011-08-20T10:35:53Z</time>
      </trkpt>
      <trkpt lat="45.1307" lon="5.58484">
        <ele>1012.41</ele>
        <time>2011-08-20T10:35:54Z</time>
      </trkpt>
      <trkpt lat="45.13071" lon="5.58479">
        <ele>1011.93</ele>
        <time>2011-08-20T10:35:55Z</time>
      </trkpt>
      <trkpt lat="45.13074" lon="5.58475">
        <ele>1011.93</ele>
        <time>2011-08-20T10:35:56Z</time>
      </trkpt>
      <trkpt lat="45.13103" lon="5.58437">
        <ele>1011.93</ele>
        <time>2011-08-20T10:36:07Z</time>
      </trkpt>
      <trkpt lat="45.13139" lon="5.58396">
        <ele>1012.41</ele>
        <time>2011-08-20T10:36:20Z</time>
      </trkpt>
      <trkpt lat="45.13141" lon="5.58397">
        <ele>1012.41</ele>
        <time>2011-08-20T10:36:21Z</time>
      </trkpt>
      <trkpt lat="45.13144" lon="5.58399">
        <ele>1012.41</ele>
        <time>2011-08-20T10:36:22Z</time>
      </trkpt>
      <trkpt lat="45.13146" lon="5.58401">
        <ele>1012.41</ele>
        <time>2011-08-20T10:36:23Z</time>
      </trkpt>
      <trkpt lat="45.13148" lon="5.58406">
        <ele>1011.93</ele>
        <time>2011-08-20T10:36:24Z</time>
      </trkpt>
      <trkpt lat="45.1315" lon="5.58411">
        <ele>1011.44</ele>
        <time>2011-08-20T10:36:25Z</time>
      </trkpt>
      <trkpt lat="45.13151" lon="5.58417">
        <ele>1011.44</ele>
        <time>2011-08-20T10:36:26Z</time>
      </trkpt>
      <trkpt lat="45.13154" lon="5.58431">
        <ele>1011.93</ele>
        <time>2011-08-20T10:36:28Z</time>
      </trkpt>
      <trkpt lat="45.13154" lon="5.58439">
        <ele>1010.48</ele>
        <time>2011-08-20T10:36:29Z</time>
      </trkpt>
      <trkpt lat="45.13158" lon="5.58501">
        <ele>1006.16</ele>
        <time>2011-08-20T10:36:35Z</time>
      </trkpt>
      <trkpt lat="45.13158" lon="5.58529">
        <ele>1003.27</ele>
        <time>2011-08-20T10:36:37Z</time>
      </trkpt>
      <trkpt lat="45.1316" lon="5.5854">
        <ele>1001.35</ele>
        <time>2011-08-20T10:36:38Z</time>
      </trkpt>
      <trkpt lat="45.13162" lon="5.5855">
        <ele>1000.39</ele>
        <time>2011-08-20T10:36:39Z</time>
      </trkpt>
      <trkpt lat="45.13164" lon="5.5856">
        <ele>998.95</ele>
        <time>2011-08-20T10:36:40Z</time>
      </trkpt>
      <trkpt lat="45.13168" lon="5.58569">
        <ele>997.99</ele>
        <time>2011-08-20T10:36:41Z</time>
      </trkpt>
      <trkpt lat="45.1317" lon="5.5858">
        <ele>997.02</ele>
        <time>2011-08-20T10:36:42Z</time>
      </trkpt>
      <trkpt lat="45.13171" lon="5.5859">
        <ele>996.06</ele>
        <time>2011-08-20T10:36:43Z</time>
      </trkpt>
      <trkpt lat="45.13171" lon="5.586">
        <ele>995.58</ele>
        <time>2011-08-20T10:36:44Z</time>
      </trkpt>
      <trkpt lat="45.13171" lon="5.5861">
        <ele>994.62</ele>
        <time>2011-08-20T10:36:45Z</time>
      </trkpt>
      <trkpt lat="45.13169" lon="5.58621">
        <ele>994.14</ele>
        <time>2011-08-20T10:36:46Z</time>
      </trkpt>
      <trkpt lat="45.13166" lon="5.58632">
        <ele>993.18</ele>
        <time>2011-08-20T10:36:47Z</time>
      </trkpt>
      <trkpt lat="45.13157" lon="5.58669">
        <ele>990.78</ele>
        <time>2011-08-20T10:36:51Z</time>
      </trkpt>
      <trkpt lat="45.13157" lon="5.58676">
        <ele>991.26</ele>
        <time>2011-08-20T10:36:52Z</time>
      </trkpt>
      <trkpt lat="45.13158" lon="5.58682">
        <ele>991.26</ele>
        <time>2011-08-20T10:36:53Z</time>
      </trkpt>
      <trkpt lat="45.13164" lon="5.58701">
        <ele>990.78</ele>
        <time>2011-08-20T10:36:56Z</time>
      </trkpt>
      <trkpt lat="45.13166" lon="5.58708">
        <ele>990.78</ele>
        <time>2011-08-20T10:36:57Z</time>
      </trkpt>
      <trkpt lat="45.13167" lon="5.58715">
        <ele>990.78</ele>
        <time>2011-08-20T10:36:58Z</time>
      </trkpt>
      <trkpt lat="45.13167" lon="5.58722">
        <ele>990.78</ele>
        <time>2011-08-20T10:36:59Z</time>
      </trkpt>
      <trkpt lat="45.13167" lon="5.5873">
        <ele>990.78</ele>
        <time>2011-08-20T10:37:00Z</time>
      </trkpt>
      <trkpt lat="45.13166" lon="5.58737">
        <ele>990.78</ele>
        <time>2011-08-20T10:37:01Z</time>
      </trkpt>
      <trkpt lat="45.13165" lon="5.58744">
        <ele>991.26</ele>
        <time>2011-08-20T10:37:02Z</time>
      </trkpt>
      <trkpt lat="45.13163" lon="5.5875">
        <ele>990.78</ele>
        <time>2011-08-20T10:37:03Z</time>
      </trkpt>
      <trkpt lat="45.13149" lon="5.58807">
        <ele>989.81</ele>
        <time>2011-08-20T10:37:11Z</time>
      </trkpt>
      <trkpt lat="45.13145" lon="5.58822">
        <ele>989.81</ele>
        <time>2011-08-20T10:37:13Z</time>
      </trkpt>
      <trkpt lat="45.13144" lon="5.5883">
        <ele>989.81</ele>
        <time>2011-08-20T10:37:14Z</time>
      </trkpt>
      <trkpt lat="45.13144" lon="5.58837">
        <ele>990.3</ele>
        <time>2011-08-20T10:37:15Z</time>
      </trkpt>
      <trkpt lat="45.13145" lon="5.58843">
        <ele>990.3</ele>
        <time>2011-08-20T10:37:16Z</time>
      </trkpt>
      <trkpt lat="45.13147" lon="5.58849">
        <ele>990.3</ele>
        <time>2011-08-20T10:37:17Z</time>
      </trkpt>
      <trkpt lat="45.13149" lon="5.58853">
        <ele>991.26</ele>
        <time>2011-08-20T10:37:18Z</time>
      </trkpt>
      <trkpt lat="45.13152" lon="5.58858">
        <ele>990.78</ele>
        <time>2011-08-20T10:37:19Z</time>
      </trkpt>
      <trkpt lat="45.13154" lon="5.58861">
        <ele>990.78</ele>
        <time>2011-08-20T10:37:20Z</time>
      </trkpt>
      <trkpt lat="45.13157" lon="5.58864">
        <ele>991.26</ele>
        <time>2011-08-20T10:37:21Z</time>
      </trkpt>
      <trkpt lat="45.13159" lon="5.58866">
        <ele>991.26</ele>
        <time>2011-08-20T10:37:22Z</time>
      </trkpt>
      <trkpt lat="45.1318" lon="5.58887">
        <ele>993.66</ele>
        <time>2011-08-20T10:37:32Z</time>
      </trkpt>
      <trkpt lat="45.13197" lon="5.58902">
        <ele>995.58</ele>
        <time>2011-08-20T10:37:42Z</time>
      </trkpt>
      <trkpt lat="45.13222" lon="5.58941">
        <ele>997.51</ele>
        <time>2011-08-20T10:37:57Z</time>
      </trkpt>
      <trkpt lat="45.13222" lon="5.58985">
        <ele>998.95</ele>
        <time>2011-08-20T10:38:08Z</time>
      </trkpt>
      <trkpt lat="45.13206" lon="5.59022">
        <ele>1000.39</ele>
        <time>2011-08-20T10:38:21Z</time>
      </trkpt>
      <trkpt lat="45.13187" lon="5.59041">
        <ele>1002.31</ele>
        <time>2011-08-20T10:38:31Z</time>
      </trkpt>
      <trkpt lat="45.1317" lon="5.59057">
        <ele>1003.75</ele>
        <time>2011-08-20T10:38:40Z</time>
      </trkpt>
      <trkpt lat="45.13169" lon="5.5906">
        <ele>1003.75</ele>
        <time>2011-08-20T10:38:41Z</time>
      </trkpt>
      <trkpt lat="45.13167" lon="5.5907">
        <ele>1004.72</ele>
        <time>2011-08-20T10:38:44Z</time>
      </trkpt>
      <trkpt lat="45.13168" lon="5.59073">
        <ele>1004.72</ele>
        <time>2011-08-20T10:38:45Z</time>
      </trkpt>
      <trkpt lat="45.13169" lon="5.59076">
        <ele>1004.72</ele>
        <time>2011-08-20T10:38:46Z</time>
      </trkpt>
      <trkpt lat="45.13179" lon="5.59091">
        <ele>1006.16</ele>
        <time>2011-08-20T10:38:53Z</time>
      </trkpt>
      <trkpt lat="45.1318" lon="5.59093">
        <ele>1006.64</ele>
        <time>2011-08-20T10:38:54Z</time>
      </trkpt>
      <trkpt lat="45.13181" lon="5.59094">
        <ele>1007.12</ele>
        <time>2011-08-20T10:38:55Z</time>
      </trkpt>
      <trkpt lat="45.13182" lon="5.59096">
        <ele>1007.12</ele>
        <time>2011-08-20T10:38:56Z</time>
      </trkpt>
      <trkpt lat="45.13184" lon="5.59097">
        <ele>1007.12</ele>
        <time>2011-08-20T10:38:57Z</time>
      </trkpt>
      <trkpt lat="45.13187" lon="5.59098">
        <ele>1007.6</ele>
        <time>2011-08-20T10:38:59Z</time>
      </trkpt>
      <trkpt lat="45.13189" lon="5.59098">
        <ele>1008.08</ele>
        <time>2011-08-20T10:39:00Z</time>
      </trkpt>
      <trkpt lat="45.13191" lon="5.59099">
        <ele>1008.56</ele>
        <time>2011-08-20T10:39:01Z</time>
      </trkpt>
      <trkpt lat="45.13193" lon="5.59099">
        <ele>1008.08</ele>
        <time>2011-08-20T10:39:02Z</time>
      </trkpt>
      <trkpt lat="45.13194" lon="5.59099">
        <ele>1008.56</ele>
        <time>2011-08-20T10:39:03Z</time>
      </trkpt>
      <trkpt lat="45.13196" lon="5.59099">
        <ele>1008.56</ele>
        <time>2011-08-20T10:39:04Z</time>
      </trkpt>
      <trkpt lat="45.13199" lon="5.591">
        <ele>1008.56</ele>
        <time>2011-08-20T10:39:05Z</time>
      </trkpt>
      <trkpt lat="45.132" lon="5.591">
        <ele>1009.04</ele>
        <time>2011-08-20T10:39:06Z</time>
      </trkpt>
      <trkpt lat="45.13202" lon="5.591">
        <ele>1009.52</ele>
        <time>2011-08-20T10:39:07Z</time>
      </trkpt>
      <trkpt lat="45.13228" lon="5.59092">
        <ele>1010.96</ele>
        <time>2011-08-20T10:39:20Z</time>
      </trkpt>
      <trkpt lat="45.13253" lon="5.59076">
        <ele>1014.81</ele>
        <time>2011-08-20T10:39:34Z</time>
      </trkpt>
      <trkpt lat="45.13271" lon="5.59083">
        <ele>1016.73</ele>
        <time>2011-08-20T10:39:45Z</time>
      </trkpt>
      <trkpt lat="45.13263" lon="5.59118">
        <ele>1019.62</ele>
        <time>2011-08-20T10:39:59Z</time>
      </trkpt>
      <trkpt lat="45.1326" lon="5.59156">
        <ele>1021.06</ele>
        <time>2011-08-20T10:40:12Z</time>
      </trkpt>
      <trkpt lat="45.13269" lon="5.59209">
        <ele>1022.5</ele>
        <time>2011-08-20T10:40:27Z</time>
      </trkpt>
      <trkpt lat="45.13275" lon="5.59271">
        <ele>1022.02</ele>
        <time>2011-08-20T10:40:41Z</time>
      </trkpt>
      <trkpt lat="45.13282" lon="5.59333">
        <ele>1022.02</ele>
        <time>2011-08-20T10:40:54Z</time>
      </trkpt>
      <trkpt lat="45.13287" lon="5.59389">
        <ele>1022.98</ele>
        <time>2011-08-20T10:41:07Z</time>
      </trkpt>
      <trkpt lat="45.13305" lon="5.59442">
        <ele>1024.42</ele>
        <time>2011-08-20T10:41:21Z</time>
      </trkpt>
      <trkpt lat="45.13312" lon="5.5949">
        <ele>1025.86</ele>
        <time>2011-08-20T10:41:33Z</time>
      </trkpt>
      <trkpt lat="45.13296" lon="5.59542">
        <ele>1026.34</ele>
        <time>2011-08-20T10:41:45Z</time>
      </trkpt>
      <trkpt lat="45.13288" lon="5.59569">
        <ele>1025.38</ele>
        <time>2011-08-20T10:41:50Z</time>
      </trkpt>
      <trkpt lat="45.13281" lon="5.59606">
        <ele>1024.42</ele>
        <time>2011-08-20T10:41:55Z</time>
      </trkpt>
      <trkpt lat="45.13281" lon="5.59613">
        <ele>1023.94</ele>
        <time>2011-08-20T10:41:56Z</time>
      </trkpt>
      <trkpt lat="45.13282" lon="5.59619">
        <ele>1023.94</ele>
        <time>2011-08-20T10:41:57Z</time>
      </trkpt>
      <trkpt lat="45.13285" lon="5.59626">
        <ele>1023.46</ele>
        <time>2011-08-20T10:41:58Z</time>
      </trkpt>
      <trkpt lat="45.13289" lon="5.59632">
        <ele>1023.46</ele>
        <time>2011-08-20T10:41:59Z</time>
      </trkpt>
      <trkpt lat="45.13327" lon="5.59677">
        <ele>1022.02</ele>
        <time>2011-08-20T10:42:07Z</time>
      </trkpt>
      <trkpt lat="45.13332" lon="5.59681">
        <ele>1022.02</ele>
        <time>2011-08-20T10:42:08Z</time>
      </trkpt>
      <trkpt lat="45.13336" lon="5.59683">
        <ele>1021.54</ele>
        <time>2011-08-20T10:42:09Z</time>
      </trkpt>
      <trkpt lat="45.13341" lon="5.59685">
        <ele>1022.02</ele>
        <time>2011-08-20T10:42:10Z</time>
      </trkpt>
      <trkpt lat="45.13346" lon="5.59686">
        <ele>1021.54</ele>
        <time>2011-08-20T10:42:11Z</time>
      </trkpt>
      <trkpt lat="45.13355" lon="5.59688">
        <ele>1021.06</ele>
        <time>2011-08-20T10:42:13Z</time>
      </trkpt>
      <trkpt lat="45.13393" lon="5.5969">
        <ele>1023.46</ele>
        <time>2011-08-20T10:42:25Z</time>
      </trkpt>
      <trkpt lat="45.13425" lon="5.597">
        <ele>1025.86</ele>
        <time>2011-08-20T10:42:38Z</time>
      </trkpt>
      <trkpt lat="45.13456" lon="5.59722">
        <ele>1027.79</ele>
        <time>2011-08-20T10:42:52Z</time>
      </trkpt>
      <trkpt lat="45.13488" lon="5.59759">
        <ele>1027.31</ele>
        <time>2011-08-20T10:43:04Z</time>
      </trkpt>
      <trkpt lat="45.13535" lon="5.59798">
        <ele>1029.23</ele>
        <time>2011-08-20T10:43:20Z</time>
      </trkpt>
      <trkpt lat="45.13568" lon="5.59826">
        <ele>1031.15</ele>
        <time>2011-08-20T10:43:32Z</time>
      </trkpt>
      <trkpt lat="45.13601" lon="5.59849">
        <ele>1032.11</ele>
        <time>2011-08-20T10:43:44Z</time>
      </trkpt>
      <trkpt lat="45.13603" lon="5.59849">
        <ele>1032.11</ele>
        <time>2011-08-20T10:43:45Z</time>
      </trkpt>
      <trkpt lat="45.13606" lon="5.59848">
        <ele>1032.59</ele>
        <time>2011-08-20T10:43:46Z</time>
      </trkpt>
      <trkpt lat="45.13609" lon="5.59845">
        <ele>1032.11</ele>
        <time>2011-08-20T10:43:47Z</time>
      </trkpt>
      <trkpt lat="45.13611" lon="5.59841">
        <ele>1032.11</ele>
        <time>2011-08-20T10:43:48Z</time>
      </trkpt>
      <trkpt lat="45.13614" lon="5.59837">
        <ele>1032.11</ele>
        <time>2011-08-20T10:43:49Z</time>
      </trkpt>
      <trkpt lat="45.13653" lon="5.59769">
        <ele>1029.71</ele>
        <time>2011-08-20T10:44:00Z</time>
      </trkpt>
      <trkpt lat="45.13659" lon="5.59763">
        <ele>1029.71</ele>
        <time>2011-08-20T10:44:01Z</time>
      </trkpt>
      <trkpt lat="45.13711" lon="5.59702">
        <ele>1028.27</ele>
        <time>2011-08-20T10:44:10Z</time>
      </trkpt>
      <trkpt lat="45.13762" lon="5.59612">
        <ele>1026.34</ele>
        <time>2011-08-20T10:44:20Z</time>
      </trkpt>
      <trkpt lat="45.13766" lon="5.59602">
        <ele>1026.34</ele>
        <time>2011-08-20T10:44:21Z</time>
      </trkpt>
      <trkpt lat="45.13769" lon="5.59592">
        <ele>1026.34</ele>
        <time>2011-08-20T10:44:22Z</time>
      </trkpt>
      <trkpt lat="45.13771" lon="5.59581">
        <ele>1025.86</ele>
        <time>2011-08-20T10:44:23Z</time>
      </trkpt>
      <trkpt lat="45.13773" lon="5.5957">
        <ele>1025.86</ele>
        <time>2011-08-20T10:44:24Z</time>
      </trkpt>
      <trkpt lat="45.13774" lon="5.59559">
        <ele>1025.86</ele>
        <time>2011-08-20T10:44:25Z</time>
      </trkpt>
      <trkpt lat="45.13775" lon="5.59548">
        <ele>1025.38</ele>
        <time>2011-08-20T10:44:26Z</time>
      </trkpt>
      <trkpt lat="45.13774" lon="5.59516">
        <ele>1025.38</ele>
        <time>2011-08-20T10:44:29Z</time>
      </trkpt>
      <trkpt lat="45.13775" lon="5.59458">
        <ele>1022.98</ele>
        <time>2011-08-20T10:44:34Z</time>
      </trkpt>
      <trkpt lat="45.13774" lon="5.5944">
        <ele>1021.06</ele>
        <time>2011-08-20T10:44:36Z</time>
      </trkpt>
      <trkpt lat="45.13776" lon="5.59435">
        <ele>1021.54</ele>
        <time>2011-08-20T10:44:37Z</time>
      </trkpt>
      <trkpt lat="45.13781" lon="5.59434">
        <ele>1021.06</ele>
        <time>2011-08-20T10:44:38Z</time>
      </trkpt>
      <trkpt lat="45.13786" lon="5.59436">
        <ele>1019.62</ele>
        <time>2011-08-20T10:44:39Z</time>
      </trkpt>
      <trkpt lat="45.13791" lon="5.59441">
        <ele>1019.13</ele>
        <time>2011-08-20T10:44:40Z</time>
      </trkpt>
      <trkpt lat="45.13797" lon="5.59447">
        <ele>1017.69</ele>
        <time>2011-08-20T10:44:41Z</time>
      </trkpt>
      <trkpt lat="45.13803" lon="5.59453">
        <ele>1016.25</ele>
        <time>2011-08-20T10:44:42Z</time>
      </trkpt>
      <trkpt lat="45.1381" lon="5.59458">
        <ele>1015.29</ele>
        <time>2011-08-20T10:44:43Z</time>
      </trkpt>
      <trkpt lat="45.13818" lon="5.59463">
        <ele>1013.85</ele>
        <time>2011-08-20T10:44:44Z</time>
      </trkpt>
      <trkpt lat="45.13837" lon="5.59471">
        <ele>1010.96</ele>
        <time>2011-08-20T10:44:46Z</time>
      </trkpt>
      <trkpt lat="45.1388" lon="5.59482">
        <ele>1006.64</ele>
        <time>2011-08-20T10:44:50Z</time>
      </trkpt>
      <trkpt lat="45.13914" lon="5.59492">
        <ele>1002.79</ele>
        <time>2011-08-20T10:44:53Z</time>
      </trkpt>
      <trkpt lat="45.1395" lon="5.59506">
        <ele>999.91</ele>
        <time>2011-08-20T10:44:56Z</time>
      </trkpt>
      <trkpt lat="45.13961" lon="5.59509">
        <ele>999.91</ele>
        <time>2011-08-20T10:44:57Z</time>
      </trkpt>
      <trkpt lat="45.1399" lon="5.59516">
        <ele>997.51</ele>
        <time>2011-08-20T10:45:00Z</time>
      </trkpt>
      <trkpt lat="45.13996" lon="5.59522">
        <ele>997.51</ele>
        <time>2011-08-20T10:45:01Z</time>
      </trkpt>
      <trkpt lat="45.13998" lon="5.59529">
        <ele>997.51</ele>
        <time>2011-08-20T10:45:02Z</time>
      </trkpt>
      <trkpt lat="45.13997" lon="5.59536">
        <ele>997.02</ele>
        <time>2011-08-20T10:45:03Z</time>
      </trkpt>
      <trkpt lat="45.13995" lon="5.59543">
        <ele>997.02</ele>
        <time>2011-08-20T10:45:04Z</time>
      </trkpt>
      <trkpt lat="45.13992" lon="5.59556">
        <ele>997.02</ele>
        <time>2011-08-20T10:45:06Z</time>
      </trkpt>
      <trkpt lat="45.1399" lon="5.59574">
        <ele>997.51</ele>
        <time>2011-08-20T10:45:09Z</time>
      </trkpt>
      <trkpt lat="45.13991" lon="5.5958">
        <ele>997.51</ele>
        <time>2011-08-20T10:45:10Z</time>
      </trkpt>
      <trkpt lat="45.13992" lon="5.59586">
        <ele>997.51</ele>
        <time>2011-08-20T10:45:11Z</time>
      </trkpt>
      <trkpt lat="45.13994" lon="5.59592">
        <ele>997.51</ele>
        <time>2011-08-20T10:45:12Z</time>
      </trkpt>
      <trkpt lat="45.13995" lon="5.59597">
        <ele>997.51</ele>
        <time>2011-08-20T10:45:13Z</time>
      </trkpt>
      <trkpt lat="45.13996" lon="5.59602">
        <ele>997.51</ele>
        <time>2011-08-20T10:45:14Z</time>
      </trkpt>
      <trkpt lat="45.13997" lon="5.59606">
        <ele>997.51</ele>
        <time>2011-08-20T10:45:15Z</time>
      </trkpt>
      <trkpt lat="45.13998" lon="5.5961">
        <ele>997.99</ele>
        <time>2011-08-20T10:45:16Z</time>
      </trkpt>
      <trkpt lat="45.13999" lon="5.59614">
        <ele>998.47</ele>
        <time>2011-08-20T10:45:17Z</time>
      </trkpt>
      <trkpt lat="45.14015" lon="5.59651">
        <ele>1000.39</ele>
        <time>2011-08-20T10:45:30Z</time>
      </trkpt>
      <trkpt lat="45.14023" lon="5.59671">
        <ele>1004.72</ele>
        <time>2011-08-20T10:45:39Z</time>
      </trkpt>
      <trkpt lat="45.14024" lon="5.59673">
        <ele>1001.83</ele>
        <time>2011-08-20T10:45:40Z</time>
      </trkpt>
      <trkpt lat="45.14031" lon="5.59689">
        <ele>1004.23</ele>
        <time>2011-08-20T10:45:48Z</time>
      </trkpt>
      <trkpt lat="45.14033" lon="5.59693">
        <ele>1004.72</ele>
        <time>2011-08-20T10:45:50Z</time>
      </trkpt>
      <trkpt lat="45.1404" lon="5.59712">
        <ele>1006.16</ele>
        <time>2011-08-20T10:46:01Z</time>
      </trkpt>
      <trkpt lat="45.1404" lon="5.59714">
        <ele>1006.64</ele>
        <time>2011-08-20T10:46:02Z</time>
      </trkpt>
      <trkpt lat="45.14042" lon="5.59715">
        <ele>1007.12</ele>
        <time>2011-08-20T10:46:03Z</time>
      </trkpt>
      <trkpt lat="45.14042" lon="5.59717">
        <ele>1006.64</ele>
        <time>2011-08-20T10:46:04Z</time>
      </trkpt>
      <trkpt lat="45.14042" lon="5.59719">
        <ele>1007.12</ele>
        <time>2011-08-20T10:46:05Z</time>
      </trkpt>
      <trkpt lat="45.14043" lon="5.59722">
        <ele>1008.08</ele>
        <time>2011-08-20T10:46:06Z</time>
      </trkpt>
      <trkpt lat="45.14043" lon="5.59724">
        <ele>1008.08</ele>
        <time>2011-08-20T10:46:07Z</time>
      </trkpt>
      <trkpt lat="45.14047" lon="5.59731">
        <ele>1009.04</ele>
        <time>2011-08-20T10:46:10Z</time>
      </trkpt>
      <trkpt lat="45.14047" lon="5.59733">
        <ele>1009.04</ele>
        <time>2011-08-20T10:46:11Z</time>
      </trkpt>
      <trkpt lat="45.14047" lon="5.59735">
        <ele>1009.52</ele>
        <time>2011-08-20T10:46:12Z</time>
      </trkpt>
      <trkpt lat="45.14048" lon="5.59738">
        <ele>1009.52</ele>
        <time>2011-08-20T10:46:13Z</time>
      </trkpt>
      <trkpt lat="45.14048" lon="5.5974">
        <ele>1010</ele>
        <time>2011-08-20T10:46:14Z</time>
      </trkpt>
      <trkpt lat="45.14051" lon="5.59745">
        <ele>1010.48</ele>
        <time>2011-08-20T10:46:16Z</time>
      </trkpt>
      <trkpt lat="45.14051" lon="5.59747">
        <ele>1011.44</ele>
        <time>2011-08-20T10:46:17Z</time>
      </trkpt>
      <trkpt lat="45.14057" lon="5.59764">
        <ele>1012.89</ele>
        <time>2011-08-20T10:46:25Z</time>
      </trkpt>
      <trkpt lat="45.14057" lon="5.59766">
        <ele>1013.37</ele>
        <time>2011-08-20T10:46:26Z</time>
      </trkpt>
      <trkpt lat="45.14058" lon="5.59773">
        <ele>1013.85</ele>
        <time>2011-08-20T10:46:29Z</time>
      </trkpt>
      <trkpt lat="45.14058" lon="5.59775">
        <ele>1014.33</ele>
        <time>2011-08-20T10:46:30Z</time>
      </trkpt>
      <trkpt lat="45.14059" lon="5.59778">
        <ele>1014.33</ele>
        <time>2011-08-20T10:46:31Z</time>
      </trkpt>
      <trkpt lat="45.14058" lon="5.59792">
        <ele>1014.33</ele>
        <time>2011-08-20T10:46:37Z</time>
      </trkpt>
      <trkpt lat="45.14059" lon="5.59796">
        <ele>1013.85</ele>
        <time>2011-08-20T10:46:38Z</time>
      </trkpt>
      <trkpt lat="45.14059" lon="5.59799">
        <ele>1014.33</ele>
        <time>2011-08-20T10:46:39Z</time>
      </trkpt>
      <trkpt lat="45.14071" lon="5.59845">
        <ele>1013.37</ele>
        <time>2011-08-20T10:46:49Z</time>
      </trkpt>
      <trkpt lat="45.14107" lon="5.59887">
        <ele>1014.81</ele>
        <time>2011-08-20T10:47:03Z</time>
      </trkpt>
      <trkpt lat="45.14132" lon="5.59904">
        <ele>1015.77</ele>
        <time>2011-08-20T10:47:13Z</time>
      </trkpt>
      <trkpt lat="45.14157" lon="5.59912">
        <ele>1016.25</ele>
        <time>2011-08-20T10:47:20Z</time>
      </trkpt>
      <trkpt lat="45.14201" lon="5.59931">
        <ele>1017.69</ele>
        <time>2011-08-20T10:47:33Z</time>
      </trkpt>
      <trkpt lat="45.14233" lon="5.5995">
        <ele>1017.21</ele>
        <time>2011-08-20T10:47:41Z</time>
      </trkpt>
      <trkpt lat="45.14237" lon="5.59954">
        <ele>1017.69</ele>
        <time>2011-08-20T10:47:42Z</time>
      </trkpt>
      <trkpt lat="45.14242" lon="5.59958">
        <ele>1017.21</ele>
        <time>2011-08-20T10:47:43Z</time>
      </trkpt>
      <trkpt lat="45.14246" lon="5.5996">
        <ele>1017.21</ele>
        <time>2011-08-20T10:47:44Z</time>
      </trkpt>
      <trkpt lat="45.14251" lon="5.59961">
        <ele>1017.69</ele>
        <time>2011-08-20T10:47:45Z</time>
      </trkpt>
      <trkpt lat="45.14256" lon="5.59962">
        <ele>1017.69</ele>
        <time>2011-08-20T10:47:46Z</time>
      </trkpt>
      <trkpt lat="45.1426" lon="5.59962">
        <ele>1018.17</ele>
        <time>2011-08-20T10:47:47Z</time>
      </trkpt>
      <trkpt lat="45.14264" lon="5.59961">
        <ele>1018.17</ele>
        <time>2011-08-20T10:47:48Z</time>
      </trkpt>
      <trkpt lat="45.14268" lon="5.59961">
        <ele>1018.65</ele>
        <time>2011-08-20T10:47:49Z</time>
      </trkpt>
      <trkpt lat="45.14271" lon="5.59962">
        <ele>1018.65</ele>
        <time>2011-08-20T10:47:50Z</time>
      </trkpt>
      <trkpt lat="45.14275" lon="5.59962">
        <ele>1018.65</ele>
        <time>2011-08-20T10:47:51Z</time>
      </trkpt>
      <trkpt lat="45.14309" lon="5.59981">
        <ele>1020.1</ele>
        <time>2011-08-20T10:48:04Z</time>
      </trkpt>
      <trkpt lat="45.14334" lon="5.59996">
        <ele>1022.5</ele>
        <time>2011-08-20T10:48:16Z</time>
      </trkpt>
      <trkpt lat="45.1436" lon="5.60009">
        <ele>1025.86</ele>
        <time>2011-08-20T10:48:29Z</time>
      </trkpt>
      <trkpt lat="45.14377" lon="5.60023">
        <ele>1027.31</ele>
        <time>2011-08-20T10:48:39Z</time>
      </trkpt>
      <trkpt lat="45.14399" lon="5.60039">
        <ele>1028.75</ele>
        <time>2011-08-20T10:48:50Z</time>
      </trkpt>
      <trkpt lat="45.14412" lon="5.60055">
        <ele>1030.67</ele>
        <time>2011-08-20T10:49:00Z</time>
      </trkpt>
      <trkpt lat="45.14419" lon="5.60066">
        <ele>1032.11</ele>
        <time>2011-08-20T10:49:08Z</time>
      </trkpt>
      <trkpt lat="45.1442" lon="5.60067">
        <ele>1032.11</ele>
        <time>2011-08-20T10:49:09Z</time>
      </trkpt>
      <trkpt lat="45.14421" lon="5.60068">
        <ele>1032.59</ele>
        <time>2011-08-20T10:49:10Z</time>
      </trkpt>
      <trkpt lat="45.14423" lon="5.6007">
        <ele>1032.59</ele>
        <time>2011-08-20T10:49:11Z</time>
      </trkpt>
      <trkpt lat="45.14435" lon="5.60079">
        <ele>1034.04</ele>
        <time>2011-08-20T10:49:17Z</time>
      </trkpt>
      <trkpt lat="45.14451" lon="5.60091">
        <ele>1035</ele>
        <time>2011-08-20T10:49:26Z</time>
      </trkpt>
      <trkpt lat="45.14474" lon="5.60107">
        <ele>1036.92</ele>
        <time>2011-08-20T10:49:39Z</time>
      </trkpt>
      <trkpt lat="45.14485" lon="5.60117">
        <ele>1037.4</ele>
        <time>2011-08-20T10:49:47Z</time>
      </trkpt>
      <trkpt lat="45.14501" lon="5.6014">
        <ele>1038.84</ele>
        <time>2011-08-20T10:49:58Z</time>
      </trkpt>
      <trkpt lat="45.14503" lon="5.60145">
        <ele>1038.84</ele>
        <time>2011-08-20T10:50:00Z</time>
      </trkpt>
      <trkpt lat="45.14504" lon="5.60147">
        <ele>1039.32</ele>
        <time>2011-08-20T10:50:01Z</time>
      </trkpt>
      <trkpt lat="45.14505" lon="5.60149">
        <ele>1039.32</ele>
        <time>2011-08-20T10:50:02Z</time>
      </trkpt>
      <trkpt lat="45.14506" lon="5.60151">
        <ele>1039.8</ele>
        <time>2011-08-20T10:50:03Z</time>
      </trkpt>
      <trkpt lat="45.14506" lon="5.60153">
        <ele>1039.8</ele>
        <time>2011-08-20T10:50:04Z</time>
      </trkpt>
      <trkpt lat="45.14508" lon="5.60157">
        <ele>1039.8</ele>
        <time>2011-08-20T10:50:06Z</time>
      </trkpt>
      <trkpt lat="45.1451" lon="5.60166">
        <ele>1040.76</ele>
        <time>2011-08-20T10:50:10Z</time>
      </trkpt>
      <trkpt lat="45.14516" lon="5.60179">
        <ele>1040.28</ele>
        <time>2011-08-20T10:50:16Z</time>
      </trkpt>
      <trkpt lat="45.14517" lon="5.60182">
        <ele>1040.76</ele>
        <time>2011-08-20T10:50:17Z</time>
      </trkpt>
      <trkpt lat="45.14518" lon="5.60185">
        <ele>1040.76</ele>
        <time>2011-08-20T10:50:18Z</time>
      </trkpt>
      <trkpt lat="45.14518" lon="5.60185">
        <ele>1040.76</ele>
        <time>2011-08-20T10:50:19Z</time>
      </trkpt>
      <trkpt lat="45.14517" lon="5.60188">
        <ele>1040.28</ele>
        <time>2011-08-20T10:50:20Z</time>
      </trkpt>
      <trkpt lat="45.14518" lon="5.60226">
        <ele>1038.84</ele>
        <time>2011-08-20T10:50:27Z</time>
      </trkpt>
      <trkpt lat="45.14517" lon="5.60232">
        <ele>1038.84</ele>
        <time>2011-08-20T10:50:28Z</time>
      </trkpt>
      <trkpt lat="45.1449" lon="5.60301">
        <ele>1036.92</ele>
        <time>2011-08-20T10:50:37Z</time>
      </trkpt>
      <trkpt lat="45.14486" lon="5.60306">
        <ele>1036.92</ele>
        <time>2011-08-20T10:50:38Z</time>
      </trkpt>
      <trkpt lat="45.14483" lon="5.60314">
        <ele>1037.4</ele>
        <time>2011-08-20T10:50:40Z</time>
      </trkpt>
      <trkpt lat="45.14488" lon="5.60321">
        <ele>1036.92</ele>
        <time>2011-08-20T10:50:41Z</time>
      </trkpt>
      <trkpt lat="45.14491" lon="5.60323">
        <ele>1037.4</ele>
        <time>2011-08-20T10:50:42Z</time>
      </trkpt>
      <trkpt lat="45.14495" lon="5.60324">
        <ele>1037.4</ele>
        <time>2011-08-20T10:50:43Z</time>
      </trkpt>
      <trkpt lat="45.14498" lon="5.60324">
        <ele>1036.92</ele>
        <time>2011-08-20T10:50:44Z</time>
      </trkpt>
      <trkpt lat="45.14501" lon="5.60323">
        <ele>1036.44</ele>
        <time>2011-08-20T10:50:45Z</time>
      </trkpt>
      <trkpt lat="45.14523" lon="5.60323">
        <ele>1036.92</ele>
        <time>2011-08-20T10:50:54Z</time>
      </trkpt>
      <trkpt lat="45.14523" lon="5.60323">
        <ele>1036.92</ele>
        <time>2011-08-20T10:51:04Z</time>
      </trkpt>
      <trkpt lat="45.14533" lon="5.60321">
        <ele>1036.92</ele>
        <time>2011-08-20T10:51:09Z</time>
      </trkpt>
      <trkpt lat="45.14537" lon="5.6032">
        <ele>1036.92</ele>
        <time>2011-08-20T10:51:10Z</time>
      </trkpt>
      <trkpt lat="45.14541" lon="5.6032">
        <ele>1036.92</ele>
        <time>2011-08-20T10:51:11Z</time>
      </trkpt>
      <trkpt lat="45.14545" lon="5.60319">
        <ele>1036.92</ele>
        <time>2011-08-20T10:51:12Z</time>
      </trkpt>
      <trkpt lat="45.1455" lon="5.60319">
        <ele>1036.92</ele>
        <time>2011-08-20T10:51:13Z</time>
      </trkpt>
      <trkpt lat="45.14555" lon="5.60318">
        <ele>1037.4</ele>
        <time>2011-08-20T10:51:14Z</time>
      </trkpt>
      <trkpt lat="45.14559" lon="5.60317">
        <ele>1036.92</ele>
        <time>2011-08-20T10:51:15Z</time>
      </trkpt>
      <trkpt lat="45.14589" lon="5.6031">
        <ele>1038.84</ele>
        <time>2011-08-20T10:51:22Z</time>
      </trkpt>
      <trkpt lat="45.14607" lon="5.60307">
        <ele>1038.36</ele>
        <time>2011-08-20T10:51:30Z</time>
      </trkpt>
      <trkpt lat="45.14614" lon="5.60308">
        <ele>1037.88</ele>
        <time>2011-08-20T10:51:32Z</time>
      </trkpt>
      <trkpt lat="45.14621" lon="5.60309">
        <ele>1037.88</ele>
        <time>2011-08-20T10:51:33Z</time>
      </trkpt>
      <trkpt lat="45.14628" lon="5.60308">
        <ele>1038.36</ele>
        <time>2011-08-20T10:51:34Z</time>
      </trkpt>
      <trkpt lat="45.14639" lon="5.60305">
        <ele>1038.36</ele>
        <time>2011-08-20T10:51:36Z</time>
      </trkpt>
      <trkpt lat="45.14648" lon="5.60304">
        <ele>1038.36</ele>
        <time>2011-08-20T10:51:38Z</time>
      </trkpt>
      <trkpt lat="45.14651" lon="5.60303">
        <ele>1039.32</ele>
        <time>2011-08-20T10:51:39Z</time>
      </trkpt>
      <trkpt lat="45.14654" lon="5.60302">
        <ele>1039.32</ele>
        <time>2011-08-20T10:51:40Z</time>
      </trkpt>
      <trkpt lat="45.14656" lon="5.603">
        <ele>1039.32</ele>
        <time>2011-08-20T10:51:41Z</time>
      </trkpt>
      <trkpt lat="45.14659" lon="5.603">
        <ele>1040.28</ele>
        <time>2011-08-20T10:51:42Z</time>
      </trkpt>
      <trkpt lat="45.14661" lon="5.603">
        <ele>1040.28</ele>
        <time>2011-08-20T10:51:43Z</time>
      </trkpt>
      <trkpt lat="45.14665" lon="5.60298">
        <ele>1040.28</ele>
        <time>2011-08-20T10:51:44Z</time>
      </trkpt>
      <trkpt lat="45.1467" lon="5.60296">
        <ele>1040.76</ele>
        <time>2011-08-20T10:51:45Z</time>
      </trkpt>
      <trkpt lat="45.14675" lon="5.60295">
        <ele>1040.76</ele>
        <time>2011-08-20T10:51:46Z</time>
      </trkpt>
      <trkpt lat="45.14679" lon="5.60294">
        <ele>1040.76</ele>
        <time>2011-08-20T10:51:47Z</time>
      </trkpt>
      <trkpt lat="45.14682" lon="5.60292">
        <ele>1041.25</ele>
        <time>2011-08-20T10:51:48Z</time>
      </trkpt>
      <trkpt lat="45.14684" lon="5.60291">
        <ele>1041.25</ele>
        <time>2011-08-20T10:51:49Z</time>
      </trkpt>
      <trkpt lat="45.14686" lon="5.60289">
        <ele>1041.73</ele>
        <time>2011-08-20T10:51:50Z</time>
      </trkpt>
      <trkpt lat="45.14688" lon="5.60288">
        <ele>1041.73</ele>
        <time>2011-08-20T10:51:51Z</time>
      </trkpt>
      <trkpt lat="45.14692" lon="5.60287">
        <ele>1042.21</ele>
        <time>2011-08-20T10:51:53Z</time>
      </trkpt>
      <trkpt lat="45.14694" lon="5.60287">
        <ele>1042.69</ele>
        <time>2011-08-20T10:51:54Z</time>
      </trkpt>
      <trkpt lat="45.14697" lon="5.60284">
        <ele>1043.17</ele>
        <time>2011-08-20T10:51:56Z</time>
      </trkpt>
      <trkpt lat="45.14701" lon="5.60283">
        <ele>1043.65</ele>
        <time>2011-08-20T10:51:58Z</time>
      </trkpt>
      <trkpt lat="45.14703" lon="5.60282">
        <ele>1044.13</ele>
        <time>2011-08-20T10:51:59Z</time>
      </trkpt>
      <trkpt lat="45.14705" lon="5.6028">
        <ele>1044.13</ele>
        <time>2011-08-20T10:52:00Z</time>
      </trkpt>
      <trkpt lat="45.14706" lon="5.6028">
        <ele>1043.65</ele>
        <time>2011-08-20T10:52:01Z</time>
      </trkpt>
      <trkpt lat="45.14708" lon="5.60279">
        <ele>1045.09</ele>
        <time>2011-08-20T10:52:02Z</time>
      </trkpt>
      <trkpt lat="45.1471" lon="5.60279">
        <ele>1045.09</ele>
        <time>2011-08-20T10:52:03Z</time>
      </trkpt>
      <trkpt lat="45.14713" lon="5.60279">
        <ele>1045.09</ele>
        <time>2011-08-20T10:52:04Z</time>
      </trkpt>
      <trkpt lat="45.14716" lon="5.60279">
        <ele>1045.57</ele>
        <time>2011-08-20T10:52:05Z</time>
      </trkpt>
      <trkpt lat="45.14718" lon="5.60279">
        <ele>1045.57</ele>
        <time>2011-08-20T10:52:06Z</time>
      </trkpt>
      <trkpt lat="45.14719" lon="5.60278">
        <ele>1045.57</ele>
        <time>2011-08-20T10:52:07Z</time>
      </trkpt>
      <trkpt lat="45.14725" lon="5.60277">
        <ele>1046.53</ele>
        <time>2011-08-20T10:52:10Z</time>
      </trkpt>
      <trkpt lat="45.14727" lon="5.60276">
        <ele>1047.49</ele>
        <time>2011-08-20T10:52:11Z</time>
      </trkpt>
      <trkpt lat="45.14729" lon="5.60275">
        <ele>1047.01</ele>
        <time>2011-08-20T10:52:12Z</time>
      </trkpt>
      <trkpt lat="45.14731" lon="5.60274">
        <ele>1047.49</ele>
        <time>2011-08-20T10:52:13Z</time>
      </trkpt>
      <trkpt lat="45.1475" lon="5.60271">
        <ele>1049.9</ele>
        <time>2011-08-20T10:52:24Z</time>
      </trkpt>
      <trkpt lat="45.14763" lon="5.60273">
        <ele>1051.82</ele>
        <time>2011-08-20T10:52:32Z</time>
      </trkpt>
      <trkpt lat="45.14776" lon="5.60275">
        <ele>1053.26</ele>
        <time>2011-08-20T10:52:40Z</time>
      </trkpt>
      <trkpt lat="45.14782" lon="5.60275">
        <ele>1054.22</ele>
        <time>2011-08-20T10:52:43Z</time>
      </trkpt>
      <trkpt lat="45.14789" lon="5.60273">
        <ele>1055.18</ele>
        <time>2011-08-20T10:52:49Z</time>
      </trkpt>
      <trkpt lat="45.14797" lon="5.60275">
        <ele>1057.11</ele>
        <time>2011-08-20T10:52:56Z</time>
      </trkpt>
      <trkpt lat="45.14813" lon="5.60283">
        <ele>1059.99</ele>
        <time>2011-08-20T10:53:09Z</time>
      </trkpt>
      <trkpt lat="45.14817" lon="5.60287">
        <ele>1060.95</ele>
        <time>2011-08-20T10:53:12Z</time>
      </trkpt>
      <trkpt lat="45.14824" lon="5.60291">
        <ele>1061.91</ele>
        <time>2011-08-20T10:53:20Z</time>
      </trkpt>
      <trkpt lat="45.14835" lon="5.60304">
        <ele>1064.32</ele>
        <time>2011-08-20T10:53:30Z</time>
      </trkpt>
      <trkpt lat="45.14849" lon="5.60315">
        <ele>1065.28</ele>
        <time>2011-08-20T10:53:42Z</time>
      </trkpt>
      <trkpt lat="45.1485" lon="5.60317">
        <ele>1065.28</ele>
        <time>2011-08-20T10:53:44Z</time>
      </trkpt>
      <trkpt lat="45.14854" lon="5.60323">
        <ele>1065.76</ele>
        <time>2011-08-20T10:53:47Z</time>
      </trkpt>
      <trkpt lat="45.14859" lon="5.6033">
        <ele>1065.76</ele>
        <time>2011-08-20T10:53:51Z</time>
      </trkpt>
      <trkpt lat="45.1486" lon="5.60332">
        <ele>1066.24</ele>
        <time>2011-08-20T10:53:52Z</time>
      </trkpt>
      <trkpt lat="45.14867" lon="5.60345">
        <ele>1067.2</ele>
        <time>2011-08-20T10:54:01Z</time>
      </trkpt>
      <trkpt lat="45.14877" lon="5.60362">
        <ele>1069.12</ele>
        <time>2011-08-20T10:54:11Z</time>
      </trkpt>
      <trkpt lat="45.1488" lon="5.60364">
        <ele>1069.6</ele>
        <time>2011-08-20T10:54:13Z</time>
      </trkpt>
      <trkpt lat="45.14885" lon="5.60369">
        <ele>1071.53</ele>
        <time>2011-08-20T10:54:18Z</time>
      </trkpt>
      <trkpt lat="45.14891" lon="5.60377">
        <ele>1072.49</ele>
        <time>2011-08-20T10:54:23Z</time>
      </trkpt>
      <trkpt lat="45.14897" lon="5.60379">
        <ele>1074.89</ele>
        <time>2011-08-20T10:54:30Z</time>
      </trkpt>
      <trkpt lat="45.1491" lon="5.60384">
        <ele>1075.85</ele>
        <time>2011-08-20T10:54:41Z</time>
      </trkpt>
      <trkpt lat="45.14917" lon="5.60387">
        <ele>1076.81</ele>
        <time>2011-08-20T10:54:50Z</time>
      </trkpt>
      <trkpt lat="45.14918" lon="5.60387">
        <ele>1076.81</ele>
        <time>2011-08-20T10:54:51Z</time>
      </trkpt>
      <trkpt lat="45.14924" lon="5.60389">
        <ele>1076.81</ele>
        <time>2011-08-20T10:54:53Z</time>
      </trkpt>
      <trkpt lat="45.14926" lon="5.6039">
        <ele>1076.81</ele>
        <time>2011-08-20T10:54:54Z</time>
      </trkpt>
      <trkpt lat="45.14932" lon="5.60391">
        <ele>1077.29</ele>
        <time>2011-08-20T10:54:57Z</time>
      </trkpt>
      <trkpt lat="45.14933" lon="5.60392">
        <ele>1077.29</ele>
        <time>2011-08-20T10:54:58Z</time>
      </trkpt>
      <trkpt lat="45.14936" lon="5.60393">
        <ele>1077.29</ele>
        <time>2011-08-20T10:54:59Z</time>
      </trkpt>
      <trkpt lat="45.14938" lon="5.60394">
        <ele>1077.29</ele>
        <time>2011-08-20T10:55:00Z</time>
      </trkpt>
      <trkpt lat="45.1494" lon="5.60396">
        <ele>1076.81</ele>
        <time>2011-08-20T10:55:01Z</time>
      </trkpt>
      <trkpt lat="45.14962" lon="5.60411">
        <ele>1076.81</ele>
        <time>2011-08-20T10:55:12Z</time>
      </trkpt>
      <trkpt lat="45.14978" lon="5.60429">
        <ele>1077.78</ele>
        <time>2011-08-20T10:55:21Z</time>
      </trkpt>
      <trkpt lat="45.14988" lon="5.6044">
        <ele>1078.26</ele>
        <time>2011-08-20T10:55:26Z</time>
      </trkpt>
      <trkpt lat="45.1499" lon="5.60442">
        <ele>1078.26</ele>
        <time>2011-08-20T10:55:27Z</time>
      </trkpt>
      <trkpt lat="45.14991" lon="5.60445">
        <ele>1077.78</ele>
        <time>2011-08-20T10:55:28Z</time>
      </trkpt>
      <trkpt lat="45.14992" lon="5.60448">
        <ele>1078.26</ele>
        <time>2011-08-20T10:55:29Z</time>
      </trkpt>
      <trkpt lat="45.14993" lon="5.60451">
        <ele>1077.78</ele>
        <time>2011-08-20T10:55:30Z</time>
      </trkpt>
      <trkpt lat="45.14994" lon="5.60454">
        <ele>1077.78</ele>
        <time>2011-08-20T10:55:31Z</time>
      </trkpt>
      <trkpt lat="45.14994" lon="5.60457">
        <ele>1078.26</ele>
        <time>2011-08-20T10:55:32Z</time>
      </trkpt>
      <trkpt lat="45.14995" lon="5.6046">
        <ele>1077.78</ele>
        <time>2011-08-20T10:55:33Z</time>
      </trkpt>
      <trkpt lat="45.14996" lon="5.60463">
        <ele>1077.78</ele>
        <time>2011-08-20T10:55:34Z</time>
      </trkpt>
      <trkpt lat="45.14997" lon="5.60466">
        <ele>1078.26</ele>
        <time>2011-08-20T10:55:35Z</time>
      </trkpt>
      <trkpt lat="45.14998" lon="5.60468">
        <ele>1077.29</ele>
        <time>2011-08-20T10:55:36Z</time>
      </trkpt>
      <trkpt lat="45.14999" lon="5.60472">
        <ele>1076.33</ele>
        <time>2011-08-20T10:55:38Z</time>
      </trkpt>
      <trkpt lat="45.14999" lon="5.60475">
        <ele>1076.81</ele>
        <time>2011-08-20T10:55:39Z</time>
      </trkpt>
      <trkpt lat="45.14998" lon="5.60489">
        <ele>1076.81</ele>
        <time>2011-08-20T10:55:43Z</time>
      </trkpt>
      <trkpt lat="45.14998" lon="5.60492">
        <ele>1076.81</ele>
        <time>2011-08-20T10:55:44Z</time>
      </trkpt>
      <trkpt lat="45.14998" lon="5.60495">
        <ele>1076.81</ele>
        <time>2011-08-20T10:55:45Z</time>
      </trkpt>
      <trkpt lat="45.14998" lon="5.60498">
        <ele>1077.29</ele>
        <time>2011-08-20T10:55:46Z</time>
      </trkpt>
      <trkpt lat="45.14999" lon="5.60502">
        <ele>1077.29</ele>
        <time>2011-08-20T10:55:47Z</time>
      </trkpt>
      <trkpt lat="45.15002" lon="5.60505">
        <ele>1077.78</ele>
        <time>2011-08-20T10:55:48Z</time>
      </trkpt>
      <trkpt lat="45.15005" lon="5.60509">
        <ele>1078.26</ele>
        <time>2011-08-20T10:55:49Z</time>
      </trkpt>
      <trkpt lat="45.15007" lon="5.60513">
        <ele>1077.78</ele>
        <time>2011-08-20T10:55:50Z</time>
      </trkpt>
      <trkpt lat="45.15034" lon="5.60557">
        <ele>1079.7</ele>
        <time>2011-08-20T10:55:58Z</time>
      </trkpt>
      <trkpt lat="45.15035" lon="5.60559">
        <ele>1080.18</ele>
        <time>2011-08-20T10:55:59Z</time>
      </trkpt>
      <trkpt lat="45.15036" lon="5.60561">
        <ele>1080.66</ele>
        <time>2011-08-20T10:56:00Z</time>
      </trkpt>
      <trkpt lat="45.15042" lon="5.60568">
        <ele>1081.14</ele>
        <time>2011-08-20T10:56:04Z</time>
      </trkpt>
      <trkpt lat="45.15043" lon="5.6057">
        <ele>1081.14</ele>
        <time>2011-08-20T10:56:05Z</time>
      </trkpt>
      <trkpt lat="45.15053" lon="5.60587">
        <ele>1081.62</ele>
        <time>2011-08-20T10:56:16Z</time>
      </trkpt>
      <trkpt lat="45.15059" lon="5.60594">
        <ele>1082.1</ele>
        <time>2011-08-20T10:56:27Z</time>
      </trkpt>
      <trkpt lat="45.15059" lon="5.60594">
        <ele>1081.62</ele>
        <time>2011-08-20T10:56:56Z</time>
      </trkpt>
      <trkpt lat="45.15058" lon="5.60595">
        <ele>1081.62</ele>
        <time>2011-08-20T10:57:27Z</time>
      </trkpt>
      <trkpt lat="45.15059" lon="5.60597">
        <ele>1081.62</ele>
        <time>2011-08-20T10:57:51Z</time>
      </trkpt>
      <trkpt lat="45.15052" lon="5.60605">
        <ele>1083.54</ele>
        <time>2011-08-20T10:58:02Z</time>
      </trkpt>
      <trkpt lat="45.15051" lon="5.60607">
        <ele>1084.02</ele>
        <time>2011-08-20T10:58:04Z</time>
      </trkpt>
      <trkpt lat="45.15048" lon="5.6062">
        <ele>1086.91</ele>
        <time>2011-08-20T10:58:14Z</time>
      </trkpt>
      <trkpt lat="45.15037" lon="5.60624">
        <ele>1088.83</ele>
        <time>2011-08-20T10:58:24Z</time>
      </trkpt>
      <trkpt lat="45.15035" lon="5.60624">
        <ele>1089.31</ele>
        <time>2011-08-20T10:58:25Z</time>
      </trkpt>
      <trkpt lat="45.1502" lon="5.60622">
        <ele>1091.23</ele>
        <time>2011-08-20T10:58:38Z</time>
      </trkpt>
      <trkpt lat="45.15016" lon="5.6062">
        <ele>1092.2</ele>
        <time>2011-08-20T10:58:41Z</time>
      </trkpt>
      <trkpt lat="45.15003" lon="5.60616">
        <ele>1094.12</ele>
        <time>2011-08-20T10:58:49Z</time>
      </trkpt>
      <trkpt lat="45.14997" lon="5.60618">
        <ele>1095.56</ele>
        <time>2011-08-20T10:58:55Z</time>
      </trkpt>
      <trkpt lat="45.14985" lon="5.60618">
        <ele>1097</ele>
        <time>2011-08-20T10:59:05Z</time>
      </trkpt>
      <trkpt lat="45.1498" lon="5.6062">
        <ele>1098.44</ele>
        <time>2011-08-20T10:59:09Z</time>
      </trkpt>
      <trkpt lat="45.14974" lon="5.60617">
        <ele>1099.4</ele>
        <time>2011-08-20T10:59:14Z</time>
      </trkpt>
      <trkpt lat="45.1497" lon="5.60609">
        <ele>1100.85</ele>
        <time>2011-08-20T10:59:19Z</time>
      </trkpt>
      <trkpt lat="45.14969" lon="5.60608">
        <ele>1101.33</ele>
        <time>2011-08-20T10:59:20Z</time>
      </trkpt>
      <trkpt lat="45.14961" lon="5.60599">
        <ele>1103.25</ele>
        <time>2011-08-20T10:59:28Z</time>
      </trkpt>
      <trkpt lat="45.14951" lon="5.60586">
        <ele>1105.65</ele>
        <time>2011-08-20T10:59:38Z</time>
      </trkpt>
      <trkpt lat="45.14943" lon="5.60573">
        <ele>1107.58</ele>
        <time>2011-08-20T10:59:49Z</time>
      </trkpt>
      <trkpt lat="45.14931" lon="5.60566">
        <ele>1109.98</ele>
        <time>2011-08-20T10:59:58Z</time>
      </trkpt>
      <trkpt lat="45.14914" lon="5.6056">
        <ele>1111.9</ele>
        <time>2011-08-20T11:00:09Z</time>
      </trkpt>
      <trkpt lat="45.14913" lon="5.6056">
        <ele>1112.38</ele>
        <time>2011-08-20T11:00:11Z</time>
      </trkpt>
      <trkpt lat="45.14907" lon="5.60559">
        <ele>1113.82</ele>
        <time>2011-08-20T11:00:18Z</time>
      </trkpt>
      <trkpt lat="45.14903" lon="5.6056">
        <ele>1114.31</ele>
        <time>2011-08-20T11:00:22Z</time>
      </trkpt>
      <trkpt lat="45.14891" lon="5.60555">
        <ele>1115.27</ele>
        <time>2011-08-20T11:00:29Z</time>
      </trkpt>
      <trkpt lat="45.14875" lon="5.60555">
        <ele>1117.19</ele>
        <time>2011-08-20T11:00:40Z</time>
      </trkpt>
      <trkpt lat="45.14873" lon="5.60555">
        <ele>1117.19</ele>
        <time>2011-08-20T11:00:41Z</time>
      </trkpt>
      <trkpt lat="45.14853" lon="5.60558">
        <ele>1119.11</ele>
        <time>2011-08-20T11:00:52Z</time>
      </trkpt>
      <trkpt lat="45.14834" lon="5.60561">
        <ele>1119.59</ele>
        <time>2011-08-20T11:01:02Z</time>
      </trkpt>
      <trkpt lat="45.14813" lon="5.60576">
        <ele>1122</ele>
        <time>2011-08-20T11:01:14Z</time>
      </trkpt>
      <trkpt lat="45.14809" lon="5.60578">
        <ele>1122</ele>
        <time>2011-08-20T11:01:16Z</time>
      </trkpt>
      <trkpt lat="45.14799" lon="5.60591">
        <ele>1123.44</ele>
        <time>2011-08-20T11:01:25Z</time>
      </trkpt>
      <trkpt lat="45.14795" lon="5.60594">
        <ele>1123.92</ele>
        <time>2011-08-20T11:01:35Z</time>
      </trkpt>
      <trkpt lat="45.14791" lon="5.606">
        <ele>1123.92</ele>
        <time>2011-08-20T11:01:53Z</time>
      </trkpt>
      <trkpt lat="45.14779" lon="5.60606">
        <ele>1124.4</ele>
        <time>2011-08-20T11:01:59Z</time>
      </trkpt>
      <trkpt lat="45.14762" lon="5.60609">
        <ele>1123.44</ele>
        <time>2011-08-20T11:02:04Z</time>
      </trkpt>
      <trkpt lat="45.14758" lon="5.60611">
        <ele>1123.44</ele>
        <time>2011-08-20T11:02:05Z</time>
      </trkpt>
      <trkpt lat="45.14754" lon="5.60612">
        <ele>1122.96</ele>
        <time>2011-08-20T11:02:06Z</time>
      </trkpt>
      <trkpt lat="45.1475" lon="5.60614">
        <ele>1122.96</ele>
        <time>2011-08-20T11:02:07Z</time>
      </trkpt>
      <trkpt lat="45.14747" lon="5.60616">
        <ele>1122.96</ele>
        <time>2011-08-20T11:02:08Z</time>
      </trkpt>
      <trkpt lat="45.14743" lon="5.60618">
        <ele>1122.48</ele>
        <time>2011-08-20T11:02:09Z</time>
      </trkpt>
      <trkpt lat="45.1474" lon="5.60621">
        <ele>1122.48</ele>
        <time>2011-08-20T11:02:10Z</time>
      </trkpt>
      <trkpt lat="45.14734" lon="5.60626">
        <ele>1122</ele>
        <time>2011-08-20T11:02:12Z</time>
      </trkpt>
      <trkpt lat="45.1473" lon="5.6063">
        <ele>1121.03</ele>
        <time>2011-08-20T11:02:13Z</time>
      </trkpt>
      <trkpt lat="45.14726" lon="5.60635">
        <ele>1120.55</ele>
        <time>2011-08-20T11:02:14Z</time>
      </trkpt>
      <trkpt lat="45.14661" lon="5.60697">
        <ele>1117.67</ele>
        <time>2011-08-20T11:02:26Z</time>
      </trkpt>
      <trkpt lat="45.14648" lon="5.60705">
        <ele>1116.71</ele>
        <time>2011-08-20T11:02:28Z</time>
      </trkpt>
      <trkpt lat="45.14636" lon="5.60711">
        <ele>1116.23</ele>
        <time>2011-08-20T11:02:30Z</time>
      </trkpt>
      <trkpt lat="45.14629" lon="5.60714">
        <ele>1116.23</ele>
        <time>2011-08-20T11:02:31Z</time>
      </trkpt>
      <trkpt lat="45.146" lon="5.6073">
        <ele>1114.31</ele>
        <time>2011-08-20T11:02:35Z</time>
      </trkpt>
      <trkpt lat="45.14557" lon="5.60757">
        <ele>1113.34</ele>
        <time>2011-08-20T11:02:41Z</time>
      </trkpt>
      <trkpt lat="45.1455" lon="5.60763">
        <ele>1112.38</ele>
        <time>2011-08-20T11:02:42Z</time>
      </trkpt>
      <trkpt lat="45.14544" lon="5.60769">
        <ele>1112.38</ele>
        <time>2011-08-20T11:02:43Z</time>
      </trkpt>
      <trkpt lat="45.1454" lon="5.60778">
        <ele>1112.38</ele>
        <time>2011-08-20T11:02:44Z</time>
      </trkpt>
      <trkpt lat="45.14535" lon="5.60787">
        <ele>1111.9</ele>
        <time>2011-08-20T11:02:45Z</time>
      </trkpt>
      <trkpt lat="45.14518" lon="5.60815">
        <ele>1109.02</ele>
        <time>2011-08-20T11:02:48Z</time>
      </trkpt>
      <trkpt lat="45.14491" lon="5.60854">
        <ele>1105.17</ele>
        <time>2011-08-20T11:02:52Z</time>
      </trkpt>
      <trkpt lat="45.14462" lon="5.60888">
        <ele>1101.33</ele>
        <time>2011-08-20T11:02:56Z</time>
      </trkpt>
      <trkpt lat="45.14438" lon="5.60913">
        <ele>1097</ele>
        <time>2011-08-20T11:02:59Z</time>
      </trkpt>
      <trkpt lat="45.14405" lon="5.60945">
        <ele>1092.68</ele>
        <time>2011-08-20T11:03:02Z</time>
      </trkpt>
      <trkpt lat="45.14387" lon="5.60966">
        <ele>1089.79</ele>
        <time>2011-08-20T11:03:04Z</time>
      </trkpt>
      <trkpt lat="45.14378" lon="5.60976">
        <ele>1088.35</ele>
        <time>2011-08-20T11:03:05Z</time>
      </trkpt>
      <trkpt lat="45.1437" lon="5.60987">
        <ele>1087.87</ele>
        <time>2011-08-20T11:03:06Z</time>
      </trkpt>
      <trkpt lat="45.14363" lon="5.60998">
        <ele>1087.39</ele>
        <time>2011-08-20T11:03:07Z</time>
      </trkpt>
      <trkpt lat="45.14356" lon="5.61009">
        <ele>1086.43</ele>
        <time>2011-08-20T11:03:08Z</time>
      </trkpt>
      <trkpt lat="45.14336" lon="5.61027">
        <ele>1085.47</ele>
        <time>2011-08-20T11:03:11Z</time>
      </trkpt>
      <trkpt lat="45.1433" lon="5.61042">
        <ele>1083.54</ele>
        <time>2011-08-20T11:03:13Z</time>
      </trkpt>
      <trkpt lat="45.14328" lon="5.61044">
        <ele>1083.54</ele>
        <time>2011-08-20T11:03:14Z</time>
      </trkpt>
      <trkpt lat="45.14447" lon="5.61021">
        <ele>1082.1</ele>
        <time>2011-08-20T11:03:16Z</time>
      </trkpt>
      <trkpt lat="45.14455" lon="5.61023">
        <ele>1081.62</ele>
        <time>2011-08-20T11:03:17Z</time>
      </trkpt>
      <trkpt lat="45.14464" lon="5.61026">
        <ele>1081.14</ele>
        <time>2011-08-20T11:03:18Z</time>
      </trkpt>
      <trkpt lat="45.1451" lon="5.61043">
        <ele>1079.22</ele>
        <time>2011-08-20T11:03:23Z</time>
      </trkpt>
      <trkpt lat="45.14526" lon="5.61045">
        <ele>1079.22</ele>
        <time>2011-08-20T11:03:25Z</time>
      </trkpt>
      <trkpt lat="45.14535" lon="5.61046">
        <ele>1079.22</ele>
        <time>2011-08-20T11:03:26Z</time>
      </trkpt>
      <trkpt lat="45.14545" lon="5.61048">
        <ele>1078.74</ele>
        <time>2011-08-20T11:03:27Z</time>
      </trkpt>
      <trkpt lat="45.14565" lon="5.61053">
        <ele>1078.26</ele>
        <time>2011-08-20T11:03:29Z</time>
      </trkpt>
      <trkpt lat="45.14574" lon="5.61057">
        <ele>1078.26</ele>
        <time>2011-08-20T11:03:30Z</time>
      </trkpt>
      <trkpt lat="45.14603" lon="5.61064">
        <ele>1076.81</ele>
        <time>2011-08-20T11:03:32Z</time>
      </trkpt>
      <trkpt lat="45.14613" lon="5.61072">
        <ele>1076.81</ele>
        <time>2011-08-20T11:03:33Z</time>
      </trkpt>
      <trkpt lat="45.14627" lon="5.61102">
        <ele>1073.93</ele>
        <time>2011-08-20T11:03:37Z</time>
      </trkpt>
      <trkpt lat="45.14627" lon="5.6111">
        <ele>1072.97</ele>
        <time>2011-08-20T11:03:38Z</time>
      </trkpt>
      <trkpt lat="45.14625" lon="5.61116">
        <ele>1072.01</ele>
        <time>2011-08-20T11:03:39Z</time>
      </trkpt>
      <trkpt lat="45.14623" lon="5.61122">
        <ele>1071.05</ele>
        <time>2011-08-20T11:03:40Z</time>
      </trkpt>
      <trkpt lat="45.14621" lon="5.61127">
        <ele>1070.08</ele>
        <time>2011-08-20T11:03:41Z</time>
      </trkpt>
      <trkpt lat="45.14619" lon="5.61134">
        <ele>1068.64</ele>
        <time>2011-08-20T11:03:42Z</time>
      </trkpt>
      <trkpt lat="45.14615" lon="5.61142">
        <ele>1067.2</ele>
        <time>2011-08-20T11:03:43Z</time>
      </trkpt>
      <trkpt lat="45.14608" lon="5.61152">
        <ele>1065.76</ele>
        <time>2011-08-20T11:03:44Z</time>
      </trkpt>
      <trkpt lat="45.14591" lon="5.61174">
        <ele>1063.36</ele>
        <time>2011-08-20T11:03:46Z</time>
      </trkpt>
      <trkpt lat="45.14583" lon="5.61184">
        <ele>1062.39</ele>
        <time>2011-08-20T11:03:47Z</time>
      </trkpt>
      <trkpt lat="45.14564" lon="5.61204">
        <ele>1059.99</ele>
        <time>2011-08-20T11:03:49Z</time>
      </trkpt>
      <trkpt lat="45.14528" lon="5.61249">
        <ele>1056.63</ele>
        <time>2011-08-20T11:03:53Z</time>
      </trkpt>
      <trkpt lat="45.14494" lon="5.61294">
        <ele>1054.22</ele>
        <time>2011-08-20T11:03:57Z</time>
      </trkpt>
      <trkpt lat="45.14476" lon="5.61312">
        <ele>1051.34</ele>
        <time>2011-08-20T11:03:59Z</time>
      </trkpt>
      <trkpt lat="45.14468" lon="5.61318">
        <ele>1050.86</ele>
        <time>2011-08-20T11:04:00Z</time>
      </trkpt>
      <trkpt lat="45.14464" lon="5.61322">
        <ele>1050.38</ele>
        <time>2011-08-20T11:04:01Z</time>
      </trkpt>
      <trkpt lat="45.1446" lon="5.61341">
        <ele>1049.42</ele>
        <time>2011-08-20T11:04:09Z</time>
      </trkpt>
      <trkpt lat="45.1446" lon="5.61346">
        <ele>1049.42</ele>
        <time>2011-08-20T11:04:10Z</time>
      </trkpt>
      <trkpt lat="45.14459" lon="5.6135">
        <ele>1049.42</ele>
        <time>2011-08-20T11:04:11Z</time>
      </trkpt>
      <trkpt lat="45.14458" lon="5.61373">
        <ele>1048.94</ele>
        <time>2011-08-20T11:04:15Z</time>
      </trkpt>
      <trkpt lat="45.14455" lon="5.61375">
        <ele>1048.45</ele>
        <time>2011-08-20T11:04:16Z</time>
      </trkpt>
      <trkpt lat="45.14451" lon="5.61378">
        <ele>1047.97</ele>
        <time>2011-08-20T11:04:17Z</time>
      </trkpt>
      <trkpt lat="45.14448" lon="5.61383">
        <ele>1047.49</ele>
        <time>2011-08-20T11:04:18Z</time>
      </trkpt>
      <trkpt lat="45.14445" lon="5.61388">
        <ele>1047.49</ele>
        <time>2011-08-20T11:04:19Z</time>
      </trkpt>
      <trkpt lat="45.14441" lon="5.61394">
        <ele>1047.01</ele>
        <time>2011-08-20T11:04:20Z</time>
      </trkpt>
      <trkpt lat="45.14437" lon="5.61399">
        <ele>1047.01</ele>
        <time>2011-08-20T11:04:21Z</time>
      </trkpt>
      <trkpt lat="45.14433" lon="5.61404">
        <ele>1047.01</ele>
        <time>2011-08-20T11:04:22Z</time>
      </trkpt>
      <trkpt lat="45.1443" lon="5.61408">
        <ele>1047.49</ele>
        <time>2011-08-20T11:04:23Z</time>
      </trkpt>
      <trkpt lat="45.14427" lon="5.61413">
        <ele>1047.49</ele>
        <time>2011-08-20T11:04:24Z</time>
      </trkpt>
      <trkpt lat="45.14425" lon="5.61418">
        <ele>1047.49</ele>
        <time>2011-08-20T11:04:25Z</time>
      </trkpt>
      <trkpt lat="45.14423" lon="5.61423">
        <ele>1047.49</ele>
        <time>2011-08-20T11:04:26Z</time>
      </trkpt>
      <trkpt lat="45.14422" lon="5.61436">
        <ele>1046.53</ele>
        <time>2011-08-20T11:04:28Z</time>
      </trkpt>
      <trkpt lat="45.14423" lon="5.61441">
        <ele>1047.01</ele>
        <time>2011-08-20T11:04:29Z</time>
      </trkpt>
      <trkpt lat="45.14426" lon="5.61449">
        <ele>1047.01</ele>
        <time>2011-08-20T11:04:30Z</time>
      </trkpt>
      <trkpt lat="45.14428" lon="5.61457">
        <ele>1046.05</ele>
        <time>2011-08-20T11:04:31Z</time>
      </trkpt>
      <trkpt lat="45.14428" lon="5.61462">
        <ele>1045.09</ele>
        <time>2011-08-20T11:04:32Z</time>
      </trkpt>
      <trkpt lat="45.1443" lon="5.61485">
        <ele>1043.65</ele>
        <time>2011-08-20T11:04:34Z</time>
      </trkpt>
      <trkpt lat="45.14432" lon="5.61497">
        <ele>1042.69</ele>
        <time>2011-08-20T11:04:35Z</time>
      </trkpt>
      <trkpt lat="45.14434" lon="5.61509">
        <ele>1042.69</ele>
        <time>2011-08-20T11:04:36Z</time>
      </trkpt>
      <trkpt lat="45.14437" lon="5.61521">
        <ele>1042.21</ele>
        <time>2011-08-20T11:04:37Z</time>
      </trkpt>
      <trkpt lat="45.14441" lon="5.61532">
        <ele>1041.73</ele>
        <time>2011-08-20T11:04:38Z</time>
      </trkpt>
      <trkpt lat="45.14454" lon="5.61559">
        <ele>1041.25</ele>
        <time>2011-08-20T11:04:40Z</time>
      </trkpt>
      <trkpt lat="45.14461" lon="5.61572">
        <ele>1041.25</ele>
        <time>2011-08-20T11:04:41Z</time>
      </trkpt>
      <trkpt lat="45.14467" lon="5.61587">
        <ele>1041.25</ele>
        <time>2011-08-20T11:04:42Z</time>
      </trkpt>
      <trkpt lat="45.14473" lon="5.61601">
        <ele>1040.76</ele>
        <time>2011-08-20T11:04:43Z</time>
      </trkpt>
      <trkpt lat="45.14478" lon="5.61615">
        <ele>1041.73</ele>
        <time>2011-08-20T11:04:44Z</time>
      </trkpt>
      <trkpt lat="45.14483" lon="5.61628">
        <ele>1041.73</ele>
        <time>2011-08-20T11:04:45Z</time>
      </trkpt>
      <trkpt lat="45.14486" lon="5.61641">
        <ele>1041.73</ele>
        <time>2011-08-20T11:04:46Z</time>
      </trkpt>
      <trkpt lat="45.14491" lon="5.61663">
        <ele>1041.25</ele>
        <time>2011-08-20T11:04:48Z</time>
      </trkpt>
      <trkpt lat="45.14502" lon="5.61731">
        <ele>1040.76</ele>
        <time>2011-08-20T11:04:54Z</time>
      </trkpt>
      <trkpt lat="45.14502" lon="5.61742">
        <ele>1040.76</ele>
        <time>2011-08-20T11:04:55Z</time>
      </trkpt>
      <trkpt lat="45.14497" lon="5.61798">
        <ele>1039.32</ele>
        <time>2011-08-20T11:05:00Z</time>
      </trkpt>
      <trkpt lat="45.145" lon="5.6182">
        <ele>1040.28</ele>
        <time>2011-08-20T11:05:02Z</time>
      </trkpt>
      <trkpt lat="45.14506" lon="5.61846">
        <ele>1041.25</ele>
        <time>2011-08-20T11:05:05Z</time>
      </trkpt>
      <trkpt lat="45.14513" lon="5.61864">
        <ele>1042.21</ele>
        <time>2011-08-20T11:05:08Z</time>
      </trkpt>
      <trkpt lat="45.14536" lon="5.61897">
        <ele>1044.13</ele>
        <time>2011-08-20T11:05:18Z</time>
      </trkpt>
      <trkpt lat="45.14558" lon="5.61922">
        <ele>1046.05</ele>
        <time>2011-08-20T11:05:29Z</time>
      </trkpt>
      <trkpt lat="45.14562" lon="5.61925">
        <ele>1046.05</ele>
        <time>2011-08-20T11:05:30Z</time>
      </trkpt>
      <trkpt lat="45.14582" lon="5.6194">
        <ele>1045.57</ele>
        <time>2011-08-20T11:05:39Z</time>
      </trkpt>
      <trkpt lat="45.14586" lon="5.6194">
        <ele>1045.57</ele>
        <time>2011-08-20T11:05:40Z</time>
      </trkpt>
      <trkpt lat="45.14618" lon="5.61946">
        <ele>1047.49</ele>
        <time>2011-08-20T11:05:51Z</time>
      </trkpt>
      <trkpt lat="45.14623" lon="5.61947">
        <ele>1047.97</ele>
        <time>2011-08-20T11:05:54Z</time>
      </trkpt>
      <trkpt lat="45.14625" lon="5.61948">
        <ele>1047.97</ele>
        <time>2011-08-20T11:05:55Z</time>
      </trkpt>
      <trkpt lat="45.14628" lon="5.61949">
        <ele>1047.97</ele>
        <time>2011-08-20T11:05:56Z</time>
      </trkpt>
      <trkpt lat="45.1463" lon="5.61949">
        <ele>1048.45</ele>
        <time>2011-08-20T11:05:57Z</time>
      </trkpt>
      <trkpt lat="45.14632" lon="5.61949">
        <ele>1048.45</ele>
        <time>2011-08-20T11:05:58Z</time>
      </trkpt>
      <trkpt lat="45.14635" lon="5.6195">
        <ele>1048.94</ele>
        <time>2011-08-20T11:05:59Z</time>
      </trkpt>
      <trkpt lat="45.14657" lon="5.61954">
        <ele>1050.38</ele>
        <time>2011-08-20T11:06:08Z</time>
      </trkpt>
      <trkpt lat="45.14659" lon="5.61955">
        <ele>1050.86</ele>
        <time>2011-08-20T11:06:09Z</time>
      </trkpt>
      <trkpt lat="45.14661" lon="5.61955">
        <ele>1050.86</ele>
        <time>2011-08-20T11:06:10Z</time>
      </trkpt>
      <trkpt lat="45.14663" lon="5.61956">
        <ele>1050.86</ele>
        <time>2011-08-20T11:06:11Z</time>
      </trkpt>
      <trkpt lat="45.14664" lon="5.61956">
        <ele>1050.86</ele>
        <time>2011-08-20T11:06:12Z</time>
      </trkpt>
      <trkpt lat="45.14666" lon="5.61956">
        <ele>1051.34</ele>
        <time>2011-08-20T11:06:13Z</time>
      </trkpt>
      <trkpt lat="45.14668" lon="5.61957">
        <ele>1051.34</ele>
        <time>2011-08-20T11:06:14Z</time>
      </trkpt>
      <trkpt lat="45.1467" lon="5.61957">
        <ele>1051.34</ele>
        <time>2011-08-20T11:06:15Z</time>
      </trkpt>
      <trkpt lat="45.14691" lon="5.61963">
        <ele>1053.26</ele>
        <time>2011-08-20T11:06:26Z</time>
      </trkpt>
      <trkpt lat="45.14708" lon="5.61975">
        <ele>1053.26</ele>
        <time>2011-08-20T11:06:35Z</time>
      </trkpt>
      <trkpt lat="45.14714" lon="5.6198">
        <ele>1053.74</ele>
        <time>2011-08-20T11:06:39Z</time>
      </trkpt>
      <trkpt lat="45.14717" lon="5.61984">
        <ele>1054.22</ele>
        <time>2011-08-20T11:06:42Z</time>
      </trkpt>
      <trkpt lat="45.14718" lon="5.61985">
        <ele>1054.22</ele>
        <time>2011-08-20T11:06:43Z</time>
      </trkpt>
      <trkpt lat="45.1473" lon="5.61997">
        <ele>1055.18</ele>
        <time>2011-08-20T11:06:50Z</time>
      </trkpt>
      <trkpt lat="45.14732" lon="5.61998">
        <ele>1055.18</ele>
        <time>2011-08-20T11:06:51Z</time>
      </trkpt>
      <trkpt lat="45.14739" lon="5.62002">
        <ele>1055.67</ele>
        <time>2011-08-20T11:06:54Z</time>
      </trkpt>
      <trkpt lat="45.14741" lon="5.62002">
        <ele>1055.67</ele>
        <time>2011-08-20T11:06:55Z</time>
      </trkpt>
      <trkpt lat="45.14751" lon="5.62001">
        <ele>1057.59</ele>
        <time>2011-08-20T11:07:00Z</time>
      </trkpt>
      <trkpt lat="45.14764" lon="5.61998">
        <ele>1059.03</ele>
        <time>2011-08-20T11:07:08Z</time>
      </trkpt>
      <trkpt lat="45.14771" lon="5.61997">
        <ele>1059.99</ele>
        <time>2011-08-20T11:07:11Z</time>
      </trkpt>
      <trkpt lat="45.14777" lon="5.61994">
        <ele>1060.47</ele>
        <time>2011-08-20T11:07:15Z</time>
      </trkpt>
      <trkpt lat="45.14779" lon="5.61994">
        <ele>1061.43</ele>
        <time>2011-08-20T11:07:16Z</time>
      </trkpt>
      <trkpt lat="45.14781" lon="5.61994">
        <ele>1061.43</ele>
        <time>2011-08-20T11:07:17Z</time>
      </trkpt>
      <trkpt lat="45.14783" lon="5.61994">
        <ele>1061.91</ele>
        <time>2011-08-20T11:07:18Z</time>
      </trkpt>
      <trkpt lat="45.14785" lon="5.61993">
        <ele>1061.43</ele>
        <time>2011-08-20T11:07:19Z</time>
      </trkpt>
      <trkpt lat="45.14788" lon="5.61992">
        <ele>1062.39</ele>
        <time>2011-08-20T11:07:21Z</time>
      </trkpt>
      <trkpt lat="45.14793" lon="5.61991">
        <ele>1062.87</ele>
        <time>2011-08-20T11:07:24Z</time>
      </trkpt>
      <trkpt lat="45.14795" lon="5.61991">
        <ele>1062.87</ele>
        <time>2011-08-20T11:07:25Z</time>
      </trkpt>
      <trkpt lat="45.14797" lon="5.6199">
        <ele>1063.36</ele>
        <time>2011-08-20T11:07:26Z</time>
      </trkpt>
      <trkpt lat="45.14817" lon="5.61986">
        <ele>1064.8</ele>
        <time>2011-08-20T11:07:37Z</time>
      </trkpt>
      <trkpt lat="45.14838" lon="5.61983">
        <ele>1066.24</ele>
        <time>2011-08-20T11:07:49Z</time>
      </trkpt>
      <trkpt lat="45.14841" lon="5.61983">
        <ele>1066.72</ele>
        <time>2011-08-20T11:07:50Z</time>
      </trkpt>
      <trkpt lat="45.14843" lon="5.61983">
        <ele>1066.24</ele>
        <time>2011-08-20T11:07:51Z</time>
      </trkpt>
      <trkpt lat="45.14863" lon="5.61981">
        <ele>1065.76</ele>
        <time>2011-08-20T11:07:58Z</time>
      </trkpt>
      <trkpt lat="45.14866" lon="5.6198">
        <ele>1066.24</ele>
        <time>2011-08-20T11:07:59Z</time>
      </trkpt>
      <trkpt lat="45.14868" lon="5.6198">
        <ele>1066.24</ele>
        <time>2011-08-20T11:08:00Z</time>
      </trkpt>
      <trkpt lat="45.14887" lon="5.61979">
        <ele>1066.24</ele>
        <time>2011-08-20T11:08:09Z</time>
      </trkpt>
      <trkpt lat="45.1489" lon="5.61979">
        <ele>1066.24</ele>
        <time>2011-08-20T11:08:10Z</time>
      </trkpt>
      <trkpt lat="45.14893" lon="5.61978">
        <ele>1066.24</ele>
        <time>2011-08-20T11:08:11Z</time>
      </trkpt>
      <trkpt lat="45.14895" lon="5.61977">
        <ele>1066.24</ele>
        <time>2011-08-20T11:08:12Z</time>
      </trkpt>
      <trkpt lat="45.14898" lon="5.61977">
        <ele>1066.24</ele>
        <time>2011-08-20T11:08:13Z</time>
      </trkpt>
      <trkpt lat="45.14901" lon="5.61977">
        <ele>1066.24</ele>
        <time>2011-08-20T11:08:14Z</time>
      </trkpt>
      <trkpt lat="45.14905" lon="5.61976">
        <ele>1066.24</ele>
        <time>2011-08-20T11:08:15Z</time>
      </trkpt>
      <trkpt lat="45.14924" lon="5.61973">
        <ele>1065.76</ele>
        <time>2011-08-20T11:08:21Z</time>
      </trkpt>
      <trkpt lat="45.14926" lon="5.61971">
        <ele>1065.76</ele>
        <time>2011-08-20T11:08:22Z</time>
      </trkpt>
      <trkpt lat="45.1493" lon="5.61971">
        <ele>1066.24</ele>
        <time>2011-08-20T11:08:23Z</time>
      </trkpt>
      <trkpt lat="45.14933" lon="5.61971">
        <ele>1066.24</ele>
        <time>2011-08-20T11:08:24Z</time>
      </trkpt>
      <trkpt lat="45.14936" lon="5.61971">
        <ele>1066.72</ele>
        <time>2011-08-20T11:08:25Z</time>
      </trkpt>
      <trkpt lat="45.14939" lon="5.61971">
        <ele>1066.72</ele>
        <time>2011-08-20T11:08:26Z</time>
      </trkpt>
      <trkpt lat="45.14946" lon="5.61969">
        <ele>1067.68</ele>
        <time>2011-08-20T11:08:31Z</time>
      </trkpt>
      <trkpt lat="45.14948" lon="5.61969">
        <ele>1067.68</ele>
        <time>2011-08-20T11:08:32Z</time>
      </trkpt>
      <trkpt lat="45.14949" lon="5.61969">
        <ele>1068.16</ele>
        <time>2011-08-20T11:08:33Z</time>
      </trkpt>
      <trkpt lat="45.14951" lon="5.61968">
        <ele>1068.64</ele>
        <time>2011-08-20T11:08:34Z</time>
      </trkpt>
      <trkpt lat="45.14953" lon="5.61968">
        <ele>1069.12</ele>
        <time>2011-08-20T11:08:35Z</time>
      </trkpt>
      <trkpt lat="45.14955" lon="5.61968">
        <ele>1069.12</ele>
        <time>2011-08-20T11:08:36Z</time>
      </trkpt>
      <trkpt lat="45.14957" lon="5.61969">
        <ele>1069.12</ele>
        <time>2011-08-20T11:08:37Z</time>
      </trkpt>
      <trkpt lat="45.1496" lon="5.61969">
        <ele>1069.12</ele>
        <time>2011-08-20T11:08:38Z</time>
      </trkpt>
      <trkpt lat="45.14962" lon="5.61969">
        <ele>1069.12</ele>
        <time>2011-08-20T11:08:39Z</time>
      </trkpt>
      <trkpt lat="45.14977" lon="5.61968">
        <ele>1071.05</ele>
        <time>2011-08-20T11:08:46Z</time>
      </trkpt>
      <trkpt lat="45.14993" lon="5.61971">
        <ele>1072.01</ele>
        <time>2011-08-20T11:08:55Z</time>
      </trkpt>
      <trkpt lat="45.14995" lon="5.61971">
        <ele>1072.97</ele>
        <time>2011-08-20T11:08:56Z</time>
      </trkpt>
      <trkpt lat="45.14997" lon="5.61972">
        <ele>1072.49</ele>
        <time>2011-08-20T11:08:57Z</time>
      </trkpt>
      <trkpt lat="45.14999" lon="5.61972">
        <ele>1072.97</ele>
        <time>2011-08-20T11:08:58Z</time>
      </trkpt>
      <trkpt lat="45.15001" lon="5.61973">
        <ele>1072.97</ele>
        <time>2011-08-20T11:08:59Z</time>
      </trkpt>
      <trkpt lat="45.1501" lon="5.61975">
        <ele>1074.89</ele>
        <time>2011-08-20T11:09:06Z</time>
      </trkpt>
      <trkpt lat="45.15015" lon="5.61976">
        <ele>1075.37</ele>
        <time>2011-08-20T11:09:10Z</time>
      </trkpt>
      <trkpt lat="45.15024" lon="5.61977">
        <ele>1075.85</ele>
        <time>2011-08-20T11:09:15Z</time>
      </trkpt>
      <trkpt lat="45.1504" lon="5.61973">
        <ele>1076.33</ele>
        <time>2011-08-20T11:09:23Z</time>
      </trkpt>
      <trkpt lat="45.15045" lon="5.61972">
        <ele>1076.33</ele>
        <time>2011-08-20T11:09:25Z</time>
      </trkpt>
      <trkpt lat="45.15047" lon="5.61971">
        <ele>1076.33</ele>
        <time>2011-08-20T11:09:26Z</time>
      </trkpt>
      <trkpt lat="45.15061" lon="5.61964">
        <ele>1077.29</ele>
        <time>2011-08-20T11:09:33Z</time>
      </trkpt>
      <trkpt lat="45.15064" lon="5.61962">
        <ele>1076.33</ele>
        <time>2011-08-20T11:09:34Z</time>
      </trkpt>
      <trkpt lat="45.15066" lon="5.6196">
        <ele>1076.81</ele>
        <time>2011-08-20T11:09:35Z</time>
      </trkpt>
      <trkpt lat="45.15089" lon="5.61944">
        <ele>1077.78</ele>
        <time>2011-08-20T11:09:46Z</time>
      </trkpt>
      <trkpt lat="45.15115" lon="5.61928">
        <ele>1080.18</ele>
        <time>2011-08-20T11:10:01Z</time>
      </trkpt>
      <trkpt lat="45.15122" lon="5.61926">
        <ele>1080.66</ele>
        <time>2011-08-20T11:10:06Z</time>
      </trkpt>
      <trkpt lat="45.15123" lon="5.61925">
        <ele>1081.14</ele>
        <time>2011-08-20T11:10:07Z</time>
      </trkpt>
      <trkpt lat="45.15131" lon="5.61923">
        <ele>1082.1</ele>
        <time>2011-08-20T11:10:12Z</time>
      </trkpt>
      <trkpt lat="45.15132" lon="5.61923">
        <ele>1082.1</ele>
        <time>2011-08-20T11:10:13Z</time>
      </trkpt>
      <trkpt lat="45.15134" lon="5.61922">
        <ele>1082.58</ele>
        <time>2011-08-20T11:10:14Z</time>
      </trkpt>
      <trkpt lat="45.15136" lon="5.61922">
        <ele>1082.58</ele>
        <time>2011-08-20T11:10:15Z</time>
      </trkpt>
      <trkpt lat="45.15137" lon="5.61921">
        <ele>1082.58</ele>
        <time>2011-08-20T11:10:16Z</time>
      </trkpt>
      <trkpt lat="45.15142" lon="5.6192">
        <ele>1083.54</ele>
        <time>2011-08-20T11:10:20Z</time>
      </trkpt>
      <trkpt lat="45.15147" lon="5.61918">
        <ele>1084.02</ele>
        <time>2011-08-20T11:10:23Z</time>
      </trkpt>
      <trkpt lat="45.15149" lon="5.61917">
        <ele>1084.02</ele>
        <time>2011-08-20T11:10:24Z</time>
      </trkpt>
      <trkpt lat="45.15151" lon="5.61916">
        <ele>1084.02</ele>
        <time>2011-08-20T11:10:25Z</time>
      </trkpt>
      <trkpt lat="45.15175" lon="5.61903">
        <ele>1086.91</ele>
        <time>2011-08-20T11:10:40Z</time>
      </trkpt>
      <trkpt lat="45.15195" lon="5.61895">
        <ele>1088.83</ele>
        <time>2011-08-20T11:10:53Z</time>
      </trkpt>
      <trkpt lat="45.1521" lon="5.61889">
        <ele>1090.75</ele>
        <time>2011-08-20T11:11:03Z</time>
      </trkpt>
      <trkpt lat="45.15212" lon="5.61888">
        <ele>1091.23</ele>
        <time>2011-08-20T11:11:04Z</time>
      </trkpt>
      <trkpt lat="45.15213" lon="5.61888">
        <ele>1090.75</ele>
        <time>2011-08-20T11:11:05Z</time>
      </trkpt>
      <trkpt lat="45.15235" lon="5.61882">
        <ele>1092.68</ele>
        <time>2011-08-20T11:11:17Z</time>
      </trkpt>
      <trkpt lat="45.15237" lon="5.61882">
        <ele>1092.2</ele>
        <time>2011-08-20T11:11:18Z</time>
      </trkpt>
      <trkpt lat="45.1524" lon="5.61881">
        <ele>1092.68</ele>
        <time>2011-08-20T11:11:20Z</time>
      </trkpt>
      <trkpt lat="45.15242" lon="5.61881">
        <ele>1092.68</ele>
        <time>2011-08-20T11:11:21Z</time>
      </trkpt>
      <trkpt lat="45.15245" lon="5.61881">
        <ele>1092.68</ele>
        <time>2011-08-20T11:11:22Z</time>
      </trkpt>
      <trkpt lat="45.15247" lon="5.6188">
        <ele>1093.16</ele>
        <time>2011-08-20T11:11:23Z</time>
      </trkpt>
      <trkpt lat="45.15249" lon="5.6188">
        <ele>1093.16</ele>
        <time>2011-08-20T11:11:24Z</time>
      </trkpt>
      <trkpt lat="45.15268" lon="5.61872">
        <ele>1095.08</ele>
        <time>2011-08-20T11:11:37Z</time>
      </trkpt>
      <trkpt lat="45.15283" lon="5.61871">
        <ele>1097</ele>
        <time>2011-08-20T11:11:47Z</time>
      </trkpt>
      <trkpt lat="45.15304" lon="5.61868">
        <ele>1098.92</ele>
        <time>2011-08-20T11:12:00Z</time>
      </trkpt>
      <trkpt lat="45.15306" lon="5.61867">
        <ele>1098.92</ele>
        <time>2011-08-20T11:12:01Z</time>
      </trkpt>
      <trkpt lat="45.1531" lon="5.61866">
        <ele>1099.4</ele>
        <time>2011-08-20T11:12:03Z</time>
      </trkpt>
      <trkpt lat="45.15336" lon="5.6187">
        <ele>1101.81</ele>
        <time>2011-08-20T11:12:18Z</time>
      </trkpt>
      <trkpt lat="45.15339" lon="5.61871">
        <ele>1102.29</ele>
        <time>2011-08-20T11:12:20Z</time>
      </trkpt>
      <trkpt lat="45.1534" lon="5.61872">
        <ele>1102.77</ele>
        <time>2011-08-20T11:12:21Z</time>
      </trkpt>
      <trkpt lat="45.15341" lon="5.61873">
        <ele>1102.77</ele>
        <time>2011-08-20T11:12:22Z</time>
      </trkpt>
      <trkpt lat="45.15343" lon="5.61874">
        <ele>1103.25</ele>
        <time>2011-08-20T11:12:23Z</time>
      </trkpt>
      <trkpt lat="45.15344" lon="5.61874">
        <ele>1102.77</ele>
        <time>2011-08-20T11:12:24Z</time>
      </trkpt>
      <trkpt lat="45.15345" lon="5.61875">
        <ele>1103.25</ele>
        <time>2011-08-20T11:12:25Z</time>
      </trkpt>
      <trkpt lat="45.15346" lon="5.61875">
        <ele>1103.25</ele>
        <time>2011-08-20T11:12:26Z</time>
      </trkpt>
      <trkpt lat="45.15348" lon="5.61876">
        <ele>1103.25</ele>
        <time>2011-08-20T11:12:27Z</time>
      </trkpt>
      <trkpt lat="45.15349" lon="5.61876">
        <ele>1103.25</ele>
        <time>2011-08-20T11:12:28Z</time>
      </trkpt>
      <trkpt lat="45.15361" lon="5.61882">
        <ele>1105.17</ele>
        <time>2011-08-20T11:12:37Z</time>
      </trkpt>
      <trkpt lat="45.15368" lon="5.61884">
        <ele>1105.65</ele>
        <time>2011-08-20T11:12:41Z</time>
      </trkpt>
      <trkpt lat="45.15369" lon="5.61885">
        <ele>1105.65</ele>
        <time>2011-08-20T11:12:42Z</time>
      </trkpt>
      <trkpt lat="45.15376" lon="5.61889">
        <ele>1107.1</ele>
        <time>2011-08-20T11:12:48Z</time>
      </trkpt>
      <trkpt lat="45.15384" lon="5.61893">
        <ele>1108.06</ele>
        <time>2011-08-20T11:12:55Z</time>
      </trkpt>
      <trkpt lat="45.15385" lon="5.61893">
        <ele>1108.54</ele>
        <time>2011-08-20T11:12:56Z</time>
      </trkpt>
      <trkpt lat="45.15387" lon="5.61894">
        <ele>1108.54</ele>
        <time>2011-08-20T11:12:57Z</time>
      </trkpt>
      <trkpt lat="45.15396" lon="5.61907">
        <ele>1110.46</ele>
        <time>2011-08-20T11:13:07Z</time>
      </trkpt>
      <trkpt lat="45.15397" lon="5.61907">
        <ele>1110.46</ele>
        <time>2011-08-20T11:13:08Z</time>
      </trkpt>
      <trkpt lat="45.15401" lon="5.61911">
        <ele>1111.42</ele>
        <time>2011-08-20T11:13:12Z</time>
      </trkpt>
      <trkpt lat="45.15402" lon="5.61913">
        <ele>1110.94</ele>
        <time>2011-08-20T11:13:13Z</time>
      </trkpt>
      <trkpt lat="45.15403" lon="5.61914">
        <ele>1111.42</ele>
        <time>2011-08-20T11:13:14Z</time>
      </trkpt>
      <trkpt lat="45.15404" lon="5.61915">
        <ele>1111.42</ele>
        <time>2011-08-20T11:13:15Z</time>
      </trkpt>
      <trkpt lat="45.15405" lon="5.61917">
        <ele>1111.42</ele>
        <time>2011-08-20T11:13:16Z</time>
      </trkpt>
      <trkpt lat="45.15408" lon="5.6192">
        <ele>1112.38</ele>
        <time>2011-08-20T11:13:19Z</time>
      </trkpt>
      <trkpt lat="45.1541" lon="5.61921">
        <ele>1112.38</ele>
        <time>2011-08-20T11:13:20Z</time>
      </trkpt>
      <trkpt lat="45.15419" lon="5.61926">
        <ele>1113.34</ele>
        <time>2011-08-20T11:13:27Z</time>
      </trkpt>
      <trkpt lat="45.1542" lon="5.61927">
        <ele>1113.82</ele>
        <time>2011-08-20T11:13:28Z</time>
      </trkpt>
      <trkpt lat="45.15421" lon="5.61927">
        <ele>1113.34</ele>
        <time>2011-08-20T11:13:29Z</time>
      </trkpt>
      <trkpt lat="45.15423" lon="5.61928">
        <ele>1113.82</ele>
        <time>2011-08-20T11:13:30Z</time>
      </trkpt>
      <trkpt lat="45.15424" lon="5.61929">
        <ele>1113.34</ele>
        <time>2011-08-20T11:13:31Z</time>
      </trkpt>
      <trkpt lat="45.15426" lon="5.61929">
        <ele>1114.31</ele>
        <time>2011-08-20T11:13:33Z</time>
      </trkpt>
      <trkpt lat="45.15427" lon="5.6193">
        <ele>1113.82</ele>
        <time>2011-08-20T11:13:34Z</time>
      </trkpt>
      <trkpt lat="45.1543" lon="5.61931">
        <ele>1114.31</ele>
        <time>2011-08-20T11:13:36Z</time>
      </trkpt>
      <trkpt lat="45.15431" lon="5.61932">
        <ele>1114.79</ele>
        <time>2011-08-20T11:13:37Z</time>
      </trkpt>
      <trkpt lat="45.15432" lon="5.61934">
        <ele>1114.79</ele>
        <time>2011-08-20T11:13:38Z</time>
      </trkpt>
      <trkpt lat="45.15434" lon="5.61934">
        <ele>1114.79</ele>
        <time>2011-08-20T11:13:39Z</time>
      </trkpt>
      <trkpt lat="45.15434" lon="5.61934">
        <ele>1115.27</ele>
        <time>2011-08-20T11:13:40Z</time>
      </trkpt>
      <trkpt lat="45.15451" lon="5.61941">
        <ele>1116.71</ele>
        <time>2011-08-20T11:13:53Z</time>
      </trkpt>
      <trkpt lat="45.15453" lon="5.61942">
        <ele>1116.23</ele>
        <time>2011-08-20T11:13:55Z</time>
      </trkpt>
      <trkpt lat="45.15455" lon="5.61942">
        <ele>1116.71</ele>
        <time>2011-08-20T11:13:56Z</time>
      </trkpt>
      <trkpt lat="45.15456" lon="5.61943">
        <ele>1116.71</ele>
        <time>2011-08-20T11:13:57Z</time>
      </trkpt>
      <trkpt lat="45.15474" lon="5.61944">
        <ele>1118.15</ele>
        <time>2011-08-20T11:14:10Z</time>
      </trkpt>
      <trkpt lat="45.15475" lon="5.61945">
        <ele>1118.63</ele>
        <time>2011-08-20T11:14:11Z</time>
      </trkpt>
      <trkpt lat="45.15479" lon="5.61946">
        <ele>1118.63</ele>
        <time>2011-08-20T11:14:14Z</time>
      </trkpt>
      <trkpt lat="45.15499" lon="5.6194">
        <ele>1120.55</ele>
        <time>2011-08-20T11:14:27Z</time>
      </trkpt>
      <trkpt lat="45.15507" lon="5.61937">
        <ele>1121.52</ele>
        <time>2011-08-20T11:14:33Z</time>
      </trkpt>
      <trkpt lat="45.15508" lon="5.61936">
        <ele>1121.03</ele>
        <time>2011-08-20T11:14:34Z</time>
      </trkpt>
      <trkpt lat="45.1551" lon="5.61935">
        <ele>1121.52</ele>
        <time>2011-08-20T11:14:35Z</time>
      </trkpt>
      <trkpt lat="45.15511" lon="5.61935">
        <ele>1121.03</ele>
        <time>2011-08-20T11:14:36Z</time>
      </trkpt>
      <trkpt lat="45.15512" lon="5.61934">
        <ele>1122</ele>
        <time>2011-08-20T11:14:37Z</time>
      </trkpt>
      <trkpt lat="45.15529" lon="5.61922">
        <ele>1123.44</ele>
        <time>2011-08-20T11:14:50Z</time>
      </trkpt>
      <trkpt lat="45.15545" lon="5.61917">
        <ele>1124.88</ele>
        <time>2011-08-20T11:15:01Z</time>
      </trkpt>
      <trkpt lat="45.15546" lon="5.61917">
        <ele>1124.88</ele>
        <time>2011-08-20T11:15:02Z</time>
      </trkpt>
      <trkpt lat="45.15551" lon="5.61916">
        <ele>1124.88</ele>
        <time>2011-08-20T11:15:05Z</time>
      </trkpt>
      <trkpt lat="45.15553" lon="5.61915">
        <ele>1124.88</ele>
        <time>2011-08-20T11:15:06Z</time>
      </trkpt>
      <trkpt lat="45.15554" lon="5.61915">
        <ele>1124.88</ele>
        <time>2011-08-20T11:15:07Z</time>
      </trkpt>
      <trkpt lat="45.15573" lon="5.6191">
        <ele>1126.32</ele>
        <time>2011-08-20T11:15:20Z</time>
      </trkpt>
      <trkpt lat="45.15593" lon="5.61908">
        <ele>1127.76</ele>
        <time>2011-08-20T11:15:34Z</time>
      </trkpt>
      <trkpt lat="45.15595" lon="5.61908">
        <ele>1128.24</ele>
        <time>2011-08-20T11:15:35Z</time>
      </trkpt>
      <trkpt lat="45.15596" lon="5.61909">
        <ele>1128.24</ele>
        <time>2011-08-20T11:15:36Z</time>
      </trkpt>
      <trkpt lat="45.15597" lon="5.61909">
        <ele>1128.24</ele>
        <time>2011-08-20T11:15:37Z</time>
      </trkpt>
      <trkpt lat="45.15599" lon="5.61908">
        <ele>1128.24</ele>
        <time>2011-08-20T11:15:38Z</time>
      </trkpt>
      <trkpt lat="45.156" lon="5.61908">
        <ele>1128.24</ele>
        <time>2011-08-20T11:15:39Z</time>
      </trkpt>
      <trkpt lat="45.15602" lon="5.61907">
        <ele>1128.73</ele>
        <time>2011-08-20T11:15:40Z</time>
      </trkpt>
      <trkpt lat="45.15619" lon="5.61904">
        <ele>1130.17</ele>
        <time>2011-08-20T11:15:52Z</time>
      </trkpt>
      <trkpt lat="45.15626" lon="5.61907">
        <ele>1131.61</ele>
        <time>2011-08-20T11:15:58Z</time>
      </trkpt>
      <trkpt lat="45.15627" lon="5.61908">
        <ele>1131.13</ele>
        <time>2011-08-20T11:15:59Z</time>
      </trkpt>
      <trkpt lat="45.15628" lon="5.61909">
        <ele>1131.13</ele>
        <time>2011-08-20T11:16:00Z</time>
      </trkpt>
      <trkpt lat="45.15629" lon="5.61909">
        <ele>1131.61</ele>
        <time>2011-08-20T11:16:01Z</time>
      </trkpt>
      <trkpt lat="45.1563" lon="5.61909">
        <ele>1132.09</ele>
        <time>2011-08-20T11:16:02Z</time>
      </trkpt>
      <trkpt lat="45.15632" lon="5.6191">
        <ele>1131.61</ele>
        <time>2011-08-20T11:16:03Z</time>
      </trkpt>
      <trkpt lat="45.15641" lon="5.61914">
        <ele>1132.57</ele>
        <time>2011-08-20T11:16:09Z</time>
      </trkpt>
      <trkpt lat="45.15643" lon="5.61914">
        <ele>1132.09</ele>
        <time>2011-08-20T11:16:10Z</time>
      </trkpt>
      <trkpt lat="45.15645" lon="5.61915">
        <ele>1132.57</ele>
        <time>2011-08-20T11:16:11Z</time>
      </trkpt>
      <trkpt lat="45.15653" lon="5.61918">
        <ele>1132.09</ele>
        <time>2011-08-20T11:16:16Z</time>
      </trkpt>
      <trkpt lat="45.15655" lon="5.61918">
        <ele>1132.57</ele>
        <time>2011-08-20T11:16:17Z</time>
      </trkpt>
      <trkpt lat="45.15657" lon="5.61918">
        <ele>1132.57</ele>
        <time>2011-08-20T11:16:18Z</time>
      </trkpt>
      <trkpt lat="45.15673" lon="5.61924">
        <ele>1132.57</ele>
        <time>2011-08-20T11:16:26Z</time>
      </trkpt>
      <trkpt lat="45.15675" lon="5.61925">
        <ele>1132.57</ele>
        <time>2011-08-20T11:16:27Z</time>
      </trkpt>
      <trkpt lat="45.15677" lon="5.61926">
        <ele>1132.57</ele>
        <time>2011-08-20T11:16:28Z</time>
      </trkpt>
      <trkpt lat="45.15703" lon="5.61934">
        <ele>1134.01</ele>
        <time>2011-08-20T11:16:42Z</time>
      </trkpt>
      <trkpt lat="45.15706" lon="5.61935">
        <ele>1134.01</ele>
        <time>2011-08-20T11:16:44Z</time>
      </trkpt>
      <trkpt lat="45.15708" lon="5.61935">
        <ele>1134.01</ele>
        <time>2011-08-20T11:16:45Z</time>
      </trkpt>
      <trkpt lat="45.15709" lon="5.61934">
        <ele>1133.53</ele>
        <time>2011-08-20T11:16:46Z</time>
      </trkpt>
      <trkpt lat="45.15743" lon="5.61932">
        <ele>1133.53</ele>
        <time>2011-08-20T11:17:00Z</time>
      </trkpt>
      <trkpt lat="45.15757" lon="5.61934">
        <ele>1133.05</ele>
        <time>2011-08-20T11:17:04Z</time>
      </trkpt>
      <trkpt lat="45.15773" lon="5.6194">
        <ele>1132.09</ele>
        <time>2011-08-20T11:17:08Z</time>
      </trkpt>
      <trkpt lat="45.15777" lon="5.61943">
        <ele>1132.09</ele>
        <time>2011-08-20T11:17:09Z</time>
      </trkpt>
      <trkpt lat="45.15781" lon="5.61946">
        <ele>1132.09</ele>
        <time>2011-08-20T11:17:10Z</time>
      </trkpt>
      <trkpt lat="45.15785" lon="5.61948">
        <ele>1132.57</ele>
        <time>2011-08-20T11:17:11Z</time>
      </trkpt>
      <trkpt lat="45.15788" lon="5.6195">
        <ele>1133.05</ele>
        <time>2011-08-20T11:17:12Z</time>
      </trkpt>
      <trkpt lat="45.15792" lon="5.61951">
        <ele>1133.05</ele>
        <time>2011-08-20T11:17:13Z</time>
      </trkpt>
      <trkpt lat="45.15794" lon="5.61953">
        <ele>1133.05</ele>
        <time>2011-08-20T11:17:14Z</time>
      </trkpt>
      <trkpt lat="45.15798" lon="5.61952">
        <ele>1133.05</ele>
        <time>2011-08-20T11:17:15Z</time>
      </trkpt>
      <trkpt lat="45.15801" lon="5.6195">
        <ele>1133.05</ele>
        <time>2011-08-20T11:17:16Z</time>
      </trkpt>
      <trkpt lat="45.15804" lon="5.61947">
        <ele>1133.53</ele>
        <time>2011-08-20T11:17:17Z</time>
      </trkpt>
      <trkpt lat="45.15807" lon="5.61942">
        <ele>1132.57</ele>
        <time>2011-08-20T11:17:18Z</time>
      </trkpt>
      <trkpt lat="45.15809" lon="5.61937">
        <ele>1133.05</ele>
        <time>2011-08-20T11:17:19Z</time>
      </trkpt>
      <trkpt lat="45.15812" lon="5.61933">
        <ele>1132.57</ele>
        <time>2011-08-20T11:17:20Z</time>
      </trkpt>
      <trkpt lat="45.15833" lon="5.61887">
        <ele>1132.57</ele>
        <time>2011-08-20T11:17:31Z</time>
      </trkpt>
      <trkpt lat="45.15846" lon="5.61865">
        <ele>1134.49</ele>
        <time>2011-08-20T11:17:41Z</time>
      </trkpt>
      <trkpt lat="45.15846" lon="5.61863">
        <ele>1134.01</ele>
        <time>2011-08-20T11:17:42Z</time>
      </trkpt>
      <trkpt lat="45.15847" lon="5.61861">
        <ele>1134.49</ele>
        <time>2011-08-20T11:17:43Z</time>
      </trkpt>
      <trkpt lat="45.1585" lon="5.61857">
        <ele>1134.49</ele>
        <time>2011-08-20T11:17:45Z</time>
      </trkpt>
      <trkpt lat="45.15851" lon="5.61855">
        <ele>1134.97</ele>
        <time>2011-08-20T11:17:46Z</time>
      </trkpt>
      <trkpt lat="45.15852" lon="5.61853">
        <ele>1134.97</ele>
        <time>2011-08-20T11:17:47Z</time>
      </trkpt>
      <trkpt lat="45.15853" lon="5.6185">
        <ele>1134.49</ele>
        <time>2011-08-20T11:17:48Z</time>
      </trkpt>
      <trkpt lat="45.15854" lon="5.61848">
        <ele>1135.45</ele>
        <time>2011-08-20T11:17:49Z</time>
      </trkpt>
      <trkpt lat="45.15855" lon="5.61845">
        <ele>1134.97</ele>
        <time>2011-08-20T11:17:50Z</time>
      </trkpt>
      <trkpt lat="45.15857" lon="5.61843">
        <ele>1135.45</ele>
        <time>2011-08-20T11:17:51Z</time>
      </trkpt>
      <trkpt lat="45.15858" lon="5.61841">
        <ele>1135.45</ele>
        <time>2011-08-20T11:17:52Z</time>
      </trkpt>
      <trkpt lat="45.15859" lon="5.61839">
        <ele>1135.94</ele>
        <time>2011-08-20T11:17:53Z</time>
      </trkpt>
      <trkpt lat="45.15859" lon="5.61836">
        <ele>1135.45</ele>
        <time>2011-08-20T11:17:54Z</time>
      </trkpt>
      <trkpt lat="45.1586" lon="5.61834">
        <ele>1135.45</ele>
        <time>2011-08-20T11:17:55Z</time>
      </trkpt>
      <trkpt lat="45.15862" lon="5.61832">
        <ele>1135.94</ele>
        <time>2011-08-20T11:17:56Z</time>
      </trkpt>
      <trkpt lat="45.15863" lon="5.6183">
        <ele>1136.42</ele>
        <time>2011-08-20T11:17:57Z</time>
      </trkpt>
      <trkpt lat="45.15864" lon="5.61829">
        <ele>1136.42</ele>
        <time>2011-08-20T11:17:58Z</time>
      </trkpt>
      <trkpt lat="45.15865" lon="5.61827">
        <ele>1136.9</ele>
        <time>2011-08-20T11:17:59Z</time>
      </trkpt>
      <trkpt lat="45.15866" lon="5.61825">
        <ele>1136.9</ele>
        <time>2011-08-20T11:18:00Z</time>
      </trkpt>
      <trkpt lat="45.15867" lon="5.61824">
        <ele>1136.9</ele>
        <time>2011-08-20T11:18:01Z</time>
      </trkpt>
      <trkpt lat="45.15868" lon="5.61822">
        <ele>1136.9</ele>
        <time>2011-08-20T11:18:02Z</time>
      </trkpt>
      <trkpt lat="45.15869" lon="5.61819">
        <ele>1136.9</ele>
        <time>2011-08-20T11:18:03Z</time>
      </trkpt>
      <trkpt lat="45.15871" lon="5.61817">
        <ele>1137.38</ele>
        <time>2011-08-20T11:18:04Z</time>
      </trkpt>
      <trkpt lat="45.15892" lon="5.61802">
        <ele>1137.86</ele>
        <time>2011-08-20T11:18:15Z</time>
      </trkpt>
      <trkpt lat="45.15922" lon="5.61796">
        <ele>1139.3</ele>
        <time>2011-08-20T11:18:29Z</time>
      </trkpt>
      <trkpt lat="45.15952" lon="5.61788">
        <ele>1140.74</ele>
        <time>2011-08-20T11:18:44Z</time>
      </trkpt>
      <trkpt lat="45.15958" lon="5.61784">
        <ele>1141.7</ele>
        <time>2011-08-20T11:18:48Z</time>
      </trkpt>
      <trkpt lat="45.1596" lon="5.61785">
        <ele>1141.7</ele>
        <time>2011-08-20T11:18:49Z</time>
      </trkpt>
      <trkpt lat="45.15961" lon="5.61784">
        <ele>1142.18</ele>
        <time>2011-08-20T11:18:50Z</time>
      </trkpt>
      <trkpt lat="45.15963" lon="5.61783">
        <ele>1142.66</ele>
        <time>2011-08-20T11:18:51Z</time>
      </trkpt>
      <trkpt lat="45.15964" lon="5.61783">
        <ele>1142.66</ele>
        <time>2011-08-20T11:18:52Z</time>
      </trkpt>
      <trkpt lat="45.15994" lon="5.61773">
        <ele>1145.07</ele>
        <time>2011-08-20T11:19:08Z</time>
      </trkpt>
      <trkpt lat="45.1602" lon="5.6177">
        <ele>1146.51</ele>
        <time>2011-08-20T11:19:20Z</time>
      </trkpt>
      <trkpt lat="45.16034" lon="5.61771">
        <ele>1147.95</ele>
        <time>2011-08-20T11:19:32Z</time>
      </trkpt>
      <trkpt lat="45.16046" lon="5.61775">
        <ele>1149.39</ele>
        <time>2011-08-20T11:19:44Z</time>
      </trkpt>
      <trkpt lat="45.16048" lon="5.61776">
        <ele>1149.87</ele>
        <time>2011-08-20T11:19:46Z</time>
      </trkpt>
      <trkpt lat="45.16049" lon="5.61776">
        <ele>1149.39</ele>
        <time>2011-08-20T11:19:47Z</time>
      </trkpt>
      <trkpt lat="45.16071" lon="5.61787">
        <ele>1152.76</ele>
        <time>2011-08-20T11:20:01Z</time>
      </trkpt>
      <trkpt lat="45.16091" lon="5.61807">
        <ele>1153.72</ele>
        <time>2011-08-20T11:20:14Z</time>
      </trkpt>
      <trkpt lat="45.16098" lon="5.61825">
        <ele>1153.24</ele>
        <time>2011-08-20T11:20:19Z</time>
      </trkpt>
      <trkpt lat="45.16099" lon="5.61832">
        <ele>1152.76</ele>
        <time>2011-08-20T11:20:20Z</time>
      </trkpt>
      <trkpt lat="45.16098" lon="5.6184">
        <ele>1152.76</ele>
        <time>2011-08-20T11:20:21Z</time>
      </trkpt>
      <trkpt lat="45.16097" lon="5.61849">
        <ele>1151.8</ele>
        <time>2011-08-20T11:20:22Z</time>
      </trkpt>
      <trkpt lat="45.16095" lon="5.61858">
        <ele>1151.32</ele>
        <time>2011-08-20T11:20:23Z</time>
      </trkpt>
      <trkpt lat="45.16091" lon="5.61892">
        <ele>1148.91</ele>
        <time>2011-08-20T11:20:26Z</time>
      </trkpt>
      <trkpt lat="45.1609" lon="5.61905">
        <ele>1148.43</ele>
        <time>2011-08-20T11:20:27Z</time>
      </trkpt>
      <trkpt lat="45.1609" lon="5.61919">
        <ele>1148.43</ele>
        <time>2011-08-20T11:20:28Z</time>
      </trkpt>
      <trkpt lat="45.16091" lon="5.61932">
        <ele>1147.47</ele>
        <time>2011-08-20T11:20:29Z</time>
      </trkpt>
      <trkpt lat="45.16094" lon="5.61945">
        <ele>1147.47</ele>
        <time>2011-08-20T11:20:30Z</time>
      </trkpt>
      <trkpt lat="45.16099" lon="5.61957">
        <ele>1146.99</ele>
        <time>2011-08-20T11:20:31Z</time>
      </trkpt>
      <trkpt lat="45.16104" lon="5.61969">
        <ele>1146.51</ele>
        <time>2011-08-20T11:20:32Z</time>
      </trkpt>
      <trkpt lat="45.1611" lon="5.6198">
        <ele>1146.51</ele>
        <time>2011-08-20T11:20:33Z</time>
      </trkpt>
      <trkpt lat="45.16124" lon="5.62011">
        <ele>1146.03</ele>
        <time>2011-08-20T11:20:36Z</time>
      </trkpt>
      <trkpt lat="45.16136" lon="5.62041">
        <ele>1146.99</ele>
        <time>2011-08-20T11:20:39Z</time>
      </trkpt>
      <trkpt lat="45.16138" lon="5.62049">
        <ele>1146.99</ele>
        <time>2011-08-20T11:20:40Z</time>
      </trkpt>
      <trkpt lat="45.16139" lon="5.62053">
        <ele>1146.51</ele>
        <time>2011-08-20T11:20:41Z</time>
      </trkpt>
      <trkpt lat="45.16139" lon="5.62059">
        <ele>1146.99</ele>
        <time>2011-08-20T11:20:45Z</time>
      </trkpt>
      <trkpt lat="45.16139" lon="5.62065">
        <ele>1147.47</ele>
        <time>2011-08-20T11:20:54Z</time>
      </trkpt>
      <trkpt lat="45.16141" lon="5.62098">
        <ele>1145.55</ele>
        <time>2011-08-20T11:21:03Z</time>
      </trkpt>
      <trkpt lat="45.16142" lon="5.62115">
        <ele>1144.59</ele>
        <time>2011-08-20T11:21:05Z</time>
      </trkpt>
      <trkpt lat="45.16142" lon="5.62133">
        <ele>1144.11</ele>
        <time>2011-08-20T11:21:07Z</time>
      </trkpt>
      <trkpt lat="45.16143" lon="5.62142">
        <ele>1144.11</ele>
        <time>2011-08-20T11:21:08Z</time>
      </trkpt>
      <trkpt lat="45.16146" lon="5.62151">
        <ele>1144.11</ele>
        <time>2011-08-20T11:21:09Z</time>
      </trkpt>
      <trkpt lat="45.16149" lon="5.6216">
        <ele>1143.63</ele>
        <time>2011-08-20T11:21:10Z</time>
      </trkpt>
      <trkpt lat="45.16152" lon="5.62168">
        <ele>1143.63</ele>
        <time>2011-08-20T11:21:11Z</time>
      </trkpt>
      <trkpt lat="45.16156" lon="5.62175">
        <ele>1143.63</ele>
        <time>2011-08-20T11:21:12Z</time>
      </trkpt>
      <trkpt lat="45.1616" lon="5.62181">
        <ele>1143.63</ele>
        <time>2011-08-20T11:21:13Z</time>
      </trkpt>
      <trkpt lat="45.16165" lon="5.62188">
        <ele>1143.63</ele>
        <time>2011-08-20T11:21:14Z</time>
      </trkpt>
      <trkpt lat="45.16171" lon="5.62192">
        <ele>1144.11</ele>
        <time>2011-08-20T11:21:15Z</time>
      </trkpt>
      <trkpt lat="45.16176" lon="5.62197">
        <ele>1144.11</ele>
        <time>2011-08-20T11:21:16Z</time>
      </trkpt>
      <trkpt lat="45.16181" lon="5.62201">
        <ele>1144.59</ele>
        <time>2011-08-20T11:21:17Z</time>
      </trkpt>
      <trkpt lat="45.16192" lon="5.62212">
        <ele>1145.55</ele>
        <time>2011-08-20T11:21:20Z</time>
      </trkpt>
      <trkpt lat="45.16205" lon="5.62229">
        <ele>1146.99</ele>
        <time>2011-08-20T11:21:26Z</time>
      </trkpt>
      <trkpt lat="45.16211" lon="5.62252">
        <ele>1146.51</ele>
        <time>2011-08-20T11:21:32Z</time>
      </trkpt>
      <trkpt lat="45.16211" lon="5.62259">
        <ele>1146.03</ele>
        <time>2011-08-20T11:21:33Z</time>
      </trkpt>
      <trkpt lat="45.1621" lon="5.62267">
        <ele>1146.03</ele>
        <time>2011-08-20T11:21:34Z</time>
      </trkpt>
      <trkpt lat="45.16209" lon="5.62275">
        <ele>1145.55</ele>
        <time>2011-08-20T11:21:35Z</time>
      </trkpt>
      <trkpt lat="45.16208" lon="5.62283">
        <ele>1145.07</ele>
        <time>2011-08-20T11:21:36Z</time>
      </trkpt>
      <trkpt lat="45.16208" lon="5.62292">
        <ele>1145.07</ele>
        <time>2011-08-20T11:21:37Z</time>
      </trkpt>
      <trkpt lat="45.16208" lon="5.62301">
        <ele>1145.07</ele>
        <time>2011-08-20T11:21:38Z</time>
      </trkpt>
      <trkpt lat="45.16209" lon="5.62311">
        <ele>1145.07</ele>
        <time>2011-08-20T11:21:39Z</time>
      </trkpt>
      <trkpt lat="45.16211" lon="5.62321">
        <ele>1144.59</ele>
        <time>2011-08-20T11:21:40Z</time>
      </trkpt>
      <trkpt lat="45.16213" lon="5.6233">
        <ele>1144.59</ele>
        <time>2011-08-20T11:21:41Z</time>
      </trkpt>
      <trkpt lat="45.16223" lon="5.62368">
        <ele>1144.11</ele>
        <time>2011-08-20T11:21:45Z</time>
      </trkpt>
      <trkpt lat="45.16227" lon="5.62376">
        <ele>1144.11</ele>
        <time>2011-08-20T11:21:46Z</time>
      </trkpt>
      <trkpt lat="45.16234" lon="5.6239">
        <ele>1144.11</ele>
        <time>2011-08-20T11:21:48Z</time>
      </trkpt>
      <trkpt lat="45.16239" lon="5.62397">
        <ele>1143.63</ele>
        <time>2011-08-20T11:21:49Z</time>
      </trkpt>
      <trkpt lat="45.16245" lon="5.62403">
        <ele>1143.14</ele>
        <time>2011-08-20T11:21:50Z</time>
      </trkpt>
      <trkpt lat="45.16251" lon="5.62408">
        <ele>1143.14</ele>
        <time>2011-08-20T11:21:51Z</time>
      </trkpt>
      <trkpt lat="45.16258" lon="5.62413">
        <ele>1142.66</ele>
        <time>2011-08-20T11:21:52Z</time>
      </trkpt>
      <trkpt lat="45.1627" lon="5.62424">
        <ele>1142.18</ele>
        <time>2011-08-20T11:21:54Z</time>
      </trkpt>
      <trkpt lat="45.16275" lon="5.6243">
        <ele>1142.18</ele>
        <time>2011-08-20T11:21:55Z</time>
      </trkpt>
      <trkpt lat="45.1629" lon="5.62449">
        <ele>1141.7</ele>
        <time>2011-08-20T11:21:58Z</time>
      </trkpt>
      <trkpt lat="45.16293" lon="5.62456">
        <ele>1141.7</ele>
        <time>2011-08-20T11:21:59Z</time>
      </trkpt>
      <trkpt lat="45.16296" lon="5.62461">
        <ele>1142.66</ele>
        <time>2011-08-20T11:22:00Z</time>
      </trkpt>
      <trkpt lat="45.16298" lon="5.62465">
        <ele>1143.14</ele>
        <time>2011-08-20T11:22:01Z</time>
      </trkpt>
      <trkpt lat="45.163" lon="5.62467">
        <ele>1143.63</ele>
        <time>2011-08-20T11:22:02Z</time>
      </trkpt>
      <trkpt lat="45.16302" lon="5.62469">
        <ele>1143.63</ele>
        <time>2011-08-20T11:22:03Z</time>
      </trkpt>
      <trkpt lat="45.16332" lon="5.6249">
        <ele>1144.59</ele>
        <time>2011-08-20T11:22:14Z</time>
      </trkpt>
      <trkpt lat="45.16328" lon="5.62501">
        <ele>1145.55</ele>
        <time>2011-08-20T11:22:19Z</time>
      </trkpt>
      <trkpt lat="45.16318" lon="5.62524">
        <ele>1148.91</ele>
        <time>2011-08-20T11:22:31Z</time>
      </trkpt>
      <trkpt lat="45.16309" lon="5.62545">
        <ele>1152.28</ele>
        <time>2011-08-20T11:22:42Z</time>
      </trkpt>
      <trkpt lat="45.16309" lon="5.62547">
        <ele>1153.24</ele>
        <time>2011-08-20T11:22:43Z</time>
      </trkpt>
      <trkpt lat="45.16313" lon="5.62553">
        <ele>1153.72</ele>
        <time>2011-08-20T11:22:47Z</time>
      </trkpt>
      <trkpt lat="45.16347" lon="5.6257">
        <ele>1153.72</ele>
        <time>2011-08-20T11:23:01Z</time>
      </trkpt>
      <trkpt lat="45.16387" lon="5.62613">
        <ele>1155.16</ele>
        <time>2011-08-20T11:23:18Z</time>
      </trkpt>
      <trkpt lat="45.16403" lon="5.62646">
        <ele>1155.64</ele>
        <time>2011-08-20T11:23:29Z</time>
      </trkpt>
      <trkpt lat="45.16416" lon="5.62676">
        <ele>1156.6</ele>
        <time>2011-08-20T11:23:40Z</time>
      </trkpt>
      <trkpt lat="45.16439" lon="5.62698">
        <ele>1157.56</ele>
        <time>2011-08-20T11:23:52Z</time>
      </trkpt>
      <trkpt lat="45.16442" lon="5.627">
        <ele>1157.56</ele>
        <time>2011-08-20T11:24:04Z</time>
      </trkpt>
      <trkpt lat="45.16442" lon="5.627">
        <ele>1157.08</ele>
        <time>2011-08-20T11:24:18Z</time>
      </trkpt>
      <trkpt lat="45.16442" lon="5.627">
        <ele>1157.08</ele>
        <time>2011-08-20T11:24:41Z</time>
      </trkpt>
      <trkpt lat="45.16443" lon="5.62699">
        <ele>1157.08</ele>
        <time>2011-08-20T11:25:03Z</time>
      </trkpt>
      <trkpt lat="45.16443" lon="5.62699">
        <ele>1157.56</ele>
        <time>2011-08-20T11:25:30Z</time>
      </trkpt>
      <trkpt lat="45.16443" lon="5.62699">
        <ele>1158.05</ele>
        <time>2011-08-20T11:25:55Z</time>
      </trkpt>
      <trkpt lat="45.16444" lon="5.62698">
        <ele>1157.56</ele>
        <time>2011-08-20T11:26:19Z</time>
      </trkpt>
      <trkpt lat="45.16444" lon="5.62698">
        <ele>1158.05</ele>
        <time>2011-08-20T11:26:46Z</time>
      </trkpt>
      <trkpt lat="45.16444" lon="5.62698">
        <ele>1158.05</ele>
        <time>2011-08-20T11:27:07Z</time>
      </trkpt>
      <trkpt lat="45.16445" lon="5.62698">
        <ele>1158.05</ele>
        <time>2011-08-20T11:27:37Z</time>
      </trkpt>
      <trkpt lat="45.16445" lon="5.62697">
        <ele>1158.53</ele>
        <time>2011-08-20T11:28:11Z</time>
      </trkpt>
      <trkpt lat="45.16445" lon="5.62697">
        <ele>1158.53</ele>
        <time>2011-08-20T11:28:38Z</time>
      </trkpt>
      <trkpt lat="45.16446" lon="5.62698">
        <ele>1158.53</ele>
        <time>2011-08-20T11:29:01Z</time>
      </trkpt>
      <trkpt lat="45.16446" lon="5.62698">
        <ele>1158.53</ele>
        <time>2011-08-20T11:29:29Z</time>
      </trkpt>
      <trkpt lat="45.16446" lon="5.62698">
        <ele>1158.53</ele>
        <time>2011-08-20T11:29:57Z</time>
      </trkpt>
      <trkpt lat="45.16446" lon="5.62698">
        <ele>1159.01</ele>
        <time>2011-08-20T11:30:28Z</time>
      </trkpt>
      <trkpt lat="45.16446" lon="5.62697">
        <ele>1159.01</ele>
        <time>2011-08-20T11:30:55Z</time>
      </trkpt>
      <trkpt lat="45.16446" lon="5.62697">
        <ele>1159.01</ele>
        <time>2011-08-20T11:31:23Z</time>
      </trkpt>
      <trkpt lat="45.16447" lon="5.62697">
        <ele>1158.53</ele>
        <time>2011-08-20T11:31:53Z</time>
      </trkpt>
      <trkpt lat="45.16447" lon="5.62697">
        <ele>1159.01</ele>
        <time>2011-08-20T11:32:20Z</time>
      </trkpt>
      <trkpt lat="45.16447" lon="5.62697">
        <ele>1159.01</ele>
        <time>2011-08-20T11:32:48Z</time>
      </trkpt>
      <trkpt lat="45.16447" lon="5.62697">
        <ele>1159.49</ele>
        <time>2011-08-20T11:33:16Z</time>
      </trkpt>
      <trkpt lat="45.16447" lon="5.62696">
        <ele>1159.49</ele>
        <time>2011-08-20T11:33:27Z</time>
      </trkpt>
      <trkpt lat="45.16447" lon="5.62696">
        <ele>1159.01</ele>
        <time>2011-08-20T11:33:51Z</time>
      </trkpt>
      <trkpt lat="45.16447" lon="5.62696">
        <ele>1159.49</ele>
        <time>2011-08-20T11:34:22Z</time>
      </trkpt>
      <trkpt lat="45.16447" lon="5.62698">
        <ele>1159.49</ele>
        <time>2011-08-20T11:34:57Z</time>
      </trkpt>
      <trkpt lat="45.16447" lon="5.62697">
        <ele>1159.97</ele>
        <time>2011-08-20T11:35:01Z</time>
      </trkpt>
      <trkpt lat="45.16468" lon="5.62699">
        <ele>1159.97</ele>
        <time>2011-08-20T11:35:12Z</time>
      </trkpt>
      <trkpt lat="45.1647" lon="5.62699">
        <ele>1159.97</ele>
        <time>2011-08-20T11:35:13Z</time>
      </trkpt>
      <trkpt lat="45.16472" lon="5.62716">
        <ele>1160.45</ele>
        <time>2011-08-20T11:35:19Z</time>
      </trkpt>
      <trkpt lat="45.16472" lon="5.6274">
        <ele>1163.33</ele>
        <time>2011-08-20T11:35:31Z</time>
      </trkpt>
      <trkpt lat="45.16472" lon="5.62768">
        <ele>1166.22</ele>
        <time>2011-08-20T11:35:46Z</time>
      </trkpt>
      <trkpt lat="45.16469" lon="5.62783">
        <ele>1168.14</ele>
        <time>2011-08-20T11:35:56Z</time>
      </trkpt>
      <trkpt lat="45.16468" lon="5.62803">
        <ele>1171.5</ele>
        <time>2011-08-20T11:36:09Z</time>
      </trkpt>
      <trkpt lat="45.16468" lon="5.62804">
        <ele>1171.5</ele>
        <time>2011-08-20T11:36:10Z</time>
      </trkpt>
      <trkpt lat="45.16474" lon="5.62818">
        <ele>1174.87</ele>
        <time>2011-08-20T11:36:20Z</time>
      </trkpt>
      <trkpt lat="45.16475" lon="5.62823">
        <ele>1175.83</ele>
        <time>2011-08-20T11:36:23Z</time>
      </trkpt>
      <trkpt lat="45.16472" lon="5.62836">
        <ele>1176.79</ele>
        <time>2011-08-20T11:36:31Z</time>
      </trkpt>
      <trkpt lat="45.16472" lon="5.62839">
        <ele>1177.27</ele>
        <time>2011-08-20T11:36:33Z</time>
      </trkpt>
      <trkpt lat="45.16465" lon="5.62859">
        <ele>1179.67</ele>
        <time>2011-08-20T11:36:49Z</time>
      </trkpt>
      <trkpt lat="45.16465" lon="5.62873">
        <ele>1182.08</ele>
        <time>2011-08-20T11:36:58Z</time>
      </trkpt>
      <trkpt lat="45.16463" lon="5.62881">
        <ele>1183.04</ele>
        <time>2011-08-20T11:37:04Z</time>
      </trkpt>
      <trkpt lat="45.16458" lon="5.62899">
        <ele>1186.88</ele>
        <time>2011-08-20T11:37:16Z</time>
      </trkpt>
      <trkpt lat="45.16455" lon="5.62915">
        <ele>1189.77</ele>
        <time>2011-08-20T11:37:27Z</time>
      </trkpt>
      <trkpt lat="45.16455" lon="5.62922">
        <ele>1190.25</ele>
        <time>2011-08-20T11:37:33Z</time>
      </trkpt>
      <trkpt lat="45.16464" lon="5.62937">
        <ele>1193.61</ele>
        <time>2011-08-20T11:37:48Z</time>
      </trkpt>
      <trkpt lat="45.16466" lon="5.62937">
        <ele>1194.09</ele>
        <time>2011-08-20T11:37:50Z</time>
      </trkpt>
      <trkpt lat="45.16474" lon="5.62936">
        <ele>1195.06</ele>
        <time>2011-08-20T11:37:56Z</time>
      </trkpt>
      <trkpt lat="45.16476" lon="5.62936">
        <ele>1196.02</ele>
        <time>2011-08-20T11:37:58Z</time>
      </trkpt>
      <trkpt lat="45.16478" lon="5.62936">
        <ele>1196.02</ele>
        <time>2011-08-20T11:38:00Z</time>
      </trkpt>
      <trkpt lat="45.16492" lon="5.62928">
        <ele>1198.42</ele>
        <time>2011-08-20T11:38:14Z</time>
      </trkpt>
      <trkpt lat="45.16504" lon="5.62916">
        <ele>1200.82</ele>
        <time>2011-08-20T11:38:26Z</time>
      </trkpt>
      <trkpt lat="45.1651" lon="5.62911">
        <ele>1201.79</ele>
        <time>2011-08-20T11:38:32Z</time>
      </trkpt>
      <trkpt lat="45.16513" lon="5.62907">
        <ele>1202.27</ele>
        <time>2011-08-20T11:38:35Z</time>
      </trkpt>
      <trkpt lat="45.16529" lon="5.62895">
        <ele>1205.63</ele>
        <time>2011-08-20T11:38:51Z</time>
      </trkpt>
      <trkpt lat="45.16531" lon="5.62895">
        <ele>1206.11</ele>
        <time>2011-08-20T11:38:53Z</time>
      </trkpt>
      <trkpt lat="45.16533" lon="5.62894">
        <ele>1206.11</ele>
        <time>2011-08-20T11:38:55Z</time>
      </trkpt>
      <trkpt lat="45.16538" lon="5.62894">
        <ele>1206.59</ele>
        <time>2011-08-20T11:39:01Z</time>
      </trkpt>
      <trkpt lat="45.1654" lon="5.62894">
        <ele>1206.59</ele>
        <time>2011-08-20T11:39:03Z</time>
      </trkpt>
      <trkpt lat="45.16541" lon="5.62904">
        <ele>1207.55</ele>
        <time>2011-08-20T11:39:10Z</time>
      </trkpt>
      <trkpt lat="45.16541" lon="5.62916">
        <ele>1208.03</ele>
        <time>2011-08-20T11:39:17Z</time>
      </trkpt>
      <trkpt lat="45.16537" lon="5.62922">
        <ele>1209</ele>
        <time>2011-08-20T11:39:30Z</time>
      </trkpt>
      <trkpt lat="45.16536" lon="5.62925">
        <ele>1209.48</ele>
        <time>2011-08-20T11:40:02Z</time>
      </trkpt>
      <trkpt lat="45.16532" lon="5.62952">
        <ele>1209</ele>
        <time>2011-08-20T11:40:15Z</time>
      </trkpt>
      <trkpt lat="45.16515" lon="5.62963">
        <ele>1209.48</ele>
        <time>2011-08-20T11:40:27Z</time>
      </trkpt>
      <trkpt lat="45.16515" lon="5.62964">
        <ele>1209</ele>
        <time>2011-08-20T11:40:38Z</time>
      </trkpt>
      <trkpt lat="45.16513" lon="5.6297">
        <ele>1209.48</ele>
        <time>2011-08-20T11:41:03Z</time>
      </trkpt>
      <trkpt lat="45.16508" lon="5.62975">
        <ele>1209.48</ele>
        <time>2011-08-20T11:41:06Z</time>
      </trkpt>
      <trkpt lat="45.16495" lon="5.63001">
        <ele>1210.92</ele>
        <time>2011-08-20T11:41:19Z</time>
      </trkpt>
      <trkpt lat="45.16493" lon="5.63005">
        <ele>1211.88</ele>
        <time>2011-08-20T11:41:22Z</time>
      </trkpt>
      <trkpt lat="45.16491" lon="5.63008">
        <ele>1211.88</ele>
        <time>2011-08-20T11:41:24Z</time>
      </trkpt>
      <trkpt lat="45.16474" lon="5.63019">
        <ele>1214.28</ele>
        <time>2011-08-20T11:41:39Z</time>
      </trkpt>
      <trkpt lat="45.16447" lon="5.63017">
        <ele>1216.21</ele>
        <time>2011-08-20T11:41:58Z</time>
      </trkpt>
      <trkpt lat="45.16426" lon="5.63011">
        <ele>1216.69</ele>
        <time>2011-08-20T11:42:11Z</time>
      </trkpt>
      <trkpt lat="45.16405" lon="5.63007">
        <ele>1218.13</ele>
        <time>2011-08-20T11:42:24Z</time>
      </trkpt>
      <trkpt lat="45.16388" lon="5.62997">
        <ele>1219.09</ele>
        <time>2011-08-20T11:42:35Z</time>
      </trkpt>
      <trkpt lat="45.16381" lon="5.62992">
        <ele>1220.53</ele>
        <time>2011-08-20T11:42:41Z</time>
      </trkpt>
      <trkpt lat="45.16375" lon="5.62989">
        <ele>1221.01</ele>
        <time>2011-08-20T11:42:46Z</time>
      </trkpt>
      <trkpt lat="45.16373" lon="5.62988">
        <ele>1221.01</ele>
        <time>2011-08-20T11:42:48Z</time>
      </trkpt>
      <trkpt lat="45.16372" lon="5.62986">
        <ele>1221.01</ele>
        <time>2011-08-20T11:42:50Z</time>
      </trkpt>
      <trkpt lat="45.1637" lon="5.62983">
        <ele>1221.49</ele>
        <time>2011-08-20T11:42:53Z</time>
      </trkpt>
      <trkpt lat="45.16365" lon="5.62981">
        <ele>1222.45</ele>
        <time>2011-08-20T11:42:58Z</time>
      </trkpt>
      <trkpt lat="45.16353" lon="5.62981">
        <ele>1223.9</ele>
        <time>2011-08-20T11:43:09Z</time>
      </trkpt>
      <trkpt lat="45.16339" lon="5.62978">
        <ele>1225.34</ele>
        <time>2011-08-20T11:43:19Z</time>
      </trkpt>
      <trkpt lat="45.16324" lon="5.62979">
        <ele>1226.3</ele>
        <time>2011-08-20T11:43:27Z</time>
      </trkpt>
      <trkpt lat="45.16316" lon="5.6298">
        <ele>1227.26</ele>
        <time>2011-08-20T11:43:31Z</time>
      </trkpt>
      <trkpt lat="45.16312" lon="5.62978">
        <ele>1228.22</ele>
        <time>2011-08-20T11:43:35Z</time>
      </trkpt>
      <trkpt lat="45.16303" lon="5.62979">
        <ele>1229.18</ele>
        <time>2011-08-20T11:43:42Z</time>
      </trkpt>
      <trkpt lat="45.163" lon="5.62981">
        <ele>1229.18</ele>
        <time>2011-08-20T11:43:44Z</time>
      </trkpt>
      <trkpt lat="45.16286" lon="5.62983">
        <ele>1231.11</ele>
        <time>2011-08-20T11:43:54Z</time>
      </trkpt>
      <trkpt lat="45.16275" lon="5.62985">
        <ele>1232.55</ele>
        <time>2011-08-20T11:44:03Z</time>
      </trkpt>
      <trkpt lat="45.16269" lon="5.62985">
        <ele>1233.03</ele>
        <time>2011-08-20T11:44:08Z</time>
      </trkpt>
      <trkpt lat="45.16267" lon="5.62985">
        <ele>1233.51</ele>
        <time>2011-08-20T11:44:10Z</time>
      </trkpt>
      <trkpt lat="45.16265" lon="5.62987">
        <ele>1233.51</ele>
        <time>2011-08-20T11:44:13Z</time>
      </trkpt>
      <trkpt lat="45.16261" lon="5.62988">
        <ele>1234.47</ele>
        <time>2011-08-20T11:44:16Z</time>
      </trkpt>
      <trkpt lat="45.16255" lon="5.62986">
        <ele>1234.95</ele>
        <time>2011-08-20T11:44:20Z</time>
      </trkpt>
      <trkpt lat="45.16248" lon="5.62987">
        <ele>1235.43</ele>
        <time>2011-08-20T11:44:26Z</time>
      </trkpt>
      <trkpt lat="45.1624" lon="5.62993">
        <ele>1237.35</ele>
        <time>2011-08-20T11:44:35Z</time>
      </trkpt>
      <trkpt lat="45.16237" lon="5.62994">
        <ele>1238.32</ele>
        <time>2011-08-20T11:44:38Z</time>
      </trkpt>
      <trkpt lat="45.16225" lon="5.62997">
        <ele>1241.68</ele>
        <time>2011-08-20T11:44:47Z</time>
      </trkpt>
      <trkpt lat="45.16212" lon="5.63001">
        <ele>1244.56</ele>
        <time>2011-08-20T11:44:59Z</time>
      </trkpt>
      <trkpt lat="45.1621" lon="5.63002">
        <ele>1245.53</ele>
        <time>2011-08-20T11:45:01Z</time>
      </trkpt>
      <trkpt lat="45.16197" lon="5.63011">
        <ele>1247.93</ele>
        <time>2011-08-20T11:45:12Z</time>
      </trkpt>
      <trkpt lat="45.1618" lon="5.63018">
        <ele>1251.29</ele>
        <time>2011-08-20T11:45:27Z</time>
      </trkpt>
      <trkpt lat="45.16171" lon="5.63018">
        <ele>1253.7</ele>
        <time>2011-08-20T11:45:34Z</time>
      </trkpt>
      <trkpt lat="45.16167" lon="5.6302">
        <ele>1254.18</ele>
        <time>2011-08-20T11:45:38Z</time>
      </trkpt>
      <trkpt lat="45.16163" lon="5.6302">
        <ele>1254.66</ele>
        <time>2011-08-20T11:45:41Z</time>
      </trkpt>
      <trkpt lat="45.16158" lon="5.63026">
        <ele>1255.62</ele>
        <time>2011-08-20T11:45:47Z</time>
      </trkpt>
      <trkpt lat="45.16167" lon="5.63033">
        <ele>1256.1</ele>
        <time>2011-08-20T11:45:55Z</time>
      </trkpt>
      <trkpt lat="45.16187" lon="5.63043">
        <ele>1257.06</ele>
        <time>2011-08-20T11:46:09Z</time>
      </trkpt>
      <trkpt lat="45.16203" lon="5.63052">
        <ele>1258.5</ele>
        <time>2011-08-20T11:46:21Z</time>
      </trkpt>
      <trkpt lat="45.16209" lon="5.63056">
        <ele>1258.02</ele>
        <time>2011-08-20T11:46:26Z</time>
      </trkpt>
      <trkpt lat="45.16221" lon="5.6306">
        <ele>1258.98</ele>
        <time>2011-08-20T11:46:32Z</time>
      </trkpt>
      <trkpt lat="45.16227" lon="5.63063">
        <ele>1258.5</ele>
        <time>2011-08-20T11:46:35Z</time>
      </trkpt>
      <trkpt lat="45.16246" lon="5.63073">
        <ele>1258.5</ele>
        <time>2011-08-20T11:46:46Z</time>
      </trkpt>
      <trkpt lat="45.1627" lon="5.63078">
        <ele>1259.46</ele>
        <time>2011-08-20T11:46:57Z</time>
      </trkpt>
      <trkpt lat="45.16272" lon="5.63079">
        <ele>1258.98</ele>
        <time>2011-08-20T11:47:10Z</time>
      </trkpt>
      <trkpt lat="45.16272" lon="5.6308">
        <ele>1258.98</ele>
        <time>2011-08-20T11:47:12Z</time>
      </trkpt>
      <trkpt lat="45.16275" lon="5.63081">
        <ele>1259.46</ele>
        <time>2011-08-20T11:47:15Z</time>
      </trkpt>
      <trkpt lat="45.16288" lon="5.63086">
        <ele>1259.46</ele>
        <time>2011-08-20T11:47:25Z</time>
      </trkpt>
      <trkpt lat="45.16288" lon="5.63086">
        <ele>1258.98</ele>
        <time>2011-08-20T11:47:47Z</time>
      </trkpt>
      <trkpt lat="45.16288" lon="5.63086">
        <ele>1258.98</ele>
        <time>2011-08-20T11:47:54Z</time>
      </trkpt>
      <trkpt lat="45.16303" lon="5.63094">
        <ele>1258.5</ele>
        <time>2011-08-20T11:47:59Z</time>
      </trkpt>
      <trkpt lat="45.16307" lon="5.63096">
        <ele>1258.5</ele>
        <time>2011-08-20T11:48:00Z</time>
      </trkpt>
      <trkpt lat="45.16312" lon="5.63098">
        <ele>1258.02</ele>
        <time>2011-08-20T11:48:01Z</time>
      </trkpt>
      <trkpt lat="45.16317" lon="5.63099">
        <ele>1257.54</ele>
        <time>2011-08-20T11:48:02Z</time>
      </trkpt>
      <trkpt lat="45.16321" lon="5.63102">
        <ele>1257.06</ele>
        <time>2011-08-20T11:48:03Z</time>
      </trkpt>
      <trkpt lat="45.16326" lon="5.63106">
        <ele>1256.1</ele>
        <time>2011-08-20T11:48:04Z</time>
      </trkpt>
      <trkpt lat="45.16332" lon="5.63111">
        <ele>1255.62</ele>
        <time>2011-08-20T11:48:05Z</time>
      </trkpt>
      <trkpt lat="45.16338" lon="5.63115">
        <ele>1253.7</ele>
        <time>2011-08-20T11:48:06Z</time>
      </trkpt>
      <trkpt lat="45.16359" lon="5.63129">
        <ele>1251.29</ele>
        <time>2011-08-20T11:48:13Z</time>
      </trkpt>
      <trkpt lat="45.16361" lon="5.6313">
        <ele>1251.29</ele>
        <time>2011-08-20T11:48:33Z</time>
      </trkpt>
      <trkpt lat="45.16383" lon="5.63153">
        <ele>1249.37</ele>
        <time>2011-08-20T11:48:45Z</time>
      </trkpt>
      <trkpt lat="45.16385" lon="5.63153">
        <ele>1250.33</ele>
        <time>2011-08-20T11:48:46Z</time>
      </trkpt>
      <trkpt lat="45.16386" lon="5.63153">
        <ele>1250.33</ele>
        <time>2011-08-20T11:48:56Z</time>
      </trkpt>
      <trkpt lat="45.16387" lon="5.63154">
        <ele>1249.85</ele>
        <time>2011-08-20T11:49:09Z</time>
      </trkpt>
      <trkpt lat="45.16388" lon="5.63156">
        <ele>1249.85</ele>
        <time>2011-08-20T11:49:10Z</time>
      </trkpt>
      <trkpt lat="45.16391" lon="5.63159">
        <ele>1249.85</ele>
        <time>2011-08-20T11:49:11Z</time>
      </trkpt>
      <trkpt lat="45.16393" lon="5.63161">
        <ele>1249.85</ele>
        <time>2011-08-20T11:49:12Z</time>
      </trkpt>
      <trkpt lat="45.16396" lon="5.63163">
        <ele>1249.37</ele>
        <time>2011-08-20T11:49:13Z</time>
      </trkpt>
      <trkpt lat="45.16403" lon="5.63167">
        <ele>1248.41</ele>
        <time>2011-08-20T11:49:15Z</time>
      </trkpt>
      <trkpt lat="45.16415" lon="5.63174">
        <ele>1246.97</ele>
        <time>2011-08-20T11:49:19Z</time>
      </trkpt>
      <trkpt lat="45.16418" lon="5.63177">
        <ele>1246.01</ele>
        <time>2011-08-20T11:49:20Z</time>
      </trkpt>
      <trkpt lat="45.16426" lon="5.63182">
        <ele>1245.04</ele>
        <time>2011-08-20T11:49:22Z</time>
      </trkpt>
      <trkpt lat="45.16433" lon="5.63187">
        <ele>1243.6</ele>
        <time>2011-08-20T11:49:24Z</time>
      </trkpt>
      <trkpt lat="45.16436" lon="5.6319">
        <ele>1242.64</ele>
        <time>2011-08-20T11:49:25Z</time>
      </trkpt>
      <trkpt lat="45.16438" lon="5.63193">
        <ele>1243.12</ele>
        <time>2011-08-20T11:49:26Z</time>
      </trkpt>
      <trkpt lat="45.16441" lon="5.63197">
        <ele>1242.16</ele>
        <time>2011-08-20T11:49:27Z</time>
      </trkpt>
      <trkpt lat="45.16442" lon="5.63202">
        <ele>1242.16</ele>
        <time>2011-08-20T11:49:28Z</time>
      </trkpt>
      <trkpt lat="45.16445" lon="5.63205">
        <ele>1242.16</ele>
        <time>2011-08-20T11:49:29Z</time>
      </trkpt>
      <trkpt lat="45.16448" lon="5.63206">
        <ele>1241.68</ele>
        <time>2011-08-20T11:49:30Z</time>
      </trkpt>
      <trkpt lat="45.16453" lon="5.6321">
        <ele>1240.72</ele>
        <time>2011-08-20T11:49:31Z</time>
      </trkpt>
      <trkpt lat="45.16457" lon="5.63214">
        <ele>1240.72</ele>
        <time>2011-08-20T11:49:32Z</time>
      </trkpt>
      <trkpt lat="45.16461" lon="5.63218">
        <ele>1240.24</ele>
        <time>2011-08-20T11:49:33Z</time>
      </trkpt>
      <trkpt lat="45.16489" lon="5.63245">
        <ele>1236.87</ele>
        <time>2011-08-20T11:49:42Z</time>
      </trkpt>
      <trkpt lat="45.16494" lon="5.63251">
        <ele>1234.95</ele>
        <time>2011-08-20T11:49:44Z</time>
      </trkpt>
      <trkpt lat="45.16505" lon="5.63262">
        <ele>1231.59</ele>
        <time>2011-08-20T11:49:48Z</time>
      </trkpt>
      <trkpt lat="45.16531" lon="5.63268">
        <ele>1229.18</ele>
        <time>2011-08-20T11:49:53Z</time>
      </trkpt>
      <trkpt lat="45.1654" lon="5.63272">
        <ele>1228.22</ele>
        <time>2011-08-20T11:49:55Z</time>
      </trkpt>
      <trkpt lat="45.16547" lon="5.63283">
        <ele>1227.74</ele>
        <time>2011-08-20T11:49:58Z</time>
      </trkpt>
      <trkpt lat="45.16548" lon="5.63284">
        <ele>1227.74</ele>
        <time>2011-08-20T11:50:09Z</time>
      </trkpt>
      <trkpt lat="45.16548" lon="5.63284">
        <ele>1228.7</ele>
        <time>2011-08-20T11:50:36Z</time>
      </trkpt>
      <trkpt lat="45.16553" lon="5.63289">
        <ele>1227.74</ele>
        <time>2011-08-20T11:50:47Z</time>
      </trkpt>
      <trkpt lat="45.16555" lon="5.63291">
        <ele>1227.74</ele>
        <time>2011-08-20T11:50:48Z</time>
      </trkpt>
      <trkpt lat="45.16558" lon="5.63291">
        <ele>1227.74</ele>
        <time>2011-08-20T11:50:49Z</time>
      </trkpt>
      <trkpt lat="45.16576" lon="5.63284">
        <ele>1227.74</ele>
        <time>2011-08-20T11:50:54Z</time>
      </trkpt>
      <trkpt lat="45.1658" lon="5.63282">
        <ele>1227.26</ele>
        <time>2011-08-20T11:50:55Z</time>
      </trkpt>
    </trkseg>
  </trk>
</gpx>